<?xml version="1.0" encoding="UTF-8" standalone="no" ?>
<gpx xmlns="http://www.topografix.com/GPX/1/1" xmlns:xsi="http://www.w3.org/2001/XMLSchema-instance" xsi:schemaLocation="http://www.topografix.com/GPX/1/1 http://www.topografix.com/GPX/1/1/gpx.xsd" version="1.1" creator="VisuGPX - https://www.visugpx.com">
  <metadata>
    <name>VTT - Annot / Aurent</name>
    <desc><![CDATA[VTT - Annot / Argenton / Aurent - Relevé terrain: 39 km /   1 570 m

CR ASCVTT ici: <>]]></desc>
  </metadata>
  <trk>
    <name><![CDATA[VTT - Annot / Aurent_1]]></name>
    <trkseg>
      <trkpt lat="43.96595" lon="6.66714">
        <ele>700.2</ele>
        <time>2012-10-20T07:27:37Z</time>
      </trkpt>
      <trkpt lat="43.96601" lon="6.66715">
        <ele>699.4</ele>
        <time>2012-10-20T07:27:43Z</time>
      </trkpt>
      <trkpt lat="43.96608" lon="6.66714">
        <ele>698.1</ele>
        <time>2012-10-20T07:27:49Z</time>
      </trkpt>
      <trkpt lat="43.96614" lon="6.6671">
        <ele>697.7</ele>
        <time>2012-10-20T07:27:53Z</time>
      </trkpt>
      <trkpt lat="43.96622" lon="6.66713">
        <ele>698.6</ele>
        <time>2012-10-20T07:27:59Z</time>
      </trkpt>
      <trkpt lat="43.96652" lon="6.66703">
        <ele>709.1</ele>
        <time>2012-10-20T07:28:13Z</time>
      </trkpt>
      <trkpt lat="43.96682" lon="6.66682">
        <ele>722.8</ele>
        <time>2012-10-20T07:28:27Z</time>
      </trkpt>
      <trkpt lat="43.96693" lon="6.66662">
        <ele>719.6</ele>
        <time>2012-10-20T07:28:34Z</time>
      </trkpt>
      <trkpt lat="43.96729" lon="6.66618">
        <ele>707.1</ele>
        <time>2012-10-20T07:28:51Z</time>
      </trkpt>
      <trkpt lat="43.96822" lon="6.6653">
        <ele>706.8</ele>
        <time>2012-10-20T07:29:27Z</time>
      </trkpt>
      <trkpt lat="43.96841" lon="6.66499">
        <ele>704.5</ele>
        <time>2012-10-20T07:29:36Z</time>
      </trkpt>
      <trkpt lat="43.96915" lon="6.66317">
        <ele>706</ele>
        <time>2012-10-20T07:30:19Z</time>
      </trkpt>
      <trkpt lat="43.96951" lon="6.66205">
        <ele>709</ele>
        <time>2012-10-20T07:30:44Z</time>
      </trkpt>
      <trkpt lat="43.96965" lon="6.66179">
        <ele>710.7</ele>
        <time>2012-10-20T07:30:51Z</time>
      </trkpt>
      <trkpt lat="43.97" lon="6.6613">
        <ele>711.7</ele>
        <time>2012-10-20T07:31:06Z</time>
      </trkpt>
      <trkpt lat="43.9702" lon="6.66112">
        <ele>714.9</ele>
        <time>2012-10-20T07:31:14Z</time>
      </trkpt>
      <trkpt lat="43.97046" lon="6.66095">
        <ele>718.7</ele>
        <time>2012-10-20T07:31:24Z</time>
      </trkpt>
      <trkpt lat="43.97062" lon="6.66082">
        <ele>719.3</ele>
        <time>2012-10-20T07:31:30Z</time>
      </trkpt>
      <trkpt lat="43.97079" lon="6.6606">
        <ele>718.7</ele>
        <time>2012-10-20T07:31:39Z</time>
      </trkpt>
      <trkpt lat="43.97199" lon="6.65817">
        <ele>723.9</ele>
        <time>2012-10-20T07:32:48Z</time>
      </trkpt>
      <trkpt lat="43.97213" lon="6.65794">
        <ele>724.3</ele>
        <time>2012-10-20T07:32:55Z</time>
      </trkpt>
      <trkpt lat="43.97236" lon="6.65745">
        <ele>726</ele>
        <time>2012-10-20T07:33:09Z</time>
      </trkpt>
      <trkpt lat="43.97244" lon="6.65721">
        <ele>727.2</ele>
        <time>2012-10-20T07:33:15Z</time>
      </trkpt>
      <trkpt lat="43.97345" lon="6.65548">
        <ele>730.2</ele>
        <time>2012-10-20T07:34:07Z</time>
      </trkpt>
      <trkpt lat="43.97459" lon="6.65393">
        <ele>730.8</ele>
        <time>2012-10-20T07:34:58Z</time>
      </trkpt>
      <trkpt lat="43.97476" lon="6.65382">
        <ele>731.8</ele>
        <time>2012-10-20T07:35:04Z</time>
      </trkpt>
      <trkpt lat="43.97723" lon="6.65269">
        <ele>758.1</ele>
        <time>2012-10-20T07:36:51Z</time>
      </trkpt>
      <trkpt lat="43.97759" lon="6.65245">
        <ele>762.1</ele>
        <time>2012-10-20T07:37:09Z</time>
      </trkpt>
      <trkpt lat="43.97771" lon="6.65235">
        <ele>764.3</ele>
        <time>2012-10-20T07:37:16Z</time>
      </trkpt>
      <trkpt lat="43.97788" lon="6.65227">
        <ele>764.9</ele>
        <time>2012-10-20T07:37:23Z</time>
      </trkpt>
      <trkpt lat="43.97809" lon="6.65221">
        <ele>767.7</ele>
        <time>2012-10-20T07:37:31Z</time>
      </trkpt>
      <trkpt lat="43.97867" lon="6.65224">
        <ele>779.7</ele>
        <time>2012-10-20T07:37:55Z</time>
      </trkpt>
      <trkpt lat="43.97902" lon="6.65243">
        <ele>778.6</ele>
        <time>2012-10-20T07:38:11Z</time>
      </trkpt>
      <trkpt lat="43.97915" lon="6.65238">
        <ele>780.9</ele>
        <time>2012-10-20T07:38:17Z</time>
      </trkpt>
      <trkpt lat="43.9793" lon="6.65235">
        <ele>778.9</ele>
        <time>2012-10-20T07:38:24Z</time>
      </trkpt>
      <trkpt lat="43.97949" lon="6.6523">
        <ele>781.1</ele>
        <time>2012-10-20T07:38:32Z</time>
      </trkpt>
      <trkpt lat="43.97966" lon="6.65228">
        <ele>781.7</ele>
        <time>2012-10-20T07:38:39Z</time>
      </trkpt>
      <trkpt lat="43.97984" lon="6.65224">
        <ele>780.4</ele>
        <time>2012-10-20T07:38:47Z</time>
      </trkpt>
      <trkpt lat="43.97995" lon="6.65218">
        <ele>778.6</ele>
        <time>2012-10-20T07:38:53Z</time>
      </trkpt>
      <trkpt lat="43.98024" lon="6.65194">
        <ele>777.3</ele>
        <time>2012-10-20T07:39:08Z</time>
      </trkpt>
      <trkpt lat="43.98038" lon="6.65178">
        <ele>784.4</ele>
        <time>2012-10-20T07:39:15Z</time>
      </trkpt>
      <trkpt lat="43.98053" lon="6.65165">
        <ele>789</ele>
        <time>2012-10-20T07:39:22Z</time>
      </trkpt>
      <trkpt lat="43.98083" lon="6.65111">
        <ele>781.5</ele>
        <time>2012-10-20T07:39:47Z</time>
      </trkpt>
      <trkpt lat="43.9811" lon="6.65051">
        <ele>786.3</ele>
        <time>2012-10-20T07:40:09Z</time>
      </trkpt>
      <trkpt lat="43.9812" lon="6.65032">
        <ele>787.8</ele>
        <time>2012-10-20T07:40:17Z</time>
      </trkpt>
      <trkpt lat="43.98131" lon="6.65023">
        <ele>791.5</ele>
        <time>2012-10-20T07:40:23Z</time>
      </trkpt>
      <trkpt lat="43.98144" lon="6.65019">
        <ele>796.3</ele>
        <time>2012-10-20T07:40:30Z</time>
      </trkpt>
      <trkpt lat="43.98196" lon="6.65046">
        <ele>797.6</ele>
        <time>2012-10-20T07:40:54Z</time>
      </trkpt>
      <trkpt lat="43.98212" lon="6.65048">
        <ele>799.6</ele>
        <time>2012-10-20T07:41:00Z</time>
      </trkpt>
      <trkpt lat="43.98228" lon="6.65044">
        <ele>801</ele>
        <time>2012-10-20T07:41:07Z</time>
      </trkpt>
      <trkpt lat="43.98278" lon="6.65027">
        <ele>800.5</ele>
        <time>2012-10-20T07:41:28Z</time>
      </trkpt>
      <trkpt lat="43.98307" lon="6.65019">
        <ele>808.5</ele>
        <time>2012-10-20T07:41:38Z</time>
      </trkpt>
      <trkpt lat="43.98365" lon="6.64991">
        <ele>812.6</ele>
        <time>2012-10-20T07:41:58Z</time>
      </trkpt>
      <trkpt lat="43.98521" lon="6.6488">
        <ele>809.7</ele>
        <time>2012-10-20T07:42:48Z</time>
      </trkpt>
      <trkpt lat="43.98582" lon="6.64848">
        <ele>814.1</ele>
        <time>2012-10-20T07:43:07Z</time>
      </trkpt>
      <trkpt lat="43.98593" lon="6.64854">
        <ele>815.1</ele>
        <time>2012-10-20T07:43:11Z</time>
      </trkpt>
      <trkpt lat="43.98599" lon="6.64873">
        <ele>812.6</ele>
        <time>2012-10-20T07:43:16Z</time>
      </trkpt>
      <trkpt lat="43.98602" lon="6.64878">
        <ele>811.5</ele>
        <time>2012-10-20T07:43:18Z</time>
      </trkpt>
      <trkpt lat="43.98611" lon="6.64885">
        <ele>809.5</ele>
        <time>2012-10-20T07:43:23Z</time>
      </trkpt>
      <trkpt lat="43.98669" lon="6.64881">
        <ele>808.8</ele>
        <time>2012-10-20T07:43:41Z</time>
      </trkpt>
      <trkpt lat="43.98702" lon="6.64884">
        <ele>812.7</ele>
        <time>2012-10-20T07:43:52Z</time>
      </trkpt>
      <trkpt lat="43.98723" lon="6.64882">
        <ele>812.4</ele>
        <time>2012-10-20T07:43:58Z</time>
      </trkpt>
      <trkpt lat="43.98743" lon="6.64881">
        <ele>813.8</ele>
        <time>2012-10-20T07:44:04Z</time>
      </trkpt>
      <trkpt lat="43.98765" lon="6.64875">
        <ele>813.1</ele>
        <time>2012-10-20T07:44:10Z</time>
      </trkpt>
      <trkpt lat="43.98786" lon="6.64862">
        <ele>811.5</ele>
        <time>2012-10-20T07:44:16Z</time>
      </trkpt>
      <trkpt lat="43.98804" lon="6.64839">
        <ele>809.7</ele>
        <time>2012-10-20T07:44:23Z</time>
      </trkpt>
      <trkpt lat="43.9882" lon="6.64814">
        <ele>805.6</ele>
        <time>2012-10-20T07:44:30Z</time>
      </trkpt>
      <trkpt lat="43.98838" lon="6.64803">
        <ele>805.9</ele>
        <time>2012-10-20T07:44:36Z</time>
      </trkpt>
      <trkpt lat="43.98844" lon="6.64806">
        <ele>806.6</ele>
        <time>2012-10-20T07:44:38Z</time>
      </trkpt>
      <trkpt lat="43.98841" lon="6.64815">
        <ele>810.2</ele>
        <time>2012-10-20T07:44:42Z</time>
      </trkpt>
      <trkpt lat="43.98831" lon="6.64833">
        <ele>814.1</ele>
        <time>2012-10-20T07:44:49Z</time>
      </trkpt>
      <trkpt lat="43.98834" lon="6.64847">
        <ele>816.8</ele>
        <time>2012-10-20T07:44:55Z</time>
      </trkpt>
      <trkpt lat="43.98835" lon="6.64868">
        <ele>822.8</ele>
        <time>2012-10-20T07:45:03Z</time>
      </trkpt>
      <trkpt lat="43.98833" lon="6.64871">
        <ele>825.4</ele>
        <time>2012-10-20T07:45:05Z</time>
      </trkpt>
      <trkpt lat="43.98824" lon="6.64881">
        <ele>826.5</ele>
        <time>2012-10-20T07:45:12Z</time>
      </trkpt>
      <trkpt lat="43.98819" lon="6.64882">
        <ele>825.9</ele>
        <time>2012-10-20T07:45:16Z</time>
      </trkpt>
      <trkpt lat="43.98812" lon="6.64886">
        <ele>829.2</ele>
        <time>2012-10-20T07:45:22Z</time>
      </trkpt>
      <trkpt lat="43.98787" lon="6.6492">
        <ele>833.3</ele>
        <time>2012-10-20T07:45:39Z</time>
      </trkpt>
      <trkpt lat="43.98779" lon="6.64924">
        <ele>832.5</ele>
        <time>2012-10-20T07:45:43Z</time>
      </trkpt>
      <trkpt lat="43.98775" lon="6.64929">
        <ele>832</ele>
        <time>2012-10-20T07:45:48Z</time>
      </trkpt>
      <trkpt lat="43.98776" lon="6.64933">
        <ele>813</ele>
        <time>2012-10-20T07:48:31Z</time>
      </trkpt>
      <trkpt lat="43.98777" lon="6.64935">
        <ele>815.2</ele>
        <time>2012-10-20T07:48:33Z</time>
      </trkpt>
      <trkpt lat="43.98783" lon="6.64936">
        <ele>819.5</ele>
        <time>2012-10-20T07:48:40Z</time>
      </trkpt>
      <trkpt lat="43.98785" lon="6.64935">
        <ele>823.2</ele>
        <time>2012-10-20T07:48:44Z</time>
      </trkpt>
      <trkpt lat="43.98791" lon="6.64938">
        <ele>823.7</ele>
        <time>2012-10-20T07:48:49Z</time>
      </trkpt>
      <trkpt lat="43.98798" lon="6.64936">
        <ele>825.5</ele>
        <time>2012-10-20T07:48:52Z</time>
      </trkpt>
      <trkpt lat="43.98799" lon="6.64934">
        <ele>827.4</ele>
        <time>2012-10-20T07:48:55Z</time>
      </trkpt>
      <trkpt lat="43.98804" lon="6.64935">
        <ele>830.9</ele>
        <time>2012-10-20T07:48:59Z</time>
      </trkpt>
      <trkpt lat="43.98812" lon="6.64932">
        <ele>833.4</ele>
        <time>2012-10-20T07:49:03Z</time>
      </trkpt>
      <trkpt lat="43.98818" lon="6.64933">
        <ele>833.7</ele>
        <time>2012-10-20T07:49:07Z</time>
      </trkpt>
      <trkpt lat="43.98828" lon="6.6493">
        <ele>835.7</ele>
        <time>2012-10-20T07:49:12Z</time>
      </trkpt>
      <trkpt lat="43.98836" lon="6.64935">
        <ele>839.1</ele>
        <time>2012-10-20T07:49:17Z</time>
      </trkpt>
      <trkpt lat="43.9883" lon="6.64943">
        <ele>842.7</ele>
        <time>2012-10-20T07:49:22Z</time>
      </trkpt>
      <trkpt lat="43.9883" lon="6.64944">
        <ele>842</ele>
        <time>2012-10-20T07:49:23Z</time>
      </trkpt>
      <trkpt lat="43.98816" lon="6.64948">
        <ele>841</ele>
        <time>2012-10-20T07:49:30Z</time>
      </trkpt>
      <trkpt lat="43.98776" lon="6.64976">
        <ele>839.6</ele>
        <time>2012-10-20T07:49:49Z</time>
      </trkpt>
      <trkpt lat="43.98774" lon="6.64978">
        <ele>840.1</ele>
        <time>2012-10-20T07:49:50Z</time>
      </trkpt>
      <trkpt lat="43.98779" lon="6.64987">
        <ele>844.3</ele>
        <time>2012-10-20T07:49:55Z</time>
      </trkpt>
      <trkpt lat="43.9878" lon="6.64987">
        <ele>845</ele>
        <time>2012-10-20T07:49:56Z</time>
      </trkpt>
      <trkpt lat="43.98792" lon="6.6499">
        <ele>848.8</ele>
        <time>2012-10-20T07:50:02Z</time>
      </trkpt>
      <trkpt lat="43.98801" lon="6.6499">
        <ele>848.6</ele>
        <time>2012-10-20T07:50:08Z</time>
      </trkpt>
      <trkpt lat="43.98811" lon="6.64987">
        <ele>849.3</ele>
        <time>2012-10-20T07:50:14Z</time>
      </trkpt>
      <trkpt lat="43.98866" lon="6.6499">
        <ele>848.5</ele>
        <time>2012-10-20T07:50:41Z</time>
      </trkpt>
      <trkpt lat="43.9888" lon="6.64988">
        <ele>849.4</ele>
        <time>2012-10-20T07:50:47Z</time>
      </trkpt>
      <trkpt lat="43.98891" lon="6.6498">
        <ele>852.1</ele>
        <time>2012-10-20T07:50:53Z</time>
      </trkpt>
      <trkpt lat="43.98906" lon="6.64974">
        <ele>851.7</ele>
        <time>2012-10-20T07:51:01Z</time>
      </trkpt>
      <trkpt lat="43.98942" lon="6.64951">
        <ele>859.9</ele>
        <time>2012-10-20T07:51:26Z</time>
      </trkpt>
      <trkpt lat="43.98951" lon="6.64953">
        <ele>863.5</ele>
        <time>2012-10-20T07:51:31Z</time>
      </trkpt>
      <trkpt lat="43.98974" lon="6.64955">
        <ele>867.5</ele>
        <time>2012-10-20T07:51:43Z</time>
      </trkpt>
      <trkpt lat="43.98983" lon="6.64955">
        <ele>869.5</ele>
        <time>2012-10-20T07:51:48Z</time>
      </trkpt>
      <trkpt lat="43.98986" lon="6.64956">
        <ele>869.6</ele>
        <time>2012-10-20T07:51:50Z</time>
      </trkpt>
      <trkpt lat="43.98996" lon="6.64954">
        <ele>870.3</ele>
        <time>2012-10-20T07:51:57Z</time>
      </trkpt>
      <trkpt lat="43.98997" lon="6.64953">
        <ele>871.5</ele>
        <time>2012-10-20T07:51:58Z</time>
      </trkpt>
      <trkpt lat="43.99037" lon="6.64936">
        <ele>868.2</ele>
        <time>2012-10-20T07:52:18Z</time>
      </trkpt>
      <trkpt lat="43.99047" lon="6.64939">
        <ele>869.5</ele>
        <time>2012-10-20T07:52:25Z</time>
      </trkpt>
      <trkpt lat="43.99058" lon="6.64946">
        <ele>868.8</ele>
        <time>2012-10-20T07:52:31Z</time>
      </trkpt>
      <trkpt lat="43.99067" lon="6.64949">
        <ele>870.2</ele>
        <time>2012-10-20T07:52:35Z</time>
      </trkpt>
      <trkpt lat="43.99074" lon="6.64956">
        <ele>870.8</ele>
        <time>2012-10-20T07:52:40Z</time>
      </trkpt>
      <trkpt lat="43.99073" lon="6.64962">
        <ele>875.2</ele>
        <time>2012-10-20T07:52:43Z</time>
      </trkpt>
      <trkpt lat="43.99068" lon="6.64968">
        <ele>878.5</ele>
        <time>2012-10-20T07:52:47Z</time>
      </trkpt>
      <trkpt lat="43.99051" lon="6.64979">
        <ele>877</ele>
        <time>2012-10-20T07:52:57Z</time>
      </trkpt>
      <trkpt lat="43.99016" lon="6.65007">
        <ele>878.7</ele>
        <time>2012-10-20T07:53:16Z</time>
      </trkpt>
      <trkpt lat="43.99" lon="6.65013">
        <ele>878.6</ele>
        <time>2012-10-20T07:53:23Z</time>
      </trkpt>
      <trkpt lat="43.98982" lon="6.65017">
        <ele>879.7</ele>
        <time>2012-10-20T07:53:31Z</time>
      </trkpt>
      <trkpt lat="43.98967" lon="6.65031">
        <ele>875.8</ele>
        <time>2012-10-20T07:53:38Z</time>
      </trkpt>
      <trkpt lat="43.98967" lon="6.65033">
        <ele>875.6</ele>
        <time>2012-10-20T07:53:39Z</time>
      </trkpt>
      <trkpt lat="43.98975" lon="6.65036">
        <ele>878.2</ele>
        <time>2012-10-20T07:53:44Z</time>
      </trkpt>
      <trkpt lat="43.98977" lon="6.65035">
        <ele>878.2</ele>
        <time>2012-10-20T07:53:45Z</time>
      </trkpt>
      <trkpt lat="43.98991" lon="6.65026">
        <ele>879.6</ele>
        <time>2012-10-20T07:53:51Z</time>
      </trkpt>
      <trkpt lat="43.98994" lon="6.65027">
        <ele>881.5</ele>
        <time>2012-10-20T07:53:55Z</time>
      </trkpt>
      <trkpt lat="43.99004" lon="6.65028">
        <ele>881</ele>
        <time>2012-10-20T07:54:01Z</time>
      </trkpt>
      <trkpt lat="43.9903" lon="6.65038">
        <ele>887.4</ele>
        <time>2012-10-20T07:54:15Z</time>
      </trkpt>
      <trkpt lat="43.9904" lon="6.65045">
        <ele>891.7</ele>
        <time>2012-10-20T07:54:22Z</time>
      </trkpt>
      <trkpt lat="43.99042" lon="6.65047">
        <ele>892.9</ele>
        <time>2012-10-20T07:54:24Z</time>
      </trkpt>
      <trkpt lat="43.99051" lon="6.65052">
        <ele>893.3</ele>
        <time>2012-10-20T07:54:30Z</time>
      </trkpt>
      <trkpt lat="43.99052" lon="6.65051">
        <ele>891.7</ele>
        <time>2012-10-20T07:54:32Z</time>
      </trkpt>
      <trkpt lat="43.99075" lon="6.65042">
        <ele>891.6</ele>
        <time>2012-10-20T07:54:45Z</time>
      </trkpt>
      <trkpt lat="43.99081" lon="6.65036">
        <ele>894.3</ele>
        <time>2012-10-20T07:54:52Z</time>
      </trkpt>
      <trkpt lat="43.99088" lon="6.65032">
        <ele>895.6</ele>
        <time>2012-10-20T07:54:56Z</time>
      </trkpt>
      <trkpt lat="43.99102" lon="6.65028">
        <ele>896.3</ele>
        <time>2012-10-20T07:55:03Z</time>
      </trkpt>
      <trkpt lat="43.99111" lon="6.65033">
        <ele>897.3</ele>
        <time>2012-10-20T07:55:08Z</time>
      </trkpt>
      <trkpt lat="43.99112" lon="6.65039">
        <ele>902.2</ele>
        <time>2012-10-20T07:55:13Z</time>
      </trkpt>
      <trkpt lat="43.99101" lon="6.65045">
        <ele>913.5</ele>
        <time>2012-10-20T07:55:21Z</time>
      </trkpt>
      <trkpt lat="43.99078" lon="6.65067">
        <ele>916.3</ele>
        <time>2012-10-20T07:55:38Z</time>
      </trkpt>
      <trkpt lat="43.99068" lon="6.65085">
        <ele>915.6</ele>
        <time>2012-10-20T07:55:45Z</time>
      </trkpt>
      <trkpt lat="43.99063" lon="6.65099">
        <ele>916.7</ele>
        <time>2012-10-20T07:55:51Z</time>
      </trkpt>
      <trkpt lat="43.99055" lon="6.65109">
        <ele>916.7</ele>
        <time>2012-10-20T07:55:57Z</time>
      </trkpt>
      <trkpt lat="43.99043" lon="6.65112">
        <ele>913.2</ele>
        <time>2012-10-20T07:56:06Z</time>
      </trkpt>
      <trkpt lat="43.99037" lon="6.65115">
        <ele>915</ele>
        <time>2012-10-20T07:56:11Z</time>
      </trkpt>
      <trkpt lat="43.99015" lon="6.65134">
        <ele>918.9</ele>
        <time>2012-10-20T07:56:23Z</time>
      </trkpt>
      <trkpt lat="43.99" lon="6.65154">
        <ele>924.1</ele>
        <time>2012-10-20T07:56:32Z</time>
      </trkpt>
      <trkpt lat="43.98994" lon="6.65164">
        <ele>925.9</ele>
        <time>2012-10-20T07:56:36Z</time>
      </trkpt>
      <trkpt lat="43.98974" lon="6.65175">
        <ele>932.3</ele>
        <time>2012-10-20T07:56:49Z</time>
      </trkpt>
      <trkpt lat="43.98964" lon="6.65192">
        <ele>930.6</ele>
        <time>2012-10-20T07:56:56Z</time>
      </trkpt>
      <trkpt lat="43.98954" lon="6.6522">
        <ele>927.5</ele>
        <time>2012-10-20T07:57:09Z</time>
      </trkpt>
      <trkpt lat="43.98936" lon="6.65225">
        <ele>926.7</ele>
        <time>2012-10-20T07:57:23Z</time>
      </trkpt>
      <trkpt lat="43.98917" lon="6.65238">
        <ele>930.8</ele>
        <time>2012-10-20T07:57:36Z</time>
      </trkpt>
      <trkpt lat="43.98906" lon="6.65244">
        <ele>931.4</ele>
        <time>2012-10-20T07:57:43Z</time>
      </trkpt>
      <trkpt lat="43.98897" lon="6.65249">
        <ele>932.7</ele>
        <time>2012-10-20T07:57:50Z</time>
      </trkpt>
      <trkpt lat="43.98883" lon="6.65261">
        <ele>933.9</ele>
        <time>2012-10-20T07:57:57Z</time>
      </trkpt>
      <trkpt lat="43.98874" lon="6.65278">
        <ele>932.9</ele>
        <time>2012-10-20T07:58:04Z</time>
      </trkpt>
      <trkpt lat="43.9887" lon="6.65291">
        <ele>932.4</ele>
        <time>2012-10-20T07:58:10Z</time>
      </trkpt>
      <trkpt lat="43.98864" lon="6.65306">
        <ele>935.6</ele>
        <time>2012-10-20T07:58:18Z</time>
      </trkpt>
      <trkpt lat="43.98857" lon="6.65316">
        <ele>941.9</ele>
        <time>2012-10-20T07:58:25Z</time>
      </trkpt>
      <trkpt lat="43.98851" lon="6.65329">
        <ele>947.9</ele>
        <time>2012-10-20T07:58:33Z</time>
      </trkpt>
      <trkpt lat="43.98847" lon="6.65344">
        <ele>944.1</ele>
        <time>2012-10-20T07:58:40Z</time>
      </trkpt>
      <trkpt lat="43.98839" lon="6.65358">
        <ele>942.1</ele>
        <time>2012-10-20T07:58:47Z</time>
      </trkpt>
      <trkpt lat="43.98838" lon="6.65377">
        <ele>937.9</ele>
        <time>2012-10-20T07:58:54Z</time>
      </trkpt>
      <trkpt lat="43.98846" lon="6.65392">
        <ele>937</ele>
        <time>2012-10-20T07:59:02Z</time>
      </trkpt>
      <trkpt lat="43.98849" lon="6.65402">
        <ele>940.6</ele>
        <time>2012-10-20T07:59:08Z</time>
      </trkpt>
      <trkpt lat="43.98863" lon="6.65422">
        <ele>946</ele>
        <time>2012-10-20T07:59:21Z</time>
      </trkpt>
      <trkpt lat="43.98851" lon="6.65448">
        <ele>953.9</ele>
        <time>2012-10-20T07:59:33Z</time>
      </trkpt>
      <trkpt lat="43.98852" lon="6.65452">
        <ele>959.4</ele>
        <time>2012-10-20T07:59:36Z</time>
      </trkpt>
      <trkpt lat="43.98858" lon="6.65454">
        <ele>965.8</ele>
        <time>2012-10-20T07:59:41Z</time>
      </trkpt>
      <trkpt lat="43.98864" lon="6.65459">
        <ele>969.2</ele>
        <time>2012-10-20T07:59:48Z</time>
      </trkpt>
      <trkpt lat="43.98873" lon="6.65466">
        <ele>967.9</ele>
        <time>2012-10-20T07:59:54Z</time>
      </trkpt>
      <trkpt lat="43.98879" lon="6.65468">
        <ele>965.7</ele>
        <time>2012-10-20T07:59:57Z</time>
      </trkpt>
      <trkpt lat="43.98892" lon="6.6547">
        <ele>965.7</ele>
        <time>2012-10-20T08:00:04Z</time>
      </trkpt>
      <trkpt lat="43.98898" lon="6.6547">
        <ele>965.5</ele>
        <time>2012-10-20T08:00:06Z</time>
      </trkpt>
      <trkpt lat="43.98923" lon="6.6548">
        <ele>957.2</ele>
        <time>2012-10-20T08:00:21Z</time>
      </trkpt>
      <trkpt lat="43.98932" lon="6.6548">
        <ele>957.7</ele>
        <time>2012-10-20T08:00:26Z</time>
      </trkpt>
      <trkpt lat="43.98974" lon="6.65476">
        <ele>961.5</ele>
        <time>2012-10-20T08:00:49Z</time>
      </trkpt>
      <trkpt lat="43.98991" lon="6.6547">
        <ele>957.7</ele>
        <time>2012-10-20T08:00:59Z</time>
      </trkpt>
      <trkpt lat="43.99036" lon="6.65445">
        <ele>966.5</ele>
        <time>2012-10-20T08:01:23Z</time>
      </trkpt>
      <trkpt lat="43.99054" lon="6.6544">
        <ele>963</ele>
        <time>2012-10-20T08:01:31Z</time>
      </trkpt>
      <trkpt lat="43.99084" lon="6.65427">
        <ele>968.4</ele>
        <time>2012-10-20T08:01:51Z</time>
      </trkpt>
      <trkpt lat="43.99094" lon="6.6542">
        <ele>970</ele>
        <time>2012-10-20T08:01:56Z</time>
      </trkpt>
      <trkpt lat="43.99103" lon="6.6542">
        <ele>972.8</ele>
        <time>2012-10-20T08:02:03Z</time>
      </trkpt>
      <trkpt lat="43.99116" lon="6.6542">
        <ele>974.1</ele>
        <time>2012-10-20T08:02:10Z</time>
      </trkpt>
      <trkpt lat="43.99128" lon="6.65424">
        <ele>977.1</ele>
        <time>2012-10-20T08:02:17Z</time>
      </trkpt>
      <trkpt lat="43.99142" lon="6.65433">
        <ele>976.9</ele>
        <time>2012-10-20T08:02:24Z</time>
      </trkpt>
      <trkpt lat="43.99156" lon="6.65446">
        <ele>978.2</ele>
        <time>2012-10-20T08:02:34Z</time>
      </trkpt>
      <trkpt lat="43.99157" lon="6.65448">
        <ele>979.1</ele>
        <time>2012-10-20T08:02:36Z</time>
      </trkpt>
      <trkpt lat="43.99167" lon="6.65461">
        <ele>981.8</ele>
        <time>2012-10-20T08:02:45Z</time>
      </trkpt>
      <trkpt lat="43.99174" lon="6.6547">
        <ele>982.5</ele>
        <time>2012-10-20T08:02:51Z</time>
      </trkpt>
      <trkpt lat="43.99182" lon="6.65473">
        <ele>986.6</ele>
        <time>2012-10-20T08:02:58Z</time>
      </trkpt>
      <trkpt lat="43.99187" lon="6.65473">
        <ele>991.7</ele>
        <time>2012-10-20T08:03:05Z</time>
      </trkpt>
      <trkpt lat="43.99197" lon="6.65472">
        <ele>992.7</ele>
        <time>2012-10-20T08:03:11Z</time>
      </trkpt>
      <trkpt lat="43.99201" lon="6.65474">
        <ele>991.7</ele>
        <time>2012-10-20T08:03:13Z</time>
      </trkpt>
      <trkpt lat="43.99207" lon="6.65478">
        <ele>990.5</ele>
        <time>2012-10-20T08:03:17Z</time>
      </trkpt>
      <trkpt lat="43.9921" lon="6.65477">
        <ele>989.4</ele>
        <time>2012-10-20T08:03:19Z</time>
      </trkpt>
      <trkpt lat="43.99222" lon="6.65476">
        <ele>988.4</ele>
        <time>2012-10-20T08:03:24Z</time>
      </trkpt>
      <trkpt lat="43.99234" lon="6.65473">
        <ele>986.1</ele>
        <time>2012-10-20T08:03:30Z</time>
      </trkpt>
      <trkpt lat="43.99236" lon="6.65473">
        <ele>985.5</ele>
        <time>2012-10-20T08:03:31Z</time>
      </trkpt>
      <trkpt lat="43.99246" lon="6.65476">
        <ele>987.6</ele>
        <time>2012-10-20T08:03:38Z</time>
      </trkpt>
      <trkpt lat="43.99262" lon="6.65477">
        <ele>990</ele>
        <time>2012-10-20T08:03:45Z</time>
      </trkpt>
      <trkpt lat="43.9927" lon="6.65483">
        <ele>991.3</ele>
        <time>2012-10-20T08:03:50Z</time>
      </trkpt>
      <trkpt lat="43.9927" lon="6.65492">
        <ele>998.2</ele>
        <time>2012-10-20T08:03:56Z</time>
      </trkpt>
      <trkpt lat="43.99263" lon="6.65495">
        <ele>1004.2</ele>
        <time>2012-10-20T08:04:01Z</time>
      </trkpt>
      <trkpt lat="43.99252" lon="6.65499">
        <ele>1009.8</ele>
        <time>2012-10-20T08:04:10Z</time>
      </trkpt>
      <trkpt lat="43.99243" lon="6.65506">
        <ele>1009.7</ele>
        <time>2012-10-20T08:04:17Z</time>
      </trkpt>
      <trkpt lat="43.9922" lon="6.65513">
        <ele>1016.6</ele>
        <time>2012-10-20T08:04:30Z</time>
      </trkpt>
      <trkpt lat="43.992" lon="6.65526">
        <ele>1021</ele>
        <time>2012-10-20T08:04:42Z</time>
      </trkpt>
      <trkpt lat="43.99176" lon="6.65549">
        <ele>1019.7</ele>
        <time>2012-10-20T08:04:55Z</time>
      </trkpt>
      <trkpt lat="43.99165" lon="6.65551">
        <ele>1018.7</ele>
        <time>2012-10-20T08:05:02Z</time>
      </trkpt>
      <trkpt lat="43.99162" lon="6.65554">
        <ele>1015.6</ele>
        <time>2012-10-20T08:05:07Z</time>
      </trkpt>
      <trkpt lat="43.99155" lon="6.65556">
        <ele>1014.4</ele>
        <time>2012-10-20T08:05:12Z</time>
      </trkpt>
      <trkpt lat="43.99144" lon="6.65563">
        <ele>1014.1</ele>
        <time>2012-10-20T08:05:20Z</time>
      </trkpt>
      <trkpt lat="43.99132" lon="6.65572">
        <ele>1017.5</ele>
        <time>2012-10-20T08:05:26Z</time>
      </trkpt>
      <trkpt lat="43.9911" lon="6.65595">
        <ele>1022.6</ele>
        <time>2012-10-20T08:05:41Z</time>
      </trkpt>
      <trkpt lat="43.99105" lon="6.65608">
        <ele>1023.2</ele>
        <time>2012-10-20T08:05:48Z</time>
      </trkpt>
      <trkpt lat="43.99094" lon="6.65617">
        <ele>1027.8</ele>
        <time>2012-10-20T08:05:55Z</time>
      </trkpt>
      <trkpt lat="43.99088" lon="6.65623">
        <ele>1027.1</ele>
        <time>2012-10-20T08:06:01Z</time>
      </trkpt>
      <trkpt lat="43.99078" lon="6.65632">
        <ele>1024</ele>
        <time>2012-10-20T08:06:09Z</time>
      </trkpt>
      <trkpt lat="43.99069" lon="6.65642">
        <ele>1021.7</ele>
        <time>2012-10-20T08:06:15Z</time>
      </trkpt>
      <trkpt lat="43.99043" lon="6.6568">
        <ele>1016.1</ele>
        <time>2012-10-20T08:06:37Z</time>
      </trkpt>
      <trkpt lat="43.99041" lon="6.65694">
        <ele>1021.8</ele>
        <time>2012-10-20T08:06:45Z</time>
      </trkpt>
      <trkpt lat="43.99046" lon="6.65694">
        <ele>1027.7</ele>
        <time>2012-10-20T08:06:51Z</time>
      </trkpt>
      <trkpt lat="43.99058" lon="6.65688">
        <ele>1028.2</ele>
        <time>2012-10-20T08:06:58Z</time>
      </trkpt>
      <trkpt lat="43.9907" lon="6.65689">
        <ele>1025.3</ele>
        <time>2012-10-20T08:07:04Z</time>
      </trkpt>
      <trkpt lat="43.99087" lon="6.65689">
        <ele>1028.7</ele>
        <time>2012-10-20T08:07:17Z</time>
      </trkpt>
      <trkpt lat="43.99091" lon="6.65689">
        <ele>1032.6</ele>
        <time>2012-10-20T08:07:23Z</time>
      </trkpt>
      <trkpt lat="43.99108" lon="6.65681">
        <ele>1036.1</ele>
        <time>2012-10-20T08:07:36Z</time>
      </trkpt>
      <trkpt lat="43.99118" lon="6.65678">
        <ele>1039.2</ele>
        <time>2012-10-20T08:07:42Z</time>
      </trkpt>
      <trkpt lat="43.99131" lon="6.65678">
        <ele>1040.4</ele>
        <time>2012-10-20T08:07:49Z</time>
      </trkpt>
      <trkpt lat="43.99142" lon="6.65678">
        <ele>1040.3</ele>
        <time>2012-10-20T08:07:55Z</time>
      </trkpt>
      <trkpt lat="43.99154" lon="6.65678">
        <ele>1038.8</ele>
        <time>2012-10-20T08:08:01Z</time>
      </trkpt>
      <trkpt lat="43.99165" lon="6.65676">
        <ele>1036.8</ele>
        <time>2012-10-20T08:08:06Z</time>
      </trkpt>
      <trkpt lat="43.99187" lon="6.65673">
        <ele>1035.9</ele>
        <time>2012-10-20T08:08:19Z</time>
      </trkpt>
      <trkpt lat="43.99196" lon="6.6567">
        <ele>1037.5</ele>
        <time>2012-10-20T08:08:25Z</time>
      </trkpt>
      <trkpt lat="43.99197" lon="6.65669">
        <ele>1038.8</ele>
        <time>2012-10-20T08:08:26Z</time>
      </trkpt>
      <trkpt lat="43.99198" lon="6.6567">
        <ele>1042.6</ele>
        <time>2012-10-20T08:08:29Z</time>
      </trkpt>
      <trkpt lat="43.99238" lon="6.65657">
        <ele>1038.4</ele>
        <time>2012-10-20T08:08:51Z</time>
      </trkpt>
      <trkpt lat="43.99248" lon="6.65657">
        <ele>1039.9</ele>
        <time>2012-10-20T08:08:57Z</time>
      </trkpt>
      <trkpt lat="43.99255" lon="6.65656">
        <ele>1041.8</ele>
        <time>2012-10-20T08:09:02Z</time>
      </trkpt>
      <trkpt lat="43.99259" lon="6.65655">
        <ele>1042.9</ele>
        <time>2012-10-20T08:09:04Z</time>
      </trkpt>
      <trkpt lat="43.99272" lon="6.65658">
        <ele>1047.8</ele>
        <time>2012-10-20T08:09:13Z</time>
      </trkpt>
      <trkpt lat="43.99273" lon="6.65658">
        <ele>1048.3</ele>
        <time>2012-10-20T08:09:14Z</time>
      </trkpt>
      <trkpt lat="43.99281" lon="6.65659">
        <ele>1050.8</ele>
        <time>2012-10-20T08:09:20Z</time>
      </trkpt>
      <trkpt lat="43.99293" lon="6.65656">
        <ele>1050.9</ele>
        <time>2012-10-20T08:09:26Z</time>
      </trkpt>
      <trkpt lat="43.99299" lon="6.65664">
        <ele>1051.6</ele>
        <time>2012-10-20T08:09:32Z</time>
      </trkpt>
      <trkpt lat="43.99296" lon="6.6567">
        <ele>1055.6</ele>
        <time>2012-10-20T08:09:36Z</time>
      </trkpt>
      <trkpt lat="43.99288" lon="6.65676">
        <ele>1057.8</ele>
        <time>2012-10-20T08:09:43Z</time>
      </trkpt>
      <trkpt lat="43.99285" lon="6.65685">
        <ele>1057.1</ele>
        <time>2012-10-20T08:09:51Z</time>
      </trkpt>
      <trkpt lat="43.99274" lon="6.65695">
        <ele>1061.9</ele>
        <time>2012-10-20T08:09:57Z</time>
      </trkpt>
      <trkpt lat="43.99264" lon="6.65709">
        <ele>1064.8</ele>
        <time>2012-10-20T08:10:03Z</time>
      </trkpt>
      <trkpt lat="43.99257" lon="6.65728">
        <ele>1067</ele>
        <time>2012-10-20T08:10:11Z</time>
      </trkpt>
      <trkpt lat="43.99257" lon="6.65744">
        <ele>1068.4</ele>
        <time>2012-10-20T08:10:19Z</time>
      </trkpt>
      <trkpt lat="43.99259" lon="6.65758">
        <ele>1067.8</ele>
        <time>2012-10-20T08:10:26Z</time>
      </trkpt>
      <trkpt lat="43.99257" lon="6.6577">
        <ele>1072.1</ele>
        <time>2012-10-20T08:10:33Z</time>
      </trkpt>
      <trkpt lat="43.99242" lon="6.6579">
        <ele>1086.2</ele>
        <time>2012-10-20T08:10:48Z</time>
      </trkpt>
      <trkpt lat="43.99237" lon="6.65805">
        <ele>1085.5</ele>
        <time>2012-10-20T08:10:55Z</time>
      </trkpt>
      <trkpt lat="43.99228" lon="6.65822">
        <ele>1086.5</ele>
        <time>2012-10-20T08:11:03Z</time>
      </trkpt>
      <trkpt lat="43.99196" lon="6.65864">
        <ele>1086.1</ele>
        <time>2012-10-20T08:11:31Z</time>
      </trkpt>
      <trkpt lat="43.9919" lon="6.65875">
        <ele>1084.3</ele>
        <time>2012-10-20T08:11:37Z</time>
      </trkpt>
      <trkpt lat="43.99186" lon="6.65886">
        <ele>1078.1</ele>
        <time>2012-10-20T08:11:42Z</time>
      </trkpt>
      <trkpt lat="43.99176" lon="6.65897">
        <ele>1081</ele>
        <time>2012-10-20T08:11:48Z</time>
      </trkpt>
      <trkpt lat="43.99166" lon="6.65915">
        <ele>1080.6</ele>
        <time>2012-10-20T08:11:55Z</time>
      </trkpt>
      <trkpt lat="43.9916" lon="6.6593">
        <ele>1083.2</ele>
        <time>2012-10-20T08:12:02Z</time>
      </trkpt>
      <trkpt lat="43.99144" lon="6.65954">
        <ele>1086.6</ele>
        <time>2012-10-20T08:12:16Z</time>
      </trkpt>
      <trkpt lat="43.9914" lon="6.65963">
        <ele>1087.1</ele>
        <time>2012-10-20T08:12:20Z</time>
      </trkpt>
      <trkpt lat="43.9914" lon="6.65971">
        <ele>1088.8</ele>
        <time>2012-10-20T08:12:24Z</time>
      </trkpt>
      <trkpt lat="43.99145" lon="6.65977">
        <ele>1088.6</ele>
        <time>2012-10-20T08:12:31Z</time>
      </trkpt>
      <trkpt lat="43.99148" lon="6.65979">
        <ele>1089.3</ele>
        <time>2012-10-20T08:12:35Z</time>
      </trkpt>
      <trkpt lat="43.99152" lon="6.65982">
        <ele>1091.4</ele>
        <time>2012-10-20T08:12:40Z</time>
      </trkpt>
      <trkpt lat="43.99165" lon="6.65982">
        <ele>1089.6</ele>
        <time>2012-10-20T08:12:46Z</time>
      </trkpt>
      <trkpt lat="43.99186" lon="6.65979">
        <ele>1091.9</ele>
        <time>2012-10-20T08:12:58Z</time>
      </trkpt>
      <trkpt lat="43.99195" lon="6.65975">
        <ele>1099.3</ele>
        <time>2012-10-20T08:13:06Z</time>
      </trkpt>
      <trkpt lat="43.99203" lon="6.65974">
        <ele>1101.3</ele>
        <time>2012-10-20T08:13:11Z</time>
      </trkpt>
      <trkpt lat="43.99223" lon="6.65972">
        <ele>1107.9</ele>
        <time>2012-10-20T08:13:27Z</time>
      </trkpt>
      <trkpt lat="43.99237" lon="6.65969">
        <ele>1110.2</ele>
        <time>2012-10-20T08:13:34Z</time>
      </trkpt>
      <trkpt lat="43.99242" lon="6.65967">
        <ele>1109.5</ele>
        <time>2012-10-20T08:13:36Z</time>
      </trkpt>
      <trkpt lat="43.9928" lon="6.65945">
        <ele>1096.8</ele>
        <time>2012-10-20T08:13:55Z</time>
      </trkpt>
      <trkpt lat="43.99282" lon="6.65936">
        <ele>1100.7</ele>
        <time>2012-10-20T08:14:01Z</time>
      </trkpt>
      <trkpt lat="43.9929" lon="6.6593">
        <ele>1098.4</ele>
        <time>2012-10-20T08:14:06Z</time>
      </trkpt>
      <trkpt lat="43.99296" lon="6.65923">
        <ele>1103.6</ele>
        <time>2012-10-20T08:14:12Z</time>
      </trkpt>
      <trkpt lat="43.99299" lon="6.65922">
        <ele>1102.8</ele>
        <time>2012-10-20T08:14:14Z</time>
      </trkpt>
      <trkpt lat="43.99305" lon="6.65919">
        <ele>1104.2</ele>
        <time>2012-10-20T08:14:21Z</time>
      </trkpt>
      <trkpt lat="43.99318" lon="6.65916">
        <ele>1103</ele>
        <time>2012-10-20T08:14:28Z</time>
      </trkpt>
      <trkpt lat="43.99326" lon="6.65913">
        <ele>1108.2</ele>
        <time>2012-10-20T08:14:36Z</time>
      </trkpt>
      <trkpt lat="43.99339" lon="6.65914">
        <ele>1107.3</ele>
        <time>2012-10-20T08:14:42Z</time>
      </trkpt>
      <trkpt lat="43.99347" lon="6.65912">
        <ele>1107.6</ele>
        <time>2012-10-20T08:14:47Z</time>
      </trkpt>
      <trkpt lat="43.99357" lon="6.65906">
        <ele>1111.2</ele>
        <time>2012-10-20T08:14:55Z</time>
      </trkpt>
      <trkpt lat="43.99379" lon="6.65904">
        <ele>1108.4</ele>
        <time>2012-10-20T08:15:05Z</time>
      </trkpt>
      <trkpt lat="43.9939" lon="6.65906">
        <ele>1111.2</ele>
        <time>2012-10-20T08:15:11Z</time>
      </trkpt>
      <trkpt lat="43.99403" lon="6.65906">
        <ele>1111.3</ele>
        <time>2012-10-20T08:15:19Z</time>
      </trkpt>
      <trkpt lat="43.99409" lon="6.65905">
        <ele>1109.6</ele>
        <time>2012-10-20T08:15:23Z</time>
      </trkpt>
      <trkpt lat="43.9942" lon="6.65907">
        <ele>1108.9</ele>
        <time>2012-10-20T08:15:29Z</time>
      </trkpt>
      <trkpt lat="43.99423" lon="6.65912">
        <ele>1111.5</ele>
        <time>2012-10-20T08:15:33Z</time>
      </trkpt>
      <trkpt lat="43.9943" lon="6.65927">
        <ele>1114.5</ele>
        <time>2012-10-20T08:15:41Z</time>
      </trkpt>
      <trkpt lat="43.99433" lon="6.65936">
        <ele>1116.5</ele>
        <time>2012-10-20T08:15:45Z</time>
      </trkpt>
      <trkpt lat="43.99429" lon="6.65953">
        <ele>1130.4</ele>
        <time>2012-10-20T08:15:54Z</time>
      </trkpt>
      <trkpt lat="43.99416" lon="6.65983">
        <ele>1138.3</ele>
        <time>2012-10-20T08:16:07Z</time>
      </trkpt>
      <trkpt lat="43.99414" lon="6.65991">
        <ele>1140.9</ele>
        <time>2012-10-20T08:16:13Z</time>
      </trkpt>
      <trkpt lat="43.99414" lon="6.65993">
        <ele>1140.3</ele>
        <time>2012-10-20T08:16:14Z</time>
      </trkpt>
      <trkpt lat="43.99404" lon="6.66021">
        <ele>1142.7</ele>
        <time>2012-10-20T08:16:29Z</time>
      </trkpt>
      <trkpt lat="43.99403" lon="6.66025">
        <ele>1146.2</ele>
        <time>2012-10-20T08:16:32Z</time>
      </trkpt>
      <trkpt lat="43.99391" lon="6.66043">
        <ele>1151.2</ele>
        <time>2012-10-20T08:16:42Z</time>
      </trkpt>
      <trkpt lat="43.99388" lon="6.66053">
        <ele>1149</ele>
        <time>2012-10-20T08:16:49Z</time>
      </trkpt>
      <trkpt lat="43.9937" lon="6.66068">
        <ele>1149.2</ele>
        <time>2012-10-20T08:17:02Z</time>
      </trkpt>
      <trkpt lat="43.99368" lon="6.66073">
        <ele>1151.2</ele>
        <time>2012-10-20T08:17:06Z</time>
      </trkpt>
      <trkpt lat="43.99369" lon="6.66082">
        <ele>1154.2</ele>
        <time>2012-10-20T08:17:12Z</time>
      </trkpt>
      <trkpt lat="43.99368" lon="6.66083">
        <ele>1156.4</ele>
        <time>2012-10-20T08:17:14Z</time>
      </trkpt>
      <trkpt lat="43.9937" lon="6.66086">
        <ele>1159.5</ele>
        <time>2012-10-20T08:17:21Z</time>
      </trkpt>
      <trkpt lat="43.99377" lon="6.66086">
        <ele>1161.5</ele>
        <time>2012-10-20T08:17:29Z</time>
      </trkpt>
      <trkpt lat="43.99381" lon="6.66083">
        <ele>1160.9</ele>
        <time>2012-10-20T08:17:32Z</time>
      </trkpt>
      <trkpt lat="43.99401" lon="6.66076">
        <ele>1157.5</ele>
        <time>2012-10-20T08:17:44Z</time>
      </trkpt>
      <trkpt lat="43.99417" lon="6.66076">
        <ele>1152.4</ele>
        <time>2012-10-20T08:17:52Z</time>
      </trkpt>
      <trkpt lat="43.99421" lon="6.66075">
        <ele>1154.3</ele>
        <time>2012-10-20T08:17:54Z</time>
      </trkpt>
      <trkpt lat="43.99428" lon="6.66072">
        <ele>1156.3</ele>
        <time>2012-10-20T08:18:00Z</time>
      </trkpt>
      <trkpt lat="43.99444" lon="6.6607">
        <ele>1151.5</ele>
        <time>2012-10-20T08:18:07Z</time>
      </trkpt>
      <trkpt lat="43.99468" lon="6.66061">
        <ele>1148</ele>
        <time>2012-10-20T08:18:20Z</time>
      </trkpt>
      <trkpt lat="43.99494" lon="6.66055">
        <ele>1138.6</ele>
        <time>2012-10-20T08:18:34Z</time>
      </trkpt>
      <trkpt lat="43.99499" lon="6.66048">
        <ele>1146.9</ele>
        <time>2012-10-20T08:18:41Z</time>
      </trkpt>
      <trkpt lat="43.9951" lon="6.66045">
        <ele>1145.4</ele>
        <time>2012-10-20T08:18:46Z</time>
      </trkpt>
      <trkpt lat="43.99518" lon="6.66039">
        <ele>1148.2</ele>
        <time>2012-10-20T08:18:53Z</time>
      </trkpt>
      <trkpt lat="43.99528" lon="6.66035">
        <ele>1149.3</ele>
        <time>2012-10-20T08:19:00Z</time>
      </trkpt>
      <trkpt lat="43.99545" lon="6.66038">
        <ele>1153.2</ele>
        <time>2012-10-20T08:19:13Z</time>
      </trkpt>
      <trkpt lat="43.99556" lon="6.66039">
        <ele>1154.6</ele>
        <time>2012-10-20T08:19:20Z</time>
      </trkpt>
      <trkpt lat="43.99561" lon="6.66043">
        <ele>1158.8</ele>
        <time>2012-10-20T08:19:27Z</time>
      </trkpt>
      <trkpt lat="43.99567" lon="6.66049">
        <ele>1164.2</ele>
        <time>2012-10-20T08:19:36Z</time>
      </trkpt>
      <trkpt lat="43.99578" lon="6.66054">
        <ele>1164.7</ele>
        <time>2012-10-20T08:19:42Z</time>
      </trkpt>
      <trkpt lat="43.99585" lon="6.6606">
        <ele>1163.9</ele>
        <time>2012-10-20T08:19:48Z</time>
      </trkpt>
      <trkpt lat="43.99599" lon="6.66068">
        <ele>1163.9</ele>
        <time>2012-10-20T08:19:57Z</time>
      </trkpt>
      <trkpt lat="43.9961" lon="6.6607">
        <ele>1167.9</ele>
        <time>2012-10-20T08:20:03Z</time>
      </trkpt>
      <trkpt lat="43.99623" lon="6.66077">
        <ele>1165.7</ele>
        <time>2012-10-20T08:20:11Z</time>
      </trkpt>
      <trkpt lat="43.99634" lon="6.66084">
        <ele>1166.6</ele>
        <time>2012-10-20T08:20:17Z</time>
      </trkpt>
      <trkpt lat="43.99636" lon="6.66089">
        <ele>1168.4</ele>
        <time>2012-10-20T08:20:21Z</time>
      </trkpt>
      <trkpt lat="43.9964" lon="6.66095">
        <ele>1175.7</ele>
        <time>2012-10-20T08:20:27Z</time>
      </trkpt>
      <trkpt lat="43.99636" lon="6.66102">
        <ele>1188.6</ele>
        <time>2012-10-20T08:20:32Z</time>
      </trkpt>
      <trkpt lat="43.99637" lon="6.66107">
        <ele>1191.4</ele>
        <time>2012-10-20T08:20:35Z</time>
      </trkpt>
      <trkpt lat="43.99639" lon="6.66116">
        <ele>1195.9</ele>
        <time>2012-10-20T08:20:40Z</time>
      </trkpt>
      <trkpt lat="43.99647" lon="6.66116">
        <ele>1199</ele>
        <time>2012-10-20T08:20:45Z</time>
      </trkpt>
      <trkpt lat="43.99655" lon="6.66112">
        <ele>1207.4</ele>
        <time>2012-10-20T08:20:52Z</time>
      </trkpt>
      <trkpt lat="43.99701" lon="6.66109">
        <ele>1193.2</ele>
        <time>2012-10-20T08:21:09Z</time>
      </trkpt>
      <trkpt lat="43.99717" lon="6.6611">
        <ele>1186.5</ele>
        <time>2012-10-20T08:21:15Z</time>
      </trkpt>
      <trkpt lat="43.99724" lon="6.66112">
        <ele>1192.3</ele>
        <time>2012-10-20T08:21:21Z</time>
      </trkpt>
      <trkpt lat="43.99743" lon="6.6611">
        <ele>1215.7</ele>
        <time>2012-10-20T08:21:41Z</time>
      </trkpt>
      <trkpt lat="43.99754" lon="6.66115">
        <ele>1211.3</ele>
        <time>2012-10-20T08:21:47Z</time>
      </trkpt>
      <trkpt lat="43.99761" lon="6.66121">
        <ele>1212.1</ele>
        <time>2012-10-20T08:21:52Z</time>
      </trkpt>
      <trkpt lat="43.9976" lon="6.66129">
        <ele>1213.5</ele>
        <time>2012-10-20T08:21:56Z</time>
      </trkpt>
      <trkpt lat="43.99749" lon="6.66134">
        <ele>1221.8</ele>
        <time>2012-10-20T08:22:01Z</time>
      </trkpt>
      <trkpt lat="43.99735" lon="6.66133">
        <ele>1229.6</ele>
        <time>2012-10-20T08:22:10Z</time>
      </trkpt>
      <trkpt lat="43.9973" lon="6.66136">
        <ele>1230.4</ele>
        <time>2012-10-20T08:22:15Z</time>
      </trkpt>
      <trkpt lat="43.99716" lon="6.66139">
        <ele>1229.2</ele>
        <time>2012-10-20T08:22:25Z</time>
      </trkpt>
      <trkpt lat="43.99705" lon="6.66148">
        <ele>1226.7</ele>
        <time>2012-10-20T08:22:35Z</time>
      </trkpt>
      <trkpt lat="43.99707" lon="6.66161">
        <ele>1211.1</ele>
        <time>2012-10-20T08:22:43Z</time>
      </trkpt>
      <trkpt lat="43.99698" lon="6.6617">
        <ele>1210.1</ele>
        <time>2012-10-20T08:22:50Z</time>
      </trkpt>
      <trkpt lat="43.99684" lon="6.66176">
        <ele>1217.1</ele>
        <time>2012-10-20T08:22:56Z</time>
      </trkpt>
      <trkpt lat="43.99663" lon="6.662">
        <ele>1219.3</ele>
        <time>2012-10-20T08:23:11Z</time>
      </trkpt>
      <trkpt lat="43.99637" lon="6.66219">
        <ele>1228.3</ele>
        <time>2012-10-20T08:23:25Z</time>
      </trkpt>
      <trkpt lat="43.99627" lon="6.66229">
        <ele>1227.7</ele>
        <time>2012-10-20T08:23:31Z</time>
      </trkpt>
      <trkpt lat="43.99623" lon="6.6624">
        <ele>1224.1</ele>
        <time>2012-10-20T08:23:36Z</time>
      </trkpt>
      <trkpt lat="43.99615" lon="6.66251">
        <ele>1220.1</ele>
        <time>2012-10-20T08:23:42Z</time>
      </trkpt>
      <trkpt lat="43.99603" lon="6.66257">
        <ele>1223.8</ele>
        <time>2012-10-20T08:23:48Z</time>
      </trkpt>
      <trkpt lat="43.99593" lon="6.66268">
        <ele>1233.4</ele>
        <time>2012-10-20T08:23:54Z</time>
      </trkpt>
      <trkpt lat="43.9961" lon="6.66268">
        <ele>1229.5</ele>
        <time>2012-10-20T08:24:00Z</time>
      </trkpt>
      <trkpt lat="43.99633" lon="6.66262">
        <ele>1220.5</ele>
        <time>2012-10-20T08:24:08Z</time>
      </trkpt>
      <trkpt lat="43.99678" lon="6.66258">
        <ele>1205.4</ele>
        <time>2012-10-20T08:24:32Z</time>
      </trkpt>
      <trkpt lat="43.99685" lon="6.66255">
        <ele>1212.5</ele>
        <time>2012-10-20T08:24:38Z</time>
      </trkpt>
      <trkpt lat="43.99701" lon="6.66259">
        <ele>1220.2</ele>
        <time>2012-10-20T08:24:52Z</time>
      </trkpt>
      <trkpt lat="43.99708" lon="6.66261">
        <ele>1221</ele>
        <time>2012-10-20T08:24:56Z</time>
      </trkpt>
      <trkpt lat="43.99716" lon="6.6626">
        <ele>1224.8</ele>
        <time>2012-10-20T08:25:03Z</time>
      </trkpt>
      <trkpt lat="43.99725" lon="6.66257">
        <ele>1225.7</ele>
        <time>2012-10-20T08:25:08Z</time>
      </trkpt>
      <trkpt lat="43.99727" lon="6.66255">
        <ele>1225.3</ele>
        <time>2012-10-20T08:25:10Z</time>
      </trkpt>
      <trkpt lat="43.99736" lon="6.66251">
        <ele>1227</ele>
        <time>2012-10-20T08:25:18Z</time>
      </trkpt>
      <trkpt lat="43.99746" lon="6.66251">
        <ele>1220.7</ele>
        <time>2012-10-20T08:25:25Z</time>
      </trkpt>
      <trkpt lat="43.99758" lon="6.66252">
        <ele>1217.5</ele>
        <time>2012-10-20T08:25:30Z</time>
      </trkpt>
      <trkpt lat="43.99771" lon="6.66254">
        <ele>1214.9</ele>
        <time>2012-10-20T08:25:36Z</time>
      </trkpt>
      <trkpt lat="43.9978" lon="6.66253">
        <ele>1216.2</ele>
        <time>2012-10-20T08:25:42Z</time>
      </trkpt>
      <trkpt lat="43.99786" lon="6.66256">
        <ele>1217.7</ele>
        <time>2012-10-20T08:25:48Z</time>
      </trkpt>
      <trkpt lat="43.99799" lon="6.66259">
        <ele>1220.4</ele>
        <time>2012-10-20T08:25:56Z</time>
      </trkpt>
      <trkpt lat="43.99805" lon="6.66265">
        <ele>1222.5</ele>
        <time>2012-10-20T08:26:02Z</time>
      </trkpt>
      <trkpt lat="43.99813" lon="6.66268">
        <ele>1226.7</ele>
        <time>2012-10-20T08:26:09Z</time>
      </trkpt>
      <trkpt lat="43.99824" lon="6.66269">
        <ele>1228.5</ele>
        <time>2012-10-20T08:26:17Z</time>
      </trkpt>
      <trkpt lat="43.99869" lon="6.66259">
        <ele>1229.6</ele>
        <time>2012-10-20T08:26:47Z</time>
      </trkpt>
      <trkpt lat="43.99881" lon="6.66258">
        <ele>1227.8</ele>
        <time>2012-10-20T08:26:54Z</time>
      </trkpt>
      <trkpt lat="43.99893" lon="6.66256">
        <ele>1230.2</ele>
        <time>2012-10-20T08:27:02Z</time>
      </trkpt>
      <trkpt lat="43.99902" lon="6.66256">
        <ele>1231.2</ele>
        <time>2012-10-20T08:27:09Z</time>
      </trkpt>
      <trkpt lat="43.99905" lon="6.66257">
        <ele>1231.2</ele>
        <time>2012-10-20T08:27:11Z</time>
      </trkpt>
      <trkpt lat="43.99915" lon="6.66267">
        <ele>1230.7</ele>
        <time>2012-10-20T08:27:18Z</time>
      </trkpt>
      <trkpt lat="43.99916" lon="6.66272">
        <ele>1230.8</ele>
        <time>2012-10-20T08:27:20Z</time>
      </trkpt>
      <trkpt lat="43.99918" lon="6.66317">
        <ele>1240.7</ele>
        <time>2012-10-20T08:27:42Z</time>
      </trkpt>
      <trkpt lat="43.99933" lon="6.66364">
        <ele>1232.6</ele>
        <time>2012-10-20T08:27:58Z</time>
      </trkpt>
      <trkpt lat="43.99932" lon="6.66373">
        <ele>1233.5</ele>
        <time>2012-10-20T08:28:02Z</time>
      </trkpt>
      <trkpt lat="43.99925" lon="6.6639">
        <ele>1235.7</ele>
        <time>2012-10-20T08:28:10Z</time>
      </trkpt>
      <trkpt lat="43.99924" lon="6.66406">
        <ele>1235.2</ele>
        <time>2012-10-20T08:28:16Z</time>
      </trkpt>
      <trkpt lat="43.99924" lon="6.66422">
        <ele>1236.6</ele>
        <time>2012-10-20T08:28:22Z</time>
      </trkpt>
      <trkpt lat="43.99929" lon="6.66441">
        <ele>1236.8</ele>
        <time>2012-10-20T08:28:28Z</time>
      </trkpt>
      <trkpt lat="43.99926" lon="6.66481">
        <ele>1234.2</ele>
        <time>2012-10-20T08:28:40Z</time>
      </trkpt>
      <trkpt lat="43.99934" lon="6.66504">
        <ele>1231.7</ele>
        <time>2012-10-20T08:28:48Z</time>
      </trkpt>
      <trkpt lat="43.99946" lon="6.66506">
        <ele>1232.2</ele>
        <time>2012-10-20T08:28:53Z</time>
      </trkpt>
      <trkpt lat="43.99956" lon="6.66504">
        <ele>1232.7</ele>
        <time>2012-10-20T08:28:58Z</time>
      </trkpt>
      <trkpt lat="43.99972" lon="6.66499">
        <ele>1232.7</ele>
        <time>2012-10-20T08:29:06Z</time>
      </trkpt>
      <trkpt lat="44.00022" lon="6.66503">
        <ele>1233.9</ele>
        <time>2012-10-20T08:29:24Z</time>
      </trkpt>
      <trkpt lat="44.00039" lon="6.66501">
        <ele>1233.4</ele>
        <time>2012-10-20T08:29:31Z</time>
      </trkpt>
      <trkpt lat="44.00064" lon="6.66491">
        <ele>1232.1</ele>
        <time>2012-10-20T08:29:43Z</time>
      </trkpt>
      <trkpt lat="44.00074" lon="6.66491">
        <ele>1233</ele>
        <time>2012-10-20T08:29:48Z</time>
      </trkpt>
      <trkpt lat="44.00103" lon="6.665">
        <ele>1234.1</ele>
        <time>2012-10-20T08:29:59Z</time>
      </trkpt>
      <trkpt lat="44.00117" lon="6.66505">
        <ele>1234.6</ele>
        <time>2012-10-20T08:30:04Z</time>
      </trkpt>
      <trkpt lat="44.00131" lon="6.66516">
        <ele>1233.3</ele>
        <time>2012-10-20T08:30:09Z</time>
      </trkpt>
      <trkpt lat="44.00135" lon="6.66533">
        <ele>1236.8</ele>
        <time>2012-10-20T08:30:13Z</time>
      </trkpt>
      <trkpt lat="44.00127" lon="6.66549">
        <ele>1242.9</ele>
        <time>2012-10-20T08:30:17Z</time>
      </trkpt>
      <trkpt lat="44.00123" lon="6.6657">
        <ele>1249.2</ele>
        <time>2012-10-20T08:30:21Z</time>
      </trkpt>
      <trkpt lat="44.00124" lon="6.66575">
        <ele>1249.6</ele>
        <time>2012-10-20T08:30:22Z</time>
      </trkpt>
      <trkpt lat="44.00137" lon="6.66596">
        <ele>1249.9</ele>
        <time>2012-10-20T08:30:28Z</time>
      </trkpt>
      <trkpt lat="44.00152" lon="6.66606">
        <ele>1246.7</ele>
        <time>2012-10-20T08:30:33Z</time>
      </trkpt>
      <trkpt lat="44.00168" lon="6.6661">
        <ele>1240.2</ele>
        <time>2012-10-20T08:30:38Z</time>
      </trkpt>
      <trkpt lat="44.0022" lon="6.66618">
        <ele>1238.4</ele>
        <time>2012-10-20T08:30:53Z</time>
      </trkpt>
      <trkpt lat="44.00271" lon="6.66641">
        <ele>1240.6</ele>
        <time>2012-10-20T08:31:09Z</time>
      </trkpt>
      <trkpt lat="44.00291" lon="6.66647">
        <ele>1241.6</ele>
        <time>2012-10-20T08:31:15Z</time>
      </trkpt>
      <trkpt lat="44.00348" lon="6.66647">
        <ele>1238.7</ele>
        <time>2012-10-20T08:31:32Z</time>
      </trkpt>
      <trkpt lat="44.00363" lon="6.66643">
        <ele>1239</ele>
        <time>2012-10-20T08:31:39Z</time>
      </trkpt>
      <trkpt lat="44.0039" lon="6.66631">
        <ele>1242.4</ele>
        <time>2012-10-20T08:31:54Z</time>
      </trkpt>
      <trkpt lat="44.00406" lon="6.66622">
        <ele>1244.7</ele>
        <time>2012-10-20T08:32:02Z</time>
      </trkpt>
      <trkpt lat="44.00466" lon="6.66555">
        <ele>1247.9</ele>
        <time>2012-10-20T08:32:38Z</time>
      </trkpt>
      <trkpt lat="44.00515" lon="6.66527">
        <ele>1251.4</ele>
        <time>2012-10-20T08:33:01Z</time>
      </trkpt>
      <trkpt lat="44.00531" lon="6.6652">
        <ele>1252.3</ele>
        <time>2012-10-20T08:33:08Z</time>
      </trkpt>
      <trkpt lat="44.00548" lon="6.66517">
        <ele>1255.1</ele>
        <time>2012-10-20T08:33:16Z</time>
      </trkpt>
      <trkpt lat="44.00574" lon="6.66516">
        <ele>1260.4</ele>
        <time>2012-10-20T08:33:29Z</time>
      </trkpt>
      <trkpt lat="44.00601" lon="6.66517">
        <ele>1261.1</ele>
        <time>2012-10-20T08:33:41Z</time>
      </trkpt>
      <trkpt lat="44.00658" lon="6.66509">
        <ele>1264.3</ele>
        <time>2012-10-20T08:34:10Z</time>
      </trkpt>
      <trkpt lat="44.00671" lon="6.6651">
        <ele>1266.9</ele>
        <time>2012-10-20T08:34:17Z</time>
      </trkpt>
      <trkpt lat="44.00684" lon="6.66512">
        <ele>1268.5</ele>
        <time>2012-10-20T08:34:24Z</time>
      </trkpt>
      <trkpt lat="44.00719" lon="6.66528">
        <ele>1274.1</ele>
        <time>2012-10-20T08:34:43Z</time>
      </trkpt>
      <trkpt lat="44.00744" lon="6.66543">
        <ele>1275.2</ele>
        <time>2012-10-20T08:34:55Z</time>
      </trkpt>
      <trkpt lat="44.00756" lon="6.66552">
        <ele>1274.4</ele>
        <time>2012-10-20T08:35:01Z</time>
      </trkpt>
      <trkpt lat="44.00776" lon="6.66585">
        <ele>1281.2</ele>
        <time>2012-10-20T08:35:13Z</time>
      </trkpt>
      <trkpt lat="44.00781" lon="6.66589">
        <ele>1280.4</ele>
        <time>2012-10-20T08:35:15Z</time>
      </trkpt>
      <trkpt lat="44.00799" lon="6.66584">
        <ele>1276.8</ele>
        <time>2012-10-20T08:35:20Z</time>
      </trkpt>
      <trkpt lat="44.00818" lon="6.66569">
        <ele>1273.7</ele>
        <time>2012-10-20T08:35:25Z</time>
      </trkpt>
      <trkpt lat="44.00841" lon="6.66556">
        <ele>1273.7</ele>
        <time>2012-10-20T08:35:31Z</time>
      </trkpt>
      <trkpt lat="44.00857" lon="6.66549">
        <ele>1272.3</ele>
        <time>2012-10-20T08:35:34Z</time>
      </trkpt>
      <trkpt lat="44.00883" lon="6.66544">
        <ele>1270.1</ele>
        <time>2012-10-20T08:35:38Z</time>
      </trkpt>
      <trkpt lat="44.0091" lon="6.66547">
        <ele>1266.6</ele>
        <time>2012-10-20T08:35:43Z</time>
      </trkpt>
      <trkpt lat="44.00971" lon="6.66571">
        <ele>1263</ele>
        <time>2012-10-20T08:35:54Z</time>
      </trkpt>
      <trkpt lat="44.00997" lon="6.66575">
        <ele>1261.1</ele>
        <time>2012-10-20T08:35:59Z</time>
      </trkpt>
      <trkpt lat="44.01014" lon="6.66574">
        <ele>1259.2</ele>
        <time>2012-10-20T08:36:04Z</time>
      </trkpt>
      <trkpt lat="44.01029" lon="6.66568">
        <ele>1261.3</ele>
        <time>2012-10-20T08:36:10Z</time>
      </trkpt>
      <trkpt lat="44.01083" lon="6.66535">
        <ele>1259.5</ele>
        <time>2012-10-20T08:36:32Z</time>
      </trkpt>
      <trkpt lat="44.01097" lon="6.66529">
        <ele>1263</ele>
        <time>2012-10-20T08:36:38Z</time>
      </trkpt>
      <trkpt lat="44.01111" lon="6.66526">
        <ele>1265.5</ele>
        <time>2012-10-20T08:36:44Z</time>
      </trkpt>
      <trkpt lat="44.01122" lon="6.66529">
        <ele>1269.7</ele>
        <time>2012-10-20T08:36:50Z</time>
      </trkpt>
      <trkpt lat="44.01133" lon="6.66537">
        <ele>1274.7</ele>
        <time>2012-10-20T08:36:57Z</time>
      </trkpt>
      <trkpt lat="44.01136" lon="6.6655">
        <ele>1284.7</ele>
        <time>2012-10-20T08:37:03Z</time>
      </trkpt>
      <trkpt lat="44.01126" lon="6.66567">
        <ele>1301.6</ele>
        <time>2012-10-20T08:37:10Z</time>
      </trkpt>
      <trkpt lat="44.01124" lon="6.66577">
        <ele>1293.5</ele>
        <time>2012-10-20T08:37:15Z</time>
      </trkpt>
      <trkpt lat="44.01091" lon="6.66667">
        <ele>1269.3</ele>
        <time>2012-10-20T08:37:53Z</time>
      </trkpt>
      <trkpt lat="44.01083" lon="6.66675">
        <ele>1271.4</ele>
        <time>2012-10-20T08:37:59Z</time>
      </trkpt>
      <trkpt lat="44.01061" lon="6.66687">
        <ele>1273.9</ele>
        <time>2012-10-20T08:38:12Z</time>
      </trkpt>
      <trkpt lat="44.01046" lon="6.66696">
        <ele>1276.1</ele>
        <time>2012-10-20T08:38:21Z</time>
      </trkpt>
      <trkpt lat="44.01037" lon="6.66704">
        <ele>1277.5</ele>
        <time>2012-10-20T08:38:27Z</time>
      </trkpt>
      <trkpt lat="44.01031" lon="6.66717">
        <ele>1278</ele>
        <time>2012-10-20T08:38:33Z</time>
      </trkpt>
      <trkpt lat="44.01027" lon="6.6676">
        <ele>1287.1</ele>
        <time>2012-10-20T08:38:54Z</time>
      </trkpt>
      <trkpt lat="44.01029" lon="6.66795">
        <ele>1308.6</ele>
        <time>2012-10-20T08:39:14Z</time>
      </trkpt>
      <trkpt lat="44.01035" lon="6.66806">
        <ele>1314.4</ele>
        <time>2012-10-20T08:39:22Z</time>
      </trkpt>
      <trkpt lat="44.01036" lon="6.66821">
        <ele>1328.2</ele>
        <time>2012-10-20T08:39:29Z</time>
      </trkpt>
      <trkpt lat="44.01035" lon="6.66836">
        <ele>1313.5</ele>
        <time>2012-10-20T08:39:37Z</time>
      </trkpt>
      <trkpt lat="44.01031" lon="6.66835">
        <ele>1304.2</ele>
        <time>2012-10-20T08:39:42Z</time>
      </trkpt>
      <trkpt lat="44.01021" lon="6.66837">
        <ele>1300.2</ele>
        <time>2012-10-20T08:39:50Z</time>
      </trkpt>
      <trkpt lat="44.01009" lon="6.66837">
        <ele>1294.2</ele>
        <time>2012-10-20T08:39:59Z</time>
      </trkpt>
      <trkpt lat="44.00998" lon="6.66835">
        <ele>1293</ele>
        <time>2012-10-20T08:40:06Z</time>
      </trkpt>
      <trkpt lat="44.00988" lon="6.66836">
        <ele>1293.7</ele>
        <time>2012-10-20T08:40:13Z</time>
      </trkpt>
      <trkpt lat="44.00976" lon="6.66843">
        <ele>1295.4</ele>
        <time>2012-10-20T08:40:22Z</time>
      </trkpt>
      <trkpt lat="44.00921" lon="6.66849">
        <ele>1300.4</ele>
        <time>2012-10-20T08:40:54Z</time>
      </trkpt>
      <trkpt lat="44.00905" lon="6.6685">
        <ele>1304</ele>
        <time>2012-10-20T08:41:03Z</time>
      </trkpt>
      <trkpt lat="44.00899" lon="6.66851">
        <ele>1305</ele>
        <time>2012-10-20T08:41:07Z</time>
      </trkpt>
      <trkpt lat="44.00892" lon="6.66862">
        <ele>1307.9</ele>
        <time>2012-10-20T08:41:13Z</time>
      </trkpt>
      <trkpt lat="44.00897" lon="6.66867">
        <ele>1311.1</ele>
        <time>2012-10-20T08:41:17Z</time>
      </trkpt>
      <trkpt lat="44.00898" lon="6.66866">
        <ele>1312</ele>
        <time>2012-10-20T08:41:18Z</time>
      </trkpt>
      <trkpt lat="44.00903" lon="6.66864">
        <ele>1317.1</ele>
        <time>2012-10-20T08:41:21Z</time>
      </trkpt>
      <trkpt lat="44.00911" lon="6.66866">
        <ele>1319.9</ele>
        <time>2012-10-20T08:41:27Z</time>
      </trkpt>
      <trkpt lat="44.00909" lon="6.66877">
        <ele>1318.8</ele>
        <time>2012-10-20T08:41:32Z</time>
      </trkpt>
      <trkpt lat="44.00901" lon="6.66882">
        <ele>1314.3</ele>
        <time>2012-10-20T08:41:37Z</time>
      </trkpt>
      <trkpt lat="44.00882" lon="6.66887">
        <ele>1312.8</ele>
        <time>2012-10-20T08:41:47Z</time>
      </trkpt>
      <trkpt lat="44.00861" lon="6.66905">
        <ele>1318.7</ele>
        <time>2012-10-20T08:42:03Z</time>
      </trkpt>
      <trkpt lat="44.00836" lon="6.66919">
        <ele>1315.2</ele>
        <time>2012-10-20T08:42:20Z</time>
      </trkpt>
      <trkpt lat="44.0082" lon="6.66925">
        <ele>1314.5</ele>
        <time>2012-10-20T08:42:30Z</time>
      </trkpt>
      <trkpt lat="44.00815" lon="6.66931">
        <ele>1314.7</ele>
        <time>2012-10-20T08:42:34Z</time>
      </trkpt>
      <trkpt lat="44.00806" lon="6.66941">
        <ele>1321.3</ele>
        <time>2012-10-20T08:42:41Z</time>
      </trkpt>
      <trkpt lat="44.00792" lon="6.6695">
        <ele>1324.7</ele>
        <time>2012-10-20T08:42:48Z</time>
      </trkpt>
      <trkpt lat="44.00784" lon="6.66957">
        <ele>1330</ele>
        <time>2012-10-20T08:42:53Z</time>
      </trkpt>
      <trkpt lat="44.00748" lon="6.6698">
        <ele>1325.9</ele>
        <time>2012-10-20T08:43:11Z</time>
      </trkpt>
      <trkpt lat="44.00734" lon="6.66984">
        <ele>1327.5</ele>
        <time>2012-10-20T08:43:18Z</time>
      </trkpt>
      <trkpt lat="44.00719" lon="6.66992">
        <ele>1328.4</ele>
        <time>2012-10-20T08:43:25Z</time>
      </trkpt>
      <trkpt lat="44.00687" lon="6.67001">
        <ele>1328.4</ele>
        <time>2012-10-20T08:43:39Z</time>
      </trkpt>
      <trkpt lat="44.00673" lon="6.67006">
        <ele>1329.3</ele>
        <time>2012-10-20T08:43:46Z</time>
      </trkpt>
      <trkpt lat="44.00653" lon="6.6703">
        <ele>1332.5</ele>
        <time>2012-10-20T08:43:59Z</time>
      </trkpt>
      <trkpt lat="44.0064" lon="6.67041">
        <ele>1338.7</ele>
        <time>2012-10-20T08:44:06Z</time>
      </trkpt>
      <trkpt lat="44.00628" lon="6.67057">
        <ele>1344.4</ele>
        <time>2012-10-20T08:44:14Z</time>
      </trkpt>
      <trkpt lat="44.00626" lon="6.67073">
        <ele>1345.6</ele>
        <time>2012-10-20T08:44:21Z</time>
      </trkpt>
      <trkpt lat="44.00628" lon="6.671">
        <ele>1347.3</ele>
        <time>2012-10-20T08:44:31Z</time>
      </trkpt>
      <trkpt lat="44.00635" lon="6.6711">
        <ele>1353</ele>
        <time>2012-10-20T08:44:38Z</time>
      </trkpt>
      <trkpt lat="44.00636" lon="6.67109">
        <ele>1352.9</ele>
        <time>2012-10-20T08:44:39Z</time>
      </trkpt>
      <trkpt lat="44.00646" lon="6.67099">
        <ele>1355.3</ele>
        <time>2012-10-20T08:44:46Z</time>
      </trkpt>
      <trkpt lat="44.00649" lon="6.67095">
        <ele>1355.2</ele>
        <time>2012-10-20T08:44:48Z</time>
      </trkpt>
      <trkpt lat="44.00651" lon="6.67088">
        <ele>1355.7</ele>
        <time>2012-10-20T08:44:51Z</time>
      </trkpt>
      <trkpt lat="44.00658" lon="6.67076">
        <ele>1356</ele>
        <time>2012-10-20T08:44:58Z</time>
      </trkpt>
      <trkpt lat="44.00681" lon="6.67051">
        <ele>1360.3</ele>
        <time>2012-10-20T08:45:15Z</time>
      </trkpt>
      <trkpt lat="44.0069" lon="6.67046">
        <ele>1364.5</ele>
        <time>2012-10-20T08:45:21Z</time>
      </trkpt>
      <trkpt lat="44.00701" lon="6.67043">
        <ele>1369.7</ele>
        <time>2012-10-20T08:45:28Z</time>
      </trkpt>
      <trkpt lat="44.00711" lon="6.67038">
        <ele>1370</ele>
        <time>2012-10-20T08:45:34Z</time>
      </trkpt>
      <trkpt lat="44.0072" lon="6.67032">
        <ele>1366.3</ele>
        <time>2012-10-20T08:45:39Z</time>
      </trkpt>
      <trkpt lat="44.00725" lon="6.6703">
        <ele>1366.2</ele>
        <time>2012-10-20T08:45:42Z</time>
      </trkpt>
      <trkpt lat="44.00732" lon="6.67039">
        <ele>1363.7</ele>
        <time>2012-10-20T08:45:48Z</time>
      </trkpt>
      <trkpt lat="44.00731" lon="6.67049">
        <ele>1363</ele>
        <time>2012-10-20T08:45:53Z</time>
      </trkpt>
      <trkpt lat="44.00725" lon="6.67055">
        <ele>1362.4</ele>
        <time>2012-10-20T08:45:57Z</time>
      </trkpt>
      <trkpt lat="44.00714" lon="6.67075">
        <ele>1359.3</ele>
        <time>2012-10-20T08:46:04Z</time>
      </trkpt>
      <trkpt lat="44.00712" lon="6.67093">
        <ele>1359.3</ele>
        <time>2012-10-20T08:46:10Z</time>
      </trkpt>
      <trkpt lat="44.00712" lon="6.67114">
        <ele>1358.4</ele>
        <time>2012-10-20T08:46:17Z</time>
      </trkpt>
      <trkpt lat="44.00701" lon="6.67149">
        <ele>1373.3</ele>
        <time>2012-10-20T08:46:33Z</time>
      </trkpt>
      <trkpt lat="44.00706" lon="6.67151">
        <ele>1337</ele>
        <time>2012-10-20T08:55:50Z</time>
      </trkpt>
      <trkpt lat="44.00699" lon="6.67159">
        <ele>1363.9</ele>
        <time>2012-10-20T08:56:24Z</time>
      </trkpt>
      <trkpt lat="44.00701" lon="6.67171">
        <ele>1365.6</ele>
        <time>2012-10-20T08:56:29Z</time>
      </trkpt>
      <trkpt lat="44.00694" lon="6.67181">
        <ele>1364.6</ele>
        <time>2012-10-20T08:56:34Z</time>
      </trkpt>
      <trkpt lat="44.0067" lon="6.67198">
        <ele>1358</ele>
        <time>2012-10-20T08:56:48Z</time>
      </trkpt>
      <trkpt lat="44.00646" lon="6.67197">
        <ele>1352.7</ele>
        <time>2012-10-20T08:56:56Z</time>
      </trkpt>
      <trkpt lat="44.00619" lon="6.67205">
        <ele>1352.6</ele>
        <time>2012-10-20T08:57:01Z</time>
      </trkpt>
      <trkpt lat="44.00598" lon="6.67231">
        <ele>1359.5</ele>
        <time>2012-10-20T08:57:10Z</time>
      </trkpt>
      <trkpt lat="44.00587" lon="6.67248">
        <ele>1363.2</ele>
        <time>2012-10-20T08:57:15Z</time>
      </trkpt>
      <trkpt lat="44.0058" lon="6.67267">
        <ele>1362</ele>
        <time>2012-10-20T08:57:20Z</time>
      </trkpt>
      <trkpt lat="44.00536" lon="6.67352">
        <ele>1361.5</ele>
        <time>2012-10-20T08:57:37Z</time>
      </trkpt>
      <trkpt lat="44.00533" lon="6.67355">
        <ele>1360.9</ele>
        <time>2012-10-20T08:57:38Z</time>
      </trkpt>
      <trkpt lat="44.00527" lon="6.67365">
        <ele>1359.8</ele>
        <time>2012-10-20T08:57:40Z</time>
      </trkpt>
      <trkpt lat="44.00508" lon="6.67412">
        <ele>1357.2</ele>
        <time>2012-10-20T08:57:47Z</time>
      </trkpt>
      <trkpt lat="44.00498" lon="6.67458">
        <ele>1351.8</ele>
        <time>2012-10-20T08:58:00Z</time>
      </trkpt>
      <trkpt lat="44.00499" lon="6.67474">
        <ele>1349.5</ele>
        <time>2012-10-20T08:58:06Z</time>
      </trkpt>
      <trkpt lat="44.0051" lon="6.6749">
        <ele>1344.5</ele>
        <time>2012-10-20T08:58:15Z</time>
      </trkpt>
      <trkpt lat="44.00524" lon="6.67504">
        <ele>1345.9</ele>
        <time>2012-10-20T08:58:20Z</time>
      </trkpt>
      <trkpt lat="44.00529" lon="6.67511">
        <ele>1348.5</ele>
        <time>2012-10-20T08:58:24Z</time>
      </trkpt>
      <trkpt lat="44.00531" lon="6.67517">
        <ele>1349</ele>
        <time>2012-10-20T08:58:29Z</time>
      </trkpt>
      <trkpt lat="44.00535" lon="6.6752">
        <ele>1348.8</ele>
        <time>2012-10-20T08:58:34Z</time>
      </trkpt>
      <trkpt lat="44.00539" lon="6.67522">
        <ele>1349.8</ele>
        <time>2012-10-20T08:58:38Z</time>
      </trkpt>
      <trkpt lat="44.0055" lon="6.67528">
        <ele>1350.9</ele>
        <time>2012-10-20T08:58:45Z</time>
      </trkpt>
      <trkpt lat="44.00553" lon="6.67529">
        <ele>1350.1</ele>
        <time>2012-10-20T08:58:50Z</time>
      </trkpt>
      <trkpt lat="44.00551" lon="6.67529">
        <ele>1351.1</ele>
        <time>2012-10-20T08:58:52Z</time>
      </trkpt>
      <trkpt lat="44.00546" lon="6.67534">
        <ele>1350.7</ele>
        <time>2012-10-20T08:58:58Z</time>
      </trkpt>
      <trkpt lat="44.00551" lon="6.67546">
        <ele>1350.2</ele>
        <time>2012-10-20T08:59:06Z</time>
      </trkpt>
      <trkpt lat="44.00554" lon="6.67548">
        <ele>1349.8</ele>
        <time>2012-10-20T08:59:15Z</time>
      </trkpt>
      <trkpt lat="44.00554" lon="6.6755">
        <ele>1348</ele>
        <time>2012-10-20T08:59:19Z</time>
      </trkpt>
      <trkpt lat="44.00553" lon="6.67553">
        <ele>1347.9</ele>
        <time>2012-10-20T08:59:25Z</time>
      </trkpt>
      <trkpt lat="44.00557" lon="6.67553">
        <ele>1344.1</ele>
        <time>2012-10-20T08:59:36Z</time>
      </trkpt>
      <trkpt lat="44.00562" lon="6.67553">
        <ele>1327.2</ele>
        <time>2012-10-20T09:00:16Z</time>
      </trkpt>
      <trkpt lat="44.00555" lon="6.6755">
        <ele>1332.7</ele>
        <time>2012-10-20T09:00:33Z</time>
      </trkpt>
      <trkpt lat="44.00567" lon="6.67548">
        <ele>1332.7</ele>
        <time>2012-10-20T09:00:39Z</time>
      </trkpt>
      <trkpt lat="44.00606" lon="6.67552">
        <ele>1329.5</ele>
        <time>2012-10-20T09:00:50Z</time>
      </trkpt>
      <trkpt lat="44.00623" lon="6.67562">
        <ele>1332.9</ele>
        <time>2012-10-20T09:00:54Z</time>
      </trkpt>
      <trkpt lat="44.00647" lon="6.67568">
        <ele>1328.5</ele>
        <time>2012-10-20T09:00:59Z</time>
      </trkpt>
      <trkpt lat="44.00673" lon="6.67569">
        <ele>1320.7</ele>
        <time>2012-10-20T09:01:04Z</time>
      </trkpt>
      <trkpt lat="44.00677" lon="6.67571">
        <ele>1319.8</ele>
        <time>2012-10-20T09:01:05Z</time>
      </trkpt>
      <trkpt lat="44.00699" lon="6.67584">
        <ele>1318.1</ele>
        <time>2012-10-20T09:01:11Z</time>
      </trkpt>
      <trkpt lat="44.00713" lon="6.6759">
        <ele>1317</ele>
        <time>2012-10-20T09:01:14Z</time>
      </trkpt>
      <trkpt lat="44.00727" lon="6.67597">
        <ele>1315.9</ele>
        <time>2012-10-20T09:01:17Z</time>
      </trkpt>
      <trkpt lat="44.0075" lon="6.67614">
        <ele>1313.3</ele>
        <time>2012-10-20T09:01:22Z</time>
      </trkpt>
      <trkpt lat="44.00794" lon="6.6764">
        <ele>1309.5</ele>
        <time>2012-10-20T09:01:31Z</time>
      </trkpt>
      <trkpt lat="44.00839" lon="6.6768">
        <ele>1306.5</ele>
        <time>2012-10-20T09:01:43Z</time>
      </trkpt>
      <trkpt lat="44.00874" lon="6.67721">
        <ele>1304.7</ele>
        <time>2012-10-20T09:01:53Z</time>
      </trkpt>
      <trkpt lat="44.00892" lon="6.67734">
        <ele>1303.9</ele>
        <time>2012-10-20T09:01:57Z</time>
      </trkpt>
      <trkpt lat="44.00925" lon="6.67782">
        <ele>1302.9</ele>
        <time>2012-10-20T09:02:06Z</time>
      </trkpt>
      <trkpt lat="44.00966" lon="6.67859">
        <ele>1300.9</ele>
        <time>2012-10-20T09:02:22Z</time>
      </trkpt>
      <trkpt lat="44.00992" lon="6.67899">
        <ele>1294</ele>
        <time>2012-10-20T09:02:32Z</time>
      </trkpt>
      <trkpt lat="44.01006" lon="6.67911">
        <ele>1292.8</ele>
        <time>2012-10-20T09:02:37Z</time>
      </trkpt>
      <trkpt lat="44.01017" lon="6.67919">
        <ele>1290.4</ele>
        <time>2012-10-20T09:02:42Z</time>
      </trkpt>
      <trkpt lat="44.01021" lon="6.67928">
        <ele>1291</ele>
        <time>2012-10-20T09:02:46Z</time>
      </trkpt>
      <trkpt lat="44.01017" lon="6.67943">
        <ele>1289.8</ele>
        <time>2012-10-20T09:02:50Z</time>
      </trkpt>
      <trkpt lat="44.01026" lon="6.67985">
        <ele>1278.9</ele>
        <time>2012-10-20T09:03:01Z</time>
      </trkpt>
      <trkpt lat="44.01041" lon="6.68022">
        <ele>1275.6</ele>
        <time>2012-10-20T09:03:12Z</time>
      </trkpt>
      <trkpt lat="44.01042" lon="6.68025">
        <ele>1274.9</ele>
        <time>2012-10-20T09:03:13Z</time>
      </trkpt>
      <trkpt lat="44.01047" lon="6.68028">
        <ele>1276.7</ele>
        <time>2012-10-20T09:03:18Z</time>
      </trkpt>
      <trkpt lat="44.01047" lon="6.68027">
        <ele>1277.8</ele>
        <time>2012-10-20T09:03:21Z</time>
      </trkpt>
      <trkpt lat="44.0105" lon="6.68026">
        <ele>1278.3</ele>
        <time>2012-10-20T09:03:24Z</time>
      </trkpt>
      <trkpt lat="44.01052" lon="6.68027">
        <ele>1280</ele>
        <time>2012-10-20T09:03:27Z</time>
      </trkpt>
      <trkpt lat="44.01066" lon="6.6803">
        <ele>1282.9</ele>
        <time>2012-10-20T09:03:39Z</time>
      </trkpt>
      <trkpt lat="44.01071" lon="6.68035">
        <ele>1280.8</ele>
        <time>2012-10-20T09:03:43Z</time>
      </trkpt>
      <trkpt lat="44.01085" lon="6.68046">
        <ele>1281</ele>
        <time>2012-10-20T09:03:50Z</time>
      </trkpt>
      <trkpt lat="44.01104" lon="6.68077">
        <ele>1287.5</ele>
        <time>2012-10-20T09:04:03Z</time>
      </trkpt>
      <trkpt lat="44.01109" lon="6.68089">
        <ele>1295.3</ele>
        <time>2012-10-20T09:04:09Z</time>
      </trkpt>
      <trkpt lat="44.01119" lon="6.68103">
        <ele>1298.5</ele>
        <time>2012-10-20T09:04:18Z</time>
      </trkpt>
      <trkpt lat="44.01138" lon="6.6812">
        <ele>1297.2</ele>
        <time>2012-10-20T09:04:32Z</time>
      </trkpt>
      <trkpt lat="44.01175" lon="6.68148">
        <ele>1295.4</ele>
        <time>2012-10-20T09:04:59Z</time>
      </trkpt>
      <trkpt lat="44.01186" lon="6.68151">
        <ele>1299.9</ele>
        <time>2012-10-20T09:05:08Z</time>
      </trkpt>
      <trkpt lat="44.01203" lon="6.68153">
        <ele>1305.9</ele>
        <time>2012-10-20T09:05:20Z</time>
      </trkpt>
      <trkpt lat="44.01284" lon="6.68156">
        <ele>1304.6</ele>
        <time>2012-10-20T09:05:53Z</time>
      </trkpt>
      <trkpt lat="44.01293" lon="6.68161">
        <ele>1306.2</ele>
        <time>2012-10-20T09:05:58Z</time>
      </trkpt>
      <trkpt lat="44.01314" lon="6.68159">
        <ele>1305.2</ele>
        <time>2012-10-20T09:06:11Z</time>
      </trkpt>
      <trkpt lat="44.01326" lon="6.6816">
        <ele>1303.5</ele>
        <time>2012-10-20T09:06:17Z</time>
      </trkpt>
      <trkpt lat="44.01335" lon="6.68166">
        <ele>1305.4</ele>
        <time>2012-10-20T09:06:22Z</time>
      </trkpt>
      <trkpt lat="44.0135" lon="6.68181">
        <ele>1306.5</ele>
        <time>2012-10-20T09:06:30Z</time>
      </trkpt>
      <trkpt lat="44.01362" lon="6.68186">
        <ele>1307.4</ele>
        <time>2012-10-20T09:06:35Z</time>
      </trkpt>
      <trkpt lat="44.01378" lon="6.68189">
        <ele>1306.1</ele>
        <time>2012-10-20T09:06:41Z</time>
      </trkpt>
      <trkpt lat="44.0139" lon="6.68186">
        <ele>1305.1</ele>
        <time>2012-10-20T09:06:46Z</time>
      </trkpt>
      <trkpt lat="44.01403" lon="6.68181">
        <ele>1304.9</ele>
        <time>2012-10-20T09:06:51Z</time>
      </trkpt>
      <trkpt lat="44.01412" lon="6.68178">
        <ele>1302.2</ele>
        <time>2012-10-20T09:06:55Z</time>
      </trkpt>
      <trkpt lat="44.01423" lon="6.68176">
        <ele>1302.2</ele>
        <time>2012-10-20T09:07:00Z</time>
      </trkpt>
      <trkpt lat="44.01431" lon="6.68179">
        <ele>1301</ele>
        <time>2012-10-20T09:07:04Z</time>
      </trkpt>
      <trkpt lat="44.01443" lon="6.68188">
        <ele>1301.3</ele>
        <time>2012-10-20T09:07:11Z</time>
      </trkpt>
      <trkpt lat="44.01455" lon="6.68194">
        <ele>1302.3</ele>
        <time>2012-10-20T09:07:16Z</time>
      </trkpt>
      <trkpt lat="44.0146" lon="6.68207">
        <ele>1304.8</ele>
        <time>2012-10-20T09:07:21Z</time>
      </trkpt>
      <trkpt lat="44.01467" lon="6.68219">
        <ele>1306.9</ele>
        <time>2012-10-20T09:07:25Z</time>
      </trkpt>
      <trkpt lat="44.01469" lon="6.68235">
        <ele>1312.7</ele>
        <time>2012-10-20T09:07:31Z</time>
      </trkpt>
      <trkpt lat="44.01467" lon="6.68272">
        <ele>1308.4</ele>
        <time>2012-10-20T09:07:43Z</time>
      </trkpt>
      <trkpt lat="44.01472" lon="6.68312">
        <ele>1310.8</ele>
        <time>2012-10-20T09:07:55Z</time>
      </trkpt>
      <trkpt lat="44.01477" lon="6.68333">
        <ele>1308.4</ele>
        <time>2012-10-20T09:08:02Z</time>
      </trkpt>
      <trkpt lat="44.01489" lon="6.68337">
        <ele>1308.4</ele>
        <time>2012-10-20T09:08:07Z</time>
      </trkpt>
      <trkpt lat="44.01492" lon="6.68337">
        <ele>1308.6</ele>
        <time>2012-10-20T09:08:08Z</time>
      </trkpt>
      <trkpt lat="44.01542" lon="6.68337">
        <ele>1304.6</ele>
        <time>2012-10-20T09:08:24Z</time>
      </trkpt>
      <trkpt lat="44.01558" lon="6.6834">
        <ele>1304.9</ele>
        <time>2012-10-20T09:08:30Z</time>
      </trkpt>
      <trkpt lat="44.01583" lon="6.6835">
        <ele>1308.5</ele>
        <time>2012-10-20T09:08:40Z</time>
      </trkpt>
      <trkpt lat="44.01597" lon="6.68369">
        <ele>1310.3</ele>
        <time>2012-10-20T09:08:52Z</time>
      </trkpt>
      <trkpt lat="44.01603" lon="6.68374">
        <ele>1311.4</ele>
        <time>2012-10-20T09:08:56Z</time>
      </trkpt>
      <trkpt lat="44.01616" lon="6.6839">
        <ele>1316.9</ele>
        <time>2012-10-20T09:09:08Z</time>
      </trkpt>
      <trkpt lat="44.01627" lon="6.68394">
        <ele>1312</ele>
        <time>2012-10-20T09:09:28Z</time>
      </trkpt>
      <trkpt lat="44.0164" lon="6.68408">
        <ele>1314.2</ele>
        <time>2012-10-20T09:09:36Z</time>
      </trkpt>
      <trkpt lat="44.01648" lon="6.68409">
        <ele>1310.5</ele>
        <time>2012-10-20T09:09:39Z</time>
      </trkpt>
      <trkpt lat="44.01657" lon="6.68407">
        <ele>1310</ele>
        <time>2012-10-20T09:09:43Z</time>
      </trkpt>
      <trkpt lat="44.0167" lon="6.68399">
        <ele>1309.3</ele>
        <time>2012-10-20T09:09:49Z</time>
      </trkpt>
      <trkpt lat="44.01685" lon="6.68393">
        <ele>1309.2</ele>
        <time>2012-10-20T09:09:54Z</time>
      </trkpt>
      <trkpt lat="44.01702" lon="6.68383">
        <ele>1307.1</ele>
        <time>2012-10-20T09:10:00Z</time>
      </trkpt>
      <trkpt lat="44.01715" lon="6.68387">
        <ele>1308.1</ele>
        <time>2012-10-20T09:10:05Z</time>
      </trkpt>
      <trkpt lat="44.0172" lon="6.68394">
        <ele>1308.8</ele>
        <time>2012-10-20T09:10:07Z</time>
      </trkpt>
      <trkpt lat="44.01738" lon="6.68409">
        <ele>1311.5</ele>
        <time>2012-10-20T09:10:13Z</time>
      </trkpt>
      <trkpt lat="44.01773" lon="6.6842">
        <ele>1309.3</ele>
        <time>2012-10-20T09:10:24Z</time>
      </trkpt>
      <trkpt lat="44.01775" lon="6.68424">
        <ele>1311.4</ele>
        <time>2012-10-20T09:10:30Z</time>
      </trkpt>
      <trkpt lat="44.0178" lon="6.68424">
        <ele>1310.1</ele>
        <time>2012-10-20T09:10:38Z</time>
      </trkpt>
      <trkpt lat="44.01779" lon="6.68435">
        <ele>1321.6</ele>
        <time>2012-10-20T09:10:47Z</time>
      </trkpt>
      <trkpt lat="44.01791" lon="6.68432">
        <ele>1321.8</ele>
        <time>2012-10-20T09:10:53Z</time>
      </trkpt>
      <trkpt lat="44.01805" lon="6.68432">
        <ele>1319.1</ele>
        <time>2012-10-20T09:10:59Z</time>
      </trkpt>
      <trkpt lat="44.01807" lon="6.68434">
        <ele>1319.6</ele>
        <time>2012-10-20T09:11:00Z</time>
      </trkpt>
      <trkpt lat="44.01815" lon="6.68441">
        <ele>1321.4</ele>
        <time>2012-10-20T09:11:05Z</time>
      </trkpt>
      <trkpt lat="44.01822" lon="6.68451">
        <ele>1323.8</ele>
        <time>2012-10-20T09:11:10Z</time>
      </trkpt>
      <trkpt lat="44.01822" lon="6.68452">
        <ele>1326.3</ele>
        <time>2012-10-20T09:11:14Z</time>
      </trkpt>
      <trkpt lat="44.01824" lon="6.68455">
        <ele>1327.3</ele>
        <time>2012-10-20T09:11:18Z</time>
      </trkpt>
      <trkpt lat="44.01827" lon="6.6846">
        <ele>1330.5</ele>
        <time>2012-10-20T09:11:25Z</time>
      </trkpt>
      <trkpt lat="44.01826" lon="6.68461">
        <ele>1331.6</ele>
        <time>2012-10-20T09:11:26Z</time>
      </trkpt>
      <trkpt lat="44.01825" lon="6.68463">
        <ele>1325.8</ele>
        <time>2012-10-20T09:11:31Z</time>
      </trkpt>
      <trkpt lat="44.01826" lon="6.68464">
        <ele>1318.4</ele>
        <time>2012-10-20T09:11:36Z</time>
      </trkpt>
      <trkpt lat="44.01825" lon="6.68466">
        <ele>1309.2</ele>
        <time>2012-10-20T09:11:44Z</time>
      </trkpt>
      <trkpt lat="44.01824" lon="6.68469">
        <ele>1308.7</ele>
        <time>2012-10-20T09:11:48Z</time>
      </trkpt>
      <trkpt lat="44.01823" lon="6.68471">
        <ele>1308.1</ele>
        <time>2012-10-20T09:11:50Z</time>
      </trkpt>
      <trkpt lat="44.01816" lon="6.68486">
        <ele>1317.5</ele>
        <time>2012-10-20T09:12:06Z</time>
      </trkpt>
      <trkpt lat="44.01815" lon="6.68492">
        <ele>1326.5</ele>
        <time>2012-10-20T09:12:12Z</time>
      </trkpt>
      <trkpt lat="44.01815" lon="6.68496">
        <ele>1327.9</ele>
        <time>2012-10-20T09:12:16Z</time>
      </trkpt>
      <trkpt lat="44.01813" lon="6.68503">
        <ele>1327.9</ele>
        <time>2012-10-20T09:12:20Z</time>
      </trkpt>
      <trkpt lat="44.01811" lon="6.68511">
        <ele>1332.7</ele>
        <time>2012-10-20T09:12:25Z</time>
      </trkpt>
      <trkpt lat="44.01808" lon="6.68522">
        <ele>1332</ele>
        <time>2012-10-20T09:12:29Z</time>
      </trkpt>
      <trkpt lat="44.01797" lon="6.68536">
        <ele>1325.2</ele>
        <time>2012-10-20T09:12:35Z</time>
      </trkpt>
      <trkpt lat="44.01794" lon="6.68565">
        <ele>1322.1</ele>
        <time>2012-10-20T09:12:41Z</time>
      </trkpt>
      <trkpt lat="44.01791" lon="6.6857">
        <ele>1323.2</ele>
        <time>2012-10-20T09:12:42Z</time>
      </trkpt>
      <trkpt lat="44.0178" lon="6.68574">
        <ele>1315.7</ele>
        <time>2012-10-20T09:12:47Z</time>
      </trkpt>
      <trkpt lat="44.01777" lon="6.68575">
        <ele>1313.4</ele>
        <time>2012-10-20T09:12:48Z</time>
      </trkpt>
      <trkpt lat="44.01759" lon="6.68587">
        <ele>1301.9</ele>
        <time>2012-10-20T09:12:54Z</time>
      </trkpt>
      <trkpt lat="44.01731" lon="6.68666">
        <ele>1296.2</ele>
        <time>2012-10-20T09:13:16Z</time>
      </trkpt>
      <trkpt lat="44.01732" lon="6.68681">
        <ele>1287.7</ele>
        <time>2012-10-20T09:13:24Z</time>
      </trkpt>
      <trkpt lat="44.01733" lon="6.68685">
        <ele>1284.8</ele>
        <time>2012-10-20T09:13:26Z</time>
      </trkpt>
      <trkpt lat="44.01732" lon="6.68693">
        <ele>1282.1</ele>
        <time>2012-10-20T09:13:31Z</time>
      </trkpt>
      <trkpt lat="44.01728" lon="6.68709">
        <ele>1294.4</ele>
        <time>2012-10-20T09:13:46Z</time>
      </trkpt>
      <trkpt lat="44.0173" lon="6.68755">
        <ele>1306.1</ele>
        <time>2012-10-20T09:14:06Z</time>
      </trkpt>
      <trkpt lat="44.01732" lon="6.68765">
        <ele>1304.8</ele>
        <time>2012-10-20T09:14:11Z</time>
      </trkpt>
      <trkpt lat="44.01736" lon="6.68777">
        <ele>1305.2</ele>
        <time>2012-10-20T09:14:17Z</time>
      </trkpt>
      <trkpt lat="44.01743" lon="6.68838">
        <ele>1323.1</ele>
        <time>2012-10-20T09:14:45Z</time>
      </trkpt>
      <trkpt lat="44.01752" lon="6.68837">
        <ele>1319</ele>
        <time>2012-10-20T09:14:50Z</time>
      </trkpt>
      <trkpt lat="44.01769" lon="6.68833">
        <ele>1313.7</ele>
        <time>2012-10-20T09:14:58Z</time>
      </trkpt>
      <trkpt lat="44.01778" lon="6.68826">
        <ele>1314</ele>
        <time>2012-10-20T09:15:04Z</time>
      </trkpt>
      <trkpt lat="44.01778" lon="6.68827">
        <ele>1320.2</ele>
        <time>2012-10-20T09:15:08Z</time>
      </trkpt>
      <trkpt lat="44.01779" lon="6.68827">
        <ele>1320.8</ele>
        <time>2012-10-20T09:15:13Z</time>
      </trkpt>
      <trkpt lat="44.01789" lon="6.68827">
        <ele>1313.9</ele>
        <time>2012-10-20T09:15:20Z</time>
      </trkpt>
      <trkpt lat="44.01796" lon="6.68832">
        <ele>1315.9</ele>
        <time>2012-10-20T09:15:24Z</time>
      </trkpt>
      <trkpt lat="44.01799" lon="6.68839">
        <ele>1312.8</ele>
        <time>2012-10-20T09:15:31Z</time>
      </trkpt>
      <trkpt lat="44.018" lon="6.68838">
        <ele>1318.5</ele>
        <time>2012-10-20T09:15:47Z</time>
      </trkpt>
      <trkpt lat="44.018" lon="6.68847">
        <ele>1324.7</ele>
        <time>2012-10-20T09:15:54Z</time>
      </trkpt>
      <trkpt lat="44.01798" lon="6.68849">
        <ele>1331.9</ele>
        <time>2012-10-20T09:16:17Z</time>
      </trkpt>
      <trkpt lat="44.01798" lon="6.68842">
        <ele>1326.3</ele>
        <time>2012-10-20T09:16:23Z</time>
      </trkpt>
      <trkpt lat="44.01803" lon="6.68841">
        <ele>1323.1</ele>
        <time>2012-10-20T09:16:28Z</time>
      </trkpt>
      <trkpt lat="44.01813" lon="6.6884">
        <ele>1328.9</ele>
        <time>2012-10-20T09:16:55Z</time>
      </trkpt>
      <trkpt lat="44.01827" lon="6.68828">
        <ele>1324.5</ele>
        <time>2012-10-20T09:17:01Z</time>
      </trkpt>
      <trkpt lat="44.01851" lon="6.68825">
        <ele>1324.1</ele>
        <time>2012-10-20T09:17:07Z</time>
      </trkpt>
      <trkpt lat="44.01863" lon="6.68821">
        <ele>1324.4</ele>
        <time>2012-10-20T09:17:11Z</time>
      </trkpt>
      <trkpt lat="44.0187" lon="6.68822">
        <ele>1326</ele>
        <time>2012-10-20T09:17:15Z</time>
      </trkpt>
      <trkpt lat="44.01878" lon="6.68829">
        <ele>1329.2</ele>
        <time>2012-10-20T09:17:22Z</time>
      </trkpt>
      <trkpt lat="44.01882" lon="6.68831">
        <ele>1329.5</ele>
        <time>2012-10-20T09:17:26Z</time>
      </trkpt>
      <trkpt lat="44.0189" lon="6.68836">
        <ele>1331</ele>
        <time>2012-10-20T09:17:31Z</time>
      </trkpt>
      <trkpt lat="44.01906" lon="6.68836">
        <ele>1330.9</ele>
        <time>2012-10-20T09:17:38Z</time>
      </trkpt>
      <trkpt lat="44.01922" lon="6.6883">
        <ele>1332.4</ele>
        <time>2012-10-20T09:17:44Z</time>
      </trkpt>
      <trkpt lat="44.01935" lon="6.68829">
        <ele>1335.4</ele>
        <time>2012-10-20T09:17:50Z</time>
      </trkpt>
      <trkpt lat="44.01947" lon="6.68835">
        <ele>1336.4</ele>
        <time>2012-10-20T09:17:58Z</time>
      </trkpt>
      <trkpt lat="44.01954" lon="6.68835">
        <ele>1332.6</ele>
        <time>2012-10-20T09:18:01Z</time>
      </trkpt>
      <trkpt lat="44.01968" lon="6.68834">
        <ele>1332.8</ele>
        <time>2012-10-20T09:18:08Z</time>
      </trkpt>
      <trkpt lat="44.01974" lon="6.68842">
        <ele>1342</ele>
        <time>2012-10-20T09:18:13Z</time>
      </trkpt>
      <trkpt lat="44.01986" lon="6.68841">
        <ele>1337.8</ele>
        <time>2012-10-20T09:18:20Z</time>
      </trkpt>
      <trkpt lat="44.01989" lon="6.68843">
        <ele>1335.9</ele>
        <time>2012-10-20T09:18:23Z</time>
      </trkpt>
      <trkpt lat="44.01995" lon="6.68846">
        <ele>1340.8</ele>
        <time>2012-10-20T09:18:30Z</time>
      </trkpt>
      <trkpt lat="44.01996" lon="6.68848">
        <ele>1342.9</ele>
        <time>2012-10-20T09:18:32Z</time>
      </trkpt>
      <trkpt lat="44.01995" lon="6.68857">
        <ele>1353.4</ele>
        <time>2012-10-20T09:18:39Z</time>
      </trkpt>
      <trkpt lat="44.01996" lon="6.6886">
        <ele>1350.9</ele>
        <time>2012-10-20T09:18:45Z</time>
      </trkpt>
      <trkpt lat="44.01994" lon="6.68871">
        <ele>1351.8</ele>
        <time>2012-10-20T09:18:49Z</time>
      </trkpt>
      <trkpt lat="44.01978" lon="6.68913">
        <ele>1352.2</ele>
        <time>2012-10-20T09:19:07Z</time>
      </trkpt>
      <trkpt lat="44.01975" lon="6.68947">
        <ele>1348.9</ele>
        <time>2012-10-20T09:19:17Z</time>
      </trkpt>
      <trkpt lat="44.01978" lon="6.68961">
        <ele>1345.4</ele>
        <time>2012-10-20T09:19:21Z</time>
      </trkpt>
      <trkpt lat="44.01982" lon="6.6897">
        <ele>1341.5</ele>
        <time>2012-10-20T09:19:24Z</time>
      </trkpt>
      <trkpt lat="44.01981" lon="6.68982">
        <ele>1343.2</ele>
        <time>2012-10-20T09:19:28Z</time>
      </trkpt>
      <trkpt lat="44.01975" lon="6.69002">
        <ele>1343.6</ele>
        <time>2012-10-20T09:19:40Z</time>
      </trkpt>
      <trkpt lat="44.01968" lon="6.69017">
        <ele>1338.7</ele>
        <time>2012-10-20T09:19:46Z</time>
      </trkpt>
      <trkpt lat="44.01961" lon="6.69047">
        <ele>1333.3</ele>
        <time>2012-10-20T09:19:56Z</time>
      </trkpt>
      <trkpt lat="44.01959" lon="6.69064">
        <ele>1338.5</ele>
        <time>2012-10-20T09:20:03Z</time>
      </trkpt>
      <trkpt lat="44.0196" lon="6.69075">
        <ele>1339.2</ele>
        <time>2012-10-20T09:20:08Z</time>
      </trkpt>
      <trkpt lat="44.01959" lon="6.69084">
        <ele>1338.6</ele>
        <time>2012-10-20T09:20:12Z</time>
      </trkpt>
      <trkpt lat="44.01971" lon="6.69104">
        <ele>1344.8</ele>
        <time>2012-10-20T09:20:30Z</time>
      </trkpt>
      <trkpt lat="44.01972" lon="6.69113">
        <ele>1360.4</ele>
        <time>2012-10-20T09:20:59Z</time>
      </trkpt>
      <trkpt lat="44.01979" lon="6.69119">
        <ele>1361.5</ele>
        <time>2012-10-20T09:21:06Z</time>
      </trkpt>
      <trkpt lat="44.01981" lon="6.69125">
        <ele>1359.1</ele>
        <time>2012-10-20T09:21:11Z</time>
      </trkpt>
      <trkpt lat="44.0198" lon="6.69127">
        <ele>1356.5</ele>
        <time>2012-10-20T09:21:14Z</time>
      </trkpt>
      <trkpt lat="44.01983" lon="6.69142">
        <ele>1352.1</ele>
        <time>2012-10-20T09:21:19Z</time>
      </trkpt>
      <trkpt lat="44.01987" lon="6.69156">
        <ele>1347.9</ele>
        <time>2012-10-20T09:21:23Z</time>
      </trkpt>
      <trkpt lat="44.01989" lon="6.6916">
        <ele>1344.5</ele>
        <time>2012-10-20T09:21:26Z</time>
      </trkpt>
      <trkpt lat="44.01994" lon="6.69172">
        <ele>1342.1</ele>
        <time>2012-10-20T09:21:31Z</time>
      </trkpt>
      <trkpt lat="44.02007" lon="6.69188">
        <ele>1340.9</ele>
        <time>2012-10-20T09:21:38Z</time>
      </trkpt>
      <trkpt lat="44.02019" lon="6.69199">
        <ele>1342.2</ele>
        <time>2012-10-20T09:21:45Z</time>
      </trkpt>
      <trkpt lat="44.02054" lon="6.69267">
        <ele>1338.9</ele>
        <time>2012-10-20T09:22:02Z</time>
      </trkpt>
      <trkpt lat="44.02057" lon="6.69278">
        <ele>1336.8</ele>
        <time>2012-10-20T09:22:04Z</time>
      </trkpt>
      <trkpt lat="44.02076" lon="6.69315">
        <ele>1331</ele>
        <time>2012-10-20T09:22:11Z</time>
      </trkpt>
      <trkpt lat="44.02096" lon="6.6933">
        <ele>1326.7</ele>
        <time>2012-10-20T09:22:17Z</time>
      </trkpt>
      <trkpt lat="44.02133" lon="6.69367">
        <ele>1322.2</ele>
        <time>2012-10-20T09:22:32Z</time>
      </trkpt>
      <trkpt lat="44.02144" lon="6.69381">
        <ele>1319.2</ele>
        <time>2012-10-20T09:22:38Z</time>
      </trkpt>
      <trkpt lat="44.02145" lon="6.69398">
        <ele>1319.5</ele>
        <time>2012-10-20T09:22:43Z</time>
      </trkpt>
      <trkpt lat="44.02142" lon="6.69403">
        <ele>1318.6</ele>
        <time>2012-10-20T09:22:48Z</time>
      </trkpt>
      <trkpt lat="44.02142" lon="6.69403">
        <ele>1319.9</ele>
        <time>2012-10-20T09:22:49Z</time>
      </trkpt>
      <trkpt lat="44.02139" lon="6.69412">
        <ele>1324.9</ele>
        <time>2012-10-20T09:22:53Z</time>
      </trkpt>
      <trkpt lat="44.02145" lon="6.69452">
        <ele>1327</ele>
        <time>2012-10-20T09:23:09Z</time>
      </trkpt>
      <trkpt lat="44.02152" lon="6.69469">
        <ele>1327.5</ele>
        <time>2012-10-20T09:23:15Z</time>
      </trkpt>
      <trkpt lat="44.02165" lon="6.69486">
        <ele>1326.1</ele>
        <time>2012-10-20T09:23:23Z</time>
      </trkpt>
      <trkpt lat="44.02179" lon="6.69511">
        <ele>1320.7</ele>
        <time>2012-10-20T09:23:32Z</time>
      </trkpt>
      <trkpt lat="44.02182" lon="6.69526">
        <ele>1315.3</ele>
        <time>2012-10-20T09:23:42Z</time>
      </trkpt>
      <trkpt lat="44.02182" lon="6.69525">
        <ele>1316.5</ele>
        <time>2012-10-20T09:23:44Z</time>
      </trkpt>
      <trkpt lat="44.02176" lon="6.69533">
        <ele>1318.6</ele>
        <time>2012-10-20T09:23:49Z</time>
      </trkpt>
      <trkpt lat="44.02174" lon="6.69549">
        <ele>1320.8</ele>
        <time>2012-10-20T09:23:53Z</time>
      </trkpt>
      <trkpt lat="44.02165" lon="6.69567">
        <ele>1318.8</ele>
        <time>2012-10-20T09:23:57Z</time>
      </trkpt>
      <trkpt lat="44.0215" lon="6.69585">
        <ele>1318.2</ele>
        <time>2012-10-20T09:24:02Z</time>
      </trkpt>
      <trkpt lat="44.02142" lon="6.69592">
        <ele>1317.3</ele>
        <time>2012-10-20T09:24:06Z</time>
      </trkpt>
      <trkpt lat="44.02135" lon="6.69588">
        <ele>1314.5</ele>
        <time>2012-10-20T09:24:10Z</time>
      </trkpt>
      <trkpt lat="44.02137" lon="6.69593">
        <ele>1316.5</ele>
        <time>2012-10-20T09:24:14Z</time>
      </trkpt>
      <trkpt lat="44.02139" lon="6.69594">
        <ele>1317.5</ele>
        <time>2012-10-20T09:24:19Z</time>
      </trkpt>
      <trkpt lat="44.02139" lon="6.69594">
        <ele>1320.1</ele>
        <time>2012-10-20T09:24:25Z</time>
      </trkpt>
      <trkpt lat="44.02133" lon="6.696">
        <ele>1329.7</ele>
        <time>2012-10-20T09:26:12Z</time>
      </trkpt>
      <trkpt lat="44.02133" lon="6.69597">
        <ele>1323.6</ele>
        <time>2012-10-20T09:26:17Z</time>
      </trkpt>
      <trkpt lat="44.02124" lon="6.69589">
        <ele>1310.8</ele>
        <time>2012-10-20T09:26:24Z</time>
      </trkpt>
      <trkpt lat="44.02123" lon="6.6959">
        <ele>1308.9</ele>
        <time>2012-10-20T09:26:25Z</time>
      </trkpt>
      <trkpt lat="44.02121" lon="6.69595">
        <ele>1305</ele>
        <time>2012-10-20T09:26:29Z</time>
      </trkpt>
      <trkpt lat="44.02113" lon="6.69589">
        <ele>1301.1</ele>
        <time>2012-10-20T09:26:35Z</time>
      </trkpt>
      <trkpt lat="44.02109" lon="6.69588">
        <ele>1300.3</ele>
        <time>2012-10-20T09:26:39Z</time>
      </trkpt>
      <trkpt lat="44.02101" lon="6.69581">
        <ele>1315</ele>
        <time>2012-10-20T09:27:17Z</time>
      </trkpt>
      <trkpt lat="44.02102" lon="6.69582">
        <ele>1315</ele>
        <time>2012-10-20T09:27:29Z</time>
      </trkpt>
      <trkpt lat="44.02102" lon="6.69583">
        <ele>1313.8</ele>
        <time>2012-10-20T09:27:35Z</time>
      </trkpt>
      <trkpt lat="44.02099" lon="6.69586">
        <ele>1313.6</ele>
        <time>2012-10-20T09:27:48Z</time>
      </trkpt>
      <trkpt lat="44.021" lon="6.6957">
        <ele>1309.9</ele>
        <time>2012-10-20T09:27:55Z</time>
      </trkpt>
      <trkpt lat="44.02101" lon="6.69566">
        <ele>1309.1</ele>
        <time>2012-10-20T09:27:56Z</time>
      </trkpt>
      <trkpt lat="44.02099" lon="6.69565">
        <ele>1300</ele>
        <time>2012-10-20T09:28:03Z</time>
      </trkpt>
      <trkpt lat="44.02097" lon="6.69564">
        <ele>1290.2</ele>
        <time>2012-10-20T09:28:09Z</time>
      </trkpt>
      <trkpt lat="44.02093" lon="6.69562">
        <ele>1279.9</ele>
        <time>2012-10-20T09:28:15Z</time>
      </trkpt>
      <trkpt lat="44.02096" lon="6.69563">
        <ele>1274.2</ele>
        <time>2012-10-20T09:28:52Z</time>
      </trkpt>
      <trkpt lat="44.02095" lon="6.69559">
        <ele>1327.4</ele>
        <time>2012-10-20T09:29:56Z</time>
      </trkpt>
      <trkpt lat="44.02087" lon="6.69558">
        <ele>1259.2</ele>
        <time>2012-10-20T09:31:59Z</time>
      </trkpt>
      <trkpt lat="44.02087" lon="6.6956">
        <ele>1260.8</ele>
        <time>2012-10-20T09:32:00Z</time>
      </trkpt>
      <trkpt lat="44.02085" lon="6.69564">
        <ele>1267.2</ele>
        <time>2012-10-20T09:32:04Z</time>
      </trkpt>
      <trkpt lat="44.02081" lon="6.69568">
        <ele>1276.3</ele>
        <time>2012-10-20T09:32:09Z</time>
      </trkpt>
      <trkpt lat="44.02081" lon="6.69566">
        <ele>1280.9</ele>
        <time>2012-10-20T09:32:11Z</time>
      </trkpt>
      <trkpt lat="44.02076" lon="6.69559">
        <ele>1283.3</ele>
        <time>2012-10-20T09:32:16Z</time>
      </trkpt>
      <trkpt lat="44.02074" lon="6.69557">
        <ele>1274.8</ele>
        <time>2012-10-20T09:32:23Z</time>
      </trkpt>
      <trkpt lat="44.02073" lon="6.69558">
        <ele>1275.4</ele>
        <time>2012-10-20T09:32:32Z</time>
      </trkpt>
      <trkpt lat="44.0208" lon="6.69554">
        <ele>1282.7</ele>
        <time>2012-10-20T09:35:54Z</time>
      </trkpt>
      <trkpt lat="44.02079" lon="6.69553">
        <ele>1282.4</ele>
        <time>2012-10-20T09:35:56Z</time>
      </trkpt>
      <trkpt lat="44.02072" lon="6.69551">
        <ele>1280</ele>
        <time>2012-10-20T09:36:02Z</time>
      </trkpt>
      <trkpt lat="44.02066" lon="6.69547">
        <ele>1279.7</ele>
        <time>2012-10-20T09:36:07Z</time>
      </trkpt>
      <trkpt lat="44.02059" lon="6.69539">
        <ele>1282.3</ele>
        <time>2012-10-20T09:36:14Z</time>
      </trkpt>
      <trkpt lat="44.02055" lon="6.69536">
        <ele>1286.1</ele>
        <time>2012-10-20T09:36:20Z</time>
      </trkpt>
      <trkpt lat="44.02055" lon="6.69535">
        <ele>1292.2</ele>
        <time>2012-10-20T09:36:23Z</time>
      </trkpt>
      <trkpt lat="44.02043" lon="6.69523">
        <ele>1284.4</ele>
        <time>2012-10-20T09:36:31Z</time>
      </trkpt>
      <trkpt lat="44.02038" lon="6.69522">
        <ele>1275.4</ele>
        <time>2012-10-20T09:36:39Z</time>
      </trkpt>
      <trkpt lat="44.02039" lon="6.69523">
        <ele>1279</ele>
        <time>2012-10-20T09:36:42Z</time>
      </trkpt>
      <trkpt lat="44.02035" lon="6.69518">
        <ele>1273</ele>
        <time>2012-10-20T09:36:52Z</time>
      </trkpt>
      <trkpt lat="44.02028" lon="6.69507">
        <ele>1278.7</ele>
        <time>2012-10-20T09:36:57Z</time>
      </trkpt>
      <trkpt lat="44.02026" lon="6.69502">
        <ele>1276.7</ele>
        <time>2012-10-20T09:36:58Z</time>
      </trkpt>
      <trkpt lat="44.02021" lon="6.69491">
        <ele>1282</ele>
        <time>2012-10-20T09:37:02Z</time>
      </trkpt>
      <trkpt lat="44.02016" lon="6.69494">
        <ele>1278.9</ele>
        <time>2012-10-20T09:37:06Z</time>
      </trkpt>
      <trkpt lat="44.02013" lon="6.69501">
        <ele>1283</ele>
        <time>2012-10-20T09:37:14Z</time>
      </trkpt>
      <trkpt lat="44.02011" lon="6.69504">
        <ele>1286.8</ele>
        <time>2012-10-20T09:37:22Z</time>
      </trkpt>
      <trkpt lat="44.01995" lon="6.69497">
        <ele>1282.3</ele>
        <time>2012-10-20T09:37:32Z</time>
      </trkpt>
      <trkpt lat="44.01994" lon="6.69504">
        <ele>1278</ele>
        <time>2012-10-20T09:37:35Z</time>
      </trkpt>
      <trkpt lat="44.01994" lon="6.69511">
        <ele>1276.8</ele>
        <time>2012-10-20T09:37:37Z</time>
      </trkpt>
      <trkpt lat="44.01996" lon="6.69528">
        <ele>1276.2</ele>
        <time>2012-10-20T09:37:44Z</time>
      </trkpt>
      <trkpt lat="44.0199" lon="6.69528">
        <ele>1274.9</ele>
        <time>2012-10-20T09:37:47Z</time>
      </trkpt>
      <trkpt lat="44.01985" lon="6.69526">
        <ele>1272.7</ele>
        <time>2012-10-20T09:37:49Z</time>
      </trkpt>
      <trkpt lat="44.01983" lon="6.69521">
        <ele>1272.1</ele>
        <time>2012-10-20T09:37:53Z</time>
      </trkpt>
      <trkpt lat="44.01976" lon="6.6952">
        <ele>1271</ele>
        <time>2012-10-20T09:37:58Z</time>
      </trkpt>
      <trkpt lat="44.01975" lon="6.69529">
        <ele>1268.9</ele>
        <time>2012-10-20T09:38:02Z</time>
      </trkpt>
      <trkpt lat="44.01973" lon="6.69533">
        <ele>1265.5</ele>
        <time>2012-10-20T09:38:06Z</time>
      </trkpt>
      <trkpt lat="44.0197" lon="6.69531">
        <ele>1262.3</ele>
        <time>2012-10-20T09:38:13Z</time>
      </trkpt>
      <trkpt lat="44.01969" lon="6.69528">
        <ele>1257.4</ele>
        <time>2012-10-20T09:38:24Z</time>
      </trkpt>
      <trkpt lat="44.0197" lon="6.69532">
        <ele>1258.1</ele>
        <time>2012-10-20T09:38:31Z</time>
      </trkpt>
      <trkpt lat="44.01971" lon="6.69539">
        <ele>1256.1</ele>
        <time>2012-10-20T09:38:51Z</time>
      </trkpt>
      <trkpt lat="44.01968" lon="6.69542">
        <ele>1256.6</ele>
        <time>2012-10-20T09:38:57Z</time>
      </trkpt>
      <trkpt lat="44.01968" lon="6.6954">
        <ele>1257.2</ele>
        <time>2012-10-20T09:39:07Z</time>
      </trkpt>
      <trkpt lat="44.01978" lon="6.69531">
        <ele>1291.6</ele>
        <time>2012-10-20T09:43:27Z</time>
      </trkpt>
      <trkpt lat="44.01965" lon="6.69522">
        <ele>1270</ele>
        <time>2012-10-20T09:53:02Z</time>
      </trkpt>
      <trkpt lat="44.01958" lon="6.69552">
        <ele>1281.8</ele>
        <time>2012-10-20T09:53:35Z</time>
      </trkpt>
      <trkpt lat="44.0196" lon="6.69549">
        <ele>1265.8</ele>
        <time>2012-10-20T09:56:05Z</time>
      </trkpt>
      <trkpt lat="44.01959" lon="6.69544">
        <ele>1266.5</ele>
        <time>2012-10-20T09:56:58Z</time>
      </trkpt>
      <trkpt lat="44.01968" lon="6.69517">
        <ele>1255.2</ele>
        <time>2012-10-20T10:03:25Z</time>
      </trkpt>
      <trkpt lat="44.01966" lon="6.69533">
        <ele>1263.6</ele>
        <time>2012-10-20T10:08:27Z</time>
      </trkpt>
      <trkpt lat="44.01965" lon="6.69535">
        <ele>1264.8</ele>
        <time>2012-10-20T10:08:29Z</time>
      </trkpt>
      <trkpt lat="44.01963" lon="6.69534">
        <ele>1264</ele>
        <time>2012-10-20T10:08:31Z</time>
      </trkpt>
      <trkpt lat="44.01962" lon="6.69537">
        <ele>1262</ele>
        <time>2012-10-20T10:08:35Z</time>
      </trkpt>
      <trkpt lat="44.01964" lon="6.6954">
        <ele>1261.2</ele>
        <time>2012-10-20T10:08:39Z</time>
      </trkpt>
      <trkpt lat="44.01963" lon="6.69541">
        <ele>1260</ele>
        <time>2012-10-20T10:08:49Z</time>
      </trkpt>
      <trkpt lat="44.01956" lon="6.69538">
        <ele>1263.8</ele>
        <time>2012-10-20T10:09:36Z</time>
      </trkpt>
      <trkpt lat="44.01963" lon="6.69532">
        <ele>1246.3</ele>
        <time>2012-10-20T10:10:01Z</time>
      </trkpt>
      <trkpt lat="44.01959" lon="6.6953">
        <ele>1248.4</ele>
        <time>2012-10-20T10:10:09Z</time>
      </trkpt>
      <trkpt lat="44.01952" lon="6.69531">
        <ele>1248.8</ele>
        <time>2012-10-20T10:10:13Z</time>
      </trkpt>
      <trkpt lat="44.01952" lon="6.69534">
        <ele>1252.3</ele>
        <time>2012-10-20T10:10:18Z</time>
      </trkpt>
      <trkpt lat="44.01953" lon="6.69535">
        <ele>1254.1</ele>
        <time>2012-10-20T10:10:34Z</time>
      </trkpt>
      <trkpt lat="44.0195" lon="6.69533">
        <ele>1252.2</ele>
        <time>2012-10-20T10:11:26Z</time>
      </trkpt>
      <trkpt lat="44.01946" lon="6.69527">
        <ele>1248.7</ele>
        <time>2012-10-20T10:11:32Z</time>
      </trkpt>
      <trkpt lat="44.01946" lon="6.69531">
        <ele>1247.6</ele>
        <time>2012-10-20T10:11:38Z</time>
      </trkpt>
      <trkpt lat="44.01946" lon="6.69534">
        <ele>1247.3</ele>
        <time>2012-10-20T10:11:40Z</time>
      </trkpt>
      <trkpt lat="44.01942" lon="6.69532">
        <ele>1246.1</ele>
        <time>2012-10-20T10:11:44Z</time>
      </trkpt>
      <trkpt lat="44.01942" lon="6.69529">
        <ele>1245.6</ele>
        <time>2012-10-20T10:11:49Z</time>
      </trkpt>
      <trkpt lat="44.01941" lon="6.69534">
        <ele>1246.6</ele>
        <time>2012-10-20T10:11:55Z</time>
      </trkpt>
      <trkpt lat="44.01943" lon="6.69536">
        <ele>1246.9</ele>
        <time>2012-10-20T10:12:01Z</time>
      </trkpt>
      <trkpt lat="44.01942" lon="6.69537">
        <ele>1253.7</ele>
        <time>2012-10-20T10:12:15Z</time>
      </trkpt>
      <trkpt lat="44.01944" lon="6.69538">
        <ele>1254.2</ele>
        <time>2012-10-20T10:12:21Z</time>
      </trkpt>
      <trkpt lat="44.01946" lon="6.69538">
        <ele>1254.9</ele>
        <time>2012-10-20T10:12:23Z</time>
      </trkpt>
      <trkpt lat="44.01946" lon="6.6954">
        <ele>1255.7</ele>
        <time>2012-10-20T10:12:28Z</time>
      </trkpt>
      <trkpt lat="44.01952" lon="6.69542">
        <ele>1252.3</ele>
        <time>2012-10-20T10:12:38Z</time>
      </trkpt>
      <trkpt lat="44.01952" lon="6.69548">
        <ele>1255.7</ele>
        <time>2012-10-20T10:13:31Z</time>
      </trkpt>
      <trkpt lat="44.01956" lon="6.69548">
        <ele>1252.5</ele>
        <time>2012-10-20T10:13:36Z</time>
      </trkpt>
      <trkpt lat="44.01959" lon="6.69547">
        <ele>1250.5</ele>
        <time>2012-10-20T10:13:43Z</time>
      </trkpt>
      <trkpt lat="44.01956" lon="6.69546">
        <ele>1249.9</ele>
        <time>2012-10-20T10:13:46Z</time>
      </trkpt>
      <trkpt lat="44.01953" lon="6.6955">
        <ele>1253.4</ele>
        <time>2012-10-20T10:13:51Z</time>
      </trkpt>
      <trkpt lat="44.01947" lon="6.6955">
        <ele>1261.1</ele>
        <time>2012-10-20T10:14:05Z</time>
      </trkpt>
      <trkpt lat="44.01945" lon="6.69558">
        <ele>1267.2</ele>
        <time>2012-10-20T10:14:12Z</time>
      </trkpt>
      <trkpt lat="44.01946" lon="6.69562">
        <ele>1265.2</ele>
        <time>2012-10-20T10:14:21Z</time>
      </trkpt>
      <trkpt lat="44.01947" lon="6.69562">
        <ele>1264</ele>
        <time>2012-10-20T10:14:22Z</time>
      </trkpt>
      <trkpt lat="44.0195" lon="6.69564">
        <ele>1255.2</ele>
        <time>2012-10-20T10:14:29Z</time>
      </trkpt>
      <trkpt lat="44.01958" lon="6.69567">
        <ele>1243.8</ele>
        <time>2012-10-20T10:14:43Z</time>
      </trkpt>
      <trkpt lat="44.01958" lon="6.69576">
        <ele>1244.4</ele>
        <time>2012-10-20T10:14:50Z</time>
      </trkpt>
      <trkpt lat="44.01957" lon="6.69579">
        <ele>1240.7</ele>
        <time>2012-10-20T10:15:34Z</time>
      </trkpt>
      <trkpt lat="44.01955" lon="6.69577">
        <ele>1243.9</ele>
        <time>2012-10-20T10:15:41Z</time>
      </trkpt>
      <trkpt lat="44.01956" lon="6.69574">
        <ele>1249</ele>
        <time>2012-10-20T10:15:47Z</time>
      </trkpt>
      <trkpt lat="44.01954" lon="6.69573">
        <ele>1250.3</ele>
        <time>2012-10-20T10:15:50Z</time>
      </trkpt>
      <trkpt lat="44.01954" lon="6.69573">
        <ele>1255.1</ele>
        <time>2012-10-20T10:15:57Z</time>
      </trkpt>
      <trkpt lat="44.01957" lon="6.69566">
        <ele>1254</ele>
        <time>2012-10-20T10:16:52Z</time>
      </trkpt>
      <trkpt lat="44.01951" lon="6.69567">
        <ele>1248.9</ele>
        <time>2012-10-20T10:16:58Z</time>
      </trkpt>
      <trkpt lat="44.01952" lon="6.6957">
        <ele>1244.9</ele>
        <time>2012-10-20T10:17:04Z</time>
      </trkpt>
      <trkpt lat="44.01949" lon="6.69573">
        <ele>1244.7</ele>
        <time>2012-10-20T10:17:14Z</time>
      </trkpt>
      <trkpt lat="44.01948" lon="6.69578">
        <ele>1243.9</ele>
        <time>2012-10-20T10:17:20Z</time>
      </trkpt>
      <trkpt lat="44.01948" lon="6.69581">
        <ele>1243</ele>
        <time>2012-10-20T10:17:22Z</time>
      </trkpt>
      <trkpt lat="44.01957" lon="6.69593">
        <ele>1241</ele>
        <time>2012-10-20T10:17:35Z</time>
      </trkpt>
      <trkpt lat="44.01959" lon="6.69594">
        <ele>1237.7</ele>
        <time>2012-10-20T10:17:41Z</time>
      </trkpt>
      <trkpt lat="44.01959" lon="6.69596">
        <ele>1237.3</ele>
        <time>2012-10-20T10:17:42Z</time>
      </trkpt>
      <trkpt lat="44.01959" lon="6.69599">
        <ele>1236.5</ele>
        <time>2012-10-20T10:17:45Z</time>
      </trkpt>
      <trkpt lat="44.0196" lon="6.69608">
        <ele>1235</ele>
        <time>2012-10-20T10:17:51Z</time>
      </trkpt>
      <trkpt lat="44.01958" lon="6.69613">
        <ele>1240.3</ele>
        <time>2012-10-20T10:21:13Z</time>
      </trkpt>
      <trkpt lat="44.01956" lon="6.69613">
        <ele>1245.2</ele>
        <time>2012-10-20T10:21:19Z</time>
      </trkpt>
      <trkpt lat="44.01952" lon="6.69615">
        <ele>1248</ele>
        <time>2012-10-20T10:21:25Z</time>
      </trkpt>
      <trkpt lat="44.01952" lon="6.69614">
        <ele>1248.2</ele>
        <time>2012-10-20T10:21:26Z</time>
      </trkpt>
      <trkpt lat="44.01947" lon="6.69614">
        <ele>1249.4</ele>
        <time>2012-10-20T10:21:30Z</time>
      </trkpt>
      <trkpt lat="44.0194" lon="6.69616">
        <ele>1253.1</ele>
        <time>2012-10-20T10:21:36Z</time>
      </trkpt>
      <trkpt lat="44.01934" lon="6.6962">
        <ele>1258.4</ele>
        <time>2012-10-20T10:21:47Z</time>
      </trkpt>
      <trkpt lat="44.01933" lon="6.69626">
        <ele>1253.7</ele>
        <time>2012-10-20T10:21:51Z</time>
      </trkpt>
      <trkpt lat="44.01936" lon="6.69627">
        <ele>1247.6</ele>
        <time>2012-10-20T10:21:57Z</time>
      </trkpt>
      <trkpt lat="44.01938" lon="6.69621">
        <ele>1239.5</ele>
        <time>2012-10-20T10:24:21Z</time>
      </trkpt>
      <trkpt lat="44.01942" lon="6.69621">
        <ele>1237.7</ele>
        <time>2012-10-20T10:24:31Z</time>
      </trkpt>
      <trkpt lat="44.01931" lon="6.69616">
        <ele>1237.5</ele>
        <time>2012-10-20T10:24:36Z</time>
      </trkpt>
      <trkpt lat="44.01931" lon="6.69625">
        <ele>1236.5</ele>
        <time>2012-10-20T10:24:40Z</time>
      </trkpt>
      <trkpt lat="44.01929" lon="6.69635">
        <ele>1234.8</ele>
        <time>2012-10-20T10:24:44Z</time>
      </trkpt>
      <trkpt lat="44.01923" lon="6.69644">
        <ele>1232</ele>
        <time>2012-10-20T10:24:47Z</time>
      </trkpt>
      <trkpt lat="44.01921" lon="6.69654">
        <ele>1228.8</ele>
        <time>2012-10-20T10:24:51Z</time>
      </trkpt>
      <trkpt lat="44.01913" lon="6.69665">
        <ele>1224.8</ele>
        <time>2012-10-20T10:25:04Z</time>
      </trkpt>
      <trkpt lat="44.0191" lon="6.69662">
        <ele>1237.5</ele>
        <time>2012-10-20T10:26:09Z</time>
      </trkpt>
      <trkpt lat="44.01911" lon="6.69666">
        <ele>1235.1</ele>
        <time>2012-10-20T10:26:15Z</time>
      </trkpt>
      <trkpt lat="44.0191" lon="6.69663">
        <ele>1231.1</ele>
        <time>2012-10-20T10:26:20Z</time>
      </trkpt>
      <trkpt lat="44.01909" lon="6.69662">
        <ele>1224.6</ele>
        <time>2012-10-20T10:26:33Z</time>
      </trkpt>
      <trkpt lat="44.01907" lon="6.69661">
        <ele>1223.2</ele>
        <time>2012-10-20T10:26:35Z</time>
      </trkpt>
      <trkpt lat="44.01905" lon="6.6968">
        <ele>1212.8</ele>
        <time>2012-10-20T10:26:46Z</time>
      </trkpt>
      <trkpt lat="44.01906" lon="6.69688">
        <ele>1208.1</ele>
        <time>2012-10-20T10:26:50Z</time>
      </trkpt>
      <trkpt lat="44.019" lon="6.6969">
        <ele>1211.3</ele>
        <time>2012-10-20T10:26:58Z</time>
      </trkpt>
      <trkpt lat="44.01897" lon="6.69684">
        <ele>1213</ele>
        <time>2012-10-20T10:27:03Z</time>
      </trkpt>
      <trkpt lat="44.01896" lon="6.69691">
        <ele>1211.9</ele>
        <time>2012-10-20T10:27:07Z</time>
      </trkpt>
      <trkpt lat="44.01897" lon="6.69701">
        <ele>1211.1</ele>
        <time>2012-10-20T10:27:12Z</time>
      </trkpt>
      <trkpt lat="44.01889" lon="6.69694">
        <ele>1207.9</ele>
        <time>2012-10-20T10:27:17Z</time>
      </trkpt>
      <trkpt lat="44.01882" lon="6.69689">
        <ele>1206.9</ele>
        <time>2012-10-20T10:27:21Z</time>
      </trkpt>
      <trkpt lat="44.01882" lon="6.69688">
        <ele>1208.6</ele>
        <time>2012-10-20T10:27:25Z</time>
      </trkpt>
      <trkpt lat="44.01884" lon="6.69692">
        <ele>1208.9</ele>
        <time>2012-10-20T10:27:32Z</time>
      </trkpt>
      <trkpt lat="44.01881" lon="6.69695">
        <ele>1210.9</ele>
        <time>2012-10-20T10:27:38Z</time>
      </trkpt>
      <trkpt lat="44.01879" lon="6.69694">
        <ele>1207.7</ele>
        <time>2012-10-20T10:28:24Z</time>
      </trkpt>
      <trkpt lat="44.01881" lon="6.69696">
        <ele>1205</ele>
        <time>2012-10-20T10:28:28Z</time>
      </trkpt>
      <trkpt lat="44.01882" lon="6.6971">
        <ele>1203.5</ele>
        <time>2012-10-20T10:28:34Z</time>
      </trkpt>
      <trkpt lat="44.01882" lon="6.69713">
        <ele>1202.6</ele>
        <time>2012-10-20T10:28:36Z</time>
      </trkpt>
      <trkpt lat="44.01878" lon="6.69716">
        <ele>1201.3</ele>
        <time>2012-10-20T10:28:41Z</time>
      </trkpt>
      <trkpt lat="44.0188" lon="6.69719">
        <ele>1202.6</ele>
        <time>2012-10-20T10:29:08Z</time>
      </trkpt>
      <trkpt lat="44.01879" lon="6.69721">
        <ele>1198.7</ele>
        <time>2012-10-20T10:29:15Z</time>
      </trkpt>
      <trkpt lat="44.01879" lon="6.69731">
        <ele>1197.8</ele>
        <time>2012-10-20T10:29:20Z</time>
      </trkpt>
      <trkpt lat="44.01878" lon="6.69733">
        <ele>1196.3</ele>
        <time>2012-10-20T10:29:27Z</time>
      </trkpt>
      <trkpt lat="44.01861" lon="6.6972">
        <ele>1218.3</ele>
        <time>2012-10-20T10:30:49Z</time>
      </trkpt>
      <trkpt lat="44.01859" lon="6.69723">
        <ele>1215.3</ele>
        <time>2012-10-20T10:30:52Z</time>
      </trkpt>
      <trkpt lat="44.01857" lon="6.69729">
        <ele>1207.7</ele>
        <time>2012-10-20T10:30:58Z</time>
      </trkpt>
      <trkpt lat="44.01858" lon="6.69729">
        <ele>1204.4</ele>
        <time>2012-10-20T10:30:59Z</time>
      </trkpt>
      <trkpt lat="44.01854" lon="6.69728">
        <ele>1188.3</ele>
        <time>2012-10-20T10:31:06Z</time>
      </trkpt>
      <trkpt lat="44.01851" lon="6.69738">
        <ele>1180.3</ele>
        <time>2012-10-20T10:31:12Z</time>
      </trkpt>
      <trkpt lat="44.01846" lon="6.69738">
        <ele>1176.4</ele>
        <time>2012-10-20T10:31:16Z</time>
      </trkpt>
      <trkpt lat="44.01844" lon="6.69726">
        <ele>1173.9</ele>
        <time>2012-10-20T10:31:20Z</time>
      </trkpt>
      <trkpt lat="44.01839" lon="6.69724">
        <ele>1173.4</ele>
        <time>2012-10-20T10:31:23Z</time>
      </trkpt>
      <trkpt lat="44.01835" lon="6.6973">
        <ele>1173.1</ele>
        <time>2012-10-20T10:31:27Z</time>
      </trkpt>
      <trkpt lat="44.01831" lon="6.69723">
        <ele>1170.3</ele>
        <time>2012-10-20T10:31:32Z</time>
      </trkpt>
      <trkpt lat="44.01826" lon="6.69724">
        <ele>1171.7</ele>
        <time>2012-10-20T10:31:37Z</time>
      </trkpt>
      <trkpt lat="44.01822" lon="6.69735">
        <ele>1172.4</ele>
        <time>2012-10-20T10:31:42Z</time>
      </trkpt>
      <trkpt lat="44.01817" lon="6.69766">
        <ele>1165.5</ele>
        <time>2012-10-20T10:31:49Z</time>
      </trkpt>
      <trkpt lat="44.01818" lon="6.69776">
        <ele>1160.3</ele>
        <time>2012-10-20T10:31:53Z</time>
      </trkpt>
      <trkpt lat="44.01812" lon="6.69775">
        <ele>1155.8</ele>
        <time>2012-10-20T10:31:58Z</time>
      </trkpt>
      <trkpt lat="44.01811" lon="6.69776">
        <ele>1155.9</ele>
        <time>2012-10-20T10:32:00Z</time>
      </trkpt>
      <trkpt lat="44.01813" lon="6.69793">
        <ele>1150</ele>
        <time>2012-10-20T10:32:05Z</time>
      </trkpt>
      <trkpt lat="44.01815" lon="6.69803">
        <ele>1148</ele>
        <time>2012-10-20T10:32:08Z</time>
      </trkpt>
      <trkpt lat="44.01833" lon="6.69833">
        <ele>1141.3</ele>
        <time>2012-10-20T10:32:19Z</time>
      </trkpt>
      <trkpt lat="44.01834" lon="6.69841">
        <ele>1136.1</ele>
        <time>2012-10-20T10:32:24Z</time>
      </trkpt>
      <trkpt lat="44.01837" lon="6.69845">
        <ele>1140.7</ele>
        <time>2012-10-20T10:32:30Z</time>
      </trkpt>
      <trkpt lat="44.01836" lon="6.69846">
        <ele>1141.9</ele>
        <time>2012-10-20T10:32:32Z</time>
      </trkpt>
      <trkpt lat="44.01829" lon="6.69846">
        <ele>1140.5</ele>
        <time>2012-10-20T10:32:36Z</time>
      </trkpt>
      <trkpt lat="44.01819" lon="6.6985">
        <ele>1138.6</ele>
        <time>2012-10-20T10:32:39Z</time>
      </trkpt>
      <trkpt lat="44.01804" lon="6.69845">
        <ele>1134.2</ele>
        <time>2012-10-20T10:32:44Z</time>
      </trkpt>
      <trkpt lat="44.01798" lon="6.6984">
        <ele>1133.4</ele>
        <time>2012-10-20T10:32:46Z</time>
      </trkpt>
      <trkpt lat="44.01792" lon="6.6983">
        <ele>1131.5</ele>
        <time>2012-10-20T10:32:49Z</time>
      </trkpt>
      <trkpt lat="44.01788" lon="6.69831">
        <ele>1128.4</ele>
        <time>2012-10-20T10:32:53Z</time>
      </trkpt>
      <trkpt lat="44.01784" lon="6.69821">
        <ele>1140</ele>
        <time>2012-10-20T10:33:25Z</time>
      </trkpt>
      <trkpt lat="44.01787" lon="6.69822">
        <ele>1138.8</ele>
        <time>2012-10-20T10:33:30Z</time>
      </trkpt>
      <trkpt lat="44.01784" lon="6.6984">
        <ele>1135.5</ele>
        <time>2012-10-20T10:33:35Z</time>
      </trkpt>
      <trkpt lat="44.01791" lon="6.69854">
        <ele>1130.6</ele>
        <time>2012-10-20T10:33:38Z</time>
      </trkpt>
      <trkpt lat="44.01799" lon="6.69867">
        <ele>1128.5</ele>
        <time>2012-10-20T10:33:41Z</time>
      </trkpt>
      <trkpt lat="44.01799" lon="6.69882">
        <ele>1123.5</ele>
        <time>2012-10-20T10:33:45Z</time>
      </trkpt>
      <trkpt lat="44.01796" lon="6.69889">
        <ele>1119.3</ele>
        <time>2012-10-20T10:33:49Z</time>
      </trkpt>
      <trkpt lat="44.01778" lon="6.69871">
        <ele>1117.4</ele>
        <time>2012-10-20T10:33:55Z</time>
      </trkpt>
      <trkpt lat="44.01755" lon="6.69833">
        <ele>1113.2</ele>
        <time>2012-10-20T10:34:03Z</time>
      </trkpt>
      <trkpt lat="44.01748" lon="6.69819">
        <ele>1112.1</ele>
        <time>2012-10-20T10:34:07Z</time>
      </trkpt>
      <trkpt lat="44.01744" lon="6.69821">
        <ele>1107.2</ele>
        <time>2012-10-20T10:34:11Z</time>
      </trkpt>
      <trkpt lat="44.01745" lon="6.69875">
        <ele>1096</ele>
        <time>2012-10-20T10:34:25Z</time>
      </trkpt>
      <trkpt lat="44.01744" lon="6.69879">
        <ele>1095.1</ele>
        <time>2012-10-20T10:34:26Z</time>
      </trkpt>
      <trkpt lat="44.01736" lon="6.69862">
        <ele>1089.9</ele>
        <time>2012-10-20T10:34:34Z</time>
      </trkpt>
      <trkpt lat="44.01729" lon="6.69852">
        <ele>1090.3</ele>
        <time>2012-10-20T10:34:38Z</time>
      </trkpt>
      <trkpt lat="44.01699" lon="6.69778">
        <ele>1079.6</ele>
        <time>2012-10-20T10:35:00Z</time>
      </trkpt>
      <trkpt lat="44.01697" lon="6.69765">
        <ele>1075.3</ele>
        <time>2012-10-20T10:35:07Z</time>
      </trkpt>
      <trkpt lat="44.01684" lon="6.69737">
        <ele>1075.6</ele>
        <time>2012-10-20T10:35:53Z</time>
      </trkpt>
      <trkpt lat="44.01681" lon="6.69727">
        <ele>1078</ele>
        <time>2012-10-20T10:35:57Z</time>
      </trkpt>
      <trkpt lat="44.01671" lon="6.69708">
        <ele>1072.7</ele>
        <time>2012-10-20T10:36:03Z</time>
      </trkpt>
      <trkpt lat="44.01661" lon="6.69699">
        <ele>1068.7</ele>
        <time>2012-10-20T10:36:08Z</time>
      </trkpt>
      <trkpt lat="44.01589" lon="6.69654">
        <ele>1057.1</ele>
        <time>2012-10-20T10:36:31Z</time>
      </trkpt>
      <trkpt lat="44.01568" lon="6.69644">
        <ele>1057.9</ele>
        <time>2012-10-20T10:36:36Z</time>
      </trkpt>
      <trkpt lat="44.01555" lon="6.69631">
        <ele>1054.1</ele>
        <time>2012-10-20T10:36:40Z</time>
      </trkpt>
      <trkpt lat="44.015" lon="6.69557">
        <ele>1040.3</ele>
        <time>2012-10-20T10:37:01Z</time>
      </trkpt>
      <trkpt lat="44.01488" lon="6.69547">
        <ele>1038.6</ele>
        <time>2012-10-20T10:37:05Z</time>
      </trkpt>
      <trkpt lat="44.0148" lon="6.69527">
        <ele>1036</ele>
        <time>2012-10-20T10:37:09Z</time>
      </trkpt>
      <trkpt lat="44.01475" lon="6.69511">
        <ele>1037.6</ele>
        <time>2012-10-20T10:37:12Z</time>
      </trkpt>
      <trkpt lat="44.01463" lon="6.69488">
        <ele>1039.7</ele>
        <time>2012-10-20T10:37:16Z</time>
      </trkpt>
      <trkpt lat="44.01423" lon="6.69426">
        <ele>1038</ele>
        <time>2012-10-20T10:37:30Z</time>
      </trkpt>
      <trkpt lat="44.01416" lon="6.69426">
        <ele>1036.7</ele>
        <time>2012-10-20T10:37:34Z</time>
      </trkpt>
      <trkpt lat="44.01414" lon="6.69425">
        <ele>1034.3</ele>
        <time>2012-10-20T10:37:40Z</time>
      </trkpt>
      <trkpt lat="44.01413" lon="6.69424">
        <ele>1033.7</ele>
        <time>2012-10-20T10:37:41Z</time>
      </trkpt>
      <trkpt lat="44.01412" lon="6.6942">
        <ele>1032.8</ele>
        <time>2012-10-20T10:37:44Z</time>
      </trkpt>
      <trkpt lat="44.01408" lon="6.69418">
        <ele>1033.7</ele>
        <time>2012-10-20T10:37:51Z</time>
      </trkpt>
      <trkpt lat="44.01402" lon="6.69419">
        <ele>1034.7</ele>
        <time>2012-10-20T10:38:25Z</time>
      </trkpt>
      <trkpt lat="44.01396" lon="6.69418">
        <ele>1034.2</ele>
        <time>2012-10-20T10:38:27Z</time>
      </trkpt>
      <trkpt lat="44.01381" lon="6.69413">
        <ele>1032.4</ele>
        <time>2012-10-20T10:38:31Z</time>
      </trkpt>
      <trkpt lat="44.01365" lon="6.69417">
        <ele>1029.6</ele>
        <time>2012-10-20T10:38:36Z</time>
      </trkpt>
      <trkpt lat="44.01356" lon="6.69406">
        <ele>1029</ele>
        <time>2012-10-20T10:38:40Z</time>
      </trkpt>
      <trkpt lat="44.01343" lon="6.69395">
        <ele>1024.8</ele>
        <time>2012-10-20T10:38:45Z</time>
      </trkpt>
      <trkpt lat="44.01341" lon="6.69393">
        <ele>1023.8</ele>
        <time>2012-10-20T10:38:46Z</time>
      </trkpt>
      <trkpt lat="44.01328" lon="6.69391">
        <ele>1021.6</ele>
        <time>2012-10-20T10:38:50Z</time>
      </trkpt>
      <trkpt lat="44.0131" lon="6.69403">
        <ele>1029.4</ele>
        <time>2012-10-20T10:38:58Z</time>
      </trkpt>
      <trkpt lat="44.01309" lon="6.69405">
        <ele>1030.4</ele>
        <time>2012-10-20T10:38:59Z</time>
      </trkpt>
      <trkpt lat="44.01306" lon="6.69404">
        <ele>1040.7</ele>
        <time>2012-10-20T10:39:06Z</time>
      </trkpt>
      <trkpt lat="44.01305" lon="6.69403">
        <ele>1039.2</ele>
        <time>2012-10-20T10:39:18Z</time>
      </trkpt>
      <trkpt lat="44.01301" lon="6.69389">
        <ele>1062.6</ele>
        <time>2012-10-20T10:41:28Z</time>
      </trkpt>
      <trkpt lat="44.01298" lon="6.69398">
        <ele>1051.6</ele>
        <time>2012-10-20T10:41:51Z</time>
      </trkpt>
      <trkpt lat="44.01299" lon="6.694">
        <ele>1049.4</ele>
        <time>2012-10-20T10:41:54Z</time>
      </trkpt>
      <trkpt lat="44.01299" lon="6.69424">
        <ele>1044.1</ele>
        <time>2012-10-20T10:42:08Z</time>
      </trkpt>
      <trkpt lat="44.01294" lon="6.69442">
        <ele>1051.7</ele>
        <time>2012-10-20T10:42:23Z</time>
      </trkpt>
      <trkpt lat="44.01296" lon="6.69451">
        <ele>1053.9</ele>
        <time>2012-10-20T10:42:35Z</time>
      </trkpt>
      <trkpt lat="44.01296" lon="6.69455">
        <ele>1054.5</ele>
        <time>2012-10-20T10:42:39Z</time>
      </trkpt>
      <trkpt lat="44.01293" lon="6.69464">
        <ele>1053.8</ele>
        <time>2012-10-20T10:42:46Z</time>
      </trkpt>
      <trkpt lat="44.01293" lon="6.69472">
        <ele>1051.8</ele>
        <time>2012-10-20T10:42:51Z</time>
      </trkpt>
      <trkpt lat="44.0129" lon="6.69486">
        <ele>1048</ele>
        <time>2012-10-20T10:43:03Z</time>
      </trkpt>
      <trkpt lat="44.0129" lon="6.69496">
        <ele>1047.7</ele>
        <time>2012-10-20T10:43:08Z</time>
      </trkpt>
      <trkpt lat="44.01293" lon="6.69508">
        <ele>1049.7</ele>
        <time>2012-10-20T10:43:13Z</time>
      </trkpt>
      <trkpt lat="44.01296" lon="6.69511">
        <ele>1052</ele>
        <time>2012-10-20T10:43:16Z</time>
      </trkpt>
      <trkpt lat="44.01294" lon="6.69527">
        <ele>1057.6</ele>
        <time>2012-10-20T10:43:24Z</time>
      </trkpt>
      <trkpt lat="44.01292" lon="6.69533">
        <ele>1060.7</ele>
        <time>2012-10-20T10:43:29Z</time>
      </trkpt>
      <trkpt lat="44.01294" lon="6.69536">
        <ele>1062.2</ele>
        <time>2012-10-20T10:43:34Z</time>
      </trkpt>
      <trkpt lat="44.01297" lon="6.69546">
        <ele>1067.4</ele>
        <time>2012-10-20T10:43:47Z</time>
      </trkpt>
      <trkpt lat="44.01296" lon="6.69556">
        <ele>1075.5</ele>
        <time>2012-10-20T10:43:59Z</time>
      </trkpt>
      <trkpt lat="44.01293" lon="6.69559">
        <ele>1079.2</ele>
        <time>2012-10-20T10:44:05Z</time>
      </trkpt>
      <trkpt lat="44.01292" lon="6.69558">
        <ele>1079.9</ele>
        <time>2012-10-20T10:44:06Z</time>
      </trkpt>
      <trkpt lat="44.01291" lon="6.69562">
        <ele>1083.1</ele>
        <time>2012-10-20T10:44:13Z</time>
      </trkpt>
      <trkpt lat="44.01295" lon="6.69573">
        <ele>1079.6</ele>
        <time>2012-10-20T10:44:20Z</time>
      </trkpt>
      <trkpt lat="44.01293" lon="6.69578">
        <ele>1081.4</ele>
        <time>2012-10-20T10:44:26Z</time>
      </trkpt>
      <trkpt lat="44.01295" lon="6.69584">
        <ele>1085.6</ele>
        <time>2012-10-20T10:44:32Z</time>
      </trkpt>
      <trkpt lat="44.01296" lon="6.69585">
        <ele>1086.9</ele>
        <time>2012-10-20T10:44:34Z</time>
      </trkpt>
      <trkpt lat="44.01294" lon="6.69589">
        <ele>1091.4</ele>
        <time>2012-10-20T10:44:38Z</time>
      </trkpt>
      <trkpt lat="44.01287" lon="6.69596">
        <ele>1098.1</ele>
        <time>2012-10-20T10:44:53Z</time>
      </trkpt>
      <trkpt lat="44.01285" lon="6.69607">
        <ele>1094.1</ele>
        <time>2012-10-20T10:44:59Z</time>
      </trkpt>
      <trkpt lat="44.01294" lon="6.69642">
        <ele>1090.9</ele>
        <time>2012-10-20T10:45:34Z</time>
      </trkpt>
      <trkpt lat="44.01306" lon="6.69652">
        <ele>1090.4</ele>
        <time>2012-10-20T10:45:52Z</time>
      </trkpt>
      <trkpt lat="44.01318" lon="6.69669">
        <ele>1085.5</ele>
        <time>2012-10-20T10:46:09Z</time>
      </trkpt>
      <trkpt lat="44.01317" lon="6.69668">
        <ele>1087.4</ele>
        <time>2012-10-20T10:46:14Z</time>
      </trkpt>
      <trkpt lat="44.01314" lon="6.69661">
        <ele>1101.4</ele>
        <time>2012-10-20T10:46:21Z</time>
      </trkpt>
      <trkpt lat="44.01308" lon="6.69657">
        <ele>1108.2</ele>
        <time>2012-10-20T10:46:27Z</time>
      </trkpt>
      <trkpt lat="44.01314" lon="6.69691">
        <ele>1090.9</ele>
        <time>2012-10-20T10:46:57Z</time>
      </trkpt>
      <trkpt lat="44.01316" lon="6.69692">
        <ele>1095.1</ele>
        <time>2012-10-20T10:47:05Z</time>
      </trkpt>
      <trkpt lat="44.01308" lon="6.69682">
        <ele>1107.8</ele>
        <time>2012-10-20T10:47:17Z</time>
      </trkpt>
      <trkpt lat="44.01308" lon="6.69681">
        <ele>1107.2</ele>
        <time>2012-10-20T10:47:23Z</time>
      </trkpt>
      <trkpt lat="44.01301" lon="6.6967">
        <ele>1115.1</ele>
        <time>2012-10-20T10:47:37Z</time>
      </trkpt>
      <trkpt lat="44.01297" lon="6.69678">
        <ele>1109.7</ele>
        <time>2012-10-20T10:47:44Z</time>
      </trkpt>
      <trkpt lat="44.01296" lon="6.69684">
        <ele>1110.2</ele>
        <time>2012-10-20T10:47:50Z</time>
      </trkpt>
      <trkpt lat="44.01291" lon="6.69683">
        <ele>1111.5</ele>
        <time>2012-10-20T10:47:57Z</time>
      </trkpt>
      <trkpt lat="44.01286" lon="6.69683">
        <ele>1112.1</ele>
        <time>2012-10-20T10:48:04Z</time>
      </trkpt>
      <trkpt lat="44.0128" lon="6.6968">
        <ele>1114.7</ele>
        <time>2012-10-20T10:48:11Z</time>
      </trkpt>
      <trkpt lat="44.01277" lon="6.69681">
        <ele>1115.2</ele>
        <time>2012-10-20T10:48:16Z</time>
      </trkpt>
      <trkpt lat="44.01276" lon="6.69681">
        <ele>1114.9</ele>
        <time>2012-10-20T10:48:18Z</time>
      </trkpt>
      <trkpt lat="44.01276" lon="6.69687">
        <ele>1116.9</ele>
        <time>2012-10-20T10:48:31Z</time>
      </trkpt>
      <trkpt lat="44.01277" lon="6.6969">
        <ele>1121.8</ele>
        <time>2012-10-20T10:48:38Z</time>
      </trkpt>
      <trkpt lat="44.01273" lon="6.69695">
        <ele>1120.2</ele>
        <time>2012-10-20T10:48:45Z</time>
      </trkpt>
      <trkpt lat="44.01272" lon="6.69697">
        <ele>1118.1</ele>
        <time>2012-10-20T10:48:51Z</time>
      </trkpt>
      <trkpt lat="44.01274" lon="6.69702">
        <ele>1114.2</ele>
        <time>2012-10-20T10:48:56Z</time>
      </trkpt>
      <trkpt lat="44.01278" lon="6.69703">
        <ele>1113.9</ele>
        <time>2012-10-20T10:49:03Z</time>
      </trkpt>
      <trkpt lat="44.01283" lon="6.69714">
        <ele>1109.5</ele>
        <time>2012-10-20T10:49:13Z</time>
      </trkpt>
      <trkpt lat="44.01286" lon="6.69716">
        <ele>1111.5</ele>
        <time>2012-10-20T10:49:18Z</time>
      </trkpt>
      <trkpt lat="44.0129" lon="6.69721">
        <ele>1111.1</ele>
        <time>2012-10-20T10:49:24Z</time>
      </trkpt>
      <trkpt lat="44.01291" lon="6.69725">
        <ele>1112.8</ele>
        <time>2012-10-20T10:49:28Z</time>
      </trkpt>
      <trkpt lat="44.01293" lon="6.69727">
        <ele>1113.6</ele>
        <time>2012-10-20T10:49:34Z</time>
      </trkpt>
      <trkpt lat="44.01294" lon="6.69732">
        <ele>1116.9</ele>
        <time>2012-10-20T10:49:39Z</time>
      </trkpt>
      <trkpt lat="44.01296" lon="6.69735">
        <ele>1123.4</ele>
        <time>2012-10-20T10:49:46Z</time>
      </trkpt>
      <trkpt lat="44.01296" lon="6.69735">
        <ele>1123.9</ele>
        <time>2012-10-20T10:49:47Z</time>
      </trkpt>
      <trkpt lat="44.01302" lon="6.69737">
        <ele>1125.3</ele>
        <time>2012-10-20T10:49:51Z</time>
      </trkpt>
      <trkpt lat="44.01306" lon="6.69741">
        <ele>1129.2</ele>
        <time>2012-10-20T10:49:57Z</time>
      </trkpt>
      <trkpt lat="44.01315" lon="6.69744">
        <ele>1132.8</ele>
        <time>2012-10-20T10:50:05Z</time>
      </trkpt>
      <trkpt lat="44.01323" lon="6.69754">
        <ele>1132.5</ele>
        <time>2012-10-20T10:50:11Z</time>
      </trkpt>
      <trkpt lat="44.01325" lon="6.69761">
        <ele>1131.9</ele>
        <time>2012-10-20T10:50:15Z</time>
      </trkpt>
      <trkpt lat="44.01326" lon="6.69768">
        <ele>1131.2</ele>
        <time>2012-10-20T10:50:20Z</time>
      </trkpt>
      <trkpt lat="44.01326" lon="6.69777">
        <ele>1130.6</ele>
        <time>2012-10-20T10:50:30Z</time>
      </trkpt>
      <trkpt lat="44.01329" lon="6.69782">
        <ele>1133.3</ele>
        <time>2012-10-20T10:50:35Z</time>
      </trkpt>
      <trkpt lat="44.01331" lon="6.69786">
        <ele>1137.4</ele>
        <time>2012-10-20T10:50:41Z</time>
      </trkpt>
      <trkpt lat="44.01332" lon="6.69794">
        <ele>1149.3</ele>
        <time>2012-10-20T10:50:56Z</time>
      </trkpt>
      <trkpt lat="44.01343" lon="6.69802">
        <ele>1146.6</ele>
        <time>2012-10-20T10:51:07Z</time>
      </trkpt>
      <trkpt lat="44.01352" lon="6.69804">
        <ele>1150.2</ele>
        <time>2012-10-20T10:51:13Z</time>
      </trkpt>
      <trkpt lat="44.01356" lon="6.69814">
        <ele>1150.3</ele>
        <time>2012-10-20T10:51:19Z</time>
      </trkpt>
      <trkpt lat="44.01362" lon="6.69822">
        <ele>1153.9</ele>
        <time>2012-10-20T10:51:26Z</time>
      </trkpt>
      <trkpt lat="44.01366" lon="6.69836">
        <ele>1149.1</ele>
        <time>2012-10-20T10:51:45Z</time>
      </trkpt>
      <trkpt lat="44.01367" lon="6.6984">
        <ele>1151.7</ele>
        <time>2012-10-20T10:51:50Z</time>
      </trkpt>
      <trkpt lat="44.01367" lon="6.69848">
        <ele>1174.2</ele>
        <time>2012-10-20T10:52:16Z</time>
      </trkpt>
      <trkpt lat="44.0137" lon="6.69852">
        <ele>1175.7</ele>
        <time>2012-10-20T10:52:19Z</time>
      </trkpt>
      <trkpt lat="44.01375" lon="6.69861">
        <ele>1175.2</ele>
        <time>2012-10-20T10:52:26Z</time>
      </trkpt>
      <trkpt lat="44.01377" lon="6.69866">
        <ele>1175.5</ele>
        <time>2012-10-20T10:52:31Z</time>
      </trkpt>
      <trkpt lat="44.01379" lon="6.69871">
        <ele>1176.2</ele>
        <time>2012-10-20T10:52:35Z</time>
      </trkpt>
      <trkpt lat="44.01381" lon="6.69873">
        <ele>1177.9</ele>
        <time>2012-10-20T10:52:38Z</time>
      </trkpt>
      <trkpt lat="44.01388" lon="6.69874">
        <ele>1178.9</ele>
        <time>2012-10-20T10:52:45Z</time>
      </trkpt>
      <trkpt lat="44.01393" lon="6.69875">
        <ele>1179.2</ele>
        <time>2012-10-20T10:52:52Z</time>
      </trkpt>
      <trkpt lat="44.01392" lon="6.69873">
        <ele>1175.8</ele>
        <time>2012-10-20T10:52:58Z</time>
      </trkpt>
      <trkpt lat="44.01394" lon="6.69887">
        <ele>1165.1</ele>
        <time>2012-10-20T10:53:10Z</time>
      </trkpt>
      <trkpt lat="44.014" lon="6.69895">
        <ele>1158.1</ele>
        <time>2012-10-20T10:53:19Z</time>
      </trkpt>
      <trkpt lat="44.01403" lon="6.699">
        <ele>1156.1</ele>
        <time>2012-10-20T10:53:26Z</time>
      </trkpt>
      <trkpt lat="44.01404" lon="6.69904">
        <ele>1158.8</ele>
        <time>2012-10-20T10:53:31Z</time>
      </trkpt>
      <trkpt lat="44.01411" lon="6.6991">
        <ele>1157.5</ele>
        <time>2012-10-20T10:53:38Z</time>
      </trkpt>
      <trkpt lat="44.01413" lon="6.6992">
        <ele>1159.2</ele>
        <time>2012-10-20T10:53:46Z</time>
      </trkpt>
      <trkpt lat="44.01415" lon="6.69924">
        <ele>1163.5</ele>
        <time>2012-10-20T10:53:53Z</time>
      </trkpt>
      <trkpt lat="44.01414" lon="6.69929">
        <ele>1168.2</ele>
        <time>2012-10-20T10:54:01Z</time>
      </trkpt>
      <trkpt lat="44.01418" lon="6.69936">
        <ele>1171.1</ele>
        <time>2012-10-20T10:54:08Z</time>
      </trkpt>
      <trkpt lat="44.01421" lon="6.69944">
        <ele>1176.1</ele>
        <time>2012-10-20T10:54:16Z</time>
      </trkpt>
      <trkpt lat="44.01422" lon="6.69945">
        <ele>1176.4</ele>
        <time>2012-10-20T10:54:17Z</time>
      </trkpt>
      <trkpt lat="44.01428" lon="6.69951">
        <ele>1173.3</ele>
        <time>2012-10-20T10:54:23Z</time>
      </trkpt>
      <trkpt lat="44.01429" lon="6.69952">
        <ele>1172.8</ele>
        <time>2012-10-20T10:54:24Z</time>
      </trkpt>
      <trkpt lat="44.01448" lon="6.69975">
        <ele>1163.6</ele>
        <time>2012-10-20T10:54:38Z</time>
      </trkpt>
      <trkpt lat="44.01456" lon="6.69983">
        <ele>1163.9</ele>
        <time>2012-10-20T10:54:45Z</time>
      </trkpt>
      <trkpt lat="44.0146" lon="6.6999">
        <ele>1163.5</ele>
        <time>2012-10-20T10:54:50Z</time>
      </trkpt>
      <trkpt lat="44.01466" lon="6.69993">
        <ele>1167.1</ele>
        <time>2012-10-20T10:54:56Z</time>
      </trkpt>
      <trkpt lat="44.01471" lon="6.69999">
        <ele>1169.3</ele>
        <time>2012-10-20T10:55:02Z</time>
      </trkpt>
      <trkpt lat="44.01473" lon="6.70004">
        <ele>1169.7</ele>
        <time>2012-10-20T10:55:05Z</time>
      </trkpt>
      <trkpt lat="44.01479" lon="6.7001">
        <ele>1176.3</ele>
        <time>2012-10-20T10:55:14Z</time>
      </trkpt>
      <trkpt lat="44.01482" lon="6.70013">
        <ele>1182.5</ele>
        <time>2012-10-20T10:55:20Z</time>
      </trkpt>
      <trkpt lat="44.01486" lon="6.70018">
        <ele>1183.7</ele>
        <time>2012-10-20T10:55:25Z</time>
      </trkpt>
      <trkpt lat="44.01493" lon="6.70039">
        <ele>1186.5</ele>
        <time>2012-10-20T10:55:49Z</time>
      </trkpt>
      <trkpt lat="44.015" lon="6.70049">
        <ele>1186.9</ele>
        <time>2012-10-20T10:55:56Z</time>
      </trkpt>
      <trkpt lat="44.01506" lon="6.70056">
        <ele>1183.5</ele>
        <time>2012-10-20T10:56:03Z</time>
      </trkpt>
      <trkpt lat="44.01506" lon="6.70063">
        <ele>1182.5</ele>
        <time>2012-10-20T10:56:09Z</time>
      </trkpt>
      <trkpt lat="44.01507" lon="6.70069">
        <ele>1179.1</ele>
        <time>2012-10-20T10:56:14Z</time>
      </trkpt>
      <trkpt lat="44.0151" lon="6.7007">
        <ele>1179.9</ele>
        <time>2012-10-20T10:56:18Z</time>
      </trkpt>
      <trkpt lat="44.01513" lon="6.70089">
        <ele>1189.5</ele>
        <time>2012-10-20T10:56:38Z</time>
      </trkpt>
      <trkpt lat="44.01516" lon="6.70097">
        <ele>1186.2</ele>
        <time>2012-10-20T10:56:43Z</time>
      </trkpt>
      <trkpt lat="44.01517" lon="6.70105">
        <ele>1182.6</ele>
        <time>2012-10-20T10:56:49Z</time>
      </trkpt>
      <trkpt lat="44.01522" lon="6.70119">
        <ele>1176</ele>
        <time>2012-10-20T10:56:56Z</time>
      </trkpt>
      <trkpt lat="44.01523" lon="6.70126">
        <ele>1171.1</ele>
        <time>2012-10-20T10:57:02Z</time>
      </trkpt>
      <trkpt lat="44.01526" lon="6.70125">
        <ele>1175.7</ele>
        <time>2012-10-20T10:57:07Z</time>
      </trkpt>
      <trkpt lat="44.01526" lon="6.7012">
        <ele>1181.4</ele>
        <time>2012-10-20T10:57:16Z</time>
      </trkpt>
      <trkpt lat="44.01524" lon="6.7013">
        <ele>1177.7</ele>
        <time>2012-10-20T10:57:28Z</time>
      </trkpt>
      <trkpt lat="44.01526" lon="6.70138">
        <ele>1174.6</ele>
        <time>2012-10-20T10:57:33Z</time>
      </trkpt>
      <trkpt lat="44.01528" lon="6.70144">
        <ele>1174.1</ele>
        <time>2012-10-20T10:57:36Z</time>
      </trkpt>
      <trkpt lat="44.01542" lon="6.70157">
        <ele>1184.9</ele>
        <time>2012-10-20T10:57:47Z</time>
      </trkpt>
      <trkpt lat="44.01542" lon="6.7016">
        <ele>1187</ele>
        <time>2012-10-20T10:57:49Z</time>
      </trkpt>
      <trkpt lat="44.01541" lon="6.70169">
        <ele>1187</ele>
        <time>2012-10-20T10:57:56Z</time>
      </trkpt>
      <trkpt lat="44.01542" lon="6.70177">
        <ele>1181.6</ele>
        <time>2012-10-20T10:58:01Z</time>
      </trkpt>
      <trkpt lat="44.01545" lon="6.70188">
        <ele>1180.3</ele>
        <time>2012-10-20T10:58:08Z</time>
      </trkpt>
      <trkpt lat="44.0154" lon="6.70194">
        <ele>1179.1</ele>
        <time>2012-10-20T10:58:15Z</time>
      </trkpt>
      <trkpt lat="44.01537" lon="6.70199">
        <ele>1181.8</ele>
        <time>2012-10-20T10:58:20Z</time>
      </trkpt>
      <trkpt lat="44.01539" lon="6.70206">
        <ele>1186.8</ele>
        <time>2012-10-20T10:58:26Z</time>
      </trkpt>
      <trkpt lat="44.01547" lon="6.70219">
        <ele>1190.4</ele>
        <time>2012-10-20T10:58:37Z</time>
      </trkpt>
      <trkpt lat="44.01548" lon="6.70225">
        <ele>1194</ele>
        <time>2012-10-20T10:58:43Z</time>
      </trkpt>
      <trkpt lat="44.0156" lon="6.70231">
        <ele>1206.9</ele>
        <time>2012-10-20T10:58:55Z</time>
      </trkpt>
      <trkpt lat="44.01565" lon="6.70236">
        <ele>1204.9</ele>
        <time>2012-10-20T10:59:01Z</time>
      </trkpt>
      <trkpt lat="44.0157" lon="6.70246">
        <ele>1201.3</ele>
        <time>2012-10-20T10:59:08Z</time>
      </trkpt>
      <trkpt lat="44.01572" lon="6.70259">
        <ele>1194.6</ele>
        <time>2012-10-20T10:59:15Z</time>
      </trkpt>
      <trkpt lat="44.01572" lon="6.70271">
        <ele>1190.7</ele>
        <time>2012-10-20T10:59:22Z</time>
      </trkpt>
      <trkpt lat="44.01575" lon="6.70277">
        <ele>1193.1</ele>
        <time>2012-10-20T10:59:27Z</time>
      </trkpt>
      <trkpt lat="44.01576" lon="6.70284">
        <ele>1193.3</ele>
        <time>2012-10-20T10:59:31Z</time>
      </trkpt>
      <trkpt lat="44.01577" lon="6.70285">
        <ele>1197.3</ele>
        <time>2012-10-20T10:59:33Z</time>
      </trkpt>
      <trkpt lat="44.01577" lon="6.70292">
        <ele>1197.7</ele>
        <time>2012-10-20T10:59:37Z</time>
      </trkpt>
      <trkpt lat="44.01586" lon="6.70301">
        <ele>1210.3</ele>
        <time>2012-10-20T10:59:45Z</time>
      </trkpt>
      <trkpt lat="44.01591" lon="6.70308">
        <ele>1216.8</ele>
        <time>2012-10-20T10:59:51Z</time>
      </trkpt>
      <trkpt lat="44.01592" lon="6.70317">
        <ele>1219.2</ele>
        <time>2012-10-20T10:59:57Z</time>
      </trkpt>
      <trkpt lat="44.0159" lon="6.70329">
        <ele>1217.1</ele>
        <time>2012-10-20T11:00:04Z</time>
      </trkpt>
      <trkpt lat="44.01593" lon="6.70355">
        <ele>1219.6</ele>
        <time>2012-10-20T11:00:24Z</time>
      </trkpt>
      <trkpt lat="44.01597" lon="6.70364">
        <ele>1222.4</ele>
        <time>2012-10-20T11:00:30Z</time>
      </trkpt>
      <trkpt lat="44.01598" lon="6.70384">
        <ele>1226.8</ele>
        <time>2012-10-20T11:00:40Z</time>
      </trkpt>
      <trkpt lat="44.01597" lon="6.70391">
        <ele>1231.6</ele>
        <time>2012-10-20T11:00:47Z</time>
      </trkpt>
      <trkpt lat="44.016" lon="6.70406">
        <ele>1228.9</ele>
        <time>2012-10-20T11:00:57Z</time>
      </trkpt>
      <trkpt lat="44.01611" lon="6.70421">
        <ele>1234.6</ele>
        <time>2012-10-20T11:01:11Z</time>
      </trkpt>
      <trkpt lat="44.01608" lon="6.70434">
        <ele>1230</ele>
        <time>2012-10-20T11:01:28Z</time>
      </trkpt>
      <trkpt lat="44.01609" lon="6.7044">
        <ele>1230.7</ele>
        <time>2012-10-20T11:01:31Z</time>
      </trkpt>
      <trkpt lat="44.01606" lon="6.70451">
        <ele>1231.9</ele>
        <time>2012-10-20T11:01:39Z</time>
      </trkpt>
      <trkpt lat="44.01607" lon="6.70456">
        <ele>1230.5</ele>
        <time>2012-10-20T11:01:43Z</time>
      </trkpt>
      <trkpt lat="44.01606" lon="6.70463">
        <ele>1228.1</ele>
        <time>2012-10-20T11:01:48Z</time>
      </trkpt>
      <trkpt lat="44.01607" lon="6.70472">
        <ele>1228.7</ele>
        <time>2012-10-20T11:01:53Z</time>
      </trkpt>
      <trkpt lat="44.01609" lon="6.70481">
        <ele>1233.8</ele>
        <time>2012-10-20T11:01:59Z</time>
      </trkpt>
      <trkpt lat="44.01607" lon="6.70485">
        <ele>1234.5</ele>
        <time>2012-10-20T11:02:02Z</time>
      </trkpt>
      <trkpt lat="44.01605" lon="6.70492">
        <ele>1233.8</ele>
        <time>2012-10-20T11:02:08Z</time>
      </trkpt>
      <trkpt lat="44.01606" lon="6.70498">
        <ele>1237</ele>
        <time>2012-10-20T11:02:11Z</time>
      </trkpt>
      <trkpt lat="44.01605" lon="6.70507">
        <ele>1245.4</ele>
        <time>2012-10-20T11:02:17Z</time>
      </trkpt>
      <trkpt lat="44.01606" lon="6.70512">
        <ele>1245.1</ele>
        <time>2012-10-20T11:02:21Z</time>
      </trkpt>
      <trkpt lat="44.01609" lon="6.70512">
        <ele>1244.9</ele>
        <time>2012-10-20T11:02:24Z</time>
      </trkpt>
      <trkpt lat="44.01612" lon="6.70519">
        <ele>1243.8</ele>
        <time>2012-10-20T11:02:30Z</time>
      </trkpt>
      <trkpt lat="44.0161" lon="6.70523">
        <ele>1244.4</ele>
        <time>2012-10-20T11:02:34Z</time>
      </trkpt>
      <trkpt lat="44.0161" lon="6.70532">
        <ele>1255.6</ele>
        <time>2012-10-20T11:02:50Z</time>
      </trkpt>
      <trkpt lat="44.01615" lon="6.70536">
        <ele>1261.5</ele>
        <time>2012-10-20T11:02:56Z</time>
      </trkpt>
      <trkpt lat="44.01619" lon="6.70553">
        <ele>1259.1</ele>
        <time>2012-10-20T11:03:13Z</time>
      </trkpt>
      <trkpt lat="44.01619" lon="6.70555">
        <ele>1260.2</ele>
        <time>2012-10-20T11:03:15Z</time>
      </trkpt>
      <trkpt lat="44.01616" lon="6.7059">
        <ele>1248.3</ele>
        <time>2012-10-20T11:03:46Z</time>
      </trkpt>
      <trkpt lat="44.01621" lon="6.706">
        <ele>1248.8</ele>
        <time>2012-10-20T11:03:53Z</time>
      </trkpt>
      <trkpt lat="44.01618" lon="6.70601">
        <ele>1247.8</ele>
        <time>2012-10-20T11:03:56Z</time>
      </trkpt>
      <trkpt lat="44.01618" lon="6.70607">
        <ele>1237.4</ele>
        <time>2012-10-20T11:04:01Z</time>
      </trkpt>
      <trkpt lat="44.01617" lon="6.7061">
        <ele>1236.1</ele>
        <time>2012-10-20T11:04:03Z</time>
      </trkpt>
      <trkpt lat="44.01614" lon="6.70619">
        <ele>1239.5</ele>
        <time>2012-10-20T11:04:09Z</time>
      </trkpt>
      <trkpt lat="44.01615" lon="6.70627">
        <ele>1251.4</ele>
        <time>2012-10-20T11:04:16Z</time>
      </trkpt>
      <trkpt lat="44.01618" lon="6.70632">
        <ele>1256.3</ele>
        <time>2012-10-20T11:04:21Z</time>
      </trkpt>
      <trkpt lat="44.01619" lon="6.7064">
        <ele>1260.8</ele>
        <time>2012-10-20T11:04:27Z</time>
      </trkpt>
      <trkpt lat="44.01618" lon="6.70652">
        <ele>1257.3</ele>
        <time>2012-10-20T11:04:36Z</time>
      </trkpt>
      <trkpt lat="44.01622" lon="6.7066">
        <ele>1258.7</ele>
        <time>2012-10-20T11:04:41Z</time>
      </trkpt>
      <trkpt lat="44.01621" lon="6.70665">
        <ele>1261.8</ele>
        <time>2012-10-20T11:04:47Z</time>
      </trkpt>
      <trkpt lat="44.01622" lon="6.70672">
        <ele>1263</ele>
        <time>2012-10-20T11:04:52Z</time>
      </trkpt>
      <trkpt lat="44.01625" lon="6.70681">
        <ele>1259.1</ele>
        <time>2012-10-20T11:04:57Z</time>
      </trkpt>
      <trkpt lat="44.01629" lon="6.70688">
        <ele>1253.1</ele>
        <time>2012-10-20T11:05:06Z</time>
      </trkpt>
      <trkpt lat="44.01627" lon="6.70689">
        <ele>1250.3</ele>
        <time>2012-10-20T11:05:09Z</time>
      </trkpt>
      <trkpt lat="44.01635" lon="6.70696">
        <ele>1249.5</ele>
        <time>2012-10-20T11:05:14Z</time>
      </trkpt>
      <trkpt lat="44.01649" lon="6.70732">
        <ele>1240</ele>
        <time>2012-10-20T11:05:24Z</time>
      </trkpt>
      <trkpt lat="44.01651" lon="6.70735">
        <ele>1236.2</ele>
        <time>2012-10-20T11:05:34Z</time>
      </trkpt>
      <trkpt lat="44.01655" lon="6.70734">
        <ele>1238</ele>
        <time>2012-10-20T11:05:39Z</time>
      </trkpt>
      <trkpt lat="44.01659" lon="6.70731">
        <ele>1241.5</ele>
        <time>2012-10-20T11:05:44Z</time>
      </trkpt>
      <trkpt lat="44.01664" lon="6.70722">
        <ele>1248</ele>
        <time>2012-10-20T11:05:50Z</time>
      </trkpt>
      <trkpt lat="44.0167" lon="6.70721">
        <ele>1249.5</ele>
        <time>2012-10-20T11:05:55Z</time>
      </trkpt>
      <trkpt lat="44.01674" lon="6.7072">
        <ele>1250</ele>
        <time>2012-10-20T11:05:58Z</time>
      </trkpt>
      <trkpt lat="44.01685" lon="6.70721">
        <ele>1250.4</ele>
        <time>2012-10-20T11:06:05Z</time>
      </trkpt>
      <trkpt lat="44.01686" lon="6.70723">
        <ele>1250</ele>
        <time>2012-10-20T11:06:06Z</time>
      </trkpt>
      <trkpt lat="44.01702" lon="6.70737">
        <ele>1247.8</ele>
        <time>2012-10-20T11:06:13Z</time>
      </trkpt>
      <trkpt lat="44.01722" lon="6.70792">
        <ele>1244.1</ele>
        <time>2012-10-20T11:06:22Z</time>
      </trkpt>
      <trkpt lat="44.01729" lon="6.70799">
        <ele>1242</ele>
        <time>2012-10-20T11:06:26Z</time>
      </trkpt>
      <trkpt lat="44.01741" lon="6.70805">
        <ele>1241.9</ele>
        <time>2012-10-20T11:06:38Z</time>
      </trkpt>
      <trkpt lat="44.01742" lon="6.70805">
        <ele>1242.9</ele>
        <time>2012-10-20T11:06:39Z</time>
      </trkpt>
      <trkpt lat="44.01748" lon="6.70807">
        <ele>1245.5</ele>
        <time>2012-10-20T11:06:46Z</time>
      </trkpt>
      <trkpt lat="44.01751" lon="6.70809">
        <ele>1247.1</ele>
        <time>2012-10-20T11:06:49Z</time>
      </trkpt>
      <trkpt lat="44.0176" lon="6.70812">
        <ele>1250.4</ele>
        <time>2012-10-20T11:06:55Z</time>
      </trkpt>
      <trkpt lat="44.01762" lon="6.70817">
        <ele>1250.3</ele>
        <time>2012-10-20T11:06:59Z</time>
      </trkpt>
      <trkpt lat="44.01763" lon="6.70824">
        <ele>1249.8</ele>
        <time>2012-10-20T11:07:06Z</time>
      </trkpt>
      <trkpt lat="44.01763" lon="6.70828">
        <ele>1251.7</ele>
        <time>2012-10-20T11:07:10Z</time>
      </trkpt>
      <trkpt lat="44.01763" lon="6.7084">
        <ele>1258.5</ele>
        <time>2012-10-20T11:07:19Z</time>
      </trkpt>
      <trkpt lat="44.01754" lon="6.70856">
        <ele>1262.5</ele>
        <time>2012-10-20T11:07:33Z</time>
      </trkpt>
      <trkpt lat="44.01751" lon="6.70864">
        <ele>1263.5</ele>
        <time>2012-10-20T11:07:38Z</time>
      </trkpt>
      <trkpt lat="44.01751" lon="6.7087">
        <ele>1265.1</ele>
        <time>2012-10-20T11:07:43Z</time>
      </trkpt>
      <trkpt lat="44.01753" lon="6.70874">
        <ele>1271</ele>
        <time>2012-10-20T11:07:49Z</time>
      </trkpt>
      <trkpt lat="44.01751" lon="6.70877">
        <ele>1268.7</ele>
        <time>2012-10-20T11:07:53Z</time>
      </trkpt>
      <trkpt lat="44.01747" lon="6.70884">
        <ele>1267.6</ele>
        <time>2012-10-20T11:08:06Z</time>
      </trkpt>
      <trkpt lat="44.01748" lon="6.70891">
        <ele>1267.5</ele>
        <time>2012-10-20T11:08:20Z</time>
      </trkpt>
      <trkpt lat="44.01748" lon="6.70897">
        <ele>1270.5</ele>
        <time>2012-10-20T11:08:25Z</time>
      </trkpt>
      <trkpt lat="44.01743" lon="6.70899">
        <ele>1270.9</ele>
        <time>2012-10-20T11:08:31Z</time>
      </trkpt>
      <trkpt lat="44.01746" lon="6.70909">
        <ele>1269.3</ele>
        <time>2012-10-20T11:08:41Z</time>
      </trkpt>
      <trkpt lat="44.01743" lon="6.7091">
        <ele>1271.3</ele>
        <time>2012-10-20T11:08:45Z</time>
      </trkpt>
      <trkpt lat="44.01734" lon="6.70918">
        <ele>1270.1</ele>
        <time>2012-10-20T11:08:56Z</time>
      </trkpt>
      <trkpt lat="44.01736" lon="6.70925">
        <ele>1280.3</ele>
        <time>2012-10-20T11:09:05Z</time>
      </trkpt>
      <trkpt lat="44.01734" lon="6.7093">
        <ele>1275.1</ele>
        <time>2012-10-20T11:09:10Z</time>
      </trkpt>
      <trkpt lat="44.01732" lon="6.70935">
        <ele>1275.1</ele>
        <time>2012-10-20T11:09:15Z</time>
      </trkpt>
      <trkpt lat="44.01728" lon="6.7094">
        <ele>1277.2</ele>
        <time>2012-10-20T11:09:21Z</time>
      </trkpt>
      <trkpt lat="44.01726" lon="6.70946">
        <ele>1276.9</ele>
        <time>2012-10-20T11:09:25Z</time>
      </trkpt>
      <trkpt lat="44.01725" lon="6.70953">
        <ele>1282.7</ele>
        <time>2012-10-20T11:09:31Z</time>
      </trkpt>
      <trkpt lat="44.01721" lon="6.70955">
        <ele>1279.7</ele>
        <time>2012-10-20T11:09:36Z</time>
      </trkpt>
      <trkpt lat="44.01715" lon="6.70959">
        <ele>1278.3</ele>
        <time>2012-10-20T11:09:42Z</time>
      </trkpt>
      <trkpt lat="44.01711" lon="6.70966">
        <ele>1276.1</ele>
        <time>2012-10-20T11:09:51Z</time>
      </trkpt>
      <trkpt lat="44.01707" lon="6.7097">
        <ele>1271.6</ele>
        <time>2012-10-20T11:09:56Z</time>
      </trkpt>
      <trkpt lat="44.01711" lon="6.70985">
        <ele>1275.1</ele>
        <time>2012-10-20T11:10:06Z</time>
      </trkpt>
      <trkpt lat="44.01712" lon="6.70996">
        <ele>1280.6</ele>
        <time>2012-10-20T11:10:13Z</time>
      </trkpt>
      <trkpt lat="44.01708" lon="6.71001">
        <ele>1280</ele>
        <time>2012-10-20T11:10:18Z</time>
      </trkpt>
      <trkpt lat="44.01709" lon="6.7101">
        <ele>1288.7</ele>
        <time>2012-10-20T11:10:25Z</time>
      </trkpt>
      <trkpt lat="44.01709" lon="6.71013">
        <ele>1290.7</ele>
        <time>2012-10-20T11:10:28Z</time>
      </trkpt>
      <trkpt lat="44.01712" lon="6.7102">
        <ele>1293.5</ele>
        <time>2012-10-20T11:10:34Z</time>
      </trkpt>
      <trkpt lat="44.01706" lon="6.71032">
        <ele>1295.5</ele>
        <time>2012-10-20T11:10:46Z</time>
      </trkpt>
      <trkpt lat="44.01704" lon="6.71043">
        <ele>1288</ele>
        <time>2012-10-20T11:10:54Z</time>
      </trkpt>
      <trkpt lat="44.01705" lon="6.71051">
        <ele>1289.8</ele>
        <time>2012-10-20T11:11:03Z</time>
      </trkpt>
      <trkpt lat="44.01705" lon="6.71061">
        <ele>1295.2</ele>
        <time>2012-10-20T11:11:14Z</time>
      </trkpt>
      <trkpt lat="44.01699" lon="6.71065">
        <ele>1295</ele>
        <time>2012-10-20T11:11:23Z</time>
      </trkpt>
      <trkpt lat="44.01701" lon="6.71074">
        <ele>1291.3</ele>
        <time>2012-10-20T11:11:35Z</time>
      </trkpt>
      <trkpt lat="44.01701" lon="6.71078">
        <ele>1291.8</ele>
        <time>2012-10-20T11:11:40Z</time>
      </trkpt>
      <trkpt lat="44.01702" lon="6.71083">
        <ele>1289.7</ele>
        <time>2012-10-20T11:11:43Z</time>
      </trkpt>
      <trkpt lat="44.01703" lon="6.71092">
        <ele>1286.2</ele>
        <time>2012-10-20T11:11:49Z</time>
      </trkpt>
      <trkpt lat="44.01702" lon="6.71094">
        <ele>1287.3</ele>
        <time>2012-10-20T11:11:50Z</time>
      </trkpt>
      <trkpt lat="44.01699" lon="6.71095">
        <ele>1287.5</ele>
        <time>2012-10-20T11:11:52Z</time>
      </trkpt>
      <trkpt lat="44.01691" lon="6.71095">
        <ele>1287.7</ele>
        <time>2012-10-20T11:11:57Z</time>
      </trkpt>
      <trkpt lat="44.01694" lon="6.71102">
        <ele>1290.2</ele>
        <time>2012-10-20T11:12:02Z</time>
      </trkpt>
      <trkpt lat="44.01695" lon="6.71109">
        <ele>1292.7</ele>
        <time>2012-10-20T11:12:09Z</time>
      </trkpt>
      <trkpt lat="44.01689" lon="6.71113">
        <ele>1291</ele>
        <time>2012-10-20T11:12:15Z</time>
      </trkpt>
      <trkpt lat="44.01694" lon="6.71119">
        <ele>1297</ele>
        <time>2012-10-20T11:12:22Z</time>
      </trkpt>
      <trkpt lat="44.01693" lon="6.71122">
        <ele>1296.9</ele>
        <time>2012-10-20T11:12:25Z</time>
      </trkpt>
      <trkpt lat="44.01685" lon="6.71127">
        <ele>1298</ele>
        <time>2012-10-20T11:12:33Z</time>
      </trkpt>
      <trkpt lat="44.01681" lon="6.71126">
        <ele>1297.3</ele>
        <time>2012-10-20T11:12:40Z</time>
      </trkpt>
      <trkpt lat="44.01674" lon="6.71121">
        <ele>1300.9</ele>
        <time>2012-10-20T11:12:50Z</time>
      </trkpt>
      <trkpt lat="44.01671" lon="6.71122">
        <ele>1299</ele>
        <time>2012-10-20T11:12:56Z</time>
      </trkpt>
      <trkpt lat="44.01664" lon="6.71121">
        <ele>1297.2</ele>
        <time>2012-10-20T11:13:01Z</time>
      </trkpt>
      <trkpt lat="44.01661" lon="6.71123">
        <ele>1296.4</ele>
        <time>2012-10-20T11:13:08Z</time>
      </trkpt>
      <trkpt lat="44.01663" lon="6.71125">
        <ele>1294</ele>
        <time>2012-10-20T11:13:15Z</time>
      </trkpt>
      <trkpt lat="44.01659" lon="6.71127">
        <ele>1295.5</ele>
        <time>2012-10-20T11:13:22Z</time>
      </trkpt>
      <trkpt lat="44.01653" lon="6.71131">
        <ele>1300.6</ele>
        <time>2012-10-20T11:13:28Z</time>
      </trkpt>
      <trkpt lat="44.0165" lon="6.71135">
        <ele>1304.1</ele>
        <time>2012-10-20T11:13:34Z</time>
      </trkpt>
      <trkpt lat="44.01647" lon="6.71136">
        <ele>1307.5</ele>
        <time>2012-10-20T11:13:39Z</time>
      </trkpt>
      <trkpt lat="44.01641" lon="6.71137">
        <ele>1304.8</ele>
        <time>2012-10-20T11:13:44Z</time>
      </trkpt>
      <trkpt lat="44.01638" lon="6.71143">
        <ele>1306.1</ele>
        <time>2012-10-20T11:13:49Z</time>
      </trkpt>
      <trkpt lat="44.01638" lon="6.71151">
        <ele>1312.8</ele>
        <time>2012-10-20T11:13:56Z</time>
      </trkpt>
      <trkpt lat="44.01637" lon="6.71152">
        <ele>1313.7</ele>
        <time>2012-10-20T11:13:57Z</time>
      </trkpt>
      <trkpt lat="44.01632" lon="6.71162">
        <ele>1314.5</ele>
        <time>2012-10-20T11:14:05Z</time>
      </trkpt>
      <trkpt lat="44.01629" lon="6.71163">
        <ele>1314.2</ele>
        <time>2012-10-20T11:14:09Z</time>
      </trkpt>
      <trkpt lat="44.01629" lon="6.71166">
        <ele>1316.4</ele>
        <time>2012-10-20T11:14:15Z</time>
      </trkpt>
      <trkpt lat="44.01627" lon="6.71165">
        <ele>1316.6</ele>
        <time>2012-10-20T11:14:17Z</time>
      </trkpt>
      <trkpt lat="44.01628" lon="6.71174">
        <ele>1318</ele>
        <time>2012-10-20T11:14:24Z</time>
      </trkpt>
      <trkpt lat="44.01626" lon="6.71175">
        <ele>1319.9</ele>
        <time>2012-10-20T11:14:29Z</time>
      </trkpt>
      <trkpt lat="44.01622" lon="6.71177">
        <ele>1322.5</ele>
        <time>2012-10-20T11:14:37Z</time>
      </trkpt>
      <trkpt lat="44.01619" lon="6.71178">
        <ele>1321.6</ele>
        <time>2012-10-20T11:14:40Z</time>
      </trkpt>
      <trkpt lat="44.01607" lon="6.71184">
        <ele>1321.1</ele>
        <time>2012-10-20T11:14:49Z</time>
      </trkpt>
      <trkpt lat="44.01606" lon="6.71191">
        <ele>1321.7</ele>
        <time>2012-10-20T11:14:55Z</time>
      </trkpt>
      <trkpt lat="44.01604" lon="6.71197">
        <ele>1320.7</ele>
        <time>2012-10-20T11:15:00Z</time>
      </trkpt>
      <trkpt lat="44.016" lon="6.71202">
        <ele>1320.7</ele>
        <time>2012-10-20T11:15:08Z</time>
      </trkpt>
      <trkpt lat="44.01595" lon="6.71207">
        <ele>1322.9</ele>
        <time>2012-10-20T11:15:14Z</time>
      </trkpt>
      <trkpt lat="44.01594" lon="6.71216">
        <ele>1325.2</ele>
        <time>2012-10-20T11:15:21Z</time>
      </trkpt>
      <trkpt lat="44.01585" lon="6.71227">
        <ele>1327.7</ele>
        <time>2012-10-20T11:15:35Z</time>
      </trkpt>
      <trkpt lat="44.01581" lon="6.71232">
        <ele>1327.8</ele>
        <time>2012-10-20T11:15:41Z</time>
      </trkpt>
      <trkpt lat="44.01581" lon="6.71236">
        <ele>1332.2</ele>
        <time>2012-10-20T11:15:47Z</time>
      </trkpt>
      <trkpt lat="44.01579" lon="6.71241">
        <ele>1332.3</ele>
        <time>2012-10-20T11:15:55Z</time>
      </trkpt>
      <trkpt lat="44.01575" lon="6.71249">
        <ele>1330.4</ele>
        <time>2012-10-20T11:16:04Z</time>
      </trkpt>
      <trkpt lat="44.01572" lon="6.71254">
        <ele>1332.2</ele>
        <time>2012-10-20T11:16:11Z</time>
      </trkpt>
      <trkpt lat="44.01563" lon="6.71265">
        <ele>1332.5</ele>
        <time>2012-10-20T11:16:29Z</time>
      </trkpt>
      <trkpt lat="44.01562" lon="6.71274">
        <ele>1328.1</ele>
        <time>2012-10-20T11:16:39Z</time>
      </trkpt>
      <trkpt lat="44.01558" lon="6.7128">
        <ele>1332.5</ele>
        <time>2012-10-20T11:16:46Z</time>
      </trkpt>
      <trkpt lat="44.01555" lon="6.71289">
        <ele>1334</ele>
        <time>2012-10-20T11:16:57Z</time>
      </trkpt>
      <trkpt lat="44.01553" lon="6.7129">
        <ele>1334.2</ele>
        <time>2012-10-20T11:16:59Z</time>
      </trkpt>
      <trkpt lat="44.01546" lon="6.71301">
        <ele>1334.9</ele>
        <time>2012-10-20T11:17:13Z</time>
      </trkpt>
      <trkpt lat="44.01543" lon="6.71304">
        <ele>1332.7</ele>
        <time>2012-10-20T11:17:17Z</time>
      </trkpt>
      <trkpt lat="44.01547" lon="6.71317">
        <ele>1335</ele>
        <time>2012-10-20T11:17:28Z</time>
      </trkpt>
      <trkpt lat="44.01558" lon="6.71329">
        <ele>1316.3</ele>
        <time>2012-10-20T11:36:13Z</time>
      </trkpt>
      <trkpt lat="44.01553" lon="6.71325">
        <ele>1323.1</ele>
        <time>2012-10-20T11:51:05Z</time>
      </trkpt>
      <trkpt lat="44.01555" lon="6.71327">
        <ele>1322.2</ele>
        <time>2012-10-20T11:51:11Z</time>
      </trkpt>
      <trkpt lat="44.01563" lon="6.71331">
        <ele>1324.3</ele>
        <time>2012-10-20T11:51:17Z</time>
      </trkpt>
      <trkpt lat="44.01571" lon="6.71337">
        <ele>1323.4</ele>
        <time>2012-10-20T11:51:29Z</time>
      </trkpt>
      <trkpt lat="44.01572" lon="6.71337">
        <ele>1323.4</ele>
        <time>2012-10-20T11:51:30Z</time>
      </trkpt>
      <trkpt lat="44.01572" lon="6.71342">
        <ele>1323.8</ele>
        <time>2012-10-20T11:51:35Z</time>
      </trkpt>
      <trkpt lat="44.01569" lon="6.71344">
        <ele>1323.1</ele>
        <time>2012-10-20T11:51:40Z</time>
      </trkpt>
      <trkpt lat="44.01571" lon="6.71339">
        <ele>1323</ele>
        <time>2012-10-20T11:51:45Z</time>
      </trkpt>
      <trkpt lat="44.01572" lon="6.71345">
        <ele>1323.5</ele>
        <time>2012-10-20T11:51:49Z</time>
      </trkpt>
      <trkpt lat="44.0157" lon="6.71352">
        <ele>1322.8</ele>
        <time>2012-10-20T11:51:55Z</time>
      </trkpt>
      <trkpt lat="44.0157" lon="6.7136">
        <ele>1323.6</ele>
        <time>2012-10-20T11:52:01Z</time>
      </trkpt>
      <trkpt lat="44.01572" lon="6.71376">
        <ele>1326</ele>
        <time>2012-10-20T11:52:11Z</time>
      </trkpt>
      <trkpt lat="44.01576" lon="6.71386">
        <ele>1326.7</ele>
        <time>2012-10-20T11:52:19Z</time>
      </trkpt>
      <trkpt lat="44.01578" lon="6.71387">
        <ele>1327.5</ele>
        <time>2012-10-20T11:52:25Z</time>
      </trkpt>
      <trkpt lat="44.0158" lon="6.71389">
        <ele>1333.9</ele>
        <time>2012-10-20T11:53:07Z</time>
      </trkpt>
      <trkpt lat="44.01589" lon="6.71392">
        <ele>1334.4</ele>
        <time>2012-10-20T11:53:14Z</time>
      </trkpt>
      <trkpt lat="44.016" lon="6.71393">
        <ele>1336</ele>
        <time>2012-10-20T11:53:22Z</time>
      </trkpt>
      <trkpt lat="44.01602" lon="6.71394">
        <ele>1336.1</ele>
        <time>2012-10-20T11:53:23Z</time>
      </trkpt>
      <trkpt lat="44.01606" lon="6.71403">
        <ele>1335.8</ele>
        <time>2012-10-20T11:53:29Z</time>
      </trkpt>
      <trkpt lat="44.0161" lon="6.71428">
        <ele>1333.6</ele>
        <time>2012-10-20T11:53:35Z</time>
      </trkpt>
      <trkpt lat="44.01625" lon="6.71452">
        <ele>1331</ele>
        <time>2012-10-20T11:53:41Z</time>
      </trkpt>
      <trkpt lat="44.01654" lon="6.71472">
        <ele>1328.4</ele>
        <time>2012-10-20T11:53:48Z</time>
      </trkpt>
      <trkpt lat="44.01714" lon="6.71499">
        <ele>1328.6</ele>
        <time>2012-10-20T11:54:06Z</time>
      </trkpt>
      <trkpt lat="44.01728" lon="6.71499">
        <ele>1329.1</ele>
        <time>2012-10-20T11:54:11Z</time>
      </trkpt>
      <trkpt lat="44.01745" lon="6.71503">
        <ele>1328.2</ele>
        <time>2012-10-20T11:54:17Z</time>
      </trkpt>
      <trkpt lat="44.01783" lon="6.71516">
        <ele>1324.7</ele>
        <time>2012-10-20T11:54:29Z</time>
      </trkpt>
      <trkpt lat="44.01799" lon="6.71513">
        <ele>1326.3</ele>
        <time>2012-10-20T11:54:34Z</time>
      </trkpt>
      <trkpt lat="44.01815" lon="6.71512">
        <ele>1325.9</ele>
        <time>2012-10-20T11:54:39Z</time>
      </trkpt>
      <trkpt lat="44.0183" lon="6.71507">
        <ele>1324.9</ele>
        <time>2012-10-20T11:54:45Z</time>
      </trkpt>
      <trkpt lat="44.01832" lon="6.71508">
        <ele>1326.5</ele>
        <time>2012-10-20T11:54:50Z</time>
      </trkpt>
      <trkpt lat="44.01832" lon="6.71503">
        <ele>1323.6</ele>
        <time>2012-10-20T11:55:15Z</time>
      </trkpt>
      <trkpt lat="44.01844" lon="6.71499">
        <ele>1330.8</ele>
        <time>2012-10-20T11:55:30Z</time>
      </trkpt>
      <trkpt lat="44.01862" lon="6.71489">
        <ele>1333.3</ele>
        <time>2012-10-20T11:55:43Z</time>
      </trkpt>
      <trkpt lat="44.01872" lon="6.71478">
        <ele>1333.6</ele>
        <time>2012-10-20T11:55:51Z</time>
      </trkpt>
      <trkpt lat="44.01884" lon="6.71471">
        <ele>1336.7</ele>
        <time>2012-10-20T11:55:58Z</time>
      </trkpt>
      <trkpt lat="44.01895" lon="6.7147">
        <ele>1336.4</ele>
        <time>2012-10-20T11:56:04Z</time>
      </trkpt>
      <trkpt lat="44.01906" lon="6.71465">
        <ele>1334.8</ele>
        <time>2012-10-20T11:56:10Z</time>
      </trkpt>
      <trkpt lat="44.01914" lon="6.71453">
        <ele>1337.9</ele>
        <time>2012-10-20T11:56:17Z</time>
      </trkpt>
      <trkpt lat="44.0192" lon="6.71435">
        <ele>1345.7</ele>
        <time>2012-10-20T11:56:26Z</time>
      </trkpt>
      <trkpt lat="44.01921" lon="6.71418">
        <ele>1348.3</ele>
        <time>2012-10-20T11:56:33Z</time>
      </trkpt>
      <trkpt lat="44.01925" lon="6.71402">
        <ele>1350.2</ele>
        <time>2012-10-20T11:56:41Z</time>
      </trkpt>
      <trkpt lat="44.01927" lon="6.71384">
        <ele>1351.9</ele>
        <time>2012-10-20T11:56:50Z</time>
      </trkpt>
      <trkpt lat="44.01927" lon="6.71368">
        <ele>1351.9</ele>
        <time>2012-10-20T11:56:57Z</time>
      </trkpt>
      <trkpt lat="44.01923" lon="6.71351">
        <ele>1353.1</ele>
        <time>2012-10-20T11:57:04Z</time>
      </trkpt>
      <trkpt lat="44.01927" lon="6.71336">
        <ele>1352.6</ele>
        <time>2012-10-20T11:57:11Z</time>
      </trkpt>
      <trkpt lat="44.01935" lon="6.71323">
        <ele>1352</ele>
        <time>2012-10-20T11:57:19Z</time>
      </trkpt>
      <trkpt lat="44.01945" lon="6.71315">
        <ele>1351.7</ele>
        <time>2012-10-20T11:57:26Z</time>
      </trkpt>
      <trkpt lat="44.0197" lon="6.713">
        <ele>1350.1</ele>
        <time>2012-10-20T11:57:42Z</time>
      </trkpt>
      <trkpt lat="44.01983" lon="6.71296">
        <ele>1347.5</ele>
        <time>2012-10-20T11:57:50Z</time>
      </trkpt>
      <trkpt lat="44.02" lon="6.71292">
        <ele>1352.1</ele>
        <time>2012-10-20T11:57:59Z</time>
      </trkpt>
      <trkpt lat="44.02014" lon="6.71291">
        <ele>1349.6</ele>
        <time>2012-10-20T11:58:07Z</time>
      </trkpt>
      <trkpt lat="44.02062" lon="6.71297">
        <ele>1351.6</ele>
        <time>2012-10-20T11:58:29Z</time>
      </trkpt>
      <trkpt lat="44.02138" lon="6.71321">
        <ele>1355.3</ele>
        <time>2012-10-20T11:59:05Z</time>
      </trkpt>
      <trkpt lat="44.02153" lon="6.7133">
        <ele>1357.5</ele>
        <time>2012-10-20T11:59:13Z</time>
      </trkpt>
      <trkpt lat="44.02171" lon="6.7134">
        <ele>1360.6</ele>
        <time>2012-10-20T11:59:22Z</time>
      </trkpt>
      <trkpt lat="44.02183" lon="6.71349">
        <ele>1361.4</ele>
        <time>2012-10-20T11:59:29Z</time>
      </trkpt>
      <trkpt lat="44.02193" lon="6.7135">
        <ele>1363.9</ele>
        <time>2012-10-20T11:59:34Z</time>
      </trkpt>
      <trkpt lat="44.0222" lon="6.71348">
        <ele>1371.6</ele>
        <time>2012-10-20T11:59:50Z</time>
      </trkpt>
      <trkpt lat="44.02234" lon="6.7135">
        <ele>1372.2</ele>
        <time>2012-10-20T11:59:58Z</time>
      </trkpt>
      <trkpt lat="44.02246" lon="6.71357">
        <ele>1371</ele>
        <time>2012-10-20T12:00:05Z</time>
      </trkpt>
      <trkpt lat="44.02262" lon="6.71393">
        <ele>1365.7</ele>
        <time>2012-10-20T12:00:16Z</time>
      </trkpt>
      <trkpt lat="44.02275" lon="6.71412">
        <ele>1365</ele>
        <time>2012-10-20T12:00:22Z</time>
      </trkpt>
      <trkpt lat="44.02283" lon="6.7143">
        <ele>1366</ele>
        <time>2012-10-20T12:00:28Z</time>
      </trkpt>
      <trkpt lat="44.02287" lon="6.71446">
        <ele>1366.9</ele>
        <time>2012-10-20T12:00:33Z</time>
      </trkpt>
      <trkpt lat="44.02295" lon="6.71458">
        <ele>1367</ele>
        <time>2012-10-20T12:00:38Z</time>
      </trkpt>
      <trkpt lat="44.02312" lon="6.71468">
        <ele>1367</ele>
        <time>2012-10-20T12:00:45Z</time>
      </trkpt>
      <trkpt lat="44.02327" lon="6.71471">
        <ele>1365.8</ele>
        <time>2012-10-20T12:00:51Z</time>
      </trkpt>
      <trkpt lat="44.02343" lon="6.71475">
        <ele>1365.9</ele>
        <time>2012-10-20T12:00:58Z</time>
      </trkpt>
      <trkpt lat="44.02361" lon="6.71487">
        <ele>1365.1</ele>
        <time>2012-10-20T12:01:05Z</time>
      </trkpt>
      <trkpt lat="44.02376" lon="6.71486">
        <ele>1365.4</ele>
        <time>2012-10-20T12:01:11Z</time>
      </trkpt>
      <trkpt lat="44.0239" lon="6.71487">
        <ele>1365.7</ele>
        <time>2012-10-20T12:01:16Z</time>
      </trkpt>
      <trkpt lat="44.02409" lon="6.71484">
        <ele>1368</ele>
        <time>2012-10-20T12:01:24Z</time>
      </trkpt>
      <trkpt lat="44.02473" lon="6.71485">
        <ele>1373.3</ele>
        <time>2012-10-20T12:01:52Z</time>
      </trkpt>
      <trkpt lat="44.02484" lon="6.71487">
        <ele>1370.2</ele>
        <time>2012-10-20T12:01:57Z</time>
      </trkpt>
      <trkpt lat="44.02495" lon="6.71491">
        <ele>1370.8</ele>
        <time>2012-10-20T12:02:04Z</time>
      </trkpt>
      <trkpt lat="44.02508" lon="6.71503">
        <ele>1368.7</ele>
        <time>2012-10-20T12:02:13Z</time>
      </trkpt>
      <trkpt lat="44.02543" lon="6.71553">
        <ele>1367.5</ele>
        <time>2012-10-20T12:02:35Z</time>
      </trkpt>
      <trkpt lat="44.02555" lon="6.71588">
        <ele>1370.6</ele>
        <time>2012-10-20T12:02:47Z</time>
      </trkpt>
      <trkpt lat="44.02565" lon="6.71597">
        <ele>1371.2</ele>
        <time>2012-10-20T12:02:52Z</time>
      </trkpt>
      <trkpt lat="44.02568" lon="6.71636">
        <ele>1368.2</ele>
        <time>2012-10-20T12:03:04Z</time>
      </trkpt>
      <trkpt lat="44.02578" lon="6.71648">
        <ele>1367.3</ele>
        <time>2012-10-20T12:03:09Z</time>
      </trkpt>
      <trkpt lat="44.02587" lon="6.7165">
        <ele>1367.2</ele>
        <time>2012-10-20T12:03:13Z</time>
      </trkpt>
      <trkpt lat="44.02596" lon="6.71649">
        <ele>1367.1</ele>
        <time>2012-10-20T12:03:17Z</time>
      </trkpt>
      <trkpt lat="44.02613" lon="6.71628">
        <ele>1365.8</ele>
        <time>2012-10-20T12:03:23Z</time>
      </trkpt>
      <trkpt lat="44.02629" lon="6.71601">
        <ele>1365.8</ele>
        <time>2012-10-20T12:03:28Z</time>
      </trkpt>
      <trkpt lat="44.02652" lon="6.71586">
        <ele>1363</ele>
        <time>2012-10-20T12:03:34Z</time>
      </trkpt>
      <trkpt lat="44.02677" lon="6.71553">
        <ele>1362.9</ele>
        <time>2012-10-20T12:03:43Z</time>
      </trkpt>
      <trkpt lat="44.02697" lon="6.71545">
        <ele>1363.2</ele>
        <time>2012-10-20T12:03:49Z</time>
      </trkpt>
      <trkpt lat="44.02717" lon="6.71549">
        <ele>1364.6</ele>
        <time>2012-10-20T12:03:55Z</time>
      </trkpt>
      <trkpt lat="44.02754" lon="6.7157">
        <ele>1367</ele>
        <time>2012-10-20T12:04:06Z</time>
      </trkpt>
      <trkpt lat="44.02772" lon="6.71586">
        <ele>1367.7</ele>
        <time>2012-10-20T12:04:11Z</time>
      </trkpt>
      <trkpt lat="44.02794" lon="6.71594">
        <ele>1366.6</ele>
        <time>2012-10-20T12:04:16Z</time>
      </trkpt>
      <trkpt lat="44.02819" lon="6.71595">
        <ele>1368.7</ele>
        <time>2012-10-20T12:04:22Z</time>
      </trkpt>
      <trkpt lat="44.02838" lon="6.71594">
        <ele>1372.8</ele>
        <time>2012-10-20T12:04:28Z</time>
      </trkpt>
      <trkpt lat="44.02844" lon="6.71596">
        <ele>1373.4</ele>
        <time>2012-10-20T12:04:30Z</time>
      </trkpt>
      <trkpt lat="44.02857" lon="6.71612">
        <ele>1371.9</ele>
        <time>2012-10-20T12:04:35Z</time>
      </trkpt>
      <trkpt lat="44.02868" lon="6.71641">
        <ele>1371.1</ele>
        <time>2012-10-20T12:04:42Z</time>
      </trkpt>
      <trkpt lat="44.02882" lon="6.71667">
        <ele>1369.1</ele>
        <time>2012-10-20T12:04:48Z</time>
      </trkpt>
      <trkpt lat="44.02922" lon="6.7172">
        <ele>1369.1</ele>
        <time>2012-10-20T12:05:02Z</time>
      </trkpt>
      <trkpt lat="44.02926" lon="6.71729">
        <ele>1369.9</ele>
        <time>2012-10-20T12:05:04Z</time>
      </trkpt>
      <trkpt lat="44.02938" lon="6.71733">
        <ele>1369.7</ele>
        <time>2012-10-20T12:05:08Z</time>
      </trkpt>
      <trkpt lat="44.02944" lon="6.71727">
        <ele>1370.3</ele>
        <time>2012-10-20T12:05:10Z</time>
      </trkpt>
      <trkpt lat="44.02967" lon="6.71708">
        <ele>1372.2</ele>
        <time>2012-10-20T12:05:18Z</time>
      </trkpt>
      <trkpt lat="44.02985" lon="6.7169">
        <ele>1374.3</ele>
        <time>2012-10-20T12:05:24Z</time>
      </trkpt>
      <trkpt lat="44.02998" lon="6.7168">
        <ele>1375.3</ele>
        <time>2012-10-20T12:05:28Z</time>
      </trkpt>
      <trkpt lat="44.03007" lon="6.71666">
        <ele>1375.5</ele>
        <time>2012-10-20T12:05:32Z</time>
      </trkpt>
      <trkpt lat="44.03009" lon="6.71656">
        <ele>1375</ele>
        <time>2012-10-20T12:05:34Z</time>
      </trkpt>
      <trkpt lat="44.0302" lon="6.71638">
        <ele>1374.7</ele>
        <time>2012-10-20T12:05:38Z</time>
      </trkpt>
      <trkpt lat="44.03032" lon="6.7163">
        <ele>1374.3</ele>
        <time>2012-10-20T12:05:41Z</time>
      </trkpt>
      <trkpt lat="44.03056" lon="6.71605">
        <ele>1374.9</ele>
        <time>2012-10-20T12:05:48Z</time>
      </trkpt>
      <trkpt lat="44.03079" lon="6.71588">
        <ele>1374.7</ele>
        <time>2012-10-20T12:05:55Z</time>
      </trkpt>
      <trkpt lat="44.03111" lon="6.71554">
        <ele>1374.8</ele>
        <time>2012-10-20T12:06:05Z</time>
      </trkpt>
      <trkpt lat="44.03146" lon="6.71534">
        <ele>1371.5</ele>
        <time>2012-10-20T12:06:15Z</time>
      </trkpt>
      <trkpt lat="44.03162" lon="6.71519">
        <ele>1372.6</ele>
        <time>2012-10-20T12:06:20Z</time>
      </trkpt>
      <trkpt lat="44.0317" lon="6.71515">
        <ele>1373.4</ele>
        <time>2012-10-20T12:06:22Z</time>
      </trkpt>
      <trkpt lat="44.03184" lon="6.7152">
        <ele>1372.6</ele>
        <time>2012-10-20T12:06:26Z</time>
      </trkpt>
      <trkpt lat="44.03204" lon="6.71533">
        <ele>1368.4</ele>
        <time>2012-10-20T12:06:32Z</time>
      </trkpt>
      <trkpt lat="44.03208" lon="6.71536">
        <ele>1367.9</ele>
        <time>2012-10-20T12:06:33Z</time>
      </trkpt>
      <trkpt lat="44.03225" lon="6.71546">
        <ele>1366.1</ele>
        <time>2012-10-20T12:06:37Z</time>
      </trkpt>
      <trkpt lat="44.03265" lon="6.71576">
        <ele>1364.1</ele>
        <time>2012-10-20T12:06:47Z</time>
      </trkpt>
      <trkpt lat="44.03294" lon="6.71578">
        <ele>1369.3</ele>
        <time>2012-10-20T12:06:54Z</time>
      </trkpt>
      <trkpt lat="44.03305" lon="6.71582">
        <ele>1365.1</ele>
        <time>2012-10-20T12:06:58Z</time>
      </trkpt>
      <trkpt lat="44.03326" lon="6.7158">
        <ele>1362</ele>
        <time>2012-10-20T12:07:05Z</time>
      </trkpt>
      <trkpt lat="44.03343" lon="6.71588">
        <ele>1359</ele>
        <time>2012-10-20T12:07:10Z</time>
      </trkpt>
      <trkpt lat="44.03389" lon="6.71603">
        <ele>1362.3</ele>
        <time>2012-10-20T12:07:20Z</time>
      </trkpt>
      <trkpt lat="44.03433" lon="6.71606">
        <ele>1358.9</ele>
        <time>2012-10-20T12:07:30Z</time>
      </trkpt>
      <trkpt lat="44.03457" lon="6.71601">
        <ele>1356.3</ele>
        <time>2012-10-20T12:07:36Z</time>
      </trkpt>
      <trkpt lat="44.03466" lon="6.71603">
        <ele>1355.6</ele>
        <time>2012-10-20T12:07:38Z</time>
      </trkpt>
      <trkpt lat="44.03495" lon="6.71611">
        <ele>1353.4</ele>
        <time>2012-10-20T12:07:44Z</time>
      </trkpt>
      <trkpt lat="44.03525" lon="6.71616">
        <ele>1351.7</ele>
        <time>2012-10-20T12:07:49Z</time>
      </trkpt>
      <trkpt lat="44.03535" lon="6.71631">
        <ele>1350.4</ele>
        <time>2012-10-20T12:07:52Z</time>
      </trkpt>
      <trkpt lat="44.03554" lon="6.71679">
        <ele>1344.5</ele>
        <time>2012-10-20T12:07:58Z</time>
      </trkpt>
      <trkpt lat="44.03558" lon="6.71697">
        <ele>1343.1</ele>
        <time>2012-10-20T12:08:00Z</time>
      </trkpt>
      <trkpt lat="44.03565" lon="6.71716">
        <ele>1339.6</ele>
        <time>2012-10-20T12:08:04Z</time>
      </trkpt>
      <trkpt lat="44.03578" lon="6.71724">
        <ele>1337.4</ele>
        <time>2012-10-20T12:08:07Z</time>
      </trkpt>
      <trkpt lat="44.03574" lon="6.71765">
        <ele>1331.6</ele>
        <time>2012-10-20T12:08:14Z</time>
      </trkpt>
      <trkpt lat="44.03582" lon="6.71784">
        <ele>1330.9</ele>
        <time>2012-10-20T12:08:18Z</time>
      </trkpt>
      <trkpt lat="44.03582" lon="6.71802">
        <ele>1328</ele>
        <time>2012-10-20T12:08:21Z</time>
      </trkpt>
      <trkpt lat="44.03587" lon="6.71848">
        <ele>1323.7</ele>
        <time>2012-10-20T12:08:28Z</time>
      </trkpt>
      <trkpt lat="44.03593" lon="6.71874">
        <ele>1322.5</ele>
        <time>2012-10-20T12:08:32Z</time>
      </trkpt>
      <trkpt lat="44.03607" lon="6.71877">
        <ele>1324.2</ele>
        <time>2012-10-20T12:08:35Z</time>
      </trkpt>
      <trkpt lat="44.03612" lon="6.71875">
        <ele>1325.5</ele>
        <time>2012-10-20T12:08:36Z</time>
      </trkpt>
      <trkpt lat="44.03636" lon="6.71854">
        <ele>1327.7</ele>
        <time>2012-10-20T12:08:42Z</time>
      </trkpt>
      <trkpt lat="44.03658" lon="6.7184">
        <ele>1324.6</ele>
        <time>2012-10-20T12:08:47Z</time>
      </trkpt>
      <trkpt lat="44.0367" lon="6.71847">
        <ele>1322.4</ele>
        <time>2012-10-20T12:08:50Z</time>
      </trkpt>
      <trkpt lat="44.03689" lon="6.71873">
        <ele>1318.6</ele>
        <time>2012-10-20T12:08:54Z</time>
      </trkpt>
      <trkpt lat="44.0371" lon="6.71882">
        <ele>1316.6</ele>
        <time>2012-10-20T12:08:58Z</time>
      </trkpt>
      <trkpt lat="44.03726" lon="6.71881">
        <ele>1314.6</ele>
        <time>2012-10-20T12:09:01Z</time>
      </trkpt>
      <trkpt lat="44.03748" lon="6.71882">
        <ele>1315.6</ele>
        <time>2012-10-20T12:09:05Z</time>
      </trkpt>
      <trkpt lat="44.03755" lon="6.71888">
        <ele>1315.5</ele>
        <time>2012-10-20T12:09:07Z</time>
      </trkpt>
      <trkpt lat="44.03799" lon="6.71917">
        <ele>1312.6</ele>
        <time>2012-10-20T12:09:18Z</time>
      </trkpt>
      <trkpt lat="44.03816" lon="6.71936">
        <ele>1308.6</ele>
        <time>2012-10-20T12:09:21Z</time>
      </trkpt>
      <trkpt lat="44.03827" lon="6.71975">
        <ele>1301.2</ele>
        <time>2012-10-20T12:09:26Z</time>
      </trkpt>
      <trkpt lat="44.03843" lon="6.72017">
        <ele>1289.4</ele>
        <time>2012-10-20T12:09:38Z</time>
      </trkpt>
      <trkpt lat="44.0385" lon="6.7204">
        <ele>1284.3</ele>
        <time>2012-10-20T12:09:42Z</time>
      </trkpt>
      <trkpt lat="44.03854" lon="6.72049">
        <ele>1281.8</ele>
        <time>2012-10-20T12:09:44Z</time>
      </trkpt>
      <trkpt lat="44.03872" lon="6.72042">
        <ele>1283.5</ele>
        <time>2012-10-20T12:09:48Z</time>
      </trkpt>
      <trkpt lat="44.03878" lon="6.72039">
        <ele>1283.7</ele>
        <time>2012-10-20T12:09:49Z</time>
      </trkpt>
      <trkpt lat="44.03894" lon="6.72024">
        <ele>1284.2</ele>
        <time>2012-10-20T12:09:52Z</time>
      </trkpt>
      <trkpt lat="44.0392" lon="6.72008">
        <ele>1283.8</ele>
        <time>2012-10-20T12:09:57Z</time>
      </trkpt>
      <trkpt lat="44.03944" lon="6.72019">
        <ele>1277.2</ele>
        <time>2012-10-20T12:10:03Z</time>
      </trkpt>
      <trkpt lat="44.03956" lon="6.72027">
        <ele>1274.8</ele>
        <time>2012-10-20T12:10:06Z</time>
      </trkpt>
      <trkpt lat="44.03991" lon="6.7204">
        <ele>1267.5</ele>
        <time>2012-10-20T12:10:14Z</time>
      </trkpt>
      <trkpt lat="44.04018" lon="6.72042">
        <ele>1259.1</ele>
        <time>2012-10-20T12:10:25Z</time>
      </trkpt>
      <trkpt lat="44.04036" lon="6.72046">
        <ele>1253</ele>
        <time>2012-10-20T12:10:30Z</time>
      </trkpt>
      <trkpt lat="44.04049" lon="6.72045">
        <ele>1249.2</ele>
        <time>2012-10-20T12:10:33Z</time>
      </trkpt>
      <trkpt lat="44.04078" lon="6.72035">
        <ele>1238</ele>
        <time>2012-10-20T12:10:39Z</time>
      </trkpt>
      <trkpt lat="44.04128" lon="6.72034">
        <ele>1227.9</ele>
        <time>2012-10-20T12:10:47Z</time>
      </trkpt>
      <trkpt lat="44.04147" lon="6.72036">
        <ele>1223.5</ele>
        <time>2012-10-20T12:10:50Z</time>
      </trkpt>
      <trkpt lat="44.04161" lon="6.72041">
        <ele>1220.7</ele>
        <time>2012-10-20T12:10:53Z</time>
      </trkpt>
      <trkpt lat="44.04186" lon="6.72044">
        <ele>1216.4</ele>
        <time>2012-10-20T12:10:57Z</time>
      </trkpt>
      <trkpt lat="44.04202" lon="6.72044">
        <ele>1214</ele>
        <time>2012-10-20T12:10:59Z</time>
      </trkpt>
      <trkpt lat="44.04231" lon="6.72033">
        <ele>1210</ele>
        <time>2012-10-20T12:11:04Z</time>
      </trkpt>
      <trkpt lat="44.04251" lon="6.72039">
        <ele>1202.4</ele>
        <time>2012-10-20T12:11:09Z</time>
      </trkpt>
      <trkpt lat="44.04264" lon="6.72055">
        <ele>1199.9</ele>
        <time>2012-10-20T12:11:13Z</time>
      </trkpt>
      <trkpt lat="44.04266" lon="6.72049">
        <ele>1200.3</ele>
        <time>2012-10-20T12:11:16Z</time>
      </trkpt>
      <trkpt lat="44.04267" lon="6.72035">
        <ele>1200</ele>
        <time>2012-10-20T12:11:20Z</time>
      </trkpt>
      <trkpt lat="44.04273" lon="6.72032">
        <ele>1198.2</ele>
        <time>2012-10-20T12:11:23Z</time>
      </trkpt>
      <trkpt lat="44.04286" lon="6.72029">
        <ele>1196.3</ele>
        <time>2012-10-20T12:11:28Z</time>
      </trkpt>
      <trkpt lat="44.04288" lon="6.72031">
        <ele>1196.3</ele>
        <time>2012-10-20T12:11:29Z</time>
      </trkpt>
      <trkpt lat="44.04292" lon="6.72037">
        <ele>1195.9</ele>
        <time>2012-10-20T12:11:31Z</time>
      </trkpt>
      <trkpt lat="44.04304" lon="6.72036">
        <ele>1194.5</ele>
        <time>2012-10-20T12:11:35Z</time>
      </trkpt>
      <trkpt lat="44.04318" lon="6.72019">
        <ele>1194.3</ele>
        <time>2012-10-20T12:11:39Z</time>
      </trkpt>
      <trkpt lat="44.04344" lon="6.72008">
        <ele>1189.6</ele>
        <time>2012-10-20T12:11:47Z</time>
      </trkpt>
      <trkpt lat="44.04353" lon="6.72003">
        <ele>1188.5</ele>
        <time>2012-10-20T12:11:49Z</time>
      </trkpt>
      <trkpt lat="44.04379" lon="6.71996">
        <ele>1187.8</ele>
        <time>2012-10-20T12:11:54Z</time>
      </trkpt>
      <trkpt lat="44.04391" lon="6.71997">
        <ele>1188.2</ele>
        <time>2012-10-20T12:11:58Z</time>
      </trkpt>
      <trkpt lat="44.04406" lon="6.71993">
        <ele>1190.5</ele>
        <time>2012-10-20T12:12:04Z</time>
      </trkpt>
      <trkpt lat="44.04418" lon="6.71991">
        <ele>1192.8</ele>
        <time>2012-10-20T12:12:10Z</time>
      </trkpt>
      <trkpt lat="44.04428" lon="6.71991">
        <ele>1195</ele>
        <time>2012-10-20T12:12:16Z</time>
      </trkpt>
      <trkpt lat="44.0444" lon="6.71994">
        <ele>1195.1</ele>
        <time>2012-10-20T12:12:21Z</time>
      </trkpt>
      <trkpt lat="44.04451" lon="6.7199">
        <ele>1198</ele>
        <time>2012-10-20T12:12:27Z</time>
      </trkpt>
      <trkpt lat="44.04462" lon="6.7199">
        <ele>1197.5</ele>
        <time>2012-10-20T12:12:33Z</time>
      </trkpt>
      <trkpt lat="44.04476" lon="6.71994">
        <ele>1196.5</ele>
        <time>2012-10-20T12:12:41Z</time>
      </trkpt>
      <trkpt lat="44.04482" lon="6.71997">
        <ele>1197.7</ele>
        <time>2012-10-20T12:12:45Z</time>
      </trkpt>
      <trkpt lat="44.04494" lon="6.71996">
        <ele>1201.3</ele>
        <time>2012-10-20T12:12:52Z</time>
      </trkpt>
      <trkpt lat="44.04496" lon="6.71993">
        <ele>1203.6</ele>
        <time>2012-10-20T12:12:55Z</time>
      </trkpt>
      <trkpt lat="44.0451" lon="6.71934">
        <ele>1206.1</ele>
        <time>2012-10-20T12:13:16Z</time>
      </trkpt>
      <trkpt lat="44.04522" lon="6.7193">
        <ele>1206.4</ele>
        <time>2012-10-20T12:13:21Z</time>
      </trkpt>
      <trkpt lat="44.04529" lon="6.71934">
        <ele>1206.8</ele>
        <time>2012-10-20T12:13:24Z</time>
      </trkpt>
      <trkpt lat="44.04546" lon="6.71938">
        <ele>1192</ele>
        <time>2012-10-20T12:14:08Z</time>
      </trkpt>
      <trkpt lat="44.04557" lon="6.71942">
        <ele>1196.8</ele>
        <time>2012-10-20T12:14:15Z</time>
      </trkpt>
      <trkpt lat="44.04568" lon="6.71948">
        <ele>1198.3</ele>
        <time>2012-10-20T12:14:23Z</time>
      </trkpt>
      <trkpt lat="44.04578" lon="6.71944">
        <ele>1203.7</ele>
        <time>2012-10-20T12:14:31Z</time>
      </trkpt>
      <trkpt lat="44.04581" lon="6.71942">
        <ele>1206.1</ele>
        <time>2012-10-20T12:14:33Z</time>
      </trkpt>
      <trkpt lat="44.04584" lon="6.71936">
        <ele>1212.5</ele>
        <time>2012-10-20T12:14:39Z</time>
      </trkpt>
      <trkpt lat="44.04581" lon="6.71927">
        <ele>1208.8</ele>
        <time>2012-10-20T12:14:44Z</time>
      </trkpt>
      <trkpt lat="44.04579" lon="6.71921">
        <ele>1204.1</ele>
        <time>2012-10-20T12:14:54Z</time>
      </trkpt>
      <trkpt lat="44.04575" lon="6.71915">
        <ele>1202.9</ele>
        <time>2012-10-20T12:15:01Z</time>
      </trkpt>
      <trkpt lat="44.04568" lon="6.71913">
        <ele>1208.2</ele>
        <time>2012-10-20T12:15:39Z</time>
      </trkpt>
      <trkpt lat="44.04565" lon="6.71906">
        <ele>1200.3</ele>
        <time>2012-10-20T12:15:51Z</time>
      </trkpt>
      <trkpt lat="44.04565" lon="6.71905">
        <ele>1201.2</ele>
        <time>2012-10-20T12:15:56Z</time>
      </trkpt>
      <trkpt lat="44.04569" lon="6.71907">
        <ele>1208.8</ele>
        <time>2012-10-20T12:16:21Z</time>
      </trkpt>
      <trkpt lat="44.04568" lon="6.71905">
        <ele>1208.8</ele>
        <time>2012-10-20T12:16:23Z</time>
      </trkpt>
      <trkpt lat="44.0455" lon="6.71887">
        <ele>1211</ele>
        <time>2012-10-20T12:16:36Z</time>
      </trkpt>
      <trkpt lat="44.04542" lon="6.71876">
        <ele>1213.5</ele>
        <time>2012-10-20T12:16:42Z</time>
      </trkpt>
      <trkpt lat="44.04533" lon="6.71866">
        <ele>1215.3</ele>
        <time>2012-10-20T12:16:49Z</time>
      </trkpt>
      <trkpt lat="44.04527" lon="6.71855">
        <ele>1215.5</ele>
        <time>2012-10-20T12:16:55Z</time>
      </trkpt>
      <trkpt lat="44.04519" lon="6.71851">
        <ele>1219.3</ele>
        <time>2012-10-20T12:17:01Z</time>
      </trkpt>
      <trkpt lat="44.04513" lon="6.71852">
        <ele>1222.4</ele>
        <time>2012-10-20T12:17:05Z</time>
      </trkpt>
      <trkpt lat="44.04509" lon="6.71849">
        <ele>1223.8</ele>
        <time>2012-10-20T12:17:09Z</time>
      </trkpt>
      <trkpt lat="44.04497" lon="6.71844">
        <ele>1222.6</ele>
        <time>2012-10-20T12:17:16Z</time>
      </trkpt>
      <trkpt lat="44.04487" lon="6.71846">
        <ele>1227.8</ele>
        <time>2012-10-20T12:17:21Z</time>
      </trkpt>
      <trkpt lat="44.04484" lon="6.71846">
        <ele>1229.8</ele>
        <time>2012-10-20T12:17:26Z</time>
      </trkpt>
      <trkpt lat="44.04483" lon="6.71844">
        <ele>1222.9</ele>
        <time>2012-10-20T12:17:32Z</time>
      </trkpt>
      <trkpt lat="44.04491" lon="6.71838">
        <ele>1174.9</ele>
        <time>2012-10-20T12:18:02Z</time>
      </trkpt>
      <trkpt lat="44.04488" lon="6.71841">
        <ele>1205.6</ele>
        <time>2012-10-20T12:19:34Z</time>
      </trkpt>
      <trkpt lat="44.04488" lon="6.71844">
        <ele>1224.9</ele>
        <time>2012-10-20T12:19:50Z</time>
      </trkpt>
      <trkpt lat="44.04481" lon="6.71845">
        <ele>1232.7</ele>
        <time>2012-10-20T12:20:06Z</time>
      </trkpt>
      <trkpt lat="44.04477" lon="6.71847">
        <ele>1235.3</ele>
        <time>2012-10-20T12:20:11Z</time>
      </trkpt>
      <trkpt lat="44.04479" lon="6.71848">
        <ele>1227.4</ele>
        <time>2012-10-20T12:20:21Z</time>
      </trkpt>
      <trkpt lat="44.04473" lon="6.71842">
        <ele>1213.9</ele>
        <time>2012-10-20T12:20:27Z</time>
      </trkpt>
      <trkpt lat="44.04464" lon="6.71842">
        <ele>1210.4</ele>
        <time>2012-10-20T12:20:33Z</time>
      </trkpt>
      <trkpt lat="44.04448" lon="6.71834">
        <ele>1212.5</ele>
        <time>2012-10-20T12:20:43Z</time>
      </trkpt>
      <trkpt lat="44.04444" lon="6.71829">
        <ele>1212.3</ele>
        <time>2012-10-20T12:20:48Z</time>
      </trkpt>
      <trkpt lat="44.0444" lon="6.71824">
        <ele>1211.6</ele>
        <time>2012-10-20T12:20:58Z</time>
      </trkpt>
      <trkpt lat="44.0443" lon="6.71809">
        <ele>1209.3</ele>
        <time>2012-10-20T12:21:04Z</time>
      </trkpt>
      <trkpt lat="44.04417" lon="6.718">
        <ele>1206.2</ele>
        <time>2012-10-20T12:21:10Z</time>
      </trkpt>
      <trkpt lat="44.04401" lon="6.71806">
        <ele>1202.6</ele>
        <time>2012-10-20T12:21:16Z</time>
      </trkpt>
      <trkpt lat="44.04395" lon="6.7181">
        <ele>1201.6</ele>
        <time>2012-10-20T12:21:18Z</time>
      </trkpt>
      <trkpt lat="44.04393" lon="6.71807">
        <ele>1200.8</ele>
        <time>2012-10-20T12:21:22Z</time>
      </trkpt>
      <trkpt lat="44.04425" lon="6.71757">
        <ele>1193.9</ele>
        <time>2012-10-20T12:21:36Z</time>
      </trkpt>
      <trkpt lat="44.04435" lon="6.71748">
        <ele>1190.7</ele>
        <time>2012-10-20T12:21:41Z</time>
      </trkpt>
      <trkpt lat="44.04431" lon="6.71745">
        <ele>1189.6</ele>
        <time>2012-10-20T12:21:45Z</time>
      </trkpt>
      <trkpt lat="44.04418" lon="6.71748">
        <ele>1186.4</ele>
        <time>2012-10-20T12:21:49Z</time>
      </trkpt>
      <trkpt lat="44.04389" lon="6.71777">
        <ele>1178</ele>
        <time>2012-10-20T12:22:01Z</time>
      </trkpt>
      <trkpt lat="44.04361" lon="6.71789">
        <ele>1170.8</ele>
        <time>2012-10-20T12:22:08Z</time>
      </trkpt>
      <trkpt lat="44.04361" lon="6.71784">
        <ele>1168.6</ele>
        <time>2012-10-20T12:22:12Z</time>
      </trkpt>
      <trkpt lat="44.04376" lon="6.71766">
        <ele>1167.2</ele>
        <time>2012-10-20T12:22:18Z</time>
      </trkpt>
      <trkpt lat="44.04379" lon="6.71754">
        <ele>1167</ele>
        <time>2012-10-20T12:22:22Z</time>
      </trkpt>
      <trkpt lat="44.04377" lon="6.71734">
        <ele>1166.5</ele>
        <time>2012-10-20T12:22:26Z</time>
      </trkpt>
      <trkpt lat="44.04372" lon="6.71728">
        <ele>1165.8</ele>
        <time>2012-10-20T12:22:29Z</time>
      </trkpt>
      <trkpt lat="44.04373" lon="6.71727">
        <ele>1166.1</ele>
        <time>2012-10-20T12:22:34Z</time>
      </trkpt>
      <trkpt lat="44.04371" lon="6.71725">
        <ele>1165.6</ele>
        <time>2012-10-20T12:22:41Z</time>
      </trkpt>
      <trkpt lat="44.0437" lon="6.71725">
        <ele>1165.7</ele>
        <time>2012-10-20T12:22:42Z</time>
      </trkpt>
      <trkpt lat="44.04365" lon="6.71719">
        <ele>1165.3</ele>
        <time>2012-10-20T12:22:47Z</time>
      </trkpt>
      <trkpt lat="44.04359" lon="6.71721">
        <ele>1165.6</ele>
        <time>2012-10-20T12:22:52Z</time>
      </trkpt>
      <trkpt lat="44.04356" lon="6.71723">
        <ele>1165.3</ele>
        <time>2012-10-20T12:22:58Z</time>
      </trkpt>
      <trkpt lat="44.04348" lon="6.71726">
        <ele>1165.8</ele>
        <time>2012-10-20T12:23:06Z</time>
      </trkpt>
      <trkpt lat="44.04336" lon="6.71723">
        <ele>1168.1</ele>
        <time>2012-10-20T12:23:20Z</time>
      </trkpt>
      <trkpt lat="44.04323" lon="6.71722">
        <ele>1169.9</ele>
        <time>2012-10-20T12:23:33Z</time>
      </trkpt>
      <trkpt lat="44.04314" lon="6.71722">
        <ele>1170.8</ele>
        <time>2012-10-20T12:23:41Z</time>
      </trkpt>
      <trkpt lat="44.04285" lon="6.71718">
        <ele>1174.2</ele>
        <time>2012-10-20T12:24:07Z</time>
      </trkpt>
      <trkpt lat="44.04275" lon="6.71715">
        <ele>1175.6</ele>
        <time>2012-10-20T12:24:21Z</time>
      </trkpt>
      <trkpt lat="44.04258" lon="6.71712">
        <ele>1179.9</ele>
        <time>2012-10-20T12:24:39Z</time>
      </trkpt>
      <trkpt lat="44.04249" lon="6.71706">
        <ele>1186.3</ele>
        <time>2012-10-20T12:24:50Z</time>
      </trkpt>
      <trkpt lat="44.04246" lon="6.71707">
        <ele>1190.1</ele>
        <time>2012-10-20T12:24:56Z</time>
      </trkpt>
      <trkpt lat="44.04242" lon="6.71706">
        <ele>1191.6</ele>
        <time>2012-10-20T12:25:00Z</time>
      </trkpt>
      <trkpt lat="44.04239" lon="6.71708">
        <ele>1196.7</ele>
        <time>2012-10-20T12:25:08Z</time>
      </trkpt>
      <trkpt lat="44.04239" lon="6.7171">
        <ele>1195.9</ele>
        <time>2012-10-20T12:25:21Z</time>
      </trkpt>
      <trkpt lat="44.04236" lon="6.71707">
        <ele>1193.6</ele>
        <time>2012-10-20T12:25:29Z</time>
      </trkpt>
      <trkpt lat="44.04235" lon="6.71706">
        <ele>1193.7</ele>
        <time>2012-10-20T12:25:30Z</time>
      </trkpt>
      <trkpt lat="44.04228" lon="6.71703">
        <ele>1192.9</ele>
        <time>2012-10-20T12:25:38Z</time>
      </trkpt>
      <trkpt lat="44.04217" lon="6.71705">
        <ele>1190.8</ele>
        <time>2012-10-20T12:25:49Z</time>
      </trkpt>
      <trkpt lat="44.04202" lon="6.71698">
        <ele>1187.5</ele>
        <time>2012-10-20T12:26:04Z</time>
      </trkpt>
      <trkpt lat="44.04196" lon="6.71692">
        <ele>1185.8</ele>
        <time>2012-10-20T12:26:10Z</time>
      </trkpt>
      <trkpt lat="44.04187" lon="6.7169">
        <ele>1184.7</ele>
        <time>2012-10-20T12:26:17Z</time>
      </trkpt>
      <trkpt lat="44.04186" lon="6.71693">
        <ele>1185</ele>
        <time>2012-10-20T12:26:22Z</time>
      </trkpt>
      <trkpt lat="44.04182" lon="6.71695">
        <ele>1185.6</ele>
        <time>2012-10-20T12:26:29Z</time>
      </trkpt>
      <trkpt lat="44.04173" lon="6.71695">
        <ele>1184.7</ele>
        <time>2012-10-20T12:26:35Z</time>
      </trkpt>
      <trkpt lat="44.04169" lon="6.7169">
        <ele>1184.5</ele>
        <time>2012-10-20T12:26:37Z</time>
      </trkpt>
      <trkpt lat="44.04155" lon="6.71696">
        <ele>1182.9</ele>
        <time>2012-10-20T12:26:43Z</time>
      </trkpt>
      <trkpt lat="44.04153" lon="6.71695">
        <ele>1182.5</ele>
        <time>2012-10-20T12:26:45Z</time>
      </trkpt>
      <trkpt lat="44.04141" lon="6.71691">
        <ele>1186.4</ele>
        <time>2012-10-20T12:26:55Z</time>
      </trkpt>
      <trkpt lat="44.04135" lon="6.71692">
        <ele>1193.3</ele>
        <time>2012-10-20T12:27:00Z</time>
      </trkpt>
      <trkpt lat="44.04127" lon="6.71699">
        <ele>1191.9</ele>
        <time>2012-10-20T12:27:09Z</time>
      </trkpt>
      <trkpt lat="44.04119" lon="6.71702">
        <ele>1190.3</ele>
        <time>2012-10-20T12:27:16Z</time>
      </trkpt>
      <trkpt lat="44.04117" lon="6.71706">
        <ele>1189.7</ele>
        <time>2012-10-20T12:27:20Z</time>
      </trkpt>
      <trkpt lat="44.04113" lon="6.7171">
        <ele>1190.5</ele>
        <time>2012-10-20T12:27:24Z</time>
      </trkpt>
      <trkpt lat="44.04101" lon="6.71705">
        <ele>1194.2</ele>
        <time>2012-10-20T12:27:31Z</time>
      </trkpt>
      <trkpt lat="44.04096" lon="6.71693">
        <ele>1192.8</ele>
        <time>2012-10-20T12:27:36Z</time>
      </trkpt>
      <trkpt lat="44.04087" lon="6.71688">
        <ele>1193.6</ele>
        <time>2012-10-20T12:27:41Z</time>
      </trkpt>
      <trkpt lat="44.04085" lon="6.71689">
        <ele>1193.9</ele>
        <time>2012-10-20T12:27:42Z</time>
      </trkpt>
      <trkpt lat="44.04079" lon="6.71693">
        <ele>1191.9</ele>
        <time>2012-10-20T12:27:46Z</time>
      </trkpt>
      <trkpt lat="44.04067" lon="6.71693">
        <ele>1190.2</ele>
        <time>2012-10-20T12:27:51Z</time>
      </trkpt>
      <trkpt lat="44.04061" lon="6.71691">
        <ele>1191.3</ele>
        <time>2012-10-20T12:27:56Z</time>
      </trkpt>
      <trkpt lat="44.04056" lon="6.71696">
        <ele>1191.8</ele>
        <time>2012-10-20T12:28:01Z</time>
      </trkpt>
      <trkpt lat="44.04056" lon="6.71697">
        <ele>1192.1</ele>
        <time>2012-10-20T12:28:02Z</time>
      </trkpt>
      <trkpt lat="44.04051" lon="6.71703">
        <ele>1191.8</ele>
        <time>2012-10-20T12:28:06Z</time>
      </trkpt>
      <trkpt lat="44.04047" lon="6.71703">
        <ele>1193.2</ele>
        <time>2012-10-20T12:28:08Z</time>
      </trkpt>
      <trkpt lat="44.04039" lon="6.71704">
        <ele>1193.2</ele>
        <time>2012-10-20T12:28:14Z</time>
      </trkpt>
      <trkpt lat="44.0403" lon="6.717">
        <ele>1194.6</ele>
        <time>2012-10-20T12:28:20Z</time>
      </trkpt>
      <trkpt lat="44.04018" lon="6.71698">
        <ele>1196.8</ele>
        <time>2012-10-20T12:28:27Z</time>
      </trkpt>
      <trkpt lat="44.04011" lon="6.71704">
        <ele>1197.1</ele>
        <time>2012-10-20T12:28:31Z</time>
      </trkpt>
      <trkpt lat="44.04009" lon="6.71704">
        <ele>1196.5</ele>
        <time>2012-10-20T12:28:32Z</time>
      </trkpt>
      <trkpt lat="44.03984" lon="6.71689">
        <ele>1194.1</ele>
        <time>2012-10-20T12:28:42Z</time>
      </trkpt>
      <trkpt lat="44.03964" lon="6.71687">
        <ele>1194.2</ele>
        <time>2012-10-20T12:28:52Z</time>
      </trkpt>
      <trkpt lat="44.0395" lon="6.71679">
        <ele>1194.3</ele>
        <time>2012-10-20T12:28:59Z</time>
      </trkpt>
      <trkpt lat="44.03947" lon="6.71675">
        <ele>1193.2</ele>
        <time>2012-10-20T12:29:01Z</time>
      </trkpt>
      <trkpt lat="44.03932" lon="6.71664">
        <ele>1193.7</ele>
        <time>2012-10-20T12:29:09Z</time>
      </trkpt>
      <trkpt lat="44.03926" lon="6.71656">
        <ele>1194</ele>
        <time>2012-10-20T12:29:15Z</time>
      </trkpt>
      <trkpt lat="44.03924" lon="6.71648">
        <ele>1193.8</ele>
        <time>2012-10-20T12:29:22Z</time>
      </trkpt>
      <trkpt lat="44.0392" lon="6.71645">
        <ele>1196</ele>
        <time>2012-10-20T12:29:28Z</time>
      </trkpt>
      <trkpt lat="44.03916" lon="6.71642">
        <ele>1200.9</ele>
        <time>2012-10-20T12:29:36Z</time>
      </trkpt>
      <trkpt lat="44.03908" lon="6.71636">
        <ele>1206.6</ele>
        <time>2012-10-20T12:29:49Z</time>
      </trkpt>
      <trkpt lat="44.03907" lon="6.71633">
        <ele>1203.9</ele>
        <time>2012-10-20T12:29:53Z</time>
      </trkpt>
      <trkpt lat="44.03908" lon="6.71627">
        <ele>1199.7</ele>
        <time>2012-10-20T12:30:00Z</time>
      </trkpt>
      <trkpt lat="44.03907" lon="6.71623">
        <ele>1198.1</ele>
        <time>2012-10-20T12:30:03Z</time>
      </trkpt>
      <trkpt lat="44.03901" lon="6.71624">
        <ele>1196.4</ele>
        <time>2012-10-20T12:30:09Z</time>
      </trkpt>
      <trkpt lat="44.03899" lon="6.71627">
        <ele>1210</ele>
        <time>2012-10-20T12:30:20Z</time>
      </trkpt>
      <trkpt lat="44.03891" lon="6.71626">
        <ele>1216.2</ele>
        <time>2012-10-20T12:30:28Z</time>
      </trkpt>
      <trkpt lat="44.03885" lon="6.71611">
        <ele>1208.1</ele>
        <time>2012-10-20T12:30:41Z</time>
      </trkpt>
      <trkpt lat="44.03875" lon="6.71608">
        <ele>1208.4</ele>
        <time>2012-10-20T12:30:49Z</time>
      </trkpt>
      <trkpt lat="44.03868" lon="6.71604">
        <ele>1207.1</ele>
        <time>2012-10-20T12:30:56Z</time>
      </trkpt>
      <trkpt lat="44.03865" lon="6.71601">
        <ele>1206</ele>
        <time>2012-10-20T12:31:03Z</time>
      </trkpt>
      <trkpt lat="44.03865" lon="6.71598">
        <ele>1203.5</ele>
        <time>2012-10-20T12:31:10Z</time>
      </trkpt>
      <trkpt lat="44.03866" lon="6.71597">
        <ele>1204.9</ele>
        <time>2012-10-20T12:31:17Z</time>
      </trkpt>
      <trkpt lat="44.03868" lon="6.7159">
        <ele>1201.7</ele>
        <time>2012-10-20T12:32:08Z</time>
      </trkpt>
      <trkpt lat="44.03868" lon="6.71587">
        <ele>1201.5</ele>
        <time>2012-10-20T12:32:10Z</time>
      </trkpt>
      <trkpt lat="44.0386" lon="6.71579">
        <ele>1203</ele>
        <time>2012-10-20T12:32:18Z</time>
      </trkpt>
      <trkpt lat="44.03851" lon="6.71577">
        <ele>1211.3</ele>
        <time>2012-10-20T12:32:26Z</time>
      </trkpt>
      <trkpt lat="44.03851" lon="6.71577">
        <ele>1211.9</ele>
        <time>2012-10-20T12:32:27Z</time>
      </trkpt>
      <trkpt lat="44.03849" lon="6.71574">
        <ele>1212.5</ele>
        <time>2012-10-20T12:32:34Z</time>
      </trkpt>
      <trkpt lat="44.03852" lon="6.7157">
        <ele>1209.4</ele>
        <time>2012-10-20T12:33:51Z</time>
      </trkpt>
      <trkpt lat="44.03848" lon="6.71564">
        <ele>1210.6</ele>
        <time>2012-10-20T12:33:57Z</time>
      </trkpt>
      <trkpt lat="44.03834" lon="6.71554">
        <ele>1215.8</ele>
        <time>2012-10-20T12:34:05Z</time>
      </trkpt>
      <trkpt lat="44.03824" lon="6.71539">
        <ele>1217.2</ele>
        <time>2012-10-20T12:34:14Z</time>
      </trkpt>
      <trkpt lat="44.03813" lon="6.71538">
        <ele>1220.1</ele>
        <time>2012-10-20T12:34:21Z</time>
      </trkpt>
      <trkpt lat="44.03804" lon="6.71532">
        <ele>1221.6</ele>
        <time>2012-10-20T12:34:29Z</time>
      </trkpt>
      <trkpt lat="44.038" lon="6.71519">
        <ele>1223</ele>
        <time>2012-10-20T12:34:36Z</time>
      </trkpt>
      <trkpt lat="44.03798" lon="6.71494">
        <ele>1224.1</ele>
        <time>2012-10-20T12:34:52Z</time>
      </trkpt>
      <trkpt lat="44.03799" lon="6.7149">
        <ele>1223.7</ele>
        <time>2012-10-20T12:34:57Z</time>
      </trkpt>
      <trkpt lat="44.03798" lon="6.71485">
        <ele>1222.9</ele>
        <time>2012-10-20T12:35:01Z</time>
      </trkpt>
      <trkpt lat="44.03792" lon="6.71477">
        <ele>1218.5</ele>
        <time>2012-10-20T12:35:11Z</time>
      </trkpt>
      <trkpt lat="44.03788" lon="6.71476">
        <ele>1219.5</ele>
        <time>2012-10-20T12:35:19Z</time>
      </trkpt>
      <trkpt lat="44.03781" lon="6.71471">
        <ele>1225.8</ele>
        <time>2012-10-20T12:35:39Z</time>
      </trkpt>
      <trkpt lat="44.03776" lon="6.71456">
        <ele>1217.6</ele>
        <time>2012-10-20T12:35:46Z</time>
      </trkpt>
      <trkpt lat="44.03777" lon="6.71442">
        <ele>1221.7</ele>
        <time>2012-10-20T12:35:53Z</time>
      </trkpt>
      <trkpt lat="44.03776" lon="6.71429">
        <ele>1222.7</ele>
        <time>2012-10-20T12:36:05Z</time>
      </trkpt>
      <trkpt lat="44.03776" lon="6.7142">
        <ele>1221</ele>
        <time>2012-10-20T12:36:14Z</time>
      </trkpt>
      <trkpt lat="44.03775" lon="6.71412">
        <ele>1219.9</ele>
        <time>2012-10-20T12:36:22Z</time>
      </trkpt>
      <trkpt lat="44.03772" lon="6.71407">
        <ele>1220.3</ele>
        <time>2012-10-20T12:36:28Z</time>
      </trkpt>
      <trkpt lat="44.03773" lon="6.71401">
        <ele>1221.7</ele>
        <time>2012-10-20T12:36:34Z</time>
      </trkpt>
      <trkpt lat="44.03772" lon="6.71393">
        <ele>1222.3</ele>
        <time>2012-10-20T12:36:42Z</time>
      </trkpt>
      <trkpt lat="44.0377" lon="6.71389">
        <ele>1220.1</ele>
        <time>2012-10-20T12:36:51Z</time>
      </trkpt>
      <trkpt lat="44.03772" lon="6.71392">
        <ele>1224.6</ele>
        <time>2012-10-20T12:37:10Z</time>
      </trkpt>
      <trkpt lat="44.03778" lon="6.71397">
        <ele>1227.7</ele>
        <time>2012-10-20T12:37:21Z</time>
      </trkpt>
      <trkpt lat="44.03779" lon="6.714">
        <ele>1228.6</ele>
        <time>2012-10-20T12:37:27Z</time>
      </trkpt>
      <trkpt lat="44.03783" lon="6.71403">
        <ele>1229.9</ele>
        <time>2012-10-20T12:37:34Z</time>
      </trkpt>
      <trkpt lat="44.03784" lon="6.714">
        <ele>1230.9</ele>
        <time>2012-10-20T12:37:40Z</time>
      </trkpt>
      <trkpt lat="44.03783" lon="6.71393">
        <ele>1232.7</ele>
        <time>2012-10-20T12:37:52Z</time>
      </trkpt>
      <trkpt lat="44.03784" lon="6.71389">
        <ele>1233.9</ele>
        <time>2012-10-20T12:37:59Z</time>
      </trkpt>
      <trkpt lat="44.03784" lon="6.71388">
        <ele>1234.1</ele>
        <time>2012-10-20T12:38:00Z</time>
      </trkpt>
      <trkpt lat="44.03789" lon="6.71377">
        <ele>1234.6</ele>
        <time>2012-10-20T12:38:11Z</time>
      </trkpt>
      <trkpt lat="44.03794" lon="6.71368">
        <ele>1234.7</ele>
        <time>2012-10-20T12:38:19Z</time>
      </trkpt>
      <trkpt lat="44.03799" lon="6.71344">
        <ele>1234.3</ele>
        <time>2012-10-20T12:38:36Z</time>
      </trkpt>
      <trkpt lat="44.03802" lon="6.71338">
        <ele>1235</ele>
        <time>2012-10-20T12:38:45Z</time>
      </trkpt>
      <trkpt lat="44.03804" lon="6.7133">
        <ele>1236.1</ele>
        <time>2012-10-20T12:38:53Z</time>
      </trkpt>
      <trkpt lat="44.03803" lon="6.71323">
        <ele>1237</ele>
        <time>2012-10-20T12:39:00Z</time>
      </trkpt>
      <trkpt lat="44.03791" lon="6.71306">
        <ele>1241.5</ele>
        <time>2012-10-20T12:39:17Z</time>
      </trkpt>
      <trkpt lat="44.03789" lon="6.71297">
        <ele>1243.9</ele>
        <time>2012-10-20T12:39:25Z</time>
      </trkpt>
      <trkpt lat="44.03789" lon="6.71291">
        <ele>1244.7</ele>
        <time>2012-10-20T12:39:29Z</time>
      </trkpt>
      <trkpt lat="44.03787" lon="6.71281">
        <ele>1247.4</ele>
        <time>2012-10-20T12:39:38Z</time>
      </trkpt>
      <trkpt lat="44.03781" lon="6.7127">
        <ele>1250.4</ele>
        <time>2012-10-20T12:39:48Z</time>
      </trkpt>
      <trkpt lat="44.03777" lon="6.71261">
        <ele>1250.6</ele>
        <time>2012-10-20T12:39:57Z</time>
      </trkpt>
      <trkpt lat="44.03774" lon="6.7125">
        <ele>1250.4</ele>
        <time>2012-10-20T12:40:06Z</time>
      </trkpt>
      <trkpt lat="44.0377" lon="6.71245">
        <ele>1253.3</ele>
        <time>2012-10-20T12:40:14Z</time>
      </trkpt>
      <trkpt lat="44.03766" lon="6.71244">
        <ele>1258</ele>
        <time>2012-10-20T12:40:42Z</time>
      </trkpt>
      <trkpt lat="44.03763" lon="6.71227">
        <ele>1256.1</ele>
        <time>2012-10-20T12:40:50Z</time>
      </trkpt>
      <trkpt lat="44.03764" lon="6.71201">
        <ele>1257.2</ele>
        <time>2012-10-20T12:41:04Z</time>
      </trkpt>
      <trkpt lat="44.03765" lon="6.71198">
        <ele>1258</ele>
        <time>2012-10-20T12:41:06Z</time>
      </trkpt>
      <trkpt lat="44.0377" lon="6.71195">
        <ele>1259.8</ele>
        <time>2012-10-20T12:41:11Z</time>
      </trkpt>
      <trkpt lat="44.0377" lon="6.71188">
        <ele>1262.5</ele>
        <time>2012-10-20T12:41:16Z</time>
      </trkpt>
      <trkpt lat="44.03769" lon="6.71183">
        <ele>1265.1</ele>
        <time>2012-10-20T12:41:19Z</time>
      </trkpt>
      <trkpt lat="44.03764" lon="6.71182">
        <ele>1268.3</ele>
        <time>2012-10-20T12:41:23Z</time>
      </trkpt>
      <trkpt lat="44.03752" lon="6.71183">
        <ele>1272.8</ele>
        <time>2012-10-20T12:41:32Z</time>
      </trkpt>
      <trkpt lat="44.03745" lon="6.71179">
        <ele>1271.9</ele>
        <time>2012-10-20T12:41:55Z</time>
      </trkpt>
      <trkpt lat="44.03738" lon="6.71153">
        <ele>1272.1</ele>
        <time>2012-10-20T12:42:19Z</time>
      </trkpt>
      <trkpt lat="44.03736" lon="6.71133">
        <ele>1271.8</ele>
        <time>2012-10-20T12:42:36Z</time>
      </trkpt>
      <trkpt lat="44.03734" lon="6.71131">
        <ele>1273.8</ele>
        <time>2012-10-20T12:42:46Z</time>
      </trkpt>
      <trkpt lat="44.03734" lon="6.71131">
        <ele>1274.2</ele>
        <time>2012-10-20T12:42:47Z</time>
      </trkpt>
      <trkpt lat="44.03732" lon="6.71129">
        <ele>1276.2</ele>
        <time>2012-10-20T12:42:50Z</time>
      </trkpt>
      <trkpt lat="44.03731" lon="6.71125">
        <ele>1277.5</ele>
        <time>2012-10-20T12:42:57Z</time>
      </trkpt>
      <trkpt lat="44.03733" lon="6.71113">
        <ele>1276.5</ele>
        <time>2012-10-20T12:43:06Z</time>
      </trkpt>
      <trkpt lat="44.03731" lon="6.71104">
        <ele>1276.8</ele>
        <time>2012-10-20T12:43:14Z</time>
      </trkpt>
      <trkpt lat="44.0373" lon="6.71098">
        <ele>1277.6</ele>
        <time>2012-10-20T12:43:22Z</time>
      </trkpt>
      <trkpt lat="44.03726" lon="6.71093">
        <ele>1280.3</ele>
        <time>2012-10-20T12:43:29Z</time>
      </trkpt>
      <trkpt lat="44.03726" lon="6.71093">
        <ele>1280.5</ele>
        <time>2012-10-20T12:43:30Z</time>
      </trkpt>
      <trkpt lat="44.03719" lon="6.71093">
        <ele>1281.9</ele>
        <time>2012-10-20T12:43:38Z</time>
      </trkpt>
      <trkpt lat="44.03718" lon="6.71094">
        <ele>1281.3</ele>
        <time>2012-10-20T12:43:43Z</time>
      </trkpt>
      <trkpt lat="44.03714" lon="6.71095">
        <ele>1283</ele>
        <time>2012-10-20T12:43:52Z</time>
      </trkpt>
      <trkpt lat="44.03702" lon="6.71093">
        <ele>1286.8</ele>
        <time>2012-10-20T12:44:06Z</time>
      </trkpt>
      <trkpt lat="44.03701" lon="6.71091">
        <ele>1284.8</ele>
        <time>2012-10-20T12:44:13Z</time>
      </trkpt>
      <trkpt lat="44.03703" lon="6.71088">
        <ele>1282.7</ele>
        <time>2012-10-20T12:45:27Z</time>
      </trkpt>
      <trkpt lat="44.03699" lon="6.71086">
        <ele>1281.7</ele>
        <time>2012-10-20T12:45:37Z</time>
      </trkpt>
      <trkpt lat="44.03689" lon="6.7108">
        <ele>1282.6</ele>
        <time>2012-10-20T12:45:44Z</time>
      </trkpt>
      <trkpt lat="44.03683" lon="6.71069">
        <ele>1283</ele>
        <time>2012-10-20T12:45:51Z</time>
      </trkpt>
      <trkpt lat="44.03677" lon="6.71062">
        <ele>1284.4</ele>
        <time>2012-10-20T12:45:57Z</time>
      </trkpt>
      <trkpt lat="44.03656" lon="6.71049">
        <ele>1285.7</ele>
        <time>2012-10-20T12:46:15Z</time>
      </trkpt>
      <trkpt lat="44.03649" lon="6.71042">
        <ele>1284.7</ele>
        <time>2012-10-20T12:46:22Z</time>
      </trkpt>
      <trkpt lat="44.03646" lon="6.71026">
        <ele>1285.8</ele>
        <time>2012-10-20T12:46:31Z</time>
      </trkpt>
      <trkpt lat="44.03651" lon="6.71009">
        <ele>1289</ele>
        <time>2012-10-20T12:46:41Z</time>
      </trkpt>
      <trkpt lat="44.03646" lon="6.71004">
        <ele>1289.9</ele>
        <time>2012-10-20T12:46:46Z</time>
      </trkpt>
      <trkpt lat="44.03635" lon="6.71007">
        <ele>1289.2</ele>
        <time>2012-10-20T12:46:54Z</time>
      </trkpt>
      <trkpt lat="44.03628" lon="6.71003">
        <ele>1289.6</ele>
        <time>2012-10-20T12:46:59Z</time>
      </trkpt>
      <trkpt lat="44.03619" lon="6.71005">
        <ele>1290.2</ele>
        <time>2012-10-20T12:47:06Z</time>
      </trkpt>
      <trkpt lat="44.03611" lon="6.71002">
        <ele>1290.2</ele>
        <time>2012-10-20T12:47:11Z</time>
      </trkpt>
      <trkpt lat="44.03601" lon="6.71004">
        <ele>1290.1</ele>
        <time>2012-10-20T12:47:19Z</time>
      </trkpt>
      <trkpt lat="44.0359" lon="6.71007">
        <ele>1289.8</ele>
        <time>2012-10-20T12:47:27Z</time>
      </trkpt>
      <trkpt lat="44.0358" lon="6.71008">
        <ele>1289.7</ele>
        <time>2012-10-20T12:47:34Z</time>
      </trkpt>
      <trkpt lat="44.03572" lon="6.71015">
        <ele>1290</ele>
        <time>2012-10-20T12:47:41Z</time>
      </trkpt>
      <trkpt lat="44.03565" lon="6.71019">
        <ele>1290.4</ele>
        <time>2012-10-20T12:47:48Z</time>
      </trkpt>
      <trkpt lat="44.03556" lon="6.71018">
        <ele>1292</ele>
        <time>2012-10-20T12:47:55Z</time>
      </trkpt>
      <trkpt lat="44.03534" lon="6.71006">
        <ele>1296.5</ele>
        <time>2012-10-20T12:48:09Z</time>
      </trkpt>
      <trkpt lat="44.03521" lon="6.71007">
        <ele>1297.4</ele>
        <time>2012-10-20T12:48:14Z</time>
      </trkpt>
      <trkpt lat="44.03509" lon="6.71013">
        <ele>1298.1</ele>
        <time>2012-10-20T12:48:20Z</time>
      </trkpt>
      <trkpt lat="44.03496" lon="6.71015">
        <ele>1295.1</ele>
        <time>2012-10-20T12:48:26Z</time>
      </trkpt>
      <trkpt lat="44.03481" lon="6.71021">
        <ele>1293.3</ele>
        <time>2012-10-20T12:48:33Z</time>
      </trkpt>
      <trkpt lat="44.03467" lon="6.7102">
        <ele>1289.9</ele>
        <time>2012-10-20T12:48:39Z</time>
      </trkpt>
      <trkpt lat="44.03451" lon="6.7102">
        <ele>1288</ele>
        <time>2012-10-20T12:48:46Z</time>
      </trkpt>
      <trkpt lat="44.03444" lon="6.71033">
        <ele>1287</ele>
        <time>2012-10-20T12:48:52Z</time>
      </trkpt>
      <trkpt lat="44.03435" lon="6.71043">
        <ele>1285.6</ele>
        <time>2012-10-20T12:48:57Z</time>
      </trkpt>
      <trkpt lat="44.03412" lon="6.71043">
        <ele>1286.4</ele>
        <time>2012-10-20T12:49:08Z</time>
      </trkpt>
      <trkpt lat="44.03396" lon="6.71049">
        <ele>1283.3</ele>
        <time>2012-10-20T12:49:15Z</time>
      </trkpt>
      <trkpt lat="44.03385" lon="6.71052">
        <ele>1283.3</ele>
        <time>2012-10-20T12:49:21Z</time>
      </trkpt>
      <trkpt lat="44.03386" lon="6.71052">
        <ele>1285.2</ele>
        <time>2012-10-20T12:49:57Z</time>
      </trkpt>
      <trkpt lat="44.03376" lon="6.71042">
        <ele>1283.8</ele>
        <time>2012-10-20T12:50:02Z</time>
      </trkpt>
      <trkpt lat="44.03366" lon="6.71025">
        <ele>1284.4</ele>
        <time>2012-10-20T12:50:07Z</time>
      </trkpt>
      <trkpt lat="44.03301" lon="6.70985">
        <ele>1275.9</ele>
        <time>2012-10-20T12:50:28Z</time>
      </trkpt>
      <trkpt lat="44.03289" lon="6.70969">
        <ele>1273.7</ele>
        <time>2012-10-20T12:50:32Z</time>
      </trkpt>
      <trkpt lat="44.03282" lon="6.70952">
        <ele>1273.3</ele>
        <time>2012-10-20T12:50:35Z</time>
      </trkpt>
      <trkpt lat="44.03271" lon="6.70941">
        <ele>1273.2</ele>
        <time>2012-10-20T12:50:39Z</time>
      </trkpt>
      <trkpt lat="44.03228" lon="6.7091">
        <ele>1263.6</ele>
        <time>2012-10-20T12:50:51Z</time>
      </trkpt>
      <trkpt lat="44.03218" lon="6.70924">
        <ele>1262.9</ele>
        <time>2012-10-20T12:50:55Z</time>
      </trkpt>
      <trkpt lat="44.03214" lon="6.70933">
        <ele>1262.7</ele>
        <time>2012-10-20T12:50:57Z</time>
      </trkpt>
      <trkpt lat="44.03192" lon="6.70943">
        <ele>1261.3</ele>
        <time>2012-10-20T12:51:04Z</time>
      </trkpt>
      <trkpt lat="44.03186" lon="6.70944">
        <ele>1263</ele>
        <time>2012-10-20T12:51:12Z</time>
      </trkpt>
      <trkpt lat="44.03176" lon="6.70934">
        <ele>1261.3</ele>
        <time>2012-10-20T12:51:16Z</time>
      </trkpt>
      <trkpt lat="44.03159" lon="6.70896">
        <ele>1260.5</ele>
        <time>2012-10-20T12:51:25Z</time>
      </trkpt>
      <trkpt lat="44.03144" lon="6.70883">
        <ele>1262.2</ele>
        <time>2012-10-20T12:51:31Z</time>
      </trkpt>
      <trkpt lat="44.03131" lon="6.70883">
        <ele>1262</ele>
        <time>2012-10-20T12:51:35Z</time>
      </trkpt>
      <trkpt lat="44.03113" lon="6.70878">
        <ele>1260.5</ele>
        <time>2012-10-20T12:51:41Z</time>
      </trkpt>
      <trkpt lat="44.03102" lon="6.70872">
        <ele>1259.9</ele>
        <time>2012-10-20T12:51:45Z</time>
      </trkpt>
      <trkpt lat="44.03092" lon="6.70877">
        <ele>1258.1</ele>
        <time>2012-10-20T12:51:49Z</time>
      </trkpt>
      <trkpt lat="44.03082" lon="6.70875">
        <ele>1257.5</ele>
        <time>2012-10-20T12:51:53Z</time>
      </trkpt>
      <trkpt lat="44.03079" lon="6.70873">
        <ele>1257.4</ele>
        <time>2012-10-20T12:51:54Z</time>
      </trkpt>
      <trkpt lat="44.03067" lon="6.70877">
        <ele>1260.6</ele>
        <time>2012-10-20T12:52:00Z</time>
      </trkpt>
      <trkpt lat="44.03065" lon="6.70878">
        <ele>1261</ele>
        <time>2012-10-20T12:52:01Z</time>
      </trkpt>
      <trkpt lat="44.03063" lon="6.70886">
        <ele>1259.3</ele>
        <time>2012-10-20T12:52:06Z</time>
      </trkpt>
      <trkpt lat="44.03047" lon="6.70919">
        <ele>1254.7</ele>
        <time>2012-10-20T12:52:18Z</time>
      </trkpt>
      <trkpt lat="44.03003" lon="6.7094">
        <ele>1253.5</ele>
        <time>2012-10-20T12:52:35Z</time>
      </trkpt>
      <trkpt lat="44.02987" lon="6.7094">
        <ele>1257.3</ele>
        <time>2012-10-20T12:52:41Z</time>
      </trkpt>
      <trkpt lat="44.02961" lon="6.7093">
        <ele>1259.5</ele>
        <time>2012-10-20T12:52:49Z</time>
      </trkpt>
      <trkpt lat="44.02942" lon="6.70913">
        <ele>1260.8</ele>
        <time>2012-10-20T12:52:56Z</time>
      </trkpt>
      <trkpt lat="44.02925" lon="6.70889">
        <ele>1260.8</ele>
        <time>2012-10-20T12:53:04Z</time>
      </trkpt>
      <trkpt lat="44.02913" lon="6.70876">
        <ele>1261</ele>
        <time>2012-10-20T12:53:09Z</time>
      </trkpt>
      <trkpt lat="44.02897" lon="6.70862">
        <ele>1261.9</ele>
        <time>2012-10-20T12:53:15Z</time>
      </trkpt>
      <trkpt lat="44.02896" lon="6.7086">
        <ele>1260.7</ele>
        <time>2012-10-20T12:53:19Z</time>
      </trkpt>
      <trkpt lat="44.02894" lon="6.70854">
        <ele>1261.1</ele>
        <time>2012-10-20T12:53:38Z</time>
      </trkpt>
      <trkpt lat="44.02864" lon="6.70826">
        <ele>1258.7</ele>
        <time>2012-10-20T12:53:53Z</time>
      </trkpt>
      <trkpt lat="44.02844" lon="6.70813">
        <ele>1256.4</ele>
        <time>2012-10-20T12:54:01Z</time>
      </trkpt>
      <trkpt lat="44.02828" lon="6.70809">
        <ele>1253.3</ele>
        <time>2012-10-20T12:54:07Z</time>
      </trkpt>
      <trkpt lat="44.02811" lon="6.70811">
        <ele>1252.4</ele>
        <time>2012-10-20T12:54:13Z</time>
      </trkpt>
      <trkpt lat="44.02807" lon="6.70802">
        <ele>1251.7</ele>
        <time>2012-10-20T12:54:17Z</time>
      </trkpt>
      <trkpt lat="44.02809" lon="6.70799">
        <ele>1251.8</ele>
        <time>2012-10-20T12:54:18Z</time>
      </trkpt>
      <trkpt lat="44.02854" lon="6.7067">
        <ele>1244.7</ele>
        <time>2012-10-20T12:54:44Z</time>
      </trkpt>
      <trkpt lat="44.02885" lon="6.70629">
        <ele>1245</ele>
        <time>2012-10-20T12:54:56Z</time>
      </trkpt>
      <trkpt lat="44.02889" lon="6.7061">
        <ele>1246.6</ele>
        <time>2012-10-20T12:55:00Z</time>
      </trkpt>
      <trkpt lat="44.02889" lon="6.7058">
        <ele>1252</ele>
        <time>2012-10-20T12:55:06Z</time>
      </trkpt>
      <trkpt lat="44.02881" lon="6.70529">
        <ele>1248</ele>
        <time>2012-10-20T12:55:16Z</time>
      </trkpt>
      <trkpt lat="44.02884" lon="6.70513">
        <ele>1240.1</ele>
        <time>2012-10-20T12:55:37Z</time>
      </trkpt>
      <trkpt lat="44.02885" lon="6.70508">
        <ele>1241</ele>
        <time>2012-10-20T12:55:42Z</time>
      </trkpt>
      <trkpt lat="44.02886" lon="6.70508">
        <ele>1242.9</ele>
        <time>2012-10-20T12:55:43Z</time>
      </trkpt>
      <trkpt lat="44.02887" lon="6.70503">
        <ele>1244.9</ele>
        <time>2012-10-20T12:55:48Z</time>
      </trkpt>
      <trkpt lat="44.02895" lon="6.70488">
        <ele>1250.8</ele>
        <time>2012-10-20T12:56:02Z</time>
      </trkpt>
      <trkpt lat="44.02897" lon="6.70486">
        <ele>1255.7</ele>
        <time>2012-10-20T12:56:08Z</time>
      </trkpt>
      <trkpt lat="44.02897" lon="6.70487">
        <ele>1256.6</ele>
        <time>2012-10-20T12:56:15Z</time>
      </trkpt>
      <trkpt lat="44.02892" lon="6.70483">
        <ele>1259.2</ele>
        <time>2012-10-20T12:56:22Z</time>
      </trkpt>
      <trkpt lat="44.02885" lon="6.70477">
        <ele>1256.9</ele>
        <time>2012-10-20T12:56:44Z</time>
      </trkpt>
      <trkpt lat="44.02885" lon="6.7048">
        <ele>1257</ele>
        <time>2012-10-20T12:56:50Z</time>
      </trkpt>
      <trkpt lat="44.02881" lon="6.70482">
        <ele>1255.7</ele>
        <time>2012-10-20T12:57:03Z</time>
      </trkpt>
      <trkpt lat="44.0288" lon="6.70486">
        <ele>1258.6</ele>
        <time>2012-10-20T12:57:08Z</time>
      </trkpt>
      <trkpt lat="44.02874" lon="6.70491">
        <ele>1260.3</ele>
        <time>2012-10-20T12:57:14Z</time>
      </trkpt>
      <trkpt lat="44.0287" lon="6.70496">
        <ele>1262.9</ele>
        <time>2012-10-20T12:57:19Z</time>
      </trkpt>
      <trkpt lat="44.02867" lon="6.70504">
        <ele>1263.3</ele>
        <time>2012-10-20T12:57:25Z</time>
      </trkpt>
      <trkpt lat="44.02868" lon="6.70511">
        <ele>1260.5</ele>
        <time>2012-10-20T12:57:32Z</time>
      </trkpt>
      <trkpt lat="44.02866" lon="6.70517">
        <ele>1260.8</ele>
        <time>2012-10-20T12:57:37Z</time>
      </trkpt>
      <trkpt lat="44.02865" lon="6.70525">
        <ele>1263.1</ele>
        <time>2012-10-20T12:57:41Z</time>
      </trkpt>
      <trkpt lat="44.0286" lon="6.70537">
        <ele>1266.7</ele>
        <time>2012-10-20T12:57:46Z</time>
      </trkpt>
      <trkpt lat="44.02858" lon="6.70547">
        <ele>1268.2</ele>
        <time>2012-10-20T12:57:50Z</time>
      </trkpt>
      <trkpt lat="44.02851" lon="6.70561">
        <ele>1275.2</ele>
        <time>2012-10-20T12:57:58Z</time>
      </trkpt>
      <trkpt lat="44.02849" lon="6.70564">
        <ele>1276</ele>
        <time>2012-10-20T12:58:00Z</time>
      </trkpt>
      <trkpt lat="44.02806" lon="6.70593">
        <ele>1272.5</ele>
        <time>2012-10-20T12:58:35Z</time>
      </trkpt>
      <trkpt lat="44.02798" lon="6.706">
        <ele>1276.9</ele>
        <time>2012-10-20T12:58:42Z</time>
      </trkpt>
      <trkpt lat="44.0279" lon="6.70605">
        <ele>1275.4</ele>
        <time>2012-10-20T12:58:48Z</time>
      </trkpt>
      <trkpt lat="44.02789" lon="6.70606">
        <ele>1275.1</ele>
        <time>2012-10-20T12:58:49Z</time>
      </trkpt>
      <trkpt lat="44.02777" lon="6.70608">
        <ele>1272.6</ele>
        <time>2012-10-20T12:58:57Z</time>
      </trkpt>
      <trkpt lat="44.02763" lon="6.70603">
        <ele>1271.3</ele>
        <time>2012-10-20T12:59:05Z</time>
      </trkpt>
      <trkpt lat="44.02754" lon="6.70597">
        <ele>1271.3</ele>
        <time>2012-10-20T12:59:11Z</time>
      </trkpt>
      <trkpt lat="44.02703" lon="6.70576">
        <ele>1268.6</ele>
        <time>2012-10-20T12:59:40Z</time>
      </trkpt>
      <trkpt lat="44.02689" lon="6.70562">
        <ele>1269.2</ele>
        <time>2012-10-20T12:59:49Z</time>
      </trkpt>
      <trkpt lat="44.02682" lon="6.70551">
        <ele>1268.8</ele>
        <time>2012-10-20T12:59:54Z</time>
      </trkpt>
      <trkpt lat="44.0267" lon="6.70528">
        <ele>1269.1</ele>
        <time>2012-10-20T13:00:02Z</time>
      </trkpt>
      <trkpt lat="44.0264" lon="6.70487">
        <ele>1269.6</ele>
        <time>2012-10-20T13:00:22Z</time>
      </trkpt>
      <trkpt lat="44.02632" lon="6.7047">
        <ele>1270.5</ele>
        <time>2012-10-20T13:00:29Z</time>
      </trkpt>
      <trkpt lat="44.02622" lon="6.70455">
        <ele>1272.6</ele>
        <time>2012-10-20T13:00:37Z</time>
      </trkpt>
      <trkpt lat="44.0262" lon="6.7045">
        <ele>1272.6</ele>
        <time>2012-10-20T13:00:39Z</time>
      </trkpt>
      <trkpt lat="44.02616" lon="6.70444">
        <ele>1273.4</ele>
        <time>2012-10-20T13:00:45Z</time>
      </trkpt>
      <trkpt lat="44.02613" lon="6.70442">
        <ele>1274.1</ele>
        <time>2012-10-20T13:00:49Z</time>
      </trkpt>
      <trkpt lat="44.02592" lon="6.70397">
        <ele>1271</ele>
        <time>2012-10-20T13:01:10Z</time>
      </trkpt>
      <trkpt lat="44.02585" lon="6.70349">
        <ele>1268.5</ele>
        <time>2012-10-20T13:01:24Z</time>
      </trkpt>
      <trkpt lat="44.02584" lon="6.70326">
        <ele>1267.5</ele>
        <time>2012-10-20T13:01:29Z</time>
      </trkpt>
      <trkpt lat="44.02584" lon="6.70307">
        <ele>1268.5</ele>
        <time>2012-10-20T13:01:34Z</time>
      </trkpt>
      <trkpt lat="44.02599" lon="6.70234">
        <ele>1266.8</ele>
        <time>2012-10-20T13:01:58Z</time>
      </trkpt>
      <trkpt lat="44.02614" lon="6.70197">
        <ele>1267.5</ele>
        <time>2012-10-20T13:02:10Z</time>
      </trkpt>
      <trkpt lat="44.02609" lon="6.70182">
        <ele>1266.9</ele>
        <time>2012-10-20T13:02:14Z</time>
      </trkpt>
      <trkpt lat="44.02602" lon="6.7017">
        <ele>1264.7</ele>
        <time>2012-10-20T13:02:18Z</time>
      </trkpt>
      <trkpt lat="44.02586" lon="6.70159">
        <ele>1262.5</ele>
        <time>2012-10-20T13:02:22Z</time>
      </trkpt>
      <trkpt lat="44.02559" lon="6.70147">
        <ele>1261.1</ele>
        <time>2012-10-20T13:02:29Z</time>
      </trkpt>
      <trkpt lat="44.02557" lon="6.70145">
        <ele>1263.1</ele>
        <time>2012-10-20T13:02:31Z</time>
      </trkpt>
      <trkpt lat="44.02547" lon="6.70145">
        <ele>1265.9</ele>
        <time>2012-10-20T13:02:37Z</time>
      </trkpt>
      <trkpt lat="44.02546" lon="6.70145">
        <ele>1266.3</ele>
        <time>2012-10-20T13:02:38Z</time>
      </trkpt>
      <trkpt lat="44.02537" lon="6.70137">
        <ele>1266</ele>
        <time>2012-10-20T13:02:43Z</time>
      </trkpt>
      <trkpt lat="44.0253" lon="6.7014">
        <ele>1266.9</ele>
        <time>2012-10-20T13:02:47Z</time>
      </trkpt>
      <trkpt lat="44.02526" lon="6.70145">
        <ele>1267.7</ele>
        <time>2012-10-20T13:02:53Z</time>
      </trkpt>
      <trkpt lat="44.02526" lon="6.7014">
        <ele>1251.7</ele>
        <time>2012-10-20T13:10:15Z</time>
      </trkpt>
      <trkpt lat="44.02524" lon="6.7014">
        <ele>1256.1</ele>
        <time>2012-10-20T13:10:59Z</time>
      </trkpt>
      <trkpt lat="44.02515" lon="6.7014">
        <ele>1256.8</ele>
        <time>2012-10-20T13:11:05Z</time>
      </trkpt>
      <trkpt lat="44.0251" lon="6.70138">
        <ele>1258.8</ele>
        <time>2012-10-20T13:11:11Z</time>
      </trkpt>
      <trkpt lat="44.02507" lon="6.70136">
        <ele>1260.2</ele>
        <time>2012-10-20T13:11:14Z</time>
      </trkpt>
      <trkpt lat="44.02508" lon="6.70129">
        <ele>1263.2</ele>
        <time>2012-10-20T13:11:19Z</time>
      </trkpt>
      <trkpt lat="44.02511" lon="6.70124">
        <ele>1265</ele>
        <time>2012-10-20T13:11:23Z</time>
      </trkpt>
      <trkpt lat="44.02517" lon="6.70124">
        <ele>1267</ele>
        <time>2012-10-20T13:11:28Z</time>
      </trkpt>
      <trkpt lat="44.02523" lon="6.70121">
        <ele>1268.3</ele>
        <time>2012-10-20T13:11:33Z</time>
      </trkpt>
      <trkpt lat="44.02522" lon="6.70112">
        <ele>1270.1</ele>
        <time>2012-10-20T13:11:39Z</time>
      </trkpt>
      <trkpt lat="44.02518" lon="6.70106">
        <ele>1271.4</ele>
        <time>2012-10-20T13:11:44Z</time>
      </trkpt>
      <trkpt lat="44.0251" lon="6.70099">
        <ele>1272.8</ele>
        <time>2012-10-20T13:11:52Z</time>
      </trkpt>
      <trkpt lat="44.02508" lon="6.70098">
        <ele>1272.8</ele>
        <time>2012-10-20T13:11:56Z</time>
      </trkpt>
      <trkpt lat="44.02504" lon="6.70094">
        <ele>1273.7</ele>
        <time>2012-10-20T13:12:02Z</time>
      </trkpt>
      <trkpt lat="44.02494" lon="6.70089">
        <ele>1278.7</ele>
        <time>2012-10-20T13:12:18Z</time>
      </trkpt>
      <trkpt lat="44.02486" lon="6.70083">
        <ele>1282.5</ele>
        <time>2012-10-20T13:12:34Z</time>
      </trkpt>
      <trkpt lat="44.02482" lon="6.70081">
        <ele>1285.1</ele>
        <time>2012-10-20T13:12:40Z</time>
      </trkpt>
      <trkpt lat="44.02479" lon="6.70077">
        <ele>1285.3</ele>
        <time>2012-10-20T13:12:47Z</time>
      </trkpt>
      <trkpt lat="44.02479" lon="6.70077">
        <ele>1286.3</ele>
        <time>2012-10-20T13:12:52Z</time>
      </trkpt>
      <trkpt lat="44.02475" lon="6.7007">
        <ele>1288.7</ele>
        <time>2012-10-20T13:13:00Z</time>
      </trkpt>
      <trkpt lat="44.02479" lon="6.70048">
        <ele>1290.2</ele>
        <time>2012-10-20T13:13:24Z</time>
      </trkpt>
      <trkpt lat="44.02479" lon="6.70043">
        <ele>1290.2</ele>
        <time>2012-10-20T13:13:28Z</time>
      </trkpt>
      <trkpt lat="44.02474" lon="6.70036">
        <ele>1290.7</ele>
        <time>2012-10-20T13:13:36Z</time>
      </trkpt>
      <trkpt lat="44.0247" lon="6.70032">
        <ele>1290.9</ele>
        <time>2012-10-20T13:13:41Z</time>
      </trkpt>
      <trkpt lat="44.02466" lon="6.70022">
        <ele>1292.3</ele>
        <time>2012-10-20T13:13:50Z</time>
      </trkpt>
      <trkpt lat="44.02461" lon="6.69996">
        <ele>1293.5</ele>
        <time>2012-10-20T13:14:10Z</time>
      </trkpt>
      <trkpt lat="44.02458" lon="6.69991">
        <ele>1294.1</ele>
        <time>2012-10-20T13:14:14Z</time>
      </trkpt>
      <trkpt lat="44.02456" lon="6.69987">
        <ele>1294.4</ele>
        <time>2012-10-20T13:14:17Z</time>
      </trkpt>
      <trkpt lat="44.02451" lon="6.69978">
        <ele>1295.9</ele>
        <time>2012-10-20T13:14:25Z</time>
      </trkpt>
      <trkpt lat="44.02443" lon="6.69969">
        <ele>1296.5</ele>
        <time>2012-10-20T13:14:34Z</time>
      </trkpt>
      <trkpt lat="44.02439" lon="6.69963">
        <ele>1296.8</ele>
        <time>2012-10-20T13:14:41Z</time>
      </trkpt>
      <trkpt lat="44.0243" lon="6.69947">
        <ele>1300.3</ele>
        <time>2012-10-20T13:14:54Z</time>
      </trkpt>
      <trkpt lat="44.02415" lon="6.6993">
        <ele>1302.5</ele>
        <time>2012-10-20T13:15:12Z</time>
      </trkpt>
      <trkpt lat="44.02409" lon="6.6992">
        <ele>1303.1</ele>
        <time>2012-10-20T13:15:22Z</time>
      </trkpt>
      <trkpt lat="44.02404" lon="6.69917">
        <ele>1303.3</ele>
        <time>2012-10-20T13:15:29Z</time>
      </trkpt>
      <trkpt lat="44.02398" lon="6.69916">
        <ele>1304.6</ele>
        <time>2012-10-20T13:15:37Z</time>
      </trkpt>
      <trkpt lat="44.02392" lon="6.69913">
        <ele>1304.3</ele>
        <time>2012-10-20T13:15:42Z</time>
      </trkpt>
      <trkpt lat="44.0239" lon="6.69912">
        <ele>1304.6</ele>
        <time>2012-10-20T13:15:44Z</time>
      </trkpt>
      <trkpt lat="44.0238" lon="6.69903">
        <ele>1304.8</ele>
        <time>2012-10-20T13:15:52Z</time>
      </trkpt>
      <trkpt lat="44.02375" lon="6.69899">
        <ele>1305.5</ele>
        <time>2012-10-20T13:15:56Z</time>
      </trkpt>
      <trkpt lat="44.02369" lon="6.69895">
        <ele>1309.4</ele>
        <time>2012-10-20T13:16:04Z</time>
      </trkpt>
      <trkpt lat="44.02365" lon="6.69894">
        <ele>1311.1</ele>
        <time>2012-10-20T13:16:10Z</time>
      </trkpt>
      <trkpt lat="44.02358" lon="6.69887">
        <ele>1310.6</ele>
        <time>2012-10-20T13:16:22Z</time>
      </trkpt>
      <trkpt lat="44.02353" lon="6.69879">
        <ele>1310.5</ele>
        <time>2012-10-20T13:16:28Z</time>
      </trkpt>
      <trkpt lat="44.02348" lon="6.69866">
        <ele>1306.9</ele>
        <time>2012-10-20T13:16:34Z</time>
      </trkpt>
      <trkpt lat="44.02346" lon="6.69856">
        <ele>1305.6</ele>
        <time>2012-10-20T13:16:38Z</time>
      </trkpt>
      <trkpt lat="44.02338" lon="6.69844">
        <ele>1306.5</ele>
        <time>2012-10-20T13:16:45Z</time>
      </trkpt>
      <trkpt lat="44.02327" lon="6.69838">
        <ele>1309.7</ele>
        <time>2012-10-20T13:16:51Z</time>
      </trkpt>
      <trkpt lat="44.02325" lon="6.69837">
        <ele>1310.1</ele>
        <time>2012-10-20T13:16:52Z</time>
      </trkpt>
      <trkpt lat="44.02319" lon="6.69831">
        <ele>1310.3</ele>
        <time>2012-10-20T13:16:56Z</time>
      </trkpt>
      <trkpt lat="44.0231" lon="6.69821">
        <ele>1310.7</ele>
        <time>2012-10-20T13:17:03Z</time>
      </trkpt>
      <trkpt lat="44.02302" lon="6.69807">
        <ele>1311.9</ele>
        <time>2012-10-20T13:17:11Z</time>
      </trkpt>
      <trkpt lat="44.02298" lon="6.69797">
        <ele>1313.1</ele>
        <time>2012-10-20T13:17:17Z</time>
      </trkpt>
      <trkpt lat="44.02296" lon="6.69785">
        <ele>1314.1</ele>
        <time>2012-10-20T13:17:24Z</time>
      </trkpt>
      <trkpt lat="44.02295" lon="6.69771">
        <ele>1316.3</ele>
        <time>2012-10-20T13:17:31Z</time>
      </trkpt>
      <trkpt lat="44.02288" lon="6.69767">
        <ele>1316.6</ele>
        <time>2012-10-20T13:17:37Z</time>
      </trkpt>
      <trkpt lat="44.02279" lon="6.69769">
        <ele>1320.6</ele>
        <time>2012-10-20T13:17:42Z</time>
      </trkpt>
      <trkpt lat="44.02266" lon="6.6976">
        <ele>1319.7</ele>
        <time>2012-10-20T13:17:48Z</time>
      </trkpt>
      <trkpt lat="44.02255" lon="6.69748">
        <ele>1317.9</ele>
        <time>2012-10-20T13:17:53Z</time>
      </trkpt>
      <trkpt lat="44.02226" lon="6.6969">
        <ele>1314.7</ele>
        <time>2012-10-20T13:18:16Z</time>
      </trkpt>
      <trkpt lat="44.02225" lon="6.69688">
        <ele>1315.3</ele>
        <time>2012-10-20T13:18:17Z</time>
      </trkpt>
      <trkpt lat="44.02222" lon="6.6966">
        <ele>1318.1</ele>
        <time>2012-10-20T13:18:30Z</time>
      </trkpt>
      <trkpt lat="44.02221" lon="6.69658">
        <ele>1320</ele>
        <time>2012-10-20T13:18:36Z</time>
      </trkpt>
      <trkpt lat="44.02222" lon="6.6966">
        <ele>1323.4</ele>
        <time>2012-10-20T13:18:45Z</time>
      </trkpt>
      <trkpt lat="44.02222" lon="6.69656">
        <ele>1325.7</ele>
        <time>2012-10-20T13:18:50Z</time>
      </trkpt>
      <trkpt lat="44.02218" lon="6.69657">
        <ele>1329</ele>
        <time>2012-10-20T13:19:01Z</time>
      </trkpt>
      <trkpt lat="44.0222" lon="6.69651">
        <ele>1325.6</ele>
        <time>2012-10-20T13:19:09Z</time>
      </trkpt>
      <trkpt lat="44.02219" lon="6.6964">
        <ele>1326</ele>
        <time>2012-10-20T13:19:15Z</time>
      </trkpt>
      <trkpt lat="44.02208" lon="6.69608">
        <ele>1329.4</ele>
        <time>2012-10-20T13:19:31Z</time>
      </trkpt>
      <trkpt lat="44.02207" lon="6.69607">
        <ele>1327.1</ele>
        <time>2012-10-20T13:19:38Z</time>
      </trkpt>
      <trkpt lat="44.02212" lon="6.69607">
        <ele>1322.4</ele>
        <time>2012-10-20T13:21:51Z</time>
      </trkpt>
      <trkpt lat="44.02209" lon="6.69598">
        <ele>1338.1</ele>
        <time>2012-10-20T13:26:09Z</time>
      </trkpt>
      <trkpt lat="44.02212" lon="6.69594">
        <ele>1336.3</ele>
        <time>2012-10-20T13:26:13Z</time>
      </trkpt>
      <trkpt lat="44.02221" lon="6.69591">
        <ele>1327.4</ele>
        <time>2012-10-20T13:26:22Z</time>
      </trkpt>
      <trkpt lat="44.0222" lon="6.69591">
        <ele>1324.4</ele>
        <time>2012-10-20T13:26:27Z</time>
      </trkpt>
      <trkpt lat="44.0222" lon="6.69578">
        <ele>1329.4</ele>
        <time>2012-10-20T13:26:35Z</time>
      </trkpt>
      <trkpt lat="44.0221" lon="6.69553">
        <ele>1326.5</ele>
        <time>2012-10-20T13:26:44Z</time>
      </trkpt>
      <trkpt lat="44.0221" lon="6.69539">
        <ele>1328.7</ele>
        <time>2012-10-20T13:26:49Z</time>
      </trkpt>
      <trkpt lat="44.02209" lon="6.69528">
        <ele>1329.4</ele>
        <time>2012-10-20T13:26:56Z</time>
      </trkpt>
      <trkpt lat="44.02189" lon="6.6947">
        <ele>1331.5</ele>
        <time>2012-10-20T13:27:09Z</time>
      </trkpt>
      <trkpt lat="44.02196" lon="6.69465">
        <ele>1332.2</ele>
        <time>2012-10-20T13:27:14Z</time>
      </trkpt>
      <trkpt lat="44.02202" lon="6.69468">
        <ele>1331.1</ele>
        <time>2012-10-20T13:27:18Z</time>
      </trkpt>
      <trkpt lat="44.02213" lon="6.69474">
        <ele>1330.5</ele>
        <time>2012-10-20T13:27:25Z</time>
      </trkpt>
      <trkpt lat="44.02215" lon="6.69473">
        <ele>1330.2</ele>
        <time>2012-10-20T13:27:26Z</time>
      </trkpt>
      <trkpt lat="44.02217" lon="6.69461">
        <ele>1330.3</ele>
        <time>2012-10-20T13:27:32Z</time>
      </trkpt>
      <trkpt lat="44.02216" lon="6.69456">
        <ele>1331.3</ele>
        <time>2012-10-20T13:27:34Z</time>
      </trkpt>
      <trkpt lat="44.02205" lon="6.69433">
        <ele>1332.1</ele>
        <time>2012-10-20T13:27:43Z</time>
      </trkpt>
      <trkpt lat="44.02197" lon="6.69423">
        <ele>1338.5</ele>
        <time>2012-10-20T13:27:49Z</time>
      </trkpt>
      <trkpt lat="44.02135" lon="6.69325">
        <ele>1349.6</ele>
        <time>2012-10-20T13:28:34Z</time>
      </trkpt>
      <trkpt lat="44.02127" lon="6.69316">
        <ele>1353.3</ele>
        <time>2012-10-20T13:28:39Z</time>
      </trkpt>
      <trkpt lat="44.02118" lon="6.693">
        <ele>1353.8</ele>
        <time>2012-10-20T13:28:46Z</time>
      </trkpt>
      <trkpt lat="44.02094" lon="6.69277">
        <ele>1350.7</ele>
        <time>2012-10-20T13:28:59Z</time>
      </trkpt>
      <trkpt lat="44.02082" lon="6.69258">
        <ele>1350.6</ele>
        <time>2012-10-20T13:29:06Z</time>
      </trkpt>
      <trkpt lat="44.02076" lon="6.69242">
        <ele>1350</ele>
        <time>2012-10-20T13:29:12Z</time>
      </trkpt>
      <trkpt lat="44.02075" lon="6.69235">
        <ele>1356.5</ele>
        <time>2012-10-20T13:29:16Z</time>
      </trkpt>
      <trkpt lat="44.02069" lon="6.69219">
        <ele>1361.7</ele>
        <time>2012-10-20T13:29:24Z</time>
      </trkpt>
      <trkpt lat="44.02059" lon="6.69203">
        <ele>1365</ele>
        <time>2012-10-20T13:29:32Z</time>
      </trkpt>
      <trkpt lat="44.02043" lon="6.69185">
        <ele>1367</ele>
        <time>2012-10-20T13:29:42Z</time>
      </trkpt>
      <trkpt lat="44.02037" lon="6.69179">
        <ele>1367.4</ele>
        <time>2012-10-20T13:29:47Z</time>
      </trkpt>
      <trkpt lat="44.02031" lon="6.6917">
        <ele>1367.1</ele>
        <time>2012-10-20T13:29:53Z</time>
      </trkpt>
      <trkpt lat="44.02018" lon="6.6914">
        <ele>1366.2</ele>
        <time>2012-10-20T13:30:06Z</time>
      </trkpt>
      <trkpt lat="44.02016" lon="6.69117">
        <ele>1363.3</ele>
        <time>2012-10-20T13:30:14Z</time>
      </trkpt>
      <trkpt lat="44.02019" lon="6.69096">
        <ele>1358.6</ele>
        <time>2012-10-20T13:30:21Z</time>
      </trkpt>
      <trkpt lat="44.02024" lon="6.69081">
        <ele>1355.3</ele>
        <time>2012-10-20T13:30:27Z</time>
      </trkpt>
      <trkpt lat="44.02034" lon="6.69083">
        <ele>1356.3</ele>
        <time>2012-10-20T13:30:33Z</time>
      </trkpt>
      <trkpt lat="44.02039" lon="6.69104">
        <ele>1358.5</ele>
        <time>2012-10-20T13:30:42Z</time>
      </trkpt>
      <trkpt lat="44.02097" lon="6.69187">
        <ele>1363.8</ele>
        <time>2012-10-20T13:31:25Z</time>
      </trkpt>
      <trkpt lat="44.02112" lon="6.69215">
        <ele>1373.2</ele>
        <time>2012-10-20T13:31:40Z</time>
      </trkpt>
      <trkpt lat="44.02122" lon="6.69223">
        <ele>1376.5</ele>
        <time>2012-10-20T13:31:47Z</time>
      </trkpt>
      <trkpt lat="44.02147" lon="6.69237">
        <ele>1375.1</ele>
        <time>2012-10-20T13:32:01Z</time>
      </trkpt>
      <trkpt lat="44.02156" lon="6.69233">
        <ele>1371.3</ele>
        <time>2012-10-20T13:32:06Z</time>
      </trkpt>
      <trkpt lat="44.02157" lon="6.69217">
        <ele>1366.7</ele>
        <time>2012-10-20T13:32:13Z</time>
      </trkpt>
      <trkpt lat="44.02143" lon="6.69193">
        <ele>1369.6</ele>
        <time>2012-10-20T13:32:26Z</time>
      </trkpt>
      <trkpt lat="44.02139" lon="6.6918">
        <ele>1373.3</ele>
        <time>2012-10-20T13:32:34Z</time>
      </trkpt>
      <trkpt lat="44.02135" lon="6.6917">
        <ele>1377.6</ele>
        <time>2012-10-20T13:32:41Z</time>
      </trkpt>
      <trkpt lat="44.02134" lon="6.69168">
        <ele>1377.2</ele>
        <time>2012-10-20T13:32:42Z</time>
      </trkpt>
      <trkpt lat="44.02131" lon="6.69146">
        <ele>1381.7</ele>
        <time>2012-10-20T13:32:52Z</time>
      </trkpt>
      <trkpt lat="44.02126" lon="6.69131">
        <ele>1387.9</ele>
        <time>2012-10-20T13:33:01Z</time>
      </trkpt>
      <trkpt lat="44.02119" lon="6.6912">
        <ele>1391.1</ele>
        <time>2012-10-20T13:33:09Z</time>
      </trkpt>
      <trkpt lat="44.02116" lon="6.69111">
        <ele>1392.3</ele>
        <time>2012-10-20T13:33:14Z</time>
      </trkpt>
      <trkpt lat="44.02113" lon="6.69103">
        <ele>1393.4</ele>
        <time>2012-10-20T13:33:18Z</time>
      </trkpt>
      <trkpt lat="44.02097" lon="6.69067">
        <ele>1396.2</ele>
        <time>2012-10-20T13:33:38Z</time>
      </trkpt>
      <trkpt lat="44.02093" lon="6.69054">
        <ele>1396</ele>
        <time>2012-10-20T13:33:44Z</time>
      </trkpt>
      <trkpt lat="44.02091" lon="6.69014">
        <ele>1389.1</ele>
        <time>2012-10-20T13:33:59Z</time>
      </trkpt>
      <trkpt lat="44.02094" lon="6.68995">
        <ele>1386.5</ele>
        <time>2012-10-20T13:34:08Z</time>
      </trkpt>
      <trkpt lat="44.02099" lon="6.68981">
        <ele>1387.2</ele>
        <time>2012-10-20T13:34:16Z</time>
      </trkpt>
      <trkpt lat="44.02109" lon="6.68963">
        <ele>1390.4</ele>
        <time>2012-10-20T13:34:25Z</time>
      </trkpt>
      <trkpt lat="44.02114" lon="6.68949">
        <ele>1392.7</ele>
        <time>2012-10-20T13:34:32Z</time>
      </trkpt>
      <trkpt lat="44.02119" lon="6.6893">
        <ele>1392.6</ele>
        <time>2012-10-20T13:34:42Z</time>
      </trkpt>
      <trkpt lat="44.0212" lon="6.68917">
        <ele>1392.6</ele>
        <time>2012-10-20T13:34:48Z</time>
      </trkpt>
      <trkpt lat="44.02114" lon="6.68901">
        <ele>1397.2</ele>
        <time>2012-10-20T13:34:57Z</time>
      </trkpt>
      <trkpt lat="44.02111" lon="6.68888">
        <ele>1398.2</ele>
        <time>2012-10-20T13:35:04Z</time>
      </trkpt>
      <trkpt lat="44.02109" lon="6.68874">
        <ele>1400.9</ele>
        <time>2012-10-20T13:35:11Z</time>
      </trkpt>
      <trkpt lat="44.02112" lon="6.68859">
        <ele>1398.7</ele>
        <time>2012-10-20T13:35:18Z</time>
      </trkpt>
      <trkpt lat="44.02113" lon="6.68855">
        <ele>1398</ele>
        <time>2012-10-20T13:35:20Z</time>
      </trkpt>
      <trkpt lat="44.02113" lon="6.68846">
        <ele>1397.2</ele>
        <time>2012-10-20T13:35:24Z</time>
      </trkpt>
      <trkpt lat="44.02106" lon="6.68829">
        <ele>1400.6</ele>
        <time>2012-10-20T13:35:34Z</time>
      </trkpt>
      <trkpt lat="44.02102" lon="6.68815">
        <ele>1401</ele>
        <time>2012-10-20T13:35:41Z</time>
      </trkpt>
      <trkpt lat="44.02101" lon="6.68801">
        <ele>1399.2</ele>
        <time>2012-10-20T13:35:48Z</time>
      </trkpt>
      <trkpt lat="44.02094" lon="6.68764">
        <ele>1407.3</ele>
        <time>2012-10-20T13:36:08Z</time>
      </trkpt>
      <trkpt lat="44.02097" lon="6.68749">
        <ele>1407.4</ele>
        <time>2012-10-20T13:36:16Z</time>
      </trkpt>
      <trkpt lat="44.02096" lon="6.68735">
        <ele>1407.4</ele>
        <time>2012-10-20T13:36:23Z</time>
      </trkpt>
      <trkpt lat="44.02089" lon="6.68705">
        <ele>1409.1</ele>
        <time>2012-10-20T13:36:39Z</time>
      </trkpt>
      <trkpt lat="44.02086" lon="6.68696">
        <ele>1410.9</ele>
        <time>2012-10-20T13:36:44Z</time>
      </trkpt>
      <trkpt lat="44.02085" lon="6.68682">
        <ele>1413.2</ele>
        <time>2012-10-20T13:36:51Z</time>
      </trkpt>
      <trkpt lat="44.02087" lon="6.6866">
        <ele>1415.1</ele>
        <time>2012-10-20T13:37:03Z</time>
      </trkpt>
      <trkpt lat="44.02092" lon="6.68644">
        <ele>1418.4</ele>
        <time>2012-10-20T13:37:13Z</time>
      </trkpt>
      <trkpt lat="44.02094" lon="6.68641">
        <ele>1418.1</ele>
        <time>2012-10-20T13:37:15Z</time>
      </trkpt>
      <trkpt lat="44.02093" lon="6.68635">
        <ele>1417.7</ele>
        <time>2012-10-20T13:37:19Z</time>
      </trkpt>
      <trkpt lat="44.02088" lon="6.68628">
        <ele>1418.6</ele>
        <time>2012-10-20T13:37:24Z</time>
      </trkpt>
      <trkpt lat="44.02077" lon="6.68623">
        <ele>1423</ele>
        <time>2012-10-20T13:37:32Z</time>
      </trkpt>
      <trkpt lat="44.02066" lon="6.68617">
        <ele>1424.6</ele>
        <time>2012-10-20T13:37:40Z</time>
      </trkpt>
      <trkpt lat="44.02058" lon="6.68606">
        <ele>1426.2</ele>
        <time>2012-10-20T13:37:48Z</time>
      </trkpt>
      <trkpt lat="44.02052" lon="6.68597">
        <ele>1429.4</ele>
        <time>2012-10-20T13:37:55Z</time>
      </trkpt>
      <trkpt lat="44.02049" lon="6.6859">
        <ele>1430.1</ele>
        <time>2012-10-20T13:37:59Z</time>
      </trkpt>
      <trkpt lat="44.02036" lon="6.68551">
        <ele>1429.1</ele>
        <time>2012-10-20T13:38:22Z</time>
      </trkpt>
      <trkpt lat="44.02032" lon="6.68519">
        <ele>1428.8</ele>
        <time>2012-10-20T13:38:38Z</time>
      </trkpt>
      <trkpt lat="44.02036" lon="6.68453">
        <ele>1427.7</ele>
        <time>2012-10-20T13:39:12Z</time>
      </trkpt>
      <trkpt lat="44.02043" lon="6.68438">
        <ele>1428.6</ele>
        <time>2012-10-20T13:39:22Z</time>
      </trkpt>
      <trkpt lat="44.02053" lon="6.68429">
        <ele>1432.6</ele>
        <time>2012-10-20T13:39:31Z</time>
      </trkpt>
      <trkpt lat="44.02064" lon="6.68425">
        <ele>1434.9</ele>
        <time>2012-10-20T13:39:39Z</time>
      </trkpt>
      <trkpt lat="44.02069" lon="6.68424">
        <ele>1435.6</ele>
        <time>2012-10-20T13:39:43Z</time>
      </trkpt>
      <trkpt lat="44.02077" lon="6.68424">
        <ele>1439.1</ele>
        <time>2012-10-20T13:39:51Z</time>
      </trkpt>
      <trkpt lat="44.02079" lon="6.68424">
        <ele>1438.6</ele>
        <time>2012-10-20T13:39:52Z</time>
      </trkpt>
      <trkpt lat="44.02087" lon="6.68416">
        <ele>1437.6</ele>
        <time>2012-10-20T13:39:59Z</time>
      </trkpt>
      <trkpt lat="44.02087" lon="6.68406">
        <ele>1434.4</ele>
        <time>2012-10-20T13:40:07Z</time>
      </trkpt>
      <trkpt lat="44.02077" lon="6.684">
        <ele>1441.3</ele>
        <time>2012-10-20T13:40:16Z</time>
      </trkpt>
      <trkpt lat="44.02068" lon="6.6839">
        <ele>1445.6</ele>
        <time>2012-10-20T13:40:24Z</time>
      </trkpt>
      <trkpt lat="44.02061" lon="6.68386">
        <ele>1448.1</ele>
        <time>2012-10-20T13:40:30Z</time>
      </trkpt>
      <trkpt lat="44.02059" lon="6.68384">
        <ele>1448.9</ele>
        <time>2012-10-20T13:40:32Z</time>
      </trkpt>
      <trkpt lat="44.02041" lon="6.68373">
        <ele>1449.5</ele>
        <time>2012-10-20T13:40:46Z</time>
      </trkpt>
      <trkpt lat="44.0203" lon="6.68369">
        <ele>1448.7</ele>
        <time>2012-10-20T13:40:54Z</time>
      </trkpt>
      <trkpt lat="44.02021" lon="6.68362">
        <ele>1450.2</ele>
        <time>2012-10-20T13:41:02Z</time>
      </trkpt>
      <trkpt lat="44.02018" lon="6.68358">
        <ele>1453.5</ele>
        <time>2012-10-20T13:41:07Z</time>
      </trkpt>
      <trkpt lat="44.0201" lon="6.68346">
        <ele>1457.5</ele>
        <time>2012-10-20T13:41:15Z</time>
      </trkpt>
      <trkpt lat="44.02005" lon="6.68335">
        <ele>1460.3</ele>
        <time>2012-10-20T13:41:22Z</time>
      </trkpt>
      <trkpt lat="44.01997" lon="6.68325">
        <ele>1461.4</ele>
        <time>2012-10-20T13:41:31Z</time>
      </trkpt>
      <trkpt lat="44.0199" lon="6.68314">
        <ele>1463.2</ele>
        <time>2012-10-20T13:41:39Z</time>
      </trkpt>
      <trkpt lat="44.0198" lon="6.68279">
        <ele>1457</ele>
        <time>2012-10-20T13:41:55Z</time>
      </trkpt>
      <trkpt lat="44.0198" lon="6.68259">
        <ele>1456.4</ele>
        <time>2012-10-20T13:42:04Z</time>
      </trkpt>
      <trkpt lat="44.01977" lon="6.68248">
        <ele>1457.1</ele>
        <time>2012-10-20T13:42:10Z</time>
      </trkpt>
      <trkpt lat="44.01971" lon="6.68242">
        <ele>1459.2</ele>
        <time>2012-10-20T13:42:16Z</time>
      </trkpt>
      <trkpt lat="44.01965" lon="6.68241">
        <ele>1463.4</ele>
        <time>2012-10-20T13:42:22Z</time>
      </trkpt>
      <trkpt lat="44.01963" lon="6.68241">
        <ele>1464</ele>
        <time>2012-10-20T13:42:23Z</time>
      </trkpt>
      <trkpt lat="44.01947" lon="6.68238">
        <ele>1465.8</ele>
        <time>2012-10-20T13:42:35Z</time>
      </trkpt>
      <trkpt lat="44.01936" lon="6.68232">
        <ele>1469.9</ele>
        <time>2012-10-20T13:42:44Z</time>
      </trkpt>
      <trkpt lat="44.0193" lon="6.68223">
        <ele>1471.5</ele>
        <time>2012-10-20T13:42:51Z</time>
      </trkpt>
      <trkpt lat="44.01916" lon="6.68197">
        <ele>1474</ele>
        <time>2012-10-20T13:43:07Z</time>
      </trkpt>
      <trkpt lat="44.01906" lon="6.68189">
        <ele>1475.8</ele>
        <time>2012-10-20T13:43:14Z</time>
      </trkpt>
      <trkpt lat="44.01892" lon="6.68185">
        <ele>1475.2</ele>
        <time>2012-10-20T13:43:22Z</time>
      </trkpt>
      <trkpt lat="44.01878" lon="6.68178">
        <ele>1472.1</ele>
        <time>2012-10-20T13:43:27Z</time>
      </trkpt>
      <trkpt lat="44.01853" lon="6.68159">
        <ele>1468.7</ele>
        <time>2012-10-20T13:43:33Z</time>
      </trkpt>
      <trkpt lat="44.01848" lon="6.68156">
        <ele>1468.9</ele>
        <time>2012-10-20T13:43:34Z</time>
      </trkpt>
      <trkpt lat="44.01797" lon="6.68157">
        <ele>1470.3</ele>
        <time>2012-10-20T13:43:46Z</time>
      </trkpt>
      <trkpt lat="44.01781" lon="6.68151">
        <ele>1472.2</ele>
        <time>2012-10-20T13:43:52Z</time>
      </trkpt>
      <trkpt lat="44.01772" lon="6.68144">
        <ele>1476</ele>
        <time>2012-10-20T13:43:58Z</time>
      </trkpt>
      <trkpt lat="44.01761" lon="6.68131">
        <ele>1477.8</ele>
        <time>2012-10-20T13:44:04Z</time>
      </trkpt>
      <trkpt lat="44.01722" lon="6.6807">
        <ele>1480.5</ele>
        <time>2012-10-20T13:44:25Z</time>
      </trkpt>
      <trkpt lat="44.01707" lon="6.6804">
        <ele>1475.7</ele>
        <time>2012-10-20T13:44:32Z</time>
      </trkpt>
      <trkpt lat="44.01669" lon="6.67994">
        <ele>1473.6</ele>
        <time>2012-10-20T13:44:47Z</time>
      </trkpt>
      <trkpt lat="44.01656" lon="6.67975">
        <ele>1471.6</ele>
        <time>2012-10-20T13:44:52Z</time>
      </trkpt>
      <trkpt lat="44.01637" lon="6.67936">
        <ele>1470.6</ele>
        <time>2012-10-20T13:44:59Z</time>
      </trkpt>
      <trkpt lat="44.01622" lon="6.67917">
        <ele>1470</ele>
        <time>2012-10-20T13:45:03Z</time>
      </trkpt>
      <trkpt lat="44.01585" lon="6.67888">
        <ele>1467.1</ele>
        <time>2012-10-20T13:45:11Z</time>
      </trkpt>
      <trkpt lat="44.0151" lon="6.67868">
        <ele>1468</ele>
        <time>2012-10-20T13:45:25Z</time>
      </trkpt>
      <trkpt lat="44.0149" lon="6.67855">
        <ele>1470.1</ele>
        <time>2012-10-20T13:45:31Z</time>
      </trkpt>
      <trkpt lat="44.01468" lon="6.67829">
        <ele>1469.4</ele>
        <time>2012-10-20T13:45:38Z</time>
      </trkpt>
      <trkpt lat="44.01434" lon="6.6777">
        <ele>1474.3</ele>
        <time>2012-10-20T13:45:52Z</time>
      </trkpt>
      <trkpt lat="44.01404" lon="6.67667">
        <ele>1471.1</ele>
        <time>2012-10-20T13:46:16Z</time>
      </trkpt>
      <trkpt lat="44.01368" lon="6.67622">
        <ele>1478.9</ele>
        <time>2012-10-20T13:46:34Z</time>
      </trkpt>
      <trkpt lat="44.01359" lon="6.67595">
        <ele>1480.1</ele>
        <time>2012-10-20T13:46:42Z</time>
      </trkpt>
      <trkpt lat="44.01351" lon="6.6758">
        <ele>1480.5</ele>
        <time>2012-10-20T13:46:47Z</time>
      </trkpt>
      <trkpt lat="44.01344" lon="6.6756">
        <ele>1479.9</ele>
        <time>2012-10-20T13:46:54Z</time>
      </trkpt>
      <trkpt lat="44.01338" lon="6.67536">
        <ele>1479.3</ele>
        <time>2012-10-20T13:47:02Z</time>
      </trkpt>
      <trkpt lat="44.01338" lon="6.67517">
        <ele>1475.4</ele>
        <time>2012-10-20T13:47:09Z</time>
      </trkpt>
      <trkpt lat="44.01336" lon="6.67515">
        <ele>1474.3</ele>
        <time>2012-10-20T13:47:13Z</time>
      </trkpt>
      <trkpt lat="44.01334" lon="6.67517">
        <ele>1474.9</ele>
        <time>2012-10-20T13:53:31Z</time>
      </trkpt>
      <trkpt lat="44.01334" lon="6.67517">
        <ele>1474.4</ele>
        <time>2012-10-20T13:53:34Z</time>
      </trkpt>
      <trkpt lat="44.01335" lon="6.67503">
        <ele>1473.2</ele>
        <time>2012-10-20T13:53:38Z</time>
      </trkpt>
      <trkpt lat="44.01341" lon="6.67487">
        <ele>1472.7</ele>
        <time>2012-10-20T13:53:41Z</time>
      </trkpt>
      <trkpt lat="44.0138" lon="6.67421">
        <ele>1462.9</ele>
        <time>2012-10-20T13:53:52Z</time>
      </trkpt>
      <trkpt lat="44.01392" lon="6.67409">
        <ele>1460.9</ele>
        <time>2012-10-20T13:53:55Z</time>
      </trkpt>
      <trkpt lat="44.01396" lon="6.67405">
        <ele>1459.6</ele>
        <time>2012-10-20T13:53:57Z</time>
      </trkpt>
      <trkpt lat="44.01403" lon="6.67381">
        <ele>1453.6</ele>
        <time>2012-10-20T13:54:03Z</time>
      </trkpt>
      <trkpt lat="44.01404" lon="6.67375">
        <ele>1453.2</ele>
        <time>2012-10-20T13:54:04Z</time>
      </trkpt>
      <trkpt lat="44.01397" lon="6.67349">
        <ele>1447.1</ele>
        <time>2012-10-20T13:54:08Z</time>
      </trkpt>
      <trkpt lat="44.0138" lon="6.67333">
        <ele>1444.6</ele>
        <time>2012-10-20T13:54:11Z</time>
      </trkpt>
      <trkpt lat="44.01367" lon="6.67306">
        <ele>1443.3</ele>
        <time>2012-10-20T13:54:15Z</time>
      </trkpt>
      <trkpt lat="44.01353" lon="6.67192">
        <ele>1431.7</ele>
        <time>2012-10-20T13:54:31Z</time>
      </trkpt>
      <trkpt lat="44.01356" lon="6.67173">
        <ele>1427.9</ele>
        <time>2012-10-20T13:54:34Z</time>
      </trkpt>
      <trkpt lat="44.01368" lon="6.67136">
        <ele>1423.5</ele>
        <time>2012-10-20T13:54:40Z</time>
      </trkpt>
      <trkpt lat="44.0138" lon="6.67115">
        <ele>1424.3</ele>
        <time>2012-10-20T13:54:44Z</time>
      </trkpt>
      <trkpt lat="44.01389" lon="6.67088">
        <ele>1425.5</ele>
        <time>2012-10-20T13:54:49Z</time>
      </trkpt>
      <trkpt lat="44.01395" lon="6.67048">
        <ele>1425.4</ele>
        <time>2012-10-20T13:54:58Z</time>
      </trkpt>
      <trkpt lat="44.01404" lon="6.67026">
        <ele>1423.1</ele>
        <time>2012-10-20T13:55:03Z</time>
      </trkpt>
      <trkpt lat="44.01406" lon="6.67011">
        <ele>1423.5</ele>
        <time>2012-10-20T13:55:07Z</time>
      </trkpt>
      <trkpt lat="44.01403" lon="6.6701">
        <ele>1422.4</ele>
        <time>2012-10-20T13:55:11Z</time>
      </trkpt>
      <trkpt lat="44.014" lon="6.67023">
        <ele>1421.6</ele>
        <time>2012-10-20T13:55:15Z</time>
      </trkpt>
      <trkpt lat="44.01395" lon="6.67033">
        <ele>1419.7</ele>
        <time>2012-10-20T13:55:19Z</time>
      </trkpt>
      <trkpt lat="44.01386" lon="6.67044">
        <ele>1419.5</ele>
        <time>2012-10-20T13:55:24Z</time>
      </trkpt>
      <trkpt lat="44.01385" lon="6.6705">
        <ele>1418</ele>
        <time>2012-10-20T13:55:28Z</time>
      </trkpt>
      <trkpt lat="44.01383" lon="6.67056">
        <ele>1418.6</ele>
        <time>2012-10-20T13:55:34Z</time>
      </trkpt>
      <trkpt lat="44.01382" lon="6.67058">
        <ele>1419.5</ele>
        <time>2012-10-20T13:55:37Z</time>
      </trkpt>
      <trkpt lat="44.01378" lon="6.67058">
        <ele>1420.5</ele>
        <time>2012-10-20T13:55:41Z</time>
      </trkpt>
      <trkpt lat="44.01375" lon="6.67065">
        <ele>1424.3</ele>
        <time>2012-10-20T13:55:48Z</time>
      </trkpt>
      <trkpt lat="44.01373" lon="6.67065">
        <ele>1426.3</ele>
        <time>2012-10-20T13:55:51Z</time>
      </trkpt>
      <trkpt lat="44.01363" lon="6.67069">
        <ele>1423.4</ele>
        <time>2012-10-20T13:55:56Z</time>
      </trkpt>
      <trkpt lat="44.01352" lon="6.67082">
        <ele>1422.6</ele>
        <time>2012-10-20T13:56:01Z</time>
      </trkpt>
      <trkpt lat="44.01342" lon="6.67099">
        <ele>1417.6</ele>
        <time>2012-10-20T13:56:07Z</time>
      </trkpt>
      <trkpt lat="44.0133" lon="6.67115">
        <ele>1415.8</ele>
        <time>2012-10-20T13:56:12Z</time>
      </trkpt>
      <trkpt lat="44.01322" lon="6.67135">
        <ele>1414.1</ele>
        <time>2012-10-20T13:56:17Z</time>
      </trkpt>
      <trkpt lat="44.01313" lon="6.67179">
        <ele>1404.4</ele>
        <time>2012-10-20T13:56:39Z</time>
      </trkpt>
      <trkpt lat="44.01308" lon="6.67181">
        <ele>1402.4</ele>
        <time>2012-10-20T13:56:43Z</time>
      </trkpt>
      <trkpt lat="44.01306" lon="6.67176">
        <ele>1400.3</ele>
        <time>2012-10-20T13:56:47Z</time>
      </trkpt>
      <trkpt lat="44.01305" lon="6.67172">
        <ele>1399.3</ele>
        <time>2012-10-20T13:56:51Z</time>
      </trkpt>
      <trkpt lat="44.01295" lon="6.67157">
        <ele>1395.1</ele>
        <time>2012-10-20T13:56:57Z</time>
      </trkpt>
      <trkpt lat="44.01289" lon="6.67145">
        <ele>1395.7</ele>
        <time>2012-10-20T13:57:01Z</time>
      </trkpt>
      <trkpt lat="44.01292" lon="6.67126">
        <ele>1389.3</ele>
        <time>2012-10-20T13:57:06Z</time>
      </trkpt>
      <trkpt lat="44.01294" lon="6.67114">
        <ele>1388.6</ele>
        <time>2012-10-20T13:57:08Z</time>
      </trkpt>
      <trkpt lat="44.01297" lon="6.6705">
        <ele>1382.9</ele>
        <time>2012-10-20T13:57:24Z</time>
      </trkpt>
      <trkpt lat="44.01298" lon="6.67045">
        <ele>1383.3</ele>
        <time>2012-10-20T13:57:29Z</time>
      </trkpt>
      <trkpt lat="44.01299" lon="6.67033">
        <ele>1381.6</ele>
        <time>2012-10-20T13:57:32Z</time>
      </trkpt>
      <trkpt lat="44.01296" lon="6.67007">
        <ele>1378.5</ele>
        <time>2012-10-20T13:57:39Z</time>
      </trkpt>
      <trkpt lat="44.01285" lon="6.66988">
        <ele>1386.1</ele>
        <time>2012-10-20T13:57:59Z</time>
      </trkpt>
      <trkpt lat="44.01281" lon="6.66982">
        <ele>1386.6</ele>
        <time>2012-10-20T13:58:08Z</time>
      </trkpt>
      <trkpt lat="44.01279" lon="6.66977">
        <ele>1386.7</ele>
        <time>2012-10-20T13:58:14Z</time>
      </trkpt>
      <trkpt lat="44.0128" lon="6.6697">
        <ele>1383.6</ele>
        <time>2012-10-20T13:58:20Z</time>
      </trkpt>
      <trkpt lat="44.01284" lon="6.66968">
        <ele>1376.8</ele>
        <time>2012-10-20T13:58:28Z</time>
      </trkpt>
      <trkpt lat="44.01282" lon="6.66959">
        <ele>1376.6</ele>
        <time>2012-10-20T13:58:33Z</time>
      </trkpt>
      <trkpt lat="44.01277" lon="6.66945">
        <ele>1378</ele>
        <time>2012-10-20T13:58:38Z</time>
      </trkpt>
      <trkpt lat="44.01265" lon="6.66893">
        <ele>1373.1</ele>
        <time>2012-10-20T13:58:48Z</time>
      </trkpt>
      <trkpt lat="44.01267" lon="6.66859">
        <ele>1363.5</ele>
        <time>2012-10-20T13:58:58Z</time>
      </trkpt>
      <trkpt lat="44.01265" lon="6.6684">
        <ele>1363.6</ele>
        <time>2012-10-20T13:59:03Z</time>
      </trkpt>
      <trkpt lat="44.0127" lon="6.66825">
        <ele>1361.1</ele>
        <time>2012-10-20T13:59:06Z</time>
      </trkpt>
      <trkpt lat="44.01275" lon="6.66816">
        <ele>1358.9</ele>
        <time>2012-10-20T13:59:08Z</time>
      </trkpt>
      <trkpt lat="44.01287" lon="6.66812">
        <ele>1355.5</ele>
        <time>2012-10-20T13:59:12Z</time>
      </trkpt>
      <trkpt lat="44.01307" lon="6.66814">
        <ele>1352.1</ele>
        <time>2012-10-20T13:59:17Z</time>
      </trkpt>
      <trkpt lat="44.01343" lon="6.66794">
        <ele>1335.5</ele>
        <time>2012-10-20T13:59:33Z</time>
      </trkpt>
      <trkpt lat="44.01349" lon="6.66782">
        <ele>1336</ele>
        <time>2012-10-20T13:59:42Z</time>
      </trkpt>
      <trkpt lat="44.01352" lon="6.66775">
        <ele>1335.3</ele>
        <time>2012-10-20T13:59:49Z</time>
      </trkpt>
      <trkpt lat="44.01354" lon="6.66775">
        <ele>1338.7</ele>
        <time>2012-10-20T14:00:00Z</time>
      </trkpt>
      <trkpt lat="44.01361" lon="6.6676">
        <ele>1336.4</ele>
        <time>2012-10-20T14:00:15Z</time>
      </trkpt>
      <trkpt lat="44.01363" lon="6.66759">
        <ele>1338.6</ele>
        <time>2012-10-20T14:00:20Z</time>
      </trkpt>
      <trkpt lat="44.01364" lon="6.66753">
        <ele>1338.1</ele>
        <time>2012-10-20T14:00:26Z</time>
      </trkpt>
      <trkpt lat="44.01363" lon="6.66752">
        <ele>1339.1</ele>
        <time>2012-10-20T14:00:27Z</time>
      </trkpt>
      <trkpt lat="44.01361" lon="6.66749">
        <ele>1339.4</ele>
        <time>2012-10-20T14:00:30Z</time>
      </trkpt>
      <trkpt lat="44.01359" lon="6.66746">
        <ele>1339</ele>
        <time>2012-10-20T14:00:33Z</time>
      </trkpt>
      <trkpt lat="44.01352" lon="6.66734">
        <ele>1339</ele>
        <time>2012-10-20T14:00:43Z</time>
      </trkpt>
      <trkpt lat="44.01343" lon="6.66727">
        <ele>1343.7</ele>
        <time>2012-10-20T14:00:49Z</time>
      </trkpt>
      <trkpt lat="44.01327" lon="6.6671">
        <ele>1348.9</ele>
        <time>2012-10-20T14:00:54Z</time>
      </trkpt>
      <trkpt lat="44.01311" lon="6.66662">
        <ele>1344.7</ele>
        <time>2012-10-20T14:01:03Z</time>
      </trkpt>
      <trkpt lat="44.01304" lon="6.66649">
        <ele>1342.1</ele>
        <time>2012-10-20T14:01:07Z</time>
      </trkpt>
      <trkpt lat="44.01282" lon="6.66621">
        <ele>1329.7</ele>
        <time>2012-10-20T14:01:18Z</time>
      </trkpt>
      <trkpt lat="44.01266" lon="6.66604">
        <ele>1328.9</ele>
        <time>2012-10-20T14:01:24Z</time>
      </trkpt>
      <trkpt lat="44.01251" lon="6.66585">
        <ele>1326</ele>
        <time>2012-10-20T14:01:29Z</time>
      </trkpt>
      <trkpt lat="44.01243" lon="6.66579">
        <ele>1323.3</ele>
        <time>2012-10-20T14:01:31Z</time>
      </trkpt>
      <trkpt lat="44.01226" lon="6.66553">
        <ele>1312.7</ele>
        <time>2012-10-20T14:01:38Z</time>
      </trkpt>
      <trkpt lat="44.01204" lon="6.6653">
        <ele>1301</ele>
        <time>2012-10-20T14:01:48Z</time>
      </trkpt>
      <trkpt lat="44.01189" lon="6.6653">
        <ele>1294.9</ele>
        <time>2012-10-20T14:01:52Z</time>
      </trkpt>
      <trkpt lat="44.01165" lon="6.66523">
        <ele>1286.4</ele>
        <time>2012-10-20T14:01:58Z</time>
      </trkpt>
      <trkpt lat="44.01157" lon="6.66517">
        <ele>1284</ele>
        <time>2012-10-20T14:02:01Z</time>
      </trkpt>
      <trkpt lat="44.01138" lon="6.66495">
        <ele>1278.2</ele>
        <time>2012-10-20T14:02:06Z</time>
      </trkpt>
      <trkpt lat="44.01125" lon="6.66504">
        <ele>1274.5</ele>
        <time>2012-10-20T14:02:09Z</time>
      </trkpt>
      <trkpt lat="44.01121" lon="6.66518">
        <ele>1274.3</ele>
        <time>2012-10-20T14:02:12Z</time>
      </trkpt>
      <trkpt lat="44.0113" lon="6.66537">
        <ele>1276.3</ele>
        <time>2012-10-20T14:02:15Z</time>
      </trkpt>
      <trkpt lat="44.01134" lon="6.66556">
        <ele>1277.5</ele>
        <time>2012-10-20T14:02:18Z</time>
      </trkpt>
      <trkpt lat="44.01128" lon="6.66572">
        <ele>1278.8</ele>
        <time>2012-10-20T14:02:23Z</time>
      </trkpt>
      <trkpt lat="44.01119" lon="6.6659">
        <ele>1279</ele>
        <time>2012-10-20T14:02:31Z</time>
      </trkpt>
      <trkpt lat="44.01114" lon="6.66607">
        <ele>1277.9</ele>
        <time>2012-10-20T14:02:38Z</time>
      </trkpt>
      <trkpt lat="44.01102" lon="6.66625">
        <ele>1280.6</ele>
        <time>2012-10-20T14:02:50Z</time>
      </trkpt>
      <trkpt lat="44.01096" lon="6.66647">
        <ele>1278.8</ele>
        <time>2012-10-20T14:03:00Z</time>
      </trkpt>
      <trkpt lat="44.0109" lon="6.66661">
        <ele>1279.6</ele>
        <time>2012-10-20T14:03:07Z</time>
      </trkpt>
      <trkpt lat="44.0108" lon="6.66669">
        <ele>1282</ele>
        <time>2012-10-20T14:03:14Z</time>
      </trkpt>
      <trkpt lat="44.01051" lon="6.66685">
        <ele>1284.2</ele>
        <time>2012-10-20T14:03:31Z</time>
      </trkpt>
      <trkpt lat="44.0104" lon="6.66693">
        <ele>1286</ele>
        <time>2012-10-20T14:03:38Z</time>
      </trkpt>
      <trkpt lat="44.0103" lon="6.66706">
        <ele>1287.1</ele>
        <time>2012-10-20T14:03:46Z</time>
      </trkpt>
      <trkpt lat="44.01027" lon="6.66719">
        <ele>1287.8</ele>
        <time>2012-10-20T14:03:52Z</time>
      </trkpt>
      <trkpt lat="44.01026" lon="6.66737">
        <ele>1289.7</ele>
        <time>2012-10-20T14:04:00Z</time>
      </trkpt>
      <trkpt lat="44.01028" lon="6.66778">
        <ele>1294.4</ele>
        <time>2012-10-20T14:04:18Z</time>
      </trkpt>
      <trkpt lat="44.01032" lon="6.66794">
        <ele>1297.6</ele>
        <time>2012-10-20T14:04:28Z</time>
      </trkpt>
      <trkpt lat="44.01043" lon="6.66811">
        <ele>1300.1</ele>
        <time>2012-10-20T14:04:39Z</time>
      </trkpt>
      <trkpt lat="44.01045" lon="6.66831">
        <ele>1301.4</ele>
        <time>2012-10-20T14:04:48Z</time>
      </trkpt>
      <trkpt lat="44.01038" lon="6.66838">
        <ele>1302.3</ele>
        <time>2012-10-20T14:04:54Z</time>
      </trkpt>
      <trkpt lat="44.00995" lon="6.66833">
        <ele>1313.9</ele>
        <time>2012-10-20T14:05:24Z</time>
      </trkpt>
      <trkpt lat="44.00982" lon="6.66834">
        <ele>1314.7</ele>
        <time>2012-10-20T14:05:32Z</time>
      </trkpt>
      <trkpt lat="44.0097" lon="6.6684">
        <ele>1315.8</ele>
        <time>2012-10-20T14:05:41Z</time>
      </trkpt>
      <trkpt lat="44.00931" lon="6.66845">
        <ele>1316.1</ele>
        <time>2012-10-20T14:06:07Z</time>
      </trkpt>
      <trkpt lat="44.00909" lon="6.66851">
        <ele>1316.1</ele>
        <time>2012-10-20T14:06:21Z</time>
      </trkpt>
      <trkpt lat="44.00903" lon="6.66852">
        <ele>1316.2</ele>
        <time>2012-10-20T14:06:25Z</time>
      </trkpt>
      <trkpt lat="44.00895" lon="6.66862">
        <ele>1315.3</ele>
        <time>2012-10-20T14:06:32Z</time>
      </trkpt>
      <trkpt lat="44.00897" lon="6.66865">
        <ele>1315.2</ele>
        <time>2012-10-20T14:06:34Z</time>
      </trkpt>
      <trkpt lat="44.00905" lon="6.66864">
        <ele>1319.2</ele>
        <time>2012-10-20T14:06:41Z</time>
      </trkpt>
      <trkpt lat="44.00912" lon="6.66862">
        <ele>1321.2</ele>
        <time>2012-10-20T14:06:46Z</time>
      </trkpt>
      <trkpt lat="44.00915" lon="6.66871">
        <ele>1322.1</ele>
        <time>2012-10-20T14:06:52Z</time>
      </trkpt>
      <trkpt lat="44.00909" lon="6.66877">
        <ele>1322.2</ele>
        <time>2012-10-20T14:06:57Z</time>
      </trkpt>
      <trkpt lat="44.0089" lon="6.66881">
        <ele>1323.2</ele>
        <time>2012-10-20T14:07:07Z</time>
      </trkpt>
      <trkpt lat="44.00876" lon="6.6689">
        <ele>1323.9</ele>
        <time>2012-10-20T14:07:16Z</time>
      </trkpt>
      <trkpt lat="44.00865" lon="6.66899">
        <ele>1324</ele>
        <time>2012-10-20T14:07:24Z</time>
      </trkpt>
      <trkpt lat="44.00843" lon="6.66914">
        <ele>1326</ele>
        <time>2012-10-20T14:07:40Z</time>
      </trkpt>
      <trkpt lat="44.0082" lon="6.66923">
        <ele>1331</ele>
        <time>2012-10-20T14:07:55Z</time>
      </trkpt>
      <trkpt lat="44.00807" lon="6.66933">
        <ele>1332</ele>
        <time>2012-10-20T14:08:03Z</time>
      </trkpt>
      <trkpt lat="44.00795" lon="6.66945">
        <ele>1333.6</ele>
        <time>2012-10-20T14:08:11Z</time>
      </trkpt>
      <trkpt lat="44.00768" lon="6.66966">
        <ele>1336.8</ele>
        <time>2012-10-20T14:08:28Z</time>
      </trkpt>
      <trkpt lat="44.00715" lon="6.66993">
        <ele>1339.5</ele>
        <time>2012-10-20T14:08:54Z</time>
      </trkpt>
      <trkpt lat="44.00682" lon="6.67003">
        <ele>1340.7</ele>
        <time>2012-10-20T14:09:10Z</time>
      </trkpt>
      <trkpt lat="44.00639" lon="6.67046">
        <ele>1347.6</ele>
        <time>2012-10-20T14:09:36Z</time>
      </trkpt>
      <trkpt lat="44.00632" lon="6.67067">
        <ele>1348.4</ele>
        <time>2012-10-20T14:09:45Z</time>
      </trkpt>
      <trkpt lat="44.00631" lon="6.67097">
        <ele>1350.3</ele>
        <time>2012-10-20T14:09:57Z</time>
      </trkpt>
      <trkpt lat="44.00636" lon="6.67109">
        <ele>1353.8</ele>
        <time>2012-10-20T14:10:05Z</time>
      </trkpt>
      <trkpt lat="44.00644" lon="6.67107">
        <ele>1355.7</ele>
        <time>2012-10-20T14:10:11Z</time>
      </trkpt>
      <trkpt lat="44.0067" lon="6.67069">
        <ele>1364.1</ele>
        <time>2012-10-20T14:10:34Z</time>
      </trkpt>
      <trkpt lat="44.00693" lon="6.67051">
        <ele>1363.8</ele>
        <time>2012-10-20T14:10:49Z</time>
      </trkpt>
      <trkpt lat="44.00715" lon="6.67042">
        <ele>1365.4</ele>
        <time>2012-10-20T14:11:03Z</time>
      </trkpt>
      <trkpt lat="44.00725" lon="6.67035">
        <ele>1365.9</ele>
        <time>2012-10-20T14:11:10Z</time>
      </trkpt>
      <trkpt lat="44.00736" lon="6.67036">
        <ele>1367.2</ele>
        <time>2012-10-20T14:11:17Z</time>
      </trkpt>
      <trkpt lat="44.00735" lon="6.6705">
        <ele>1367.9</ele>
        <time>2012-10-20T14:11:23Z</time>
      </trkpt>
      <trkpt lat="44.00728" lon="6.67057">
        <ele>1369.7</ele>
        <time>2012-10-20T14:11:29Z</time>
      </trkpt>
      <trkpt lat="44.00719" lon="6.67069">
        <ele>1368.9</ele>
        <time>2012-10-20T14:11:37Z</time>
      </trkpt>
      <trkpt lat="44.00715" lon="6.6709">
        <ele>1367</ele>
        <time>2012-10-20T14:11:45Z</time>
      </trkpt>
      <trkpt lat="44.00714" lon="6.67105">
        <ele>1366.9</ele>
        <time>2012-10-20T14:11:51Z</time>
      </trkpt>
      <trkpt lat="44.0071" lon="6.67118">
        <ele>1370</ele>
        <time>2012-10-20T14:11:57Z</time>
      </trkpt>
      <trkpt lat="44.00704" lon="6.67151">
        <ele>1374.9</ele>
        <time>2012-10-20T14:12:12Z</time>
      </trkpt>
      <trkpt lat="44.00704" lon="6.67155">
        <ele>1374.4</ele>
        <time>2012-10-20T14:12:16Z</time>
      </trkpt>
      <trkpt lat="44.00702" lon="6.67157">
        <ele>1373.8</ele>
        <time>2012-10-20T14:12:27Z</time>
      </trkpt>
      <trkpt lat="44.007" lon="6.67177">
        <ele>1373.6</ele>
        <time>2012-10-20T14:12:40Z</time>
      </trkpt>
      <trkpt lat="44.00688" lon="6.67189">
        <ele>1374.4</ele>
        <time>2012-10-20T14:12:46Z</time>
      </trkpt>
      <trkpt lat="44.00674" lon="6.67199">
        <ele>1375.2</ele>
        <time>2012-10-20T14:12:52Z</time>
      </trkpt>
      <trkpt lat="44.00654" lon="6.67202">
        <ele>1374.2</ele>
        <time>2012-10-20T14:12:59Z</time>
      </trkpt>
      <trkpt lat="44.00644" lon="6.67201">
        <ele>1373.2</ele>
        <time>2012-10-20T14:13:01Z</time>
      </trkpt>
      <trkpt lat="44.00617" lon="6.67213">
        <ele>1372.5</ele>
        <time>2012-10-20T14:13:06Z</time>
      </trkpt>
      <trkpt lat="44.00612" lon="6.67219">
        <ele>1372.6</ele>
        <time>2012-10-20T14:13:08Z</time>
      </trkpt>
      <trkpt lat="44.00599" lon="6.67236">
        <ele>1371.1</ele>
        <time>2012-10-20T14:13:13Z</time>
      </trkpt>
      <trkpt lat="44.00587" lon="6.67264">
        <ele>1370.5</ele>
        <time>2012-10-20T14:13:19Z</time>
      </trkpt>
      <trkpt lat="44.00587" lon="6.67266">
        <ele>1370.2</ele>
        <time>2012-10-20T14:13:24Z</time>
      </trkpt>
      <trkpt lat="44.00582" lon="6.67258">
        <ele>1369.4</ele>
        <time>2012-10-20T14:13:51Z</time>
      </trkpt>
      <trkpt lat="44.00536" lon="6.67352">
        <ele>1363.4</ele>
        <time>2012-10-20T14:14:12Z</time>
      </trkpt>
      <trkpt lat="44.00519" lon="6.6738">
        <ele>1361.4</ele>
        <time>2012-10-20T14:14:17Z</time>
      </trkpt>
      <trkpt lat="44.00501" lon="6.67429">
        <ele>1358.4</ele>
        <time>2012-10-20T14:14:24Z</time>
      </trkpt>
      <trkpt lat="44.00499" lon="6.67444">
        <ele>1358.5</ele>
        <time>2012-10-20T14:14:29Z</time>
      </trkpt>
      <trkpt lat="44.00493" lon="6.67461">
        <ele>1357.2</ele>
        <time>2012-10-20T14:14:34Z</time>
      </trkpt>
      <trkpt lat="44.00488" lon="6.67484">
        <ele>1358.3</ele>
        <time>2012-10-20T14:14:39Z</time>
      </trkpt>
      <trkpt lat="44.00477" lon="6.675">
        <ele>1360.5</ele>
        <time>2012-10-20T14:14:45Z</time>
      </trkpt>
      <trkpt lat="44.00468" lon="6.67505">
        <ele>1361.1</ele>
        <time>2012-10-20T14:14:49Z</time>
      </trkpt>
      <trkpt lat="44.00438" lon="6.67515">
        <ele>1365.1</ele>
        <time>2012-10-20T14:15:07Z</time>
      </trkpt>
      <trkpt lat="44.00407" lon="6.67517">
        <ele>1368.3</ele>
        <time>2012-10-20T14:15:18Z</time>
      </trkpt>
      <trkpt lat="44.0039" lon="6.67521">
        <ele>1372.7</ele>
        <time>2012-10-20T14:15:24Z</time>
      </trkpt>
      <trkpt lat="44.00357" lon="6.67509">
        <ele>1366.3</ele>
        <time>2012-10-20T14:15:32Z</time>
      </trkpt>
      <trkpt lat="44.00344" lon="6.67502">
        <ele>1363.8</ele>
        <time>2012-10-20T14:15:36Z</time>
      </trkpt>
      <trkpt lat="44.00311" lon="6.67505">
        <ele>1359</ele>
        <time>2012-10-20T14:15:47Z</time>
      </trkpt>
      <trkpt lat="44.00306" lon="6.67502">
        <ele>1358.3</ele>
        <time>2012-10-20T14:15:50Z</time>
      </trkpt>
      <trkpt lat="44.00298" lon="6.67493">
        <ele>1357.9</ele>
        <time>2012-10-20T14:15:55Z</time>
      </trkpt>
      <trkpt lat="44.0029" lon="6.67489">
        <ele>1355.7</ele>
        <time>2012-10-20T14:16:00Z</time>
      </trkpt>
      <trkpt lat="44.00287" lon="6.67483">
        <ele>1359.4</ele>
        <time>2012-10-20T14:16:10Z</time>
      </trkpt>
      <trkpt lat="44.00282" lon="6.67481">
        <ele>1361.1</ele>
        <time>2012-10-20T14:16:16Z</time>
      </trkpt>
      <trkpt lat="44.00283" lon="6.6748">
        <ele>1360.9</ele>
        <time>2012-10-20T14:16:33Z</time>
      </trkpt>
      <trkpt lat="44.00285" lon="6.6748">
        <ele>1361.4</ele>
        <time>2012-10-20T14:16:35Z</time>
      </trkpt>
      <trkpt lat="44.0029" lon="6.67486">
        <ele>1362.5</ele>
        <time>2012-10-20T14:16:44Z</time>
      </trkpt>
      <trkpt lat="44.00298" lon="6.67499">
        <ele>1362.1</ele>
        <time>2012-10-20T14:16:56Z</time>
      </trkpt>
      <trkpt lat="44.00299" lon="6.67505">
        <ele>1361.4</ele>
        <time>2012-10-20T14:17:00Z</time>
      </trkpt>
      <trkpt lat="44.00294" lon="6.67506">
        <ele>1360.2</ele>
        <time>2012-10-20T14:17:08Z</time>
      </trkpt>
      <trkpt lat="44.00281" lon="6.67504">
        <ele>1362.4</ele>
        <time>2012-10-20T14:17:19Z</time>
      </trkpt>
      <trkpt lat="44.00271" lon="6.67499">
        <ele>1359.9</ele>
        <time>2012-10-20T14:17:27Z</time>
      </trkpt>
      <trkpt lat="44.00265" lon="6.67499">
        <ele>1358.6</ele>
        <time>2012-10-20T14:17:29Z</time>
      </trkpt>
      <trkpt lat="44.00255" lon="6.67497">
        <ele>1357.8</ele>
        <time>2012-10-20T14:17:37Z</time>
      </trkpt>
      <trkpt lat="44.00253" lon="6.67495">
        <ele>1358.7</ele>
        <time>2012-10-20T14:17:38Z</time>
      </trkpt>
      <trkpt lat="44.00242" lon="6.67497">
        <ele>1360.1</ele>
        <time>2012-10-20T14:17:46Z</time>
      </trkpt>
      <trkpt lat="44.0024" lon="6.67497">
        <ele>1360.5</ele>
        <time>2012-10-20T14:17:48Z</time>
      </trkpt>
      <trkpt lat="44.00232" lon="6.67494">
        <ele>1362.4</ele>
        <time>2012-10-20T14:17:55Z</time>
      </trkpt>
      <trkpt lat="44.00225" lon="6.67494">
        <ele>1374.3</ele>
        <time>2012-10-20T14:18:20Z</time>
      </trkpt>
      <trkpt lat="44.00224" lon="6.67495">
        <ele>1374.8</ele>
        <time>2012-10-20T14:18:27Z</time>
      </trkpt>
      <trkpt lat="44.00222" lon="6.67501">
        <ele>1373.3</ele>
        <time>2012-10-20T14:18:34Z</time>
      </trkpt>
      <trkpt lat="44.00218" lon="6.67504">
        <ele>1371.6</ele>
        <time>2012-10-20T14:18:41Z</time>
      </trkpt>
      <trkpt lat="44.00215" lon="6.67506">
        <ele>1371.1</ele>
        <time>2012-10-20T14:18:48Z</time>
      </trkpt>
      <trkpt lat="44.00211" lon="6.67507">
        <ele>1371</ele>
        <time>2012-10-20T14:20:14Z</time>
      </trkpt>
      <trkpt lat="44.0021" lon="6.67504">
        <ele>1370.9</ele>
        <time>2012-10-20T14:20:18Z</time>
      </trkpt>
      <trkpt lat="44.00209" lon="6.67502">
        <ele>1371.4</ele>
        <time>2012-10-20T14:20:26Z</time>
      </trkpt>
      <trkpt lat="44.0021" lon="6.67502">
        <ele>1373.9</ele>
        <time>2012-10-20T14:20:36Z</time>
      </trkpt>
      <trkpt lat="44.00209" lon="6.67499">
        <ele>1376.1</ele>
        <time>2012-10-20T14:22:13Z</time>
      </trkpt>
      <trkpt lat="44.00203" lon="6.67497">
        <ele>1375.4</ele>
        <time>2012-10-20T14:22:19Z</time>
      </trkpt>
      <trkpt lat="44.00192" lon="6.67495">
        <ele>1373.5</ele>
        <time>2012-10-20T14:22:23Z</time>
      </trkpt>
      <trkpt lat="44.00185" lon="6.67495">
        <ele>1372.6</ele>
        <time>2012-10-20T14:22:25Z</time>
      </trkpt>
      <trkpt lat="44.0017" lon="6.67491">
        <ele>1370.9</ele>
        <time>2012-10-20T14:22:28Z</time>
      </trkpt>
      <trkpt lat="44.00152" lon="6.67471">
        <ele>1364</ele>
        <time>2012-10-20T14:22:32Z</time>
      </trkpt>
      <trkpt lat="44.00135" lon="6.67465">
        <ele>1360.6</ele>
        <time>2012-10-20T14:22:35Z</time>
      </trkpt>
      <trkpt lat="44.00098" lon="6.67442">
        <ele>1351.1</ele>
        <time>2012-10-20T14:22:42Z</time>
      </trkpt>
      <trkpt lat="44.00086" lon="6.67428">
        <ele>1348.1</ele>
        <time>2012-10-20T14:22:45Z</time>
      </trkpt>
      <trkpt lat="44.00052" lon="6.67419">
        <ele>1341</ele>
        <time>2012-10-20T14:22:51Z</time>
      </trkpt>
      <trkpt lat="44.00023" lon="6.67419">
        <ele>1334.3</ele>
        <time>2012-10-20T14:22:57Z</time>
      </trkpt>
      <trkpt lat="44.00006" lon="6.67425">
        <ele>1331</ele>
        <time>2012-10-20T14:23:00Z</time>
      </trkpt>
      <trkpt lat="43.9998" lon="6.67455">
        <ele>1328.4</ele>
        <time>2012-10-20T14:23:07Z</time>
      </trkpt>
      <trkpt lat="43.99962" lon="6.67467">
        <ele>1327.9</ele>
        <time>2012-10-20T14:23:11Z</time>
      </trkpt>
      <trkpt lat="43.99953" lon="6.67468">
        <ele>1326.3</ele>
        <time>2012-10-20T14:23:13Z</time>
      </trkpt>
      <trkpt lat="43.99947" lon="6.67472">
        <ele>1324.6</ele>
        <time>2012-10-20T14:23:17Z</time>
      </trkpt>
      <trkpt lat="43.9994" lon="6.67478">
        <ele>1323.3</ele>
        <time>2012-10-20T14:23:22Z</time>
      </trkpt>
      <trkpt lat="43.99937" lon="6.67482">
        <ele>1322.9</ele>
        <time>2012-10-20T14:23:24Z</time>
      </trkpt>
      <trkpt lat="43.99936" lon="6.67482">
        <ele>1319.5</ele>
        <time>2012-10-20T14:23:30Z</time>
      </trkpt>
      <trkpt lat="43.99931" lon="6.67485">
        <ele>1318.5</ele>
        <time>2012-10-20T14:23:46Z</time>
      </trkpt>
      <trkpt lat="43.99926" lon="6.67487">
        <ele>1319.9</ele>
        <time>2012-10-20T14:23:48Z</time>
      </trkpt>
      <trkpt lat="43.9991" lon="6.67487">
        <ele>1321.2</ele>
        <time>2012-10-20T14:23:53Z</time>
      </trkpt>
      <trkpt lat="43.99894" lon="6.67481">
        <ele>1320.7</ele>
        <time>2012-10-20T14:23:57Z</time>
      </trkpt>
      <trkpt lat="43.99877" lon="6.67471">
        <ele>1318.9</ele>
        <time>2012-10-20T14:24:01Z</time>
      </trkpt>
      <trkpt lat="43.9986" lon="6.67464">
        <ele>1318</ele>
        <time>2012-10-20T14:24:08Z</time>
      </trkpt>
      <trkpt lat="43.99826" lon="6.6744">
        <ele>1313</ele>
        <time>2012-10-20T14:24:20Z</time>
      </trkpt>
      <trkpt lat="43.99808" lon="6.67433">
        <ele>1311.1</ele>
        <time>2012-10-20T14:24:25Z</time>
      </trkpt>
      <trkpt lat="43.99801" lon="6.6743">
        <ele>1310.7</ele>
        <time>2012-10-20T14:24:27Z</time>
      </trkpt>
      <trkpt lat="43.99783" lon="6.67434">
        <ele>1308</ele>
        <time>2012-10-20T14:24:33Z</time>
      </trkpt>
      <trkpt lat="43.99765" lon="6.67435">
        <ele>1309.1</ele>
        <time>2012-10-20T14:24:40Z</time>
      </trkpt>
      <trkpt lat="43.99738" lon="6.6743">
        <ele>1308.5</ele>
        <time>2012-10-20T14:24:48Z</time>
      </trkpt>
      <trkpt lat="43.99723" lon="6.67434">
        <ele>1308.6</ele>
        <time>2012-10-20T14:24:52Z</time>
      </trkpt>
      <trkpt lat="43.9971" lon="6.67434">
        <ele>1307.5</ele>
        <time>2012-10-20T14:24:55Z</time>
      </trkpt>
      <trkpt lat="43.99699" lon="6.67436">
        <ele>1306.6</ele>
        <time>2012-10-20T14:24:57Z</time>
      </trkpt>
      <trkpt lat="43.99639" lon="6.67458">
        <ele>1298.5</ele>
        <time>2012-10-20T14:25:09Z</time>
      </trkpt>
      <trkpt lat="43.99597" lon="6.67469">
        <ele>1295.7</ele>
        <time>2012-10-20T14:25:17Z</time>
      </trkpt>
      <trkpt lat="43.99573" lon="6.67495">
        <ele>1292.7</ele>
        <time>2012-10-20T14:25:24Z</time>
      </trkpt>
      <trkpt lat="43.99571" lon="6.67508">
        <ele>1288.5</ele>
        <time>2012-10-20T14:25:27Z</time>
      </trkpt>
      <trkpt lat="43.99573" lon="6.67554">
        <ele>1281.5</ele>
        <time>2012-10-20T14:25:39Z</time>
      </trkpt>
      <trkpt lat="43.99568" lon="6.67568">
        <ele>1277.8</ele>
        <time>2012-10-20T14:25:43Z</time>
      </trkpt>
      <trkpt lat="43.9956" lon="6.67584">
        <ele>1277.8</ele>
        <time>2012-10-20T14:25:48Z</time>
      </trkpt>
      <trkpt lat="43.99559" lon="6.67588">
        <ele>1276.3</ele>
        <time>2012-10-20T14:25:57Z</time>
      </trkpt>
      <trkpt lat="43.9956" lon="6.67588">
        <ele>1276</ele>
        <time>2012-10-20T14:25:58Z</time>
      </trkpt>
      <trkpt lat="43.99562" lon="6.67588">
        <ele>1275.3</ele>
        <time>2012-10-20T14:26:05Z</time>
      </trkpt>
      <trkpt lat="43.99563" lon="6.6759">
        <ele>1274.6</ele>
        <time>2012-10-20T14:26:10Z</time>
      </trkpt>
      <trkpt lat="43.99558" lon="6.676">
        <ele>1271.6</ele>
        <time>2012-10-20T14:26:16Z</time>
      </trkpt>
      <trkpt lat="43.99531" lon="6.67612">
        <ele>1271.4</ele>
        <time>2012-10-20T14:26:25Z</time>
      </trkpt>
      <trkpt lat="43.99504" lon="6.67607">
        <ele>1276.4</ele>
        <time>2012-10-20T14:26:36Z</time>
      </trkpt>
      <trkpt lat="43.99491" lon="6.67603">
        <ele>1279.3</ele>
        <time>2012-10-20T14:26:40Z</time>
      </trkpt>
      <trkpt lat="43.99478" lon="6.67603">
        <ele>1281.9</ele>
        <time>2012-10-20T14:26:45Z</time>
      </trkpt>
      <trkpt lat="43.99452" lon="6.67596">
        <ele>1286.3</ele>
        <time>2012-10-20T14:26:55Z</time>
      </trkpt>
      <trkpt lat="43.99442" lon="6.6759">
        <ele>1287.9</ele>
        <time>2012-10-20T14:26:59Z</time>
      </trkpt>
      <trkpt lat="43.99412" lon="6.67584">
        <ele>1285.8</ele>
        <time>2012-10-20T14:27:08Z</time>
      </trkpt>
      <trkpt lat="43.99404" lon="6.67585">
        <ele>1285.6</ele>
        <time>2012-10-20T14:27:11Z</time>
      </trkpt>
      <trkpt lat="43.99368" lon="6.67577">
        <ele>1289.9</ele>
        <time>2012-10-20T14:27:29Z</time>
      </trkpt>
      <trkpt lat="43.99341" lon="6.67584">
        <ele>1286.1</ele>
        <time>2012-10-20T14:27:41Z</time>
      </trkpt>
      <trkpt lat="43.99325" lon="6.67579">
        <ele>1284.2</ele>
        <time>2012-10-20T14:27:46Z</time>
      </trkpt>
      <trkpt lat="43.99321" lon="6.67577">
        <ele>1278.1</ele>
        <time>2012-10-20T14:27:49Z</time>
      </trkpt>
      <trkpt lat="43.99309" lon="6.67566">
        <ele>1278.4</ele>
        <time>2012-10-20T14:27:55Z</time>
      </trkpt>
      <trkpt lat="43.99307" lon="6.67567">
        <ele>1278.6</ele>
        <time>2012-10-20T14:27:56Z</time>
      </trkpt>
      <trkpt lat="43.99298" lon="6.67569">
        <ele>1281.8</ele>
        <time>2012-10-20T14:28:00Z</time>
      </trkpt>
      <trkpt lat="43.99292" lon="6.67569">
        <ele>1284.8</ele>
        <time>2012-10-20T14:28:04Z</time>
      </trkpt>
      <trkpt lat="43.99281" lon="6.67572">
        <ele>1287.5</ele>
        <time>2012-10-20T14:28:11Z</time>
      </trkpt>
      <trkpt lat="43.99278" lon="6.67572">
        <ele>1287.7</ele>
        <time>2012-10-20T14:28:12Z</time>
      </trkpt>
      <trkpt lat="43.99258" lon="6.67578">
        <ele>1285.6</ele>
        <time>2012-10-20T14:28:19Z</time>
      </trkpt>
      <trkpt lat="43.99216" lon="6.67598">
        <ele>1291.3</ele>
        <time>2012-10-20T14:28:37Z</time>
      </trkpt>
      <trkpt lat="43.99201" lon="6.67604">
        <ele>1295.4</ele>
        <time>2012-10-20T14:28:43Z</time>
      </trkpt>
      <trkpt lat="43.99195" lon="6.67605">
        <ele>1297.1</ele>
        <time>2012-10-20T14:28:45Z</time>
      </trkpt>
      <trkpt lat="43.99172" lon="6.67623">
        <ele>1298.6</ele>
        <time>2012-10-20T14:28:52Z</time>
      </trkpt>
      <trkpt lat="43.9915" lon="6.67646">
        <ele>1301</ele>
        <time>2012-10-20T14:28:57Z</time>
      </trkpt>
      <trkpt lat="43.9913" lon="6.67656">
        <ele>1297.6</ele>
        <time>2012-10-20T14:29:00Z</time>
      </trkpt>
      <trkpt lat="43.99112" lon="6.67662">
        <ele>1289.7</ele>
        <time>2012-10-20T14:29:03Z</time>
      </trkpt>
      <trkpt lat="43.99081" lon="6.67678">
        <ele>1266.1</ele>
        <time>2012-10-20T14:29:12Z</time>
      </trkpt>
      <trkpt lat="43.9907" lon="6.67687">
        <ele>1262.8</ele>
        <time>2012-10-20T14:29:14Z</time>
      </trkpt>
      <trkpt lat="43.99045" lon="6.67712">
        <ele>1253.8</ele>
        <time>2012-10-20T14:29:19Z</time>
      </trkpt>
      <trkpt lat="43.99041" lon="6.67718">
        <ele>1251.9</ele>
        <time>2012-10-20T14:29:20Z</time>
      </trkpt>
      <trkpt lat="43.99025" lon="6.67762">
        <ele>1245.5</ele>
        <time>2012-10-20T14:29:29Z</time>
      </trkpt>
      <trkpt lat="43.99014" lon="6.6778">
        <ele>1241.6</ele>
        <time>2012-10-20T14:29:34Z</time>
      </trkpt>
      <trkpt lat="43.9901" lon="6.67785">
        <ele>1241.4</ele>
        <time>2012-10-20T14:29:36Z</time>
      </trkpt>
      <trkpt lat="43.98996" lon="6.6779">
        <ele>1237.1</ele>
        <time>2012-10-20T14:29:41Z</time>
      </trkpt>
      <trkpt lat="43.98977" lon="6.67792">
        <ele>1237.9</ele>
        <time>2012-10-20T14:29:47Z</time>
      </trkpt>
      <trkpt lat="43.98882" lon="6.6776">
        <ele>1230</ele>
        <time>2012-10-20T14:30:08Z</time>
      </trkpt>
      <trkpt lat="43.98868" lon="6.67757">
        <ele>1229.6</ele>
        <time>2012-10-20T14:30:13Z</time>
      </trkpt>
      <trkpt lat="43.98808" lon="6.67723">
        <ele>1232.5</ele>
        <time>2012-10-20T14:30:25Z</time>
      </trkpt>
      <trkpt lat="43.98787" lon="6.67715">
        <ele>1233.8</ele>
        <time>2012-10-20T14:30:30Z</time>
      </trkpt>
      <trkpt lat="43.9877" lon="6.67702">
        <ele>1228.9</ele>
        <time>2012-10-20T14:30:35Z</time>
      </trkpt>
      <trkpt lat="43.98765" lon="6.67696">
        <ele>1228.2</ele>
        <time>2012-10-20T14:30:38Z</time>
      </trkpt>
      <trkpt lat="43.98768" lon="6.67696">
        <ele>1231.7</ele>
        <time>2012-10-20T14:30:46Z</time>
      </trkpt>
      <trkpt lat="43.9877" lon="6.67698">
        <ele>1226.2</ele>
        <time>2012-10-20T14:30:53Z</time>
      </trkpt>
      <trkpt lat="43.98767" lon="6.67696">
        <ele>1223.9</ele>
        <time>2012-10-20T14:30:57Z</time>
      </trkpt>
      <trkpt lat="43.98766" lon="6.67692">
        <ele>1220.9</ele>
        <time>2012-10-20T14:31:03Z</time>
      </trkpt>
      <trkpt lat="43.98759" lon="6.67683">
        <ele>1217.1</ele>
        <time>2012-10-20T14:31:08Z</time>
      </trkpt>
      <trkpt lat="43.98754" lon="6.67681">
        <ele>1217</ele>
        <time>2012-10-20T14:31:13Z</time>
      </trkpt>
      <trkpt lat="43.98742" lon="6.67673">
        <ele>1218</ele>
        <time>2012-10-20T14:31:19Z</time>
      </trkpt>
      <trkpt lat="43.98714" lon="6.67677">
        <ele>1219.8</ele>
        <time>2012-10-20T14:31:31Z</time>
      </trkpt>
      <trkpt lat="43.987" lon="6.67671">
        <ele>1223</ele>
        <time>2012-10-20T14:31:37Z</time>
      </trkpt>
      <trkpt lat="43.98682" lon="6.6767">
        <ele>1225.5</ele>
        <time>2012-10-20T14:31:45Z</time>
      </trkpt>
      <trkpt lat="43.98672" lon="6.67674">
        <ele>1224.8</ele>
        <time>2012-10-20T14:31:51Z</time>
      </trkpt>
      <trkpt lat="43.9867" lon="6.67673">
        <ele>1223.4</ele>
        <time>2012-10-20T14:31:55Z</time>
      </trkpt>
      <trkpt lat="43.98627" lon="6.67679">
        <ele>1218</ele>
        <time>2012-10-20T14:32:06Z</time>
      </trkpt>
      <trkpt lat="43.98579" lon="6.67676">
        <ele>1208.3</ele>
        <time>2012-10-20T14:32:16Z</time>
      </trkpt>
      <trkpt lat="43.98564" lon="6.67686">
        <ele>1200</ele>
        <time>2012-10-20T14:32:24Z</time>
      </trkpt>
      <trkpt lat="43.98566" lon="6.67686">
        <ele>1196</ele>
        <time>2012-10-20T14:32:28Z</time>
      </trkpt>
      <trkpt lat="43.98567" lon="6.67685">
        <ele>1191.2</ele>
        <time>2012-10-20T14:32:34Z</time>
      </trkpt>
      <trkpt lat="43.98567" lon="6.67682">
        <ele>1192.7</ele>
        <time>2012-10-20T14:32:41Z</time>
      </trkpt>
      <trkpt lat="43.98565" lon="6.6768">
        <ele>1197.1</ele>
        <time>2012-10-20T14:33:09Z</time>
      </trkpt>
      <trkpt lat="43.98554" lon="6.67682">
        <ele>1195.4</ele>
        <time>2012-10-20T14:33:14Z</time>
      </trkpt>
      <trkpt lat="43.98539" lon="6.67682">
        <ele>1192.6</ele>
        <time>2012-10-20T14:33:18Z</time>
      </trkpt>
      <trkpt lat="43.98531" lon="6.67688">
        <ele>1186.5</ele>
        <time>2012-10-20T14:33:22Z</time>
      </trkpt>
      <trkpt lat="43.98521" lon="6.67682">
        <ele>1185</ele>
        <time>2012-10-20T14:33:26Z</time>
      </trkpt>
      <trkpt lat="43.98512" lon="6.6768">
        <ele>1183.8</ele>
        <time>2012-10-20T14:33:29Z</time>
      </trkpt>
      <trkpt lat="43.98512" lon="6.67684">
        <ele>1181.9</ele>
        <time>2012-10-20T14:33:32Z</time>
      </trkpt>
      <trkpt lat="43.98508" lon="6.67696">
        <ele>1178.3</ele>
        <time>2012-10-20T14:33:37Z</time>
      </trkpt>
      <trkpt lat="43.98502" lon="6.67692">
        <ele>1178.7</ele>
        <time>2012-10-20T14:33:40Z</time>
      </trkpt>
      <trkpt lat="43.98507" lon="6.6769">
        <ele>1169.6</ele>
        <time>2012-10-20T14:33:51Z</time>
      </trkpt>
      <trkpt lat="43.98506" lon="6.67688">
        <ele>1169.8</ele>
        <time>2012-10-20T14:34:03Z</time>
      </trkpt>
      <trkpt lat="43.98499" lon="6.67686">
        <ele>1171.6</ele>
        <time>2012-10-20T14:34:10Z</time>
      </trkpt>
      <trkpt lat="43.9849" lon="6.67689">
        <ele>1173.2</ele>
        <time>2012-10-20T14:34:32Z</time>
      </trkpt>
      <trkpt lat="43.98487" lon="6.67688">
        <ele>1172.2</ele>
        <time>2012-10-20T14:34:34Z</time>
      </trkpt>
      <trkpt lat="43.98471" lon="6.67691">
        <ele>1171.3</ele>
        <time>2012-10-20T14:34:40Z</time>
      </trkpt>
      <trkpt lat="43.98451" lon="6.67691">
        <ele>1172.7</ele>
        <time>2012-10-20T14:34:48Z</time>
      </trkpt>
      <trkpt lat="43.98441" lon="6.67688">
        <ele>1171.3</ele>
        <time>2012-10-20T14:34:54Z</time>
      </trkpt>
      <trkpt lat="43.98432" lon="6.6769">
        <ele>1170.1</ele>
        <time>2012-10-20T14:34:58Z</time>
      </trkpt>
      <trkpt lat="43.98421" lon="6.67691">
        <ele>1174.5</ele>
        <time>2012-10-20T14:35:04Z</time>
      </trkpt>
      <trkpt lat="43.98412" lon="6.67695">
        <ele>1182.2</ele>
        <time>2012-10-20T14:35:11Z</time>
      </trkpt>
      <trkpt lat="43.98407" lon="6.67698">
        <ele>1187.4</ele>
        <time>2012-10-20T14:35:17Z</time>
      </trkpt>
      <trkpt lat="43.984" lon="6.67698">
        <ele>1190.4</ele>
        <time>2012-10-20T14:35:23Z</time>
      </trkpt>
      <trkpt lat="43.98389" lon="6.67704">
        <ele>1196.3</ele>
        <time>2012-10-20T14:35:34Z</time>
      </trkpt>
      <trkpt lat="43.9838" lon="6.67704">
        <ele>1192.3</ele>
        <time>2012-10-20T14:35:39Z</time>
      </trkpt>
      <trkpt lat="43.9837" lon="6.67702">
        <ele>1185.2</ele>
        <time>2012-10-20T14:35:43Z</time>
      </trkpt>
      <trkpt lat="43.98373" lon="6.677">
        <ele>1174.3</ele>
        <time>2012-10-20T14:35:47Z</time>
      </trkpt>
      <trkpt lat="43.98375" lon="6.67694">
        <ele>1162.8</ele>
        <time>2012-10-20T14:35:51Z</time>
      </trkpt>
      <trkpt lat="43.98372" lon="6.67694">
        <ele>1155</ele>
        <time>2012-10-20T14:35:57Z</time>
      </trkpt>
      <trkpt lat="43.98376" lon="6.67688">
        <ele>1141.7</ele>
        <time>2012-10-20T14:39:59Z</time>
      </trkpt>
      <trkpt lat="43.98376" lon="6.67696">
        <ele>1146.8</ele>
        <time>2012-10-20T14:40:06Z</time>
      </trkpt>
      <trkpt lat="43.98382" lon="6.67701">
        <ele>1143.1</ele>
        <time>2012-10-20T14:40:11Z</time>
      </trkpt>
      <trkpt lat="43.98385" lon="6.67699">
        <ele>1139.7</ele>
        <time>2012-10-20T14:40:14Z</time>
      </trkpt>
      <trkpt lat="43.98395" lon="6.67702">
        <ele>1135.7</ele>
        <time>2012-10-20T14:40:19Z</time>
      </trkpt>
      <trkpt lat="43.98404" lon="6.67714">
        <ele>1133.5</ele>
        <time>2012-10-20T14:40:34Z</time>
      </trkpt>
      <trkpt lat="43.98401" lon="6.67716">
        <ele>1133.2</ele>
        <time>2012-10-20T14:40:38Z</time>
      </trkpt>
      <trkpt lat="43.984" lon="6.67719">
        <ele>1134.7</ele>
        <time>2012-10-20T14:40:48Z</time>
      </trkpt>
      <trkpt lat="43.98399" lon="6.6772">
        <ele>1137.5</ele>
        <time>2012-10-20T14:40:51Z</time>
      </trkpt>
      <trkpt lat="43.98394" lon="6.67721">
        <ele>1138.5</ele>
        <time>2012-10-20T14:40:54Z</time>
      </trkpt>
      <trkpt lat="43.9839" lon="6.67724">
        <ele>1138.6</ele>
        <time>2012-10-20T14:40:56Z</time>
      </trkpt>
      <trkpt lat="43.98379" lon="6.67727">
        <ele>1137.6</ele>
        <time>2012-10-20T14:41:01Z</time>
      </trkpt>
      <trkpt lat="43.98376" lon="6.67729">
        <ele>1137.1</ele>
        <time>2012-10-20T14:41:02Z</time>
      </trkpt>
      <trkpt lat="43.98359" lon="6.67731">
        <ele>1134.7</ele>
        <time>2012-10-20T14:41:08Z</time>
      </trkpt>
      <trkpt lat="43.98344" lon="6.67731">
        <ele>1132.4</ele>
        <time>2012-10-20T14:41:13Z</time>
      </trkpt>
      <trkpt lat="43.98333" lon="6.67732">
        <ele>1124.6</ele>
        <time>2012-10-20T14:41:18Z</time>
      </trkpt>
      <trkpt lat="43.98314" lon="6.67737">
        <ele>1116.5</ele>
        <time>2012-10-20T14:41:25Z</time>
      </trkpt>
      <trkpt lat="43.98288" lon="6.67741">
        <ele>1111.4</ele>
        <time>2012-10-20T14:41:35Z</time>
      </trkpt>
      <trkpt lat="43.98268" lon="6.67737">
        <ele>1109.7</ele>
        <time>2012-10-20T14:41:44Z</time>
      </trkpt>
      <trkpt lat="43.98267" lon="6.67736">
        <ele>1107.4</ele>
        <time>2012-10-20T14:41:52Z</time>
      </trkpt>
      <trkpt lat="43.98263" lon="6.67736">
        <ele>1106.4</ele>
        <time>2012-10-20T14:41:56Z</time>
      </trkpt>
      <trkpt lat="43.98257" lon="6.67736">
        <ele>1104.3</ele>
        <time>2012-10-20T14:42:04Z</time>
      </trkpt>
      <trkpt lat="43.98256" lon="6.67735">
        <ele>1106.2</ele>
        <time>2012-10-20T14:42:11Z</time>
      </trkpt>
      <trkpt lat="43.98243" lon="6.67741">
        <ele>1100</ele>
        <time>2012-10-20T14:42:23Z</time>
      </trkpt>
      <trkpt lat="43.98197" lon="6.6778">
        <ele>1082.4</ele>
        <time>2012-10-20T14:42:44Z</time>
      </trkpt>
      <trkpt lat="43.98193" lon="6.67785">
        <ele>1081.4</ele>
        <time>2012-10-20T14:42:46Z</time>
      </trkpt>
      <trkpt lat="43.98184" lon="6.67795">
        <ele>1078</ele>
        <time>2012-10-20T14:42:50Z</time>
      </trkpt>
      <trkpt lat="43.98175" lon="6.67806">
        <ele>1076.6</ele>
        <time>2012-10-20T14:42:55Z</time>
      </trkpt>
      <trkpt lat="43.98171" lon="6.67809">
        <ele>1076.1</ele>
        <time>2012-10-20T14:42:58Z</time>
      </trkpt>
      <trkpt lat="43.98162" lon="6.67818">
        <ele>1073.8</ele>
        <time>2012-10-20T14:43:04Z</time>
      </trkpt>
      <trkpt lat="43.98151" lon="6.67824">
        <ele>1071</ele>
        <time>2012-10-20T14:43:09Z</time>
      </trkpt>
      <trkpt lat="43.98135" lon="6.6783">
        <ele>1070.7</ele>
        <time>2012-10-20T14:43:14Z</time>
      </trkpt>
      <trkpt lat="43.98125" lon="6.67839">
        <ele>1069</ele>
        <time>2012-10-20T14:43:18Z</time>
      </trkpt>
      <trkpt lat="43.98106" lon="6.67859">
        <ele>1063.9</ele>
        <time>2012-10-20T14:43:28Z</time>
      </trkpt>
      <trkpt lat="43.98093" lon="6.67861">
        <ele>1061.5</ele>
        <time>2012-10-20T14:43:32Z</time>
      </trkpt>
      <trkpt lat="43.98081" lon="6.67859">
        <ele>1058.1</ele>
        <time>2012-10-20T14:43:36Z</time>
      </trkpt>
      <trkpt lat="43.98069" lon="6.67854">
        <ele>1054.6</ele>
        <time>2012-10-20T14:43:41Z</time>
      </trkpt>
      <trkpt lat="43.98066" lon="6.67859">
        <ele>1050.3</ele>
        <time>2012-10-20T14:43:47Z</time>
      </trkpt>
      <trkpt lat="43.98069" lon="6.67868">
        <ele>1047.5</ele>
        <time>2012-10-20T14:43:51Z</time>
      </trkpt>
      <trkpt lat="43.98068" lon="6.67871">
        <ele>1046.4</ele>
        <time>2012-10-20T14:43:54Z</time>
      </trkpt>
      <trkpt lat="43.98063" lon="6.67871">
        <ele>1045.2</ele>
        <time>2012-10-20T14:43:57Z</time>
      </trkpt>
      <trkpt lat="43.98058" lon="6.67869">
        <ele>1044.4</ele>
        <time>2012-10-20T14:44:00Z</time>
      </trkpt>
      <trkpt lat="43.98051" lon="6.67865">
        <ele>1042.8</ele>
        <time>2012-10-20T14:44:06Z</time>
      </trkpt>
      <trkpt lat="43.9805" lon="6.67868">
        <ele>1041.6</ele>
        <time>2012-10-20T14:44:10Z</time>
      </trkpt>
      <trkpt lat="43.9805" lon="6.67869">
        <ele>1039.7</ele>
        <time>2012-10-20T14:44:16Z</time>
      </trkpt>
      <trkpt lat="43.98046" lon="6.67868">
        <ele>1049.3</ele>
        <time>2012-10-20T14:44:54Z</time>
      </trkpt>
      <trkpt lat="43.98047" lon="6.67868">
        <ele>1048.7</ele>
        <time>2012-10-20T14:45:02Z</time>
      </trkpt>
      <trkpt lat="43.98048" lon="6.67871">
        <ele>1043.9</ele>
        <time>2012-10-20T14:45:09Z</time>
      </trkpt>
      <trkpt lat="43.98047" lon="6.6787">
        <ele>1043.5</ele>
        <time>2012-10-20T14:45:11Z</time>
      </trkpt>
      <trkpt lat="43.98039" lon="6.67862">
        <ele>1043</ele>
        <time>2012-10-20T14:45:17Z</time>
      </trkpt>
      <trkpt lat="43.98027" lon="6.67854">
        <ele>1043.3</ele>
        <time>2012-10-20T14:45:22Z</time>
      </trkpt>
      <trkpt lat="43.98017" lon="6.67852">
        <ele>1042.7</ele>
        <time>2012-10-20T14:45:26Z</time>
      </trkpt>
      <trkpt lat="43.98005" lon="6.67845">
        <ele>1040.6</ele>
        <time>2012-10-20T14:45:32Z</time>
      </trkpt>
      <trkpt lat="43.98003" lon="6.67844">
        <ele>1040</ele>
        <time>2012-10-20T14:45:33Z</time>
      </trkpt>
      <trkpt lat="43.97998" lon="6.67837">
        <ele>1040.3</ele>
        <time>2012-10-20T14:45:37Z</time>
      </trkpt>
      <trkpt lat="43.97994" lon="6.6783">
        <ele>1038.2</ele>
        <time>2012-10-20T14:45:43Z</time>
      </trkpt>
      <trkpt lat="43.97985" lon="6.67822">
        <ele>1038.1</ele>
        <time>2012-10-20T14:45:49Z</time>
      </trkpt>
      <trkpt lat="43.97967" lon="6.67799">
        <ele>1033.4</ele>
        <time>2012-10-20T14:45:58Z</time>
      </trkpt>
      <trkpt lat="43.97961" lon="6.67787">
        <ele>1025.2</ele>
        <time>2012-10-20T14:46:03Z</time>
      </trkpt>
      <trkpt lat="43.97954" lon="6.67774">
        <ele>1017.8</ele>
        <time>2012-10-20T14:46:09Z</time>
      </trkpt>
      <trkpt lat="43.9795" lon="6.67771">
        <ele>1016.9</ele>
        <time>2012-10-20T14:46:13Z</time>
      </trkpt>
      <trkpt lat="43.97939" lon="6.67756">
        <ele>1014.3</ele>
        <time>2012-10-20T14:46:24Z</time>
      </trkpt>
      <trkpt lat="43.97936" lon="6.67751">
        <ele>1016.4</ele>
        <time>2012-10-20T14:46:29Z</time>
      </trkpt>
      <trkpt lat="43.97932" lon="6.67745">
        <ele>1017.7</ele>
        <time>2012-10-20T14:46:34Z</time>
      </trkpt>
      <trkpt lat="43.97935" lon="6.67743">
        <ele>1023</ele>
        <time>2012-10-20T14:47:06Z</time>
      </trkpt>
      <trkpt lat="43.97927" lon="6.67732">
        <ele>1022.1</ele>
        <time>2012-10-20T14:47:12Z</time>
      </trkpt>
      <trkpt lat="43.97924" lon="6.6773">
        <ele>1021</ele>
        <time>2012-10-20T14:47:14Z</time>
      </trkpt>
      <trkpt lat="43.97915" lon="6.67708">
        <ele>1020.7</ele>
        <time>2012-10-20T14:47:20Z</time>
      </trkpt>
      <trkpt lat="43.97907" lon="6.67679">
        <ele>1017.3</ele>
        <time>2012-10-20T14:47:26Z</time>
      </trkpt>
      <trkpt lat="43.97907" lon="6.6766">
        <ele>1011.2</ele>
        <time>2012-10-20T14:47:30Z</time>
      </trkpt>
      <trkpt lat="43.97911" lon="6.67638">
        <ele>1005.4</ele>
        <time>2012-10-20T14:47:35Z</time>
      </trkpt>
      <trkpt lat="43.97909" lon="6.67618">
        <ele>1001.4</ele>
        <time>2012-10-20T14:47:40Z</time>
      </trkpt>
      <trkpt lat="43.97911" lon="6.67601">
        <ele>998</ele>
        <time>2012-10-20T14:47:44Z</time>
      </trkpt>
      <trkpt lat="43.9791" lon="6.67598">
        <ele>996.1</ele>
        <time>2012-10-20T14:47:45Z</time>
      </trkpt>
      <trkpt lat="43.97905" lon="6.67597">
        <ele>992</ele>
        <time>2012-10-20T14:47:50Z</time>
      </trkpt>
      <trkpt lat="43.97904" lon="6.676">
        <ele>990.8</ele>
        <time>2012-10-20T14:47:52Z</time>
      </trkpt>
      <trkpt lat="43.97902" lon="6.67602">
        <ele>990.5</ele>
        <time>2012-10-20T14:47:58Z</time>
      </trkpt>
      <trkpt lat="43.97899" lon="6.67604">
        <ele>990.2</ele>
        <time>2012-10-20T14:48:03Z</time>
      </trkpt>
      <trkpt lat="43.97898" lon="6.67603">
        <ele>990.5</ele>
        <time>2012-10-20T14:48:06Z</time>
      </trkpt>
      <trkpt lat="43.97894" lon="6.67602">
        <ele>993</ele>
        <time>2012-10-20T14:48:12Z</time>
      </trkpt>
      <trkpt lat="43.97894" lon="6.67599">
        <ele>991.9</ele>
        <time>2012-10-20T14:48:14Z</time>
      </trkpt>
      <trkpt lat="43.97891" lon="6.67596">
        <ele>992.5</ele>
        <time>2012-10-20T14:48:21Z</time>
      </trkpt>
      <trkpt lat="43.97886" lon="6.67587">
        <ele>1007.3</ele>
        <time>2012-10-20T14:48:40Z</time>
      </trkpt>
      <trkpt lat="43.97881" lon="6.67599">
        <ele>1008.3</ele>
        <time>2012-10-20T14:48:46Z</time>
      </trkpt>
      <trkpt lat="43.9788" lon="6.67606">
        <ele>1002.7</ele>
        <time>2012-10-20T14:48:50Z</time>
      </trkpt>
      <trkpt lat="43.97883" lon="6.67614">
        <ele>996.6</ele>
        <time>2012-10-20T14:48:56Z</time>
      </trkpt>
      <trkpt lat="43.97878" lon="6.6761">
        <ele>993</ele>
        <time>2012-10-20T14:49:01Z</time>
      </trkpt>
      <trkpt lat="43.9787" lon="6.67601">
        <ele>992.7</ele>
        <time>2012-10-20T14:49:11Z</time>
      </trkpt>
      <trkpt lat="43.97867" lon="6.67597">
        <ele>991.9</ele>
        <time>2012-10-20T14:49:18Z</time>
      </trkpt>
      <trkpt lat="43.97867" lon="6.67603">
        <ele>967.4</ele>
        <time>2012-10-20T14:50:04Z</time>
      </trkpt>
      <trkpt lat="43.97864" lon="6.67593">
        <ele>974.7</ele>
        <time>2012-10-20T14:50:43Z</time>
      </trkpt>
      <trkpt lat="43.97855" lon="6.67579">
        <ele>972.3</ele>
        <time>2012-10-20T14:50:50Z</time>
      </trkpt>
      <trkpt lat="43.97846" lon="6.67574">
        <ele>972.1</ele>
        <time>2012-10-20T14:50:55Z</time>
      </trkpt>
      <trkpt lat="43.97839" lon="6.67569">
        <ele>972.3</ele>
        <time>2012-10-20T14:50:59Z</time>
      </trkpt>
      <trkpt lat="43.97837" lon="6.67563">
        <ele>971.3</ele>
        <time>2012-10-20T14:51:05Z</time>
      </trkpt>
      <trkpt lat="43.97843" lon="6.67563">
        <ele>965.9</ele>
        <time>2012-10-20T14:51:12Z</time>
      </trkpt>
      <trkpt lat="43.97845" lon="6.67561">
        <ele>960.6</ele>
        <time>2012-10-20T14:51:18Z</time>
      </trkpt>
      <trkpt lat="43.97846" lon="6.67559">
        <ele>961.7</ele>
        <time>2012-10-20T14:51:21Z</time>
      </trkpt>
      <trkpt lat="43.97839" lon="6.67558">
        <ele>961</ele>
        <time>2012-10-20T14:51:26Z</time>
      </trkpt>
      <trkpt lat="43.97835" lon="6.67556">
        <ele>959.9</ele>
        <time>2012-10-20T14:51:28Z</time>
      </trkpt>
      <trkpt lat="43.97832" lon="6.67548">
        <ele>962.7</ele>
        <time>2012-10-20T14:51:32Z</time>
      </trkpt>
      <trkpt lat="43.97835" lon="6.67544">
        <ele>966.6</ele>
        <time>2012-10-20T14:51:38Z</time>
      </trkpt>
      <trkpt lat="43.97836" lon="6.67544">
        <ele>967.1</ele>
        <time>2012-10-20T14:51:40Z</time>
      </trkpt>
      <trkpt lat="43.97838" lon="6.67542">
        <ele>966.1</ele>
        <time>2012-10-20T14:51:46Z</time>
      </trkpt>
      <trkpt lat="43.97821" lon="6.6753">
        <ele>967.4</ele>
        <time>2012-10-20T14:51:59Z</time>
      </trkpt>
      <trkpt lat="43.97818" lon="6.6753">
        <ele>963.7</ele>
        <time>2012-10-20T14:52:02Z</time>
      </trkpt>
      <trkpt lat="43.97812" lon="6.67526">
        <ele>961.8</ele>
        <time>2012-10-20T14:52:07Z</time>
      </trkpt>
      <trkpt lat="43.97804" lon="6.67519">
        <ele>965.6</ele>
        <time>2012-10-20T14:52:12Z</time>
      </trkpt>
      <trkpt lat="43.97807" lon="6.67519">
        <ele>961.5</ele>
        <time>2012-10-20T14:52:16Z</time>
      </trkpt>
      <trkpt lat="43.9781" lon="6.67518">
        <ele>958.2</ele>
        <time>2012-10-20T14:52:19Z</time>
      </trkpt>
      <trkpt lat="43.97813" lon="6.67513">
        <ele>954.4</ele>
        <time>2012-10-20T14:52:24Z</time>
      </trkpt>
      <trkpt lat="43.9781" lon="6.67512">
        <ele>950.5</ele>
        <time>2012-10-20T14:52:30Z</time>
      </trkpt>
      <trkpt lat="43.97804" lon="6.67506">
        <ele>949.8</ele>
        <time>2012-10-20T14:52:35Z</time>
      </trkpt>
      <trkpt lat="43.97793" lon="6.67497">
        <ele>947.5</ele>
        <time>2012-10-20T14:52:47Z</time>
      </trkpt>
      <trkpt lat="43.97792" lon="6.67497">
        <ele>941</ele>
        <time>2012-10-20T14:52:54Z</time>
      </trkpt>
      <trkpt lat="43.97788" lon="6.67495">
        <ele>938.9</ele>
        <time>2012-10-20T14:52:59Z</time>
      </trkpt>
      <trkpt lat="43.97787" lon="6.67493">
        <ele>939</ele>
        <time>2012-10-20T14:53:01Z</time>
      </trkpt>
      <trkpt lat="43.97783" lon="6.67492">
        <ele>937.9</ele>
        <time>2012-10-20T14:53:07Z</time>
      </trkpt>
      <trkpt lat="43.9777" lon="6.67479">
        <ele>940.1</ele>
        <time>2012-10-20T14:53:17Z</time>
      </trkpt>
      <trkpt lat="43.97766" lon="6.67464">
        <ele>942.7</ele>
        <time>2012-10-20T14:53:23Z</time>
      </trkpt>
      <trkpt lat="43.9776" lon="6.67452">
        <ele>940.3</ele>
        <time>2012-10-20T14:53:29Z</time>
      </trkpt>
      <trkpt lat="43.9776" lon="6.6745">
        <ele>932.7</ele>
        <time>2012-10-20T14:53:36Z</time>
      </trkpt>
      <trkpt lat="43.97759" lon="6.67448">
        <ele>931.8</ele>
        <time>2012-10-20T14:53:40Z</time>
      </trkpt>
      <trkpt lat="43.97753" lon="6.67442">
        <ele>927.8</ele>
        <time>2012-10-20T14:53:44Z</time>
      </trkpt>
      <trkpt lat="43.97753" lon="6.67438">
        <ele>924.6</ele>
        <time>2012-10-20T14:53:48Z</time>
      </trkpt>
      <trkpt lat="43.97762" lon="6.67435">
        <ele>922.2</ele>
        <time>2012-10-20T14:53:55Z</time>
      </trkpt>
      <trkpt lat="43.97759" lon="6.67424">
        <ele>920.2</ele>
        <time>2012-10-20T14:54:02Z</time>
      </trkpt>
      <trkpt lat="43.9776" lon="6.67423">
        <ele>919.4</ele>
        <time>2012-10-20T14:54:04Z</time>
      </trkpt>
      <trkpt lat="43.97767" lon="6.6742">
        <ele>917.4</ele>
        <time>2012-10-20T14:54:10Z</time>
      </trkpt>
      <trkpt lat="43.97763" lon="6.67415">
        <ele>916.9</ele>
        <time>2012-10-20T14:54:13Z</time>
      </trkpt>
      <trkpt lat="43.97759" lon="6.6741">
        <ele>915.9</ele>
        <time>2012-10-20T14:54:15Z</time>
      </trkpt>
      <trkpt lat="43.97748" lon="6.67404">
        <ele>914.1</ele>
        <time>2012-10-20T14:54:21Z</time>
      </trkpt>
      <trkpt lat="43.97744" lon="6.67398">
        <ele>910.6</ele>
        <time>2012-10-20T14:54:24Z</time>
      </trkpt>
      <trkpt lat="43.97738" lon="6.67392">
        <ele>908.8</ele>
        <time>2012-10-20T14:54:28Z</time>
      </trkpt>
      <trkpt lat="43.97736" lon="6.6738">
        <ele>912</ele>
        <time>2012-10-20T14:54:33Z</time>
      </trkpt>
      <trkpt lat="43.97732" lon="6.67375">
        <ele>911.3</ele>
        <time>2012-10-20T14:54:38Z</time>
      </trkpt>
      <trkpt lat="43.97728" lon="6.67368">
        <ele>908.9</ele>
        <time>2012-10-20T14:54:43Z</time>
      </trkpt>
      <trkpt lat="43.97725" lon="6.67364">
        <ele>908</ele>
        <time>2012-10-20T14:54:49Z</time>
      </trkpt>
      <trkpt lat="43.97722" lon="6.67362">
        <ele>899.6</ele>
        <time>2012-10-20T14:54:58Z</time>
      </trkpt>
      <trkpt lat="43.97723" lon="6.67358">
        <ele>896.2</ele>
        <time>2012-10-20T14:55:03Z</time>
      </trkpt>
      <trkpt lat="43.97723" lon="6.67357">
        <ele>895.5</ele>
        <time>2012-10-20T14:55:05Z</time>
      </trkpt>
      <trkpt lat="43.97723" lon="6.67351">
        <ele>896.1</ele>
        <time>2012-10-20T14:55:10Z</time>
      </trkpt>
      <trkpt lat="43.97719" lon="6.67348">
        <ele>894.5</ele>
        <time>2012-10-20T14:55:13Z</time>
      </trkpt>
      <trkpt lat="43.97708" lon="6.67341">
        <ele>892.7</ele>
        <time>2012-10-20T14:55:19Z</time>
      </trkpt>
      <trkpt lat="43.97705" lon="6.67338">
        <ele>890.2</ele>
        <time>2012-10-20T14:55:21Z</time>
      </trkpt>
      <trkpt lat="43.977" lon="6.67335">
        <ele>883.5</ele>
        <time>2012-10-20T14:55:27Z</time>
      </trkpt>
      <trkpt lat="43.97696" lon="6.67331">
        <ele>881.2</ele>
        <time>2012-10-20T14:55:30Z</time>
      </trkpt>
      <trkpt lat="43.97687" lon="6.6733">
        <ele>878.8</ele>
        <time>2012-10-20T14:55:36Z</time>
      </trkpt>
      <trkpt lat="43.97676" lon="6.67333">
        <ele>875.7</ele>
        <time>2012-10-20T14:55:42Z</time>
      </trkpt>
      <trkpt lat="43.97667" lon="6.67332">
        <ele>873.8</ele>
        <time>2012-10-20T14:55:46Z</time>
      </trkpt>
      <trkpt lat="43.97663" lon="6.6733">
        <ele>872.4</ele>
        <time>2012-10-20T14:55:51Z</time>
      </trkpt>
      <trkpt lat="43.97663" lon="6.67329">
        <ele>871.5</ele>
        <time>2012-10-20T14:55:52Z</time>
      </trkpt>
      <trkpt lat="43.97666" lon="6.67323">
        <ele>869.3</ele>
        <time>2012-10-20T14:55:56Z</time>
      </trkpt>
      <trkpt lat="43.97661" lon="6.67326">
        <ele>865.6</ele>
        <time>2012-10-20T14:56:00Z</time>
      </trkpt>
      <trkpt lat="43.97656" lon="6.6732">
        <ele>862.2</ele>
        <time>2012-10-20T14:56:04Z</time>
      </trkpt>
      <trkpt lat="43.9766" lon="6.67315">
        <ele>861.3</ele>
        <time>2012-10-20T14:56:07Z</time>
      </trkpt>
      <trkpt lat="43.97662" lon="6.67307">
        <ele>864.2</ele>
        <time>2012-10-20T14:56:11Z</time>
      </trkpt>
      <trkpt lat="43.97657" lon="6.67305">
        <ele>864.3</ele>
        <time>2012-10-20T14:56:15Z</time>
      </trkpt>
      <trkpt lat="43.97667" lon="6.67292">
        <ele>864.2</ele>
        <time>2012-10-20T14:56:25Z</time>
      </trkpt>
      <trkpt lat="43.97684" lon="6.67279">
        <ele>861.1</ele>
        <time>2012-10-20T14:56:33Z</time>
      </trkpt>
      <trkpt lat="43.97685" lon="6.67275">
        <ele>857.6</ele>
        <time>2012-10-20T14:56:37Z</time>
      </trkpt>
      <trkpt lat="43.9769" lon="6.67268">
        <ele>855</ele>
        <time>2012-10-20T14:56:41Z</time>
      </trkpt>
      <trkpt lat="43.97694" lon="6.67262">
        <ele>853.9</ele>
        <time>2012-10-20T14:56:44Z</time>
      </trkpt>
      <trkpt lat="43.97698" lon="6.67262">
        <ele>852.1</ele>
        <time>2012-10-20T14:56:46Z</time>
      </trkpt>
      <trkpt lat="43.97699" lon="6.6726">
        <ele>851.8</ele>
        <time>2012-10-20T14:56:51Z</time>
      </trkpt>
      <trkpt lat="43.97698" lon="6.6726">
        <ele>854</ele>
        <time>2012-10-20T14:56:55Z</time>
      </trkpt>
      <trkpt lat="43.97688" lon="6.67253">
        <ele>857.8</ele>
        <time>2012-10-20T14:57:00Z</time>
      </trkpt>
      <trkpt lat="43.97678" lon="6.67256">
        <ele>856.4</ele>
        <time>2012-10-20T14:57:06Z</time>
      </trkpt>
      <trkpt lat="43.97681" lon="6.67255">
        <ele>856.4</ele>
        <time>2012-10-20T14:57:36Z</time>
      </trkpt>
      <trkpt lat="43.97677" lon="6.6725">
        <ele>881.2</ele>
        <time>2012-10-20T14:58:01Z</time>
      </trkpt>
      <trkpt lat="43.97677" lon="6.67257">
        <ele>876.1</ele>
        <time>2012-10-20T14:58:05Z</time>
      </trkpt>
      <trkpt lat="43.97663" lon="6.67261">
        <ele>864.4</ele>
        <time>2012-10-20T14:58:11Z</time>
      </trkpt>
      <trkpt lat="43.97656" lon="6.67262">
        <ele>857.2</ele>
        <time>2012-10-20T14:58:14Z</time>
      </trkpt>
      <trkpt lat="43.97644" lon="6.67255">
        <ele>846.2</ele>
        <time>2012-10-20T14:58:20Z</time>
      </trkpt>
      <trkpt lat="43.97642" lon="6.67254">
        <ele>844.5</ele>
        <time>2012-10-20T14:58:21Z</time>
      </trkpt>
      <trkpt lat="43.97597" lon="6.67245">
        <ele>821.7</ele>
        <time>2012-10-20T14:58:40Z</time>
      </trkpt>
      <trkpt lat="43.97561" lon="6.67244">
        <ele>810.6</ele>
        <time>2012-10-20T14:58:52Z</time>
      </trkpt>
      <trkpt lat="43.97554" lon="6.67245">
        <ele>807.8</ele>
        <time>2012-10-20T14:58:55Z</time>
      </trkpt>
      <trkpt lat="43.97537" lon="6.67239">
        <ele>802.1</ele>
        <time>2012-10-20T14:59:02Z</time>
      </trkpt>
      <trkpt lat="43.97523" lon="6.6722">
        <ele>801.9</ele>
        <time>2012-10-20T14:59:07Z</time>
      </trkpt>
      <trkpt lat="43.97513" lon="6.67197">
        <ele>801</ele>
        <time>2012-10-20T14:59:12Z</time>
      </trkpt>
      <trkpt lat="43.97501" lon="6.67185">
        <ele>805.9</ele>
        <time>2012-10-20T14:59:16Z</time>
      </trkpt>
      <trkpt lat="43.97496" lon="6.67181">
        <ele>804.9</ele>
        <time>2012-10-20T14:59:18Z</time>
      </trkpt>
      <trkpt lat="43.97477" lon="6.67183">
        <ele>801.5</ele>
        <time>2012-10-20T14:59:24Z</time>
      </trkpt>
      <trkpt lat="43.9746" lon="6.67181">
        <ele>795.8</ele>
        <time>2012-10-20T14:59:30Z</time>
      </trkpt>
      <trkpt lat="43.97447" lon="6.67174">
        <ele>794.7</ele>
        <time>2012-10-20T14:59:35Z</time>
      </trkpt>
      <trkpt lat="43.97444" lon="6.67171">
        <ele>792.9</ele>
        <time>2012-10-20T14:59:37Z</time>
      </trkpt>
      <trkpt lat="43.97415" lon="6.67158">
        <ele>787.8</ele>
        <time>2012-10-20T14:59:49Z</time>
      </trkpt>
      <trkpt lat="43.97404" lon="6.67138">
        <ele>785.9</ele>
        <time>2012-10-20T14:59:55Z</time>
      </trkpt>
      <trkpt lat="43.97389" lon="6.67121">
        <ele>783.9</ele>
        <time>2012-10-20T15:00:01Z</time>
      </trkpt>
      <trkpt lat="43.97376" lon="6.6711">
        <ele>782.8</ele>
        <time>2012-10-20T15:00:07Z</time>
      </trkpt>
      <trkpt lat="43.97351" lon="6.67101">
        <ele>783</ele>
        <time>2012-10-20T15:00:17Z</time>
      </trkpt>
      <trkpt lat="43.97305" lon="6.67078">
        <ele>768.7</ele>
        <time>2012-10-20T15:00:32Z</time>
      </trkpt>
      <trkpt lat="43.97308" lon="6.67069">
        <ele>766.1</ele>
        <time>2012-10-20T15:00:36Z</time>
      </trkpt>
      <trkpt lat="43.97326" lon="6.67057">
        <ele>761.5</ele>
        <time>2012-10-20T15:00:41Z</time>
      </trkpt>
      <trkpt lat="43.9733" lon="6.67047">
        <ele>760.8</ele>
        <time>2012-10-20T15:00:43Z</time>
      </trkpt>
      <trkpt lat="43.97324" lon="6.67032">
        <ele>760.8</ele>
        <time>2012-10-20T15:00:46Z</time>
      </trkpt>
      <trkpt lat="43.9732" lon="6.67027">
        <ele>761.5</ele>
        <time>2012-10-20T15:00:48Z</time>
      </trkpt>
      <trkpt lat="43.97309" lon="6.67024">
        <ele>761.1</ele>
        <time>2012-10-20T15:00:52Z</time>
      </trkpt>
      <trkpt lat="43.97296" lon="6.67015">
        <ele>762</ele>
        <time>2012-10-20T15:00:58Z</time>
      </trkpt>
      <trkpt lat="43.97279" lon="6.67006">
        <ele>761.2</ele>
        <time>2012-10-20T15:01:04Z</time>
      </trkpt>
      <trkpt lat="43.97256" lon="6.67002">
        <ele>759.2</ele>
        <time>2012-10-20T15:01:11Z</time>
      </trkpt>
      <trkpt lat="43.97249" lon="6.67003">
        <ele>757.3</ele>
        <time>2012-10-20T15:01:14Z</time>
      </trkpt>
      <trkpt lat="43.97228" lon="6.66997">
        <ele>756.7</ele>
        <time>2012-10-20T15:01:21Z</time>
      </trkpt>
      <trkpt lat="43.97215" lon="6.66999">
        <ele>756</ele>
        <time>2012-10-20T15:01:25Z</time>
      </trkpt>
      <trkpt lat="43.972" lon="6.66997">
        <ele>755.1</ele>
        <time>2012-10-20T15:01:31Z</time>
      </trkpt>
      <trkpt lat="43.97186" lon="6.66992">
        <ele>756.4</ele>
        <time>2012-10-20T15:01:37Z</time>
      </trkpt>
      <trkpt lat="43.97171" lon="6.6699">
        <ele>754.6</ele>
        <time>2012-10-20T15:01:43Z</time>
      </trkpt>
      <trkpt lat="43.97146" lon="6.66982">
        <ele>748.4</ele>
        <time>2012-10-20T15:01:53Z</time>
      </trkpt>
      <trkpt lat="43.97132" lon="6.66975">
        <ele>745.9</ele>
        <time>2012-10-20T15:01:59Z</time>
      </trkpt>
      <trkpt lat="43.97119" lon="6.6697">
        <ele>743.8</ele>
        <time>2012-10-20T15:02:03Z</time>
      </trkpt>
      <trkpt lat="43.97098" lon="6.66938">
        <ele>741.7</ele>
        <time>2012-10-20T15:02:12Z</time>
      </trkpt>
      <trkpt lat="43.97058" lon="6.66892">
        <ele>737.3</ele>
        <time>2012-10-20T15:02:26Z</time>
      </trkpt>
      <trkpt lat="43.97041" lon="6.66882">
        <ele>734.6</ele>
        <time>2012-10-20T15:02:32Z</time>
      </trkpt>
      <trkpt lat="43.97027" lon="6.66883">
        <ele>733.6</ele>
        <time>2012-10-20T15:02:36Z</time>
      </trkpt>
      <trkpt lat="43.97023" lon="6.66884">
        <ele>733.2</ele>
        <time>2012-10-20T15:02:37Z</time>
      </trkpt>
      <trkpt lat="43.97007" lon="6.66888">
        <ele>731.9</ele>
        <time>2012-10-20T15:02:41Z</time>
      </trkpt>
      <trkpt lat="43.96992" lon="6.66875">
        <ele>732.4</ele>
        <time>2012-10-20T15:02:45Z</time>
      </trkpt>
      <trkpt lat="43.9697" lon="6.6685">
        <ele>732.5</ele>
        <time>2012-10-20T15:02:51Z</time>
      </trkpt>
      <trkpt lat="43.96949" lon="6.66843">
        <ele>729.7</ele>
        <time>2012-10-20T15:02:55Z</time>
      </trkpt>
      <trkpt lat="43.96912" lon="6.66837">
        <ele>724.4</ele>
        <time>2012-10-20T15:02:59Z</time>
      </trkpt>
      <trkpt lat="43.96873" lon="6.66819">
        <ele>723.3</ele>
        <time>2012-10-20T15:03:04Z</time>
      </trkpt>
      <trkpt lat="43.96851" lon="6.66799">
        <ele>723.8</ele>
        <time>2012-10-20T15:03:08Z</time>
      </trkpt>
      <trkpt lat="43.9683" lon="6.66791">
        <ele>719.4</ele>
        <time>2012-10-20T15:03:12Z</time>
      </trkpt>
      <trkpt lat="43.96818" lon="6.66788">
        <ele>715.7</ele>
        <time>2012-10-20T15:03:15Z</time>
      </trkpt>
      <trkpt lat="43.96787" lon="6.66776">
        <ele>718.6</ele>
        <time>2012-10-20T15:03:29Z</time>
      </trkpt>
      <trkpt lat="43.96782" lon="6.66773">
        <ele>720.9</ele>
        <time>2012-10-20T15:03:33Z</time>
      </trkpt>
      <trkpt lat="43.96781" lon="6.6677">
        <ele>720.5</ele>
        <time>2012-10-20T15:03:34Z</time>
      </trkpt>
      <trkpt lat="43.96771" lon="6.66747">
        <ele>721.5</ele>
        <time>2012-10-20T15:03:41Z</time>
      </trkpt>
      <trkpt lat="43.96739" lon="6.66708">
        <ele>719.1</ele>
        <time>2012-10-20T15:03:58Z</time>
      </trkpt>
      <trkpt lat="43.96736" lon="6.66704">
        <ele>718.9</ele>
        <time>2012-10-20T15:03:59Z</time>
      </trkpt>
      <trkpt lat="43.96739" lon="6.66686">
        <ele>717.6</ele>
        <time>2012-10-20T15:04:03Z</time>
      </trkpt>
      <trkpt lat="43.9675" lon="6.66654">
        <ele>713.4</ele>
        <time>2012-10-20T15:04:09Z</time>
      </trkpt>
      <trkpt lat="43.9678" lon="6.66612">
        <ele>712.5</ele>
        <time>2012-10-20T15:04:22Z</time>
      </trkpt>
      <trkpt lat="43.96787" lon="6.66605">
        <ele>712.1</ele>
        <time>2012-10-20T15:04:24Z</time>
      </trkpt>
      <trkpt lat="43.968" lon="6.66584">
        <ele>710</ele>
        <time>2012-10-20T15:04:29Z</time>
      </trkpt>
      <trkpt lat="43.96821" lon="6.66541">
        <ele>710</ele>
        <time>2012-10-20T15:04:40Z</time>
      </trkpt>
      <trkpt lat="43.96815" lon="6.66533">
        <ele>708.1</ele>
        <time>2012-10-20T15:04:45Z</time>
      </trkpt>
      <trkpt lat="43.96813" lon="6.66535">
        <ele>708</ele>
        <time>2012-10-20T15:04:46Z</time>
      </trkpt>
      <trkpt lat="43.96635" lon="6.66716">
        <ele>701.7</ele>
        <time>2012-10-20T15:05:36Z</time>
      </trkpt>
      <trkpt lat="43.96621" lon="6.66715">
        <ele>703.7</ele>
        <time>2012-10-20T15:05:40Z</time>
      </trkpt>
      <trkpt lat="43.96599" lon="6.66717">
        <ele>702.7</ele>
        <time>2012-10-20T15:05:48Z</time>
      </trkpt>
      <trkpt lat="43.96596" lon="6.66714">
        <ele>699.9</ele>
        <time>2012-10-20T15:06:43Z</time>
      </trkpt>
      <trkpt lat="43.96596" lon="6.66715">
        <ele>700.4</ele>
        <time>2012-10-20T15:06:44Z</time>
      </trkpt>
    </trkseg>
  </trk>
</gpx>